<?xml version="1.0" encoding="UTF-8" standalone="no" ?>
<gpx xmlns="http://www.topografix.com/GPX/1/1" xmlns:xsi="http://www.w3.org/2001/XMLSchema-instance" xsi:schemaLocation="http://www.topografix.com/GPX/1/1 http://www.topografix.com/GPX/1/1/gpx.xsd" version="1.1" creator="VisuGPX - https://www.visugpx.com">
  <metadata>
    <name>22GravelIC 128k</name>
    <desc><![CDATA[La trace de la gravelic 128 kms 2023]]></desc>
  </metadata>
  <trk>
    <name><![CDATA[Gravel'ic128]]></name>
    <trkseg>
      <trkpt lat="48.56372" lon="-2.81562">
        <ele>106.81946</ele>
        <time>2023-03-24T11:35:56.216Z</time>
      </trkpt>
      <trkpt lat="48.56375" lon="-2.81546">
        <ele>106.81946</ele>
        <time>2023-03-24T11:35:58.468Z</time>
      </trkpt>
      <trkpt lat="48.56376" lon="-2.81513">
        <ele>106.81946</ele>
        <time>2023-03-24T11:36:03.110Z</time>
      </trkpt>
      <trkpt lat="48.56372" lon="-2.81493">
        <ele>106.81946</ele>
        <time>2023-03-24T11:36:06.064Z</time>
      </trkpt>
      <trkpt lat="48.56368" lon="-2.81481">
        <ele>106.81946</ele>
        <time>2023-03-24T11:36:08.141Z</time>
      </trkpt>
      <trkpt lat="48.56357" lon="-2.81456">
        <ele>106.81946</ele>
        <time>2023-03-24T11:36:12.941Z</time>
      </trkpt>
      <trkpt lat="48.56357" lon="-2.81454">
        <ele>106.81946</ele>
        <time>2023-03-24T11:36:13.414Z</time>
      </trkpt>
      <trkpt lat="48.56347" lon="-2.81438">
        <ele>106.850421</ele>
        <time>2023-03-24T11:36:17.322Z</time>
      </trkpt>
      <trkpt lat="48.5632" lon="-2.81407">
        <ele>107.662604</ele>
        <time>2023-03-24T11:36:26.461Z</time>
      </trkpt>
      <trkpt lat="48.56245" lon="-2.81337">
        <ele>109.768249</ele>
        <time>2023-03-24T11:36:54.603Z</time>
      </trkpt>
      <trkpt lat="48.56222" lon="-2.81314">
        <ele>110.43273</ele>
        <time>2023-03-24T11:37:04.472Z</time>
      </trkpt>
      <trkpt lat="48.56213" lon="-2.813">
        <ele>110.741877</ele>
        <time>2023-03-24T11:37:08.939Z</time>
      </trkpt>
      <trkpt lat="48.562" lon="-2.81273">
        <ele>111.23018</ele>
        <time>2023-03-24T11:37:16.257Z</time>
      </trkpt>
      <trkpt lat="48.56189" lon="-2.81238">
        <ele>111.688356</ele>
        <time>2023-03-24T11:37:24.822Z</time>
      </trkpt>
      <trkpt lat="48.56184" lon="-2.81225">
        <ele>111.870231</ele>
        <time>2023-03-24T11:37:28.199Z</time>
      </trkpt>
      <trkpt lat="48.56182" lon="-2.8122">
        <ele>111.938681</ele>
        <time>2023-03-24T11:37:29.446Z</time>
      </trkpt>
      <trkpt lat="48.5617" lon="-2.81201">
        <ele>112.242541</ele>
        <time>2023-03-24T11:37:34.916Z</time>
      </trkpt>
      <trkpt lat="48.56152" lon="-2.81184">
        <ele>112.617319</ele>
        <time>2023-03-24T11:37:41.249Z</time>
      </trkpt>
      <trkpt lat="48.56146" lon="-2.81193">
        <ele>112.765383</ele>
        <time>2023-03-24T11:37:43.844Z</time>
      </trkpt>
      <trkpt lat="48.56142" lon="-2.81194">
        <ele>112.839594</ele>
        <time>2023-03-24T11:37:45.040Z</time>
      </trkpt>
      <trkpt lat="48.56134" lon="-2.8119">
        <ele>112.987798</ele>
        <time>2023-03-24T11:37:47.247Z</time>
      </trkpt>
      <trkpt lat="48.56129" lon="-2.8118">
        <ele>113.134447</ele>
        <time>2023-03-24T11:37:49.670Z</time>
      </trkpt>
      <trkpt lat="48.56129" lon="-2.81169">
        <ele>113.26703</ele>
        <time>2023-03-24T11:37:51.710Z</time>
      </trkpt>
      <trkpt lat="48.56134" lon="-2.8116">
        <ele>113.399419</ele>
        <time>2023-03-24T11:37:53.666Z</time>
      </trkpt>
      <trkpt lat="48.5614" lon="-2.81156">
        <ele>113.521266</ele>
        <time>2023-03-24T11:37:55.136Z</time>
      </trkpt>
      <trkpt lat="48.56147" lon="-2.81159">
        <ele>113.644966</ele>
        <time>2023-03-24T11:37:56.489Z</time>
      </trkpt>
      <trkpt lat="48.56155" lon="-2.81132">
        <ele>113.982856</ele>
        <time>2023-03-24T11:38:01.086Z</time>
      </trkpt>
      <trkpt lat="48.56162" lon="-2.8111">
        <ele>114.269644</ele>
        <time>2023-03-24T11:38:04.395Z</time>
      </trkpt>
      <trkpt lat="48.56153" lon="-2.81097">
        <ele>114.319576</ele>
        <time>2023-03-24T11:38:07.145Z</time>
      </trkpt>
      <trkpt lat="48.56148" lon="-2.8108">
        <ele>114.320952</ele>
        <time>2023-03-24T11:38:09.968Z</time>
      </trkpt>
      <trkpt lat="48.5615" lon="-2.8106">
        <ele>114.322418</ele>
        <time>2023-03-24T11:38:12.296Z</time>
      </trkpt>
      <trkpt lat="48.56157" lon="-2.81043">
        <ele>114.323882</ele>
        <time>2023-03-24T11:38:14.971Z</time>
      </trkpt>
      <trkpt lat="48.56161" lon="-2.81039">
        <ele>114.324436</ele>
        <time>2023-03-24T11:38:16.046Z</time>
      </trkpt>
      <trkpt lat="48.56175" lon="-2.80989">
        <ele>114.328476</ele>
        <time>2023-03-24T11:38:22.741Z</time>
      </trkpt>
      <trkpt lat="48.56186" lon="-2.80956">
        <ele>114.331177</ele>
        <time>2023-03-24T11:38:27.042Z</time>
      </trkpt>
      <trkpt lat="48.56211" lon="-2.80918">
        <ele>114.335146</ele>
        <time>2023-03-24T11:38:33.805Z</time>
      </trkpt>
      <trkpt lat="48.56219" lon="-2.80893">
        <ele>114.337216</ele>
        <time>2023-03-24T11:38:37.698Z</time>
      </trkpt>
      <trkpt lat="48.56224" lon="-2.80869">
        <ele>114.325337</ele>
        <time>2023-03-24T11:38:40.602Z</time>
      </trkpt>
      <trkpt lat="48.56246" lon="-2.80728">
        <ele>113.956346</ele>
        <time>2023-03-24T11:38:58.753Z</time>
      </trkpt>
      <trkpt lat="48.56257" lon="-2.80665">
        <ele>113.790914</ele>
        <time>2023-03-24T11:39:06.695Z</time>
      </trkpt>
      <trkpt lat="48.5628" lon="-2.80525">
        <ele>112.78678</ele>
        <time>2023-03-24T11:39:23.694Z</time>
      </trkpt>
      <trkpt lat="48.56296" lon="-2.80456">
        <ele>112.079697</ele>
        <time>2023-03-24T11:39:31.888Z</time>
      </trkpt>
      <trkpt lat="48.56311" lon="-2.80415">
        <ele>111.619956</ele>
        <time>2023-03-24T11:39:37.053Z</time>
      </trkpt>
      <trkpt lat="48.56327" lon="-2.80385">
        <ele>111.24558</ele>
        <time>2023-03-24T11:39:41.282Z</time>
      </trkpt>
      <trkpt lat="48.56351" lon="-2.80349">
        <ele>110.750429</ele>
        <time>2023-03-24T11:39:46.864Z</time>
      </trkpt>
      <trkpt lat="48.56404" lon="-2.80281">
        <ele>109.712864</ele>
        <time>2023-03-24T11:39:58.619Z</time>
      </trkpt>
      <trkpt lat="48.56422" lon="-2.80254">
        <ele>109.343694</ele>
        <time>2023-03-24T11:40:02.824Z</time>
      </trkpt>
      <trkpt lat="48.56443" lon="-2.80279">
        <ele>108.950799</ele>
        <time>2023-03-24T11:40:07.499Z</time>
      </trkpt>
      <trkpt lat="48.56451" lon="-2.80295">
        <ele>108.750628</ele>
        <time>2023-03-24T11:40:09.878Z</time>
      </trkpt>
      <trkpt lat="48.56475" lon="-2.80391">
        <ele>108.134277</ele>
        <time>2023-03-24T11:40:21.913Z</time>
      </trkpt>
      <trkpt lat="48.56483" lon="-2.80469">
        <ele>107.869713</ele>
        <time>2023-03-24T11:40:31.625Z</time>
      </trkpt>
      <trkpt lat="48.56486" lon="-2.80526">
        <ele>107.67878</ele>
        <time>2023-03-24T11:40:39.074Z</time>
      </trkpt>
      <trkpt lat="48.56486" lon="-2.80581">
        <ele>107.494498</ele>
        <time>2023-03-24T11:40:46.415Z</time>
      </trkpt>
      <trkpt lat="48.5648" lon="-2.80642">
        <ele>107.262256</ele>
        <time>2023-03-24T11:40:54.584Z</time>
      </trkpt>
      <trkpt lat="48.56479" lon="-2.80694">
        <ele>107.051847</ele>
        <time>2023-03-24T11:41:01.430Z</time>
      </trkpt>
      <trkpt lat="48.56488" lon="-2.80738">
        <ele>106.86971</ele>
        <time>2023-03-24T11:41:07.225Z</time>
      </trkpt>
      <trkpt lat="48.56489" lon="-2.80744">
        <ele>106.844592</ele>
        <time>2023-03-24T11:41:08.028Z</time>
      </trkpt>
      <trkpt lat="48.56505" lon="-2.80793">
        <ele>106.623647</ele>
        <time>2023-03-24T11:41:14.901Z</time>
      </trkpt>
      <trkpt lat="48.5655" lon="-2.80844">
        <ele>106.133423</ele>
        <time>2023-03-24T11:41:25.047Z</time>
      </trkpt>
      <trkpt lat="48.56636" lon="-2.80958">
        <ele>103.535267</ele>
        <time>2023-03-24T11:41:43.520Z</time>
      </trkpt>
      <trkpt lat="48.5666" lon="-2.81006">
        <ele>102.635811</ele>
        <time>2023-03-24T11:41:49.726Z</time>
      </trkpt>
      <trkpt lat="48.5667" lon="-2.81024">
        <ele>102.278879</ele>
        <time>2023-03-24T11:41:52.053Z</time>
      </trkpt>
      <trkpt lat="48.56689" lon="-2.81007">
        <ele>101.639667</ele>
        <time>2023-03-24T11:42:19.336Z</time>
      </trkpt>
      <trkpt lat="48.56699" lon="-2.81006">
        <ele>101.338811</ele>
        <time>2023-03-24T11:42:21.805Z</time>
      </trkpt>
      <trkpt lat="48.56725" lon="-2.80987">
        <ele>100.507841</ele>
        <time>2023-03-24T11:42:29.373Z</time>
      </trkpt>
      <trkpt lat="48.56752" lon="-2.80977">
        <ele>99.684648</ele>
        <time>2023-03-24T11:42:36.666Z</time>
      </trkpt>
      <trkpt lat="48.56776" lon="-2.80976">
        <ele>98.977919</ele>
        <time>2023-03-24T11:42:42.799Z</time>
      </trkpt>
      <trkpt lat="48.56811" lon="-2.80984">
        <ele>97.924764</ele>
        <time>2023-03-24T11:42:52.189Z</time>
      </trkpt>
      <trkpt lat="48.56816" lon="-2.8098">
        <ele>97.782052</ele>
        <time>2023-03-24T11:42:53.502Z</time>
      </trkpt>
      <trkpt lat="48.56849" lon="-2.80975">
        <ele>96.77707</ele>
        <time>2023-03-24T11:43:02.333Z</time>
      </trkpt>
      <trkpt lat="48.56897" lon="-2.80953">
        <ele>95.096176</ele>
        <time>2023-03-24T11:43:15.437Z</time>
      </trkpt>
      <trkpt lat="48.56922" lon="-2.80931">
        <ele>94.156725</ele>
        <time>2023-03-24T11:43:22.700Z</time>
      </trkpt>
      <trkpt lat="48.56944" lon="-2.80924">
        <ele>93.388439</ele>
        <time>2023-03-24T11:43:28.878Z</time>
      </trkpt>
      <trkpt lat="48.56997" lon="-2.80897">
        <ele>91.549734</ele>
        <time>2023-03-24T11:43:42.771Z</time>
      </trkpt>
      <trkpt lat="48.57012" lon="-2.80887">
        <ele>90.985948</ele>
        <time>2023-03-24T11:43:47.277Z</time>
      </trkpt>
      <trkpt lat="48.57019" lon="-2.80877">
        <ele>90.633627</ele>
        <time>2023-03-24T11:43:49.429Z</time>
      </trkpt>
      <trkpt lat="48.57024" lon="-2.80867">
        <ele>90.313589</ele>
        <time>2023-03-24T11:43:51.326Z</time>
      </trkpt>
      <trkpt lat="48.5706" lon="-2.80835">
        <ele>88.681901</ele>
        <time>2023-03-24T11:44:01.773Z</time>
      </trkpt>
      <trkpt lat="48.57082" lon="-2.80785">
        <ele>87.111106</ele>
        <time>2023-03-24T11:44:11.862Z</time>
      </trkpt>
      <trkpt lat="48.57096" lon="-2.80767">
        <ele>86.405359</ele>
        <time>2023-03-24T11:44:16.318Z</time>
      </trkpt>
      <trkpt lat="48.57102" lon="-2.80762">
        <ele>86.134423</ele>
        <time>2023-03-24T11:44:17.943Z</time>
      </trkpt>
      <trkpt lat="48.57129" lon="-2.80717">
        <ele>84.569903</ele>
        <time>2023-03-24T11:44:27.847Z</time>
      </trkpt>
      <trkpt lat="48.57139" lon="-2.80706">
        <ele>84.100693</ele>
        <time>2023-03-24T11:44:29.730Z</time>
      </trkpt>
      <trkpt lat="48.57142" lon="-2.80703">
        <ele>83.937272</ele>
        <time>2023-03-24T11:44:30.461Z</time>
      </trkpt>
      <trkpt lat="48.57152" lon="-2.8069">
        <ele>83.644702</ele>
        <time>2023-03-24T11:44:33.106Z</time>
      </trkpt>
      <trkpt lat="48.57167" lon="-2.80655">
        <ele>83.01683</ele>
        <time>2023-03-24T11:44:38.606Z</time>
      </trkpt>
      <trkpt lat="48.57171" lon="-2.80648">
        <ele>82.861558</ele>
        <time>2023-03-24T11:44:39.971Z</time>
      </trkpt>
      <trkpt lat="48.57176" lon="-2.80642">
        <ele>82.715492</ele>
        <time>2023-03-24T11:44:41.273Z</time>
      </trkpt>
      <trkpt lat="48.57184" lon="-2.80637">
        <ele>82.530223</ele>
        <time>2023-03-24T11:44:42.853Z</time>
      </trkpt>
      <trkpt lat="48.57209" lon="-2.80591">
        <ele>81.61672</ele>
        <time>2023-03-24T11:45:10.414Z</time>
      </trkpt>
      <trkpt lat="48.57222" lon="-2.80582">
        <ele>81.282613</ele>
        <time>2023-03-24T11:45:20.503Z</time>
      </trkpt>
      <trkpt lat="48.57226" lon="-2.80583">
        <ele>81.180558</ele>
        <time>2023-03-24T11:45:23.596Z</time>
      </trkpt>
      <trkpt lat="48.57237" lon="-2.80585">
        <ele>80.925764</ele>
        <time>2023-03-24T11:45:31.281Z</time>
      </trkpt>
      <trkpt lat="48.57244" lon="-2.80581">
        <ele>80.754705</ele>
        <time>2023-03-24T11:45:36.441Z</time>
      </trkpt>
      <trkpt lat="48.57258" lon="-2.80567">
        <ele>80.376069</ele>
        <time>2023-03-24T11:45:47.889Z</time>
      </trkpt>
      <trkpt lat="48.57262" lon="-2.80559">
        <ele>80.220669</ele>
        <time>2023-03-24T11:45:52.585Z</time>
      </trkpt>
      <trkpt lat="48.57273" lon="-2.80527">
        <ele>79.782085</ele>
        <time>2023-03-24T11:46:09.093Z</time>
      </trkpt>
      <trkpt lat="48.57279" lon="-2.80519">
        <ele>79.739397</ele>
        <time>2023-03-24T11:46:14.875Z</time>
      </trkpt>
      <trkpt lat="48.57288" lon="-2.80517">
        <ele>79.69329</ele>
        <time>2023-03-24T11:46:21.083Z</time>
      </trkpt>
      <trkpt lat="48.573" lon="-2.80524">
        <ele>79.628502</ele>
        <time>2023-03-24T11:46:29.868Z</time>
      </trkpt>
      <trkpt lat="48.57309" lon="-2.80534">
        <ele>79.569441</ele>
        <time>2023-03-24T11:46:37.880Z</time>
      </trkpt>
      <trkpt lat="48.57332" lon="-2.80519">
        <ele>79.444035</ele>
        <time>2023-03-24T11:46:43.705Z</time>
      </trkpt>
      <trkpt lat="48.57395" lon="-2.80517">
        <ele>79.117082</ele>
        <time>2023-03-24T11:46:58.745Z</time>
      </trkpt>
      <trkpt lat="48.57428" lon="-2.80487">
        <ele>78.920021</ele>
        <time>2023-03-24T11:47:08.152Z</time>
      </trkpt>
      <trkpt lat="48.57397" lon="-2.8056">
        <ele>79.157362</ele>
        <time>2023-03-24T11:47:20.361Z</time>
      </trkpt>
      <trkpt lat="48.5739" lon="-2.80582">
        <ele>79.240721</ele>
        <time>2023-03-24T11:47:24.351Z</time>
      </trkpt>
      <trkpt lat="48.57376" lon="-2.80655">
        <ele>79.501707</ele>
        <time>2023-03-24T11:47:35.638Z</time>
      </trkpt>
      <trkpt lat="48.57445" lon="-2.80677">
        <ele>79.831952</ele>
        <time>2023-03-24T11:47:51.988Z</time>
      </trkpt>
      <trkpt lat="48.5747" lon="-2.80677">
        <ele>79.851372</ele>
        <time>2023-03-24T11:47:58.175Z</time>
      </trkpt>
      <trkpt lat="48.57505" lon="-2.80669">
        <ele>79.879324</ele>
        <time>2023-03-24T11:48:07.042Z</time>
      </trkpt>
      <trkpt lat="48.57581" lon="-2.80651">
        <ele>79.940263</ele>
        <time>2023-03-24T11:48:22.308Z</time>
      </trkpt>
      <trkpt lat="48.57644" lon="-2.80617">
        <ele>79.536864</ele>
        <time>2023-03-24T11:48:34.990Z</time>
      </trkpt>
      <trkpt lat="48.57642" lon="-2.80614">
        <ele>79.496787</ele>
        <time>2023-03-24T11:48:35.652Z</time>
      </trkpt>
      <trkpt lat="48.57642" lon="-2.80607">
        <ele>79.436474</ele>
        <time>2023-03-24T11:48:37.089Z</time>
      </trkpt>
      <trkpt lat="48.57676" lon="-2.80475">
        <ele>78.222352</ele>
        <time>2023-03-24T11:49:03.554Z</time>
      </trkpt>
      <trkpt lat="48.57669" lon="-2.80461">
        <ele>78.068459</ele>
        <time>2023-03-24T11:49:06.592Z</time>
      </trkpt>
      <trkpt lat="48.57649" lon="-2.80447">
        <ele>77.784595</ele>
        <time>2023-03-24T11:49:13.083Z</time>
      </trkpt>
      <trkpt lat="48.57623" lon="-2.80418">
        <ele>77.394755</ele>
        <time>2023-03-24T11:49:22.042Z</time>
      </trkpt>
      <trkpt lat="48.5761" lon="-2.804">
        <ele>77.190637</ele>
        <time>2023-03-24T11:49:27.209Z</time>
      </trkpt>
      <trkpt lat="48.57638" lon="-2.80411">
        <ele>76.856826</ele>
        <time>2023-03-24T11:49:35.669Z</time>
      </trkpt>
      <trkpt lat="48.57671" lon="-2.80412">
        <ele>76.474419</ele>
        <time>2023-03-24T11:49:45.208Z</time>
      </trkpt>
      <trkpt lat="48.57745" lon="-2.80399">
        <ele>75.608467</ele>
        <time>2023-03-24T11:50:06.815Z</time>
      </trkpt>
      <trkpt lat="48.57793" lon="-2.80401">
        <ele>75.011315</ele>
        <time>2023-03-24T11:50:20.776Z</time>
      </trkpt>
      <trkpt lat="48.5782" lon="-2.80396">
        <ele>74.666548</ele>
        <time>2023-03-24T11:50:28.651Z</time>
      </trkpt>
      <trkpt lat="48.57846" lon="-2.80399">
        <ele>74.334188</ele>
        <time>2023-03-24T11:50:36.353Z</time>
      </trkpt>
      <trkpt lat="48.57862" lon="-2.80392">
        <ele>74.122737</ele>
        <time>2023-03-24T11:50:41.369Z</time>
      </trkpt>
      <trkpt lat="48.57878" lon="-2.80389">
        <ele>73.914152</ele>
        <time>2023-03-24T11:50:46.109Z</time>
      </trkpt>
      <trkpt lat="48.57918" lon="-2.80388">
        <ele>73.416991</ele>
        <time>2023-03-24T11:50:57.109Z</time>
      </trkpt>
      <trkpt lat="48.5795" lon="-2.80395">
        <ele>72.824864</ele>
        <time>2023-03-24T11:51:06.195Z</time>
      </trkpt>
      <trkpt lat="48.57947" lon="-2.80349">
        <ele>72.178779</ele>
        <time>2023-03-24T11:51:14.687Z</time>
      </trkpt>
      <trkpt lat="48.57979" lon="-2.80323">
        <ele>71.404175</ele>
        <time>2023-03-24T11:51:24.721Z</time>
      </trkpt>
      <trkpt lat="48.58028" lon="-2.80303">
        <ele>70.331304</ele>
        <time>2023-03-24T11:51:38.566Z</time>
      </trkpt>
      <trkpt lat="48.58128" lon="-2.80233">
        <ele>67.367144</ele>
        <time>2023-03-24T11:52:08.036Z</time>
      </trkpt>
      <trkpt lat="48.58162" lon="-2.80219">
        <ele>66.312782</ele>
        <time>2023-03-24T11:52:16.922Z</time>
      </trkpt>
      <trkpt lat="48.58194" lon="-2.80213">
        <ele>65.336877</ele>
        <time>2023-03-24T11:52:25.239Z</time>
      </trkpt>
      <trkpt lat="48.58237" lon="-2.80215">
        <ele>64.029262</ele>
        <time>2023-03-24T11:52:36.292Z</time>
      </trkpt>
      <trkpt lat="48.58299" lon="-2.80247">
        <ele>61.390917</ele>
        <time>2023-03-24T11:52:52.933Z</time>
      </trkpt>
      <trkpt lat="48.58332" lon="-2.80247">
        <ele>60.044094</ele>
        <time>2023-03-24T11:53:01.072Z</time>
      </trkpt>
      <trkpt lat="48.5835" lon="-2.80254">
        <ele>59.310048</ele>
        <time>2023-03-24T11:53:05.458Z</time>
      </trkpt>
      <trkpt lat="48.58412" lon="-2.80258">
        <ele>56.779657</ele>
        <time>2023-03-24T11:53:20.859Z</time>
      </trkpt>
      <trkpt lat="48.58436" lon="-2.80252">
        <ele>55.847359</ele>
        <time>2023-03-24T11:53:26.972Z</time>
      </trkpt>
      <trkpt lat="48.58442" lon="-2.80245">
        <ele>55.579066</ele>
        <time>2023-03-24T11:53:28.711Z</time>
      </trkpt>
      <trkpt lat="48.58482" lon="-2.80271">
        <ele>53.913945</ele>
        <time>2023-03-24T11:53:39.685Z</time>
      </trkpt>
      <trkpt lat="48.58517" lon="-2.80299">
        <ele>52.41187</ele>
        <time>2023-03-24T11:53:49.726Z</time>
      </trkpt>
      <trkpt lat="48.58542" lon="-2.80354">
        <ele>50.721937</ele>
        <time>2023-03-24T11:54:00.745Z</time>
      </trkpt>
      <trkpt lat="48.58588" lon="-2.80492">
        <ele>47.885253</ele>
        <time>2023-03-24T11:54:27.045Z</time>
      </trkpt>
      <trkpt lat="48.58605" lon="-2.80524">
        <ele>47.194369</ele>
        <time>2023-03-24T11:54:34.455Z</time>
      </trkpt>
      <trkpt lat="48.58622" lon="-2.80546">
        <ele>46.633284</ele>
        <time>2023-03-24T11:54:40.637Z</time>
      </trkpt>
      <trkpt lat="48.5865" lon="-2.80563">
        <ele>45.864873</ele>
        <time>2023-03-24T11:54:49.309Z</time>
      </trkpt>
      <trkpt lat="48.58712" lon="-2.80552">
        <ele>44.33856</ele>
        <time>2023-03-24T11:55:06.655Z</time>
      </trkpt>
      <trkpt lat="48.58748" lon="-2.80553">
        <ele>43.45358</ele>
        <time>2023-03-24T11:55:16.605Z</time>
      </trkpt>
      <trkpt lat="48.588" lon="-2.80568">
        <ele>42.156641</ele>
        <time>2023-03-24T11:55:31.489Z</time>
      </trkpt>
      <trkpt lat="48.58905" lon="-2.80583">
        <ele>37.84561</ele>
        <time>2023-03-24T11:55:57.626Z</time>
      </trkpt>
      <trkpt lat="48.58944" lon="-2.80604">
        <ele>35.551884</ele>
        <time>2023-03-24T11:56:07.535Z</time>
      </trkpt>
      <trkpt lat="48.58966" lon="-2.80623">
        <ele>34.173102</ele>
        <time>2023-03-24T11:56:13.350Z</time>
      </trkpt>
      <trkpt lat="48.59034" lon="-2.80672">
        <ele>30.627868</ele>
        <time>2023-03-24T11:56:30.513Z</time>
      </trkpt>
      <trkpt lat="48.59085" lon="-2.80721">
        <ele>28.999748</ele>
        <time>2023-03-24T11:56:44.546Z</time>
      </trkpt>
      <trkpt lat="48.59112" lon="-2.8074">
        <ele>28.186564</ele>
        <time>2023-03-24T11:56:52.274Z</time>
      </trkpt>
      <trkpt lat="48.59155" lon="-2.80782">
        <ele>26.835042</ele>
        <time>2023-03-24T11:57:10.933Z</time>
      </trkpt>
      <trkpt lat="48.59186" lon="-2.80816">
        <ele>28.028571</ele>
        <time>2023-03-24T11:57:37.492Z</time>
      </trkpt>
      <trkpt lat="48.59181" lon="-2.80841">
        <ele>29.55696</ele>
        <time>2023-03-24T11:57:49.673Z</time>
      </trkpt>
      <trkpt lat="48.59182" lon="-2.80849">
        <ele>30.014479</ele>
        <time>2023-03-24T11:57:53.312Z</time>
      </trkpt>
      <trkpt lat="48.59185" lon="-2.80854">
        <ele>30.395075</ele>
        <time>2023-03-24T11:57:56.323Z</time>
      </trkpt>
      <trkpt lat="48.59185" lon="-2.80864">
        <ele>30.991846</ele>
        <time>2023-03-24T11:58:01.087Z</time>
      </trkpt>
      <trkpt lat="48.59182" lon="-2.80872">
        <ele>31.51393</ele>
        <time>2023-03-24T11:58:05.248Z</time>
      </trkpt>
      <trkpt lat="48.59176" lon="-2.80875">
        <ele>32.043138</ele>
        <time>2023-03-24T11:58:09.473Z</time>
      </trkpt>
      <trkpt lat="48.59159" lon="-2.80874">
        <ele>33.589854</ele>
        <time>2023-03-24T11:58:21.825Z</time>
      </trkpt>
      <trkpt lat="48.59137" lon="-2.80867">
        <ele>35.531995</ele>
        <time>2023-03-24T11:58:48.050Z</time>
      </trkpt>
      <trkpt lat="48.59152" lon="-2.80926">
        <ele>39.230411</ele>
        <time>2023-03-24T11:59:45.944Z</time>
      </trkpt>
      <trkpt lat="48.59163" lon="-2.80944">
        <ele>40.605856</ele>
        <time>2023-03-24T12:00:05.912Z</time>
      </trkpt>
      <trkpt lat="48.59144" lon="-2.80948">
        <ele>42.41155</ele>
        <time>2023-03-24T12:00:35.479Z</time>
      </trkpt>
      <trkpt lat="48.59127" lon="-2.80938">
        <ele>44.421791</ele>
        <time>2023-03-24T12:00:58.199Z</time>
      </trkpt>
      <trkpt lat="48.59118" lon="-2.80936">
        <ele>45.531079</ele>
        <time>2023-03-24T12:01:10.393Z</time>
      </trkpt>
      <trkpt lat="48.59111" lon="-2.80948">
        <ele>46.694901</ele>
        <time>2023-03-24T12:01:28.718Z</time>
      </trkpt>
      <trkpt lat="48.59049" lon="-2.81024">
        <ele>55.877018</ele>
        <time>2023-03-24T12:02:32.383Z</time>
      </trkpt>
      <trkpt lat="48.58969" lon="-2.81098">
        <ele>64.299401</ele>
        <time>2023-03-24T12:03:35.966Z</time>
      </trkpt>
      <trkpt lat="48.58951" lon="-2.81107">
        <ele>65.172567</ele>
        <time>2023-03-24T12:03:46.152Z</time>
      </trkpt>
      <trkpt lat="48.58967" lon="-2.81144">
        <ele>66.506434</ele>
        <time>2023-03-24T12:04:01.761Z</time>
      </trkpt>
      <trkpt lat="48.5901" lon="-2.81223">
        <ele>69.574987</ele>
        <time>2023-03-24T12:04:31.511Z</time>
      </trkpt>
      <trkpt lat="48.59034" lon="-2.81308">
        <ele>71.251619</ele>
        <time>2023-03-24T12:04:56.213Z</time>
      </trkpt>
      <trkpt lat="48.59036" lon="-2.8134">
        <ele>71.506782</ele>
        <time>2023-03-24T12:05:03.745Z</time>
      </trkpt>
      <trkpt lat="48.5902" lon="-2.81451">
        <ele>72.415527</ele>
        <time>2023-03-24T12:05:31.252Z</time>
      </trkpt>
      <trkpt lat="48.59007" lon="-2.81501">
        <ele>72.845385</ele>
        <time>2023-03-24T12:05:44.488Z</time>
      </trkpt>
      <trkpt lat="48.58993" lon="-2.81519">
        <ele>73.059861</ele>
        <time>2023-03-24T12:05:51.385Z</time>
      </trkpt>
      <trkpt lat="48.58951" lon="-2.81509">
        <ele>73.425326</ele>
        <time>2023-03-24T12:06:02.169Z</time>
      </trkpt>
      <trkpt lat="48.58929" lon="-2.81544">
        <ele>73.697508</ele>
        <time>2023-03-24T12:06:10.237Z</time>
      </trkpt>
      <trkpt lat="48.58913" lon="-2.8159">
        <ele>73.991687</ele>
        <time>2023-03-24T12:06:19.218Z</time>
      </trkpt>
      <trkpt lat="48.58909" lon="-2.81616">
        <ele>74.143455</ele>
        <time>2023-03-24T12:06:23.858Z</time>
      </trkpt>
      <trkpt lat="48.58912" lon="-2.81712">
        <ele>74.4245</ele>
        <time>2023-03-24T12:06:39.272Z</time>
      </trkpt>
      <trkpt lat="48.58922" lon="-2.8177">
        <ele>73.97104</ele>
        <time>2023-03-24T12:06:46.517Z</time>
      </trkpt>
      <trkpt lat="48.58923" lon="-2.81778">
        <ele>73.903685</ele>
        <time>2023-03-24T12:06:47.772Z</time>
      </trkpt>
      <trkpt lat="48.58922" lon="-2.81786">
        <ele>73.845029</ele>
        <time>2023-03-24T12:06:48.904Z</time>
      </trkpt>
      <trkpt lat="48.5892" lon="-2.81793">
        <ele>73.786273</ele>
        <time>2023-03-24T12:06:50.037Z</time>
      </trkpt>
      <trkpt lat="48.58911" lon="-2.81812">
        <ele>73.60333</ele>
        <time>2023-03-24T12:06:53.519Z</time>
      </trkpt>
      <trkpt lat="48.58923" lon="-2.8183">
        <ele>73.41059</ele>
        <time>2023-03-24T12:06:56.985Z</time>
      </trkpt>
      <trkpt lat="48.58945" lon="-2.81861">
        <ele>73.066395</ele>
        <time>2023-03-24T12:07:03.323Z</time>
      </trkpt>
      <trkpt lat="48.58965" lon="-2.8188">
        <ele>72.790535</ele>
        <time>2023-03-24T12:07:08.787Z</time>
      </trkpt>
      <trkpt lat="48.58972" lon="-2.81883">
        <ele>72.701837</ele>
        <time>2023-03-24T12:07:10.390Z</time>
      </trkpt>
      <trkpt lat="48.59014" lon="-2.81885">
        <ele>72.221458</ele>
        <time>2023-03-24T12:07:19.564Z</time>
      </trkpt>
      <trkpt lat="48.59062" lon="-2.81876">
        <ele>71.663517</ele>
        <time>2023-03-24T12:07:30.188Z</time>
      </trkpt>
      <trkpt lat="48.59067" lon="-2.81879">
        <ele>71.597207</ele>
        <time>2023-03-24T12:07:31.498Z</time>
      </trkpt>
      <trkpt lat="48.59069" lon="-2.81884">
        <ele>71.549341</ele>
        <time>2023-03-24T12:07:32.464Z</time>
      </trkpt>
      <trkpt lat="48.59072" lon="-2.8191">
        <ele>71.348337</ele>
        <time>2023-03-24T12:07:36.158Z</time>
      </trkpt>
      <trkpt lat="48.59077" lon="-2.81939">
        <ele>71.118933</ele>
        <time>2023-03-24T12:07:40.162Z</time>
      </trkpt>
      <trkpt lat="48.59086" lon="-2.81963">
        <ele>70.905738</ele>
        <time>2023-03-24T12:07:43.548Z</time>
      </trkpt>
      <trkpt lat="48.59128" lon="-2.8201">
        <ele>70.268781</ele>
        <time>2023-03-24T12:07:53.741Z</time>
      </trkpt>
      <trkpt lat="48.59142" lon="-2.8203">
        <ele>69.98414</ele>
        <time>2023-03-24T12:07:57.694Z</time>
      </trkpt>
      <trkpt lat="48.59156" lon="-2.82056">
        <ele>69.66429</ele>
        <time>2023-03-24T12:08:02.269Z</time>
      </trkpt>
      <trkpt lat="48.59186" lon="-2.82093">
        <ele>69.083571</ele>
        <time>2023-03-24T12:08:09.754Z</time>
      </trkpt>
      <trkpt lat="48.59193" lon="-2.82101">
        <ele>68.952374</ele>
        <time>2023-03-24T12:08:11.281Z</time>
      </trkpt>
      <trkpt lat="48.59225" lon="-2.82136">
        <ele>68.371163</ele>
        <time>2023-03-24T12:08:18.241Z</time>
      </trkpt>
      <trkpt lat="48.59237" lon="-2.82162">
        <ele>68.065146</ele>
        <time>2023-03-24T12:08:22.123Z</time>
      </trkpt>
      <trkpt lat="48.59242" lon="-2.82173">
        <ele>67.936554</ele>
        <time>2023-03-24T12:08:23.602Z</time>
      </trkpt>
      <trkpt lat="48.5926" lon="-2.82201">
        <ele>67.14371</ele>
        <time>2023-03-24T12:08:28.299Z</time>
      </trkpt>
      <trkpt lat="48.59276" lon="-2.82199">
        <ele>66.478856</ele>
        <time>2023-03-24T12:08:32.224Z</time>
      </trkpt>
      <trkpt lat="48.59314" lon="-2.8222">
        <ele>64.740245</ele>
        <time>2023-03-24T12:08:42.162Z</time>
      </trkpt>
      <trkpt lat="48.59319" lon="-2.82238">
        <ele>64.206497</ele>
        <time>2023-03-24T12:08:45.233Z</time>
      </trkpt>
      <trkpt lat="48.59319" lon="-2.82247">
        <ele>63.945445</ele>
        <time>2023-03-24T12:08:46.687Z</time>
      </trkpt>
      <trkpt lat="48.59324" lon="-2.8225">
        <ele>63.730012</ele>
        <time>2023-03-24T12:08:48.001Z</time>
      </trkpt>
      <trkpt lat="48.59329" lon="-2.82241">
        <ele>63.386316</ele>
        <time>2023-03-24T12:08:49.905Z</time>
      </trkpt>
      <trkpt lat="48.59334" lon="-2.8224">
        <ele>63.1631</ele>
        <time>2023-03-24T12:08:51.180Z</time>
      </trkpt>
      <trkpt lat="48.5934" lon="-2.82248">
        <ele>62.831835</ele>
        <time>2023-03-24T12:08:53.126Z</time>
      </trkpt>
      <trkpt lat="48.59354" lon="-2.82284">
        <ele>61.657823</ele>
        <time>2023-03-24T12:08:59.907Z</time>
      </trkpt>
      <trkpt lat="48.59361" lon="-2.82288">
        <ele>61.367299</ele>
        <time>2023-03-24T12:09:01.630Z</time>
      </trkpt>
      <trkpt lat="48.59371" lon="-2.82291">
        <ele>60.931563</ele>
        <time>2023-03-24T12:09:04.111Z</time>
      </trkpt>
      <trkpt lat="48.59377" lon="-2.82282">
        <ele>60.575914</ele>
        <time>2023-03-24T12:09:06.231Z</time>
      </trkpt>
      <trkpt lat="48.59385" lon="-2.82285">
        <ele>60.212436</ele>
        <time>2023-03-24T12:09:08.200Z</time>
      </trkpt>
      <trkpt lat="48.59384" lon="-2.82256">
        <ele>59.443908</ele>
        <time>2023-03-24T12:09:10.985Z</time>
      </trkpt>
      <trkpt lat="48.59347" lon="-2.8211">
        <ele>55.382451</ele>
        <time>2023-03-24T12:09:26.827Z</time>
      </trkpt>
      <trkpt lat="48.59346" lon="-2.82095">
        <ele>55.003912</ele>
        <time>2023-03-24T12:09:28.608Z</time>
      </trkpt>
      <trkpt lat="48.59344" lon="-2.82078">
        <ele>54.55675</ele>
        <time>2023-03-24T12:09:30.464Z</time>
      </trkpt>
      <trkpt lat="48.59345" lon="-2.8207">
        <ele>54.347353</ele>
        <time>2023-03-24T12:09:31.305Z</time>
      </trkpt>
      <trkpt lat="48.59348" lon="-2.82068">
        <ele>54.201026</ele>
        <time>2023-03-24T12:09:31.767Z</time>
      </trkpt>
      <trkpt lat="48.59353" lon="-2.82077">
        <ele>53.890219</ele>
        <time>2023-03-24T12:09:33.799Z</time>
      </trkpt>
      <trkpt lat="48.59355" lon="-2.82113">
        <ele>52.981513</ele>
        <time>2023-03-24T12:09:40.106Z</time>
      </trkpt>
      <trkpt lat="48.59368" lon="-2.82137">
        <ele>52.383047</ele>
        <time>2023-03-24T12:09:43.879Z</time>
      </trkpt>
      <trkpt lat="48.59406" lon="-2.82244">
        <ele>50.040428</ele>
        <time>2023-03-24T12:09:57.400Z</time>
      </trkpt>
      <trkpt lat="48.59413" lon="-2.82278">
        <ele>49.363974</ele>
        <time>2023-03-24T12:10:00.766Z</time>
      </trkpt>
      <trkpt lat="48.59414" lon="-2.82279">
        <ele>49.337463</ele>
        <time>2023-03-24T12:10:01.019Z</time>
      </trkpt>
      <trkpt lat="48.59415" lon="-2.82306">
        <ele>48.818338</ele>
        <time>2023-03-24T12:10:07.156Z</time>
      </trkpt>
      <trkpt lat="48.59426" lon="-2.82328">
        <ele>48.270824</ele>
        <time>2023-03-24T12:10:09.808Z</time>
      </trkpt>
      <trkpt lat="48.59431" lon="-2.82345">
        <ele>47.925393</ele>
        <time>2023-03-24T12:10:13.265Z</time>
      </trkpt>
      <trkpt lat="48.59431" lon="-2.82359">
        <ele>47.388618</ele>
        <time>2023-03-24T12:10:15.875Z</time>
      </trkpt>
      <trkpt lat="48.59427" lon="-2.82371">
        <ele>46.792931</ele>
        <time>2023-03-24T12:10:17.167Z</time>
      </trkpt>
      <trkpt lat="48.59425" lon="-2.82371">
        <ele>46.651839</ele>
        <time>2023-03-24T12:10:17.449Z</time>
      </trkpt>
      <trkpt lat="48.59425" lon="-2.82371">
        <ele>46.651839</ele>
        <time>2023-03-24T12:10:17.793Z</time>
      </trkpt>
      <trkpt lat="48.59425" lon="-2.82371">
        <ele>46.651839</ele>
        <time>2023-03-24T12:10:17.793Z</time>
      </trkpt>
      <trkpt lat="48.59425" lon="-2.82371">
        <ele>46.628095</ele>
        <time>2023-03-24T12:10:17.942Z</time>
      </trkpt>
      <trkpt lat="48.59423" lon="-2.82377">
        <ele>46.322677</ele>
        <time>2023-03-24T12:10:19.842Z</time>
      </trkpt>
      <trkpt lat="48.59421" lon="-2.82384">
        <ele>45.996479</ele>
        <time>2023-03-24T12:10:21.872Z</time>
      </trkpt>
      <trkpt lat="48.5942" lon="-2.82392">
        <ele>45.618499</ele>
        <time>2023-03-24T12:10:24.223Z</time>
      </trkpt>
      <trkpt lat="48.59416" lon="-2.82408">
        <ele>44.837344</ele>
        <time>2023-03-24T12:10:29.085Z</time>
      </trkpt>
      <trkpt lat="48.59415" lon="-2.82416">
        <ele>44.468102</ele>
        <time>2023-03-24T12:10:31.390Z</time>
      </trkpt>
      <trkpt lat="48.59413" lon="-2.82423">
        <ele>44.107268</ele>
        <time>2023-03-24T12:10:33.703Z</time>
      </trkpt>
      <trkpt lat="48.59411" lon="-2.8243">
        <ele>43.745408</ele>
        <time>2023-03-24T12:10:35.955Z</time>
      </trkpt>
      <trkpt lat="48.59406" lon="-2.82451">
        <ele>42.760736</ele>
        <time>2023-03-24T12:10:42.083Z</time>
      </trkpt>
      <trkpt lat="48.59403" lon="-2.82456">
        <ele>42.472439</ele>
        <time>2023-03-24T12:10:43.877Z</time>
      </trkpt>
      <trkpt lat="48.59402" lon="-2.82462">
        <ele>42.202008</ele>
        <time>2023-03-24T12:10:45.567Z</time>
      </trkpt>
      <trkpt lat="48.594" lon="-2.82465">
        <ele>41.979205</ele>
        <time>2023-03-24T12:10:46.960Z</time>
      </trkpt>
      <trkpt lat="48.59397" lon="-2.82468">
        <ele>41.762423</ele>
        <time>2023-03-24T12:10:48.316Z</time>
      </trkpt>
      <trkpt lat="48.59395" lon="-2.8247">
        <ele>41.592618</ele>
        <time>2023-03-24T12:10:49.462Z</time>
      </trkpt>
      <trkpt lat="48.59393" lon="-2.82472">
        <ele>41.441742</ele>
        <time>2023-03-24T12:10:50.401Z</time>
      </trkpt>
      <trkpt lat="48.59393" lon="-2.82476">
        <ele>41.264329</ele>
        <time>2023-03-24T12:10:51.505Z</time>
      </trkpt>
      <trkpt lat="48.59395" lon="-2.82481">
        <ele>40.98969</ele>
        <time>2023-03-24T12:10:53.214Z</time>
      </trkpt>
      <trkpt lat="48.59398" lon="-2.82487">
        <ele>40.665626</ele>
        <time>2023-03-24T12:10:55.231Z</time>
      </trkpt>
      <trkpt lat="48.59401" lon="-2.82492">
        <ele>40.329657</ele>
        <time>2023-03-24T12:10:57.322Z</time>
      </trkpt>
      <trkpt lat="48.59405" lon="-2.82496">
        <ele>40.003302</ele>
        <time>2023-03-24T12:10:59.354Z</time>
      </trkpt>
      <trkpt lat="48.59409" lon="-2.82501">
        <ele>39.61404</ele>
        <time>2023-03-24T12:11:01.790Z</time>
      </trkpt>
      <trkpt lat="48.59414" lon="-2.82507">
        <ele>39.194359</ele>
        <time>2023-03-24T12:11:04.490Z</time>
      </trkpt>
      <trkpt lat="48.5942" lon="-2.82512">
        <ele>38.723503</ele>
        <time>2023-03-24T12:11:07.423Z</time>
      </trkpt>
      <trkpt lat="48.59428" lon="-2.82516">
        <ele>38.149721</ele>
        <time>2023-03-24T12:11:10.995Z</time>
      </trkpt>
      <trkpt lat="48.59436" lon="-2.8252">
        <ele>37.616827</ele>
        <time>2023-03-24T12:11:14.313Z</time>
      </trkpt>
      <trkpt lat="48.59443" lon="-2.82523">
        <ele>37.111363</ele>
        <time>2023-03-24T12:11:17.475Z</time>
      </trkpt>
      <trkpt lat="48.59442" lon="-2.82527">
        <ele>36.881943</ele>
        <time>2023-03-24T12:11:18.924Z</time>
      </trkpt>
      <trkpt lat="48.59462" lon="-2.82534">
        <ele>35.453573</ele>
        <time>2023-03-24T12:11:22.350Z</time>
      </trkpt>
      <trkpt lat="48.59467" lon="-2.82538">
        <ele>34.975085</ele>
        <time>2023-03-24T12:11:23.300Z</time>
      </trkpt>
      <trkpt lat="48.59466" lon="-2.82547">
        <ele>34.427204</ele>
        <time>2023-03-24T12:11:24.244Z</time>
      </trkpt>
      <trkpt lat="48.59477" lon="-2.82547">
        <ele>33.471936</ele>
        <time>2023-03-24T12:11:31.522Z</time>
      </trkpt>
      <trkpt lat="48.5951" lon="-2.82545">
        <ele>30.44809</ele>
        <time>2023-03-24T12:11:38.680Z</time>
      </trkpt>
      <trkpt lat="48.59536" lon="-2.82533">
        <ele>27.928673</ele>
        <time>2023-03-24T12:11:44.725Z</time>
      </trkpt>
      <trkpt lat="48.59546" lon="-2.82536">
        <ele>26.939404</ele>
        <time>2023-03-24T12:11:46.980Z</time>
      </trkpt>
      <trkpt lat="48.59566" lon="-2.82516">
        <ele>24.816096</ele>
        <time>2023-03-24T12:11:50.014Z</time>
      </trkpt>
      <trkpt lat="48.59597" lon="-2.82475">
        <ele>21.020908</ele>
        <time>2023-03-24T12:11:55.311Z</time>
      </trkpt>
      <trkpt lat="48.59609" lon="-2.8246">
        <ele>19.583278</ele>
        <time>2023-03-24T12:11:57.334Z</time>
      </trkpt>
      <trkpt lat="48.59638" lon="-2.82425">
        <ele>16.889848</ele>
        <time>2023-03-24T12:12:02.180Z</time>
      </trkpt>
      <trkpt lat="48.59646" lon="-2.82416">
        <ele>16.207739</ele>
        <time>2023-03-24T12:12:03.462Z</time>
      </trkpt>
      <trkpt lat="48.59672" lon="-2.82398">
        <ele>14.232824</ele>
        <time>2023-03-24T12:12:07.237Z</time>
      </trkpt>
      <trkpt lat="48.59684" lon="-2.82395">
        <ele>13.430201</ele>
        <time>2023-03-24T12:12:08.763Z</time>
      </trkpt>
      <trkpt lat="48.59707" lon="-2.82399">
        <ele>11.839637</ele>
        <time>2023-03-24T12:12:11.894Z</time>
      </trkpt>
      <trkpt lat="48.59718" lon="-2.82403">
        <ele>11.053438</ele>
        <time>2023-03-24T12:12:13.414Z</time>
      </trkpt>
      <trkpt lat="48.59722" lon="-2.82386">
        <ele>10.250413</ele>
        <time>2023-03-24T12:12:15.063Z</time>
      </trkpt>
      <trkpt lat="48.59725" lon="-2.82371">
        <ele>9.551718</ele>
        <time>2023-03-24T12:12:16.482Z</time>
      </trkpt>
      <trkpt lat="48.59727" lon="-2.82373">
        <ele>9.402844</ele>
        <time>2023-03-24T12:12:16.783Z</time>
      </trkpt>
      <trkpt lat="48.59761" lon="-2.82394">
        <ele>6.941029</ele>
        <time>2023-03-24T12:12:21.903Z</time>
      </trkpt>
      <trkpt lat="48.59768" lon="-2.82395">
        <ele>6.586894</ele>
        <time>2023-03-24T12:12:22.886Z</time>
      </trkpt>
      <trkpt lat="48.59772" lon="-2.82395">
        <ele>6.499509</ele>
        <time>2023-03-24T12:12:23.471Z</time>
      </trkpt>
      <trkpt lat="48.59781" lon="-2.82396">
        <ele>6.280085</ele>
        <time>2023-03-24T12:12:24.999Z</time>
      </trkpt>
      <trkpt lat="48.59783" lon="-2.82395">
        <ele>6.246001</ele>
        <time>2023-03-24T12:12:25.239Z</time>
      </trkpt>
      <trkpt lat="48.59806" lon="-2.82396">
        <ele>5.73342</ele>
        <time>2023-03-24T12:12:28.797Z</time>
      </trkpt>
      <trkpt lat="48.59815" lon="-2.82396">
        <ele>5.531973</ele>
        <time>2023-03-24T12:12:30.226Z</time>
      </trkpt>
      <trkpt lat="48.59842" lon="-2.82405">
        <ele>4.916404</ele>
        <time>2023-03-24T12:12:34.557Z</time>
      </trkpt>
      <trkpt lat="48.59868" lon="-2.82418">
        <ele>4.290504</ele>
        <time>2023-03-24T12:12:39.371Z</time>
      </trkpt>
      <trkpt lat="48.59879" lon="-2.82423">
        <ele>4.034738</ele>
        <time>2023-03-24T12:12:41.199Z</time>
      </trkpt>
      <trkpt lat="48.59893" lon="-2.82429">
        <ele>3.71343</ele>
        <time>2023-03-24T12:12:43.713Z</time>
      </trkpt>
      <trkpt lat="48.5992" lon="-2.82442">
        <ele>3.08024</ele>
        <time>2023-03-24T12:12:48.567Z</time>
      </trkpt>
      <trkpt lat="48.6" lon="-2.82482">
        <ele>2.162081</ele>
        <time>2023-03-24T12:13:04.643Z</time>
      </trkpt>
      <trkpt lat="48.60002" lon="-2.82484">
        <ele>2.138829</ele>
        <time>2023-03-24T12:13:05.276Z</time>
      </trkpt>
      <trkpt lat="48.60005" lon="-2.82472">
        <ele>2.074737</ele>
        <time>2023-03-24T12:13:06.749Z</time>
      </trkpt>
      <trkpt lat="48.60007" lon="-2.82459">
        <ele>2.010645</ele>
        <time>2023-03-24T12:13:08.204Z</time>
      </trkpt>
      <trkpt lat="48.60022" lon="-2.8233">
        <ele>1.379067</ele>
        <time>2023-03-24T12:13:28.351Z</time>
      </trkpt>
      <trkpt lat="48.60033" lon="-2.82239">
        <ele>1.341353</ele>
        <time>2023-03-24T12:13:42.605Z</time>
      </trkpt>
      <trkpt lat="48.60039" lon="-2.82186">
        <ele>1.359728</ele>
        <time>2023-03-24T12:13:51.011Z</time>
      </trkpt>
      <trkpt lat="48.60046" lon="-2.8213">
        <ele>1.379393</ele>
        <time>2023-03-24T12:14:00.576Z</time>
      </trkpt>
      <trkpt lat="48.60054" lon="-2.82064">
        <ele>1.40233</ele>
        <time>2023-03-24T12:14:13.838Z</time>
      </trkpt>
      <trkpt lat="48.60061" lon="-2.82009">
        <ele>1.818349</ele>
        <time>2023-03-24T12:14:25.822Z</time>
      </trkpt>
      <trkpt lat="48.60064" lon="-2.81987">
        <ele>2.053461</ele>
        <time>2023-03-24T12:14:30.074Z</time>
      </trkpt>
      <trkpt lat="48.60072" lon="-2.81973">
        <ele>2.237079</ele>
        <time>2023-03-24T12:14:33.153Z</time>
      </trkpt>
      <trkpt lat="48.60078" lon="-2.81968">
        <ele>2.347722</ele>
        <time>2023-03-24T12:14:35.377Z</time>
      </trkpt>
      <trkpt lat="48.60089" lon="-2.8197">
        <ele>2.525516</ele>
        <time>2023-03-24T12:14:38.750Z</time>
      </trkpt>
      <trkpt lat="48.6011" lon="-2.81992">
        <ele>2.920038</ele>
        <time>2023-03-24T12:14:45.863Z</time>
      </trkpt>
      <trkpt lat="48.60118" lon="-2.81997">
        <ele>3.052127</ele>
        <time>2023-03-24T12:14:48.479Z</time>
      </trkpt>
      <trkpt lat="48.60143" lon="-2.82009">
        <ele>3.459927</ele>
        <time>2023-03-24T12:14:57.458Z</time>
      </trkpt>
      <trkpt lat="48.60151" lon="-2.82015">
        <ele>3.588938</ele>
        <time>2023-03-24T12:15:00.007Z</time>
      </trkpt>
      <trkpt lat="48.60145" lon="-2.82044">
        <ele>3.907193</ele>
        <time>2023-03-24T12:15:05.287Z</time>
      </trkpt>
      <trkpt lat="48.60147" lon="-2.82108">
        <ele>4.489752</ele>
        <time>2023-03-24T12:15:16.599Z</time>
      </trkpt>
      <trkpt lat="48.6015" lon="-2.82232">
        <ele>5.52953</ele>
        <time>2023-03-24T12:15:36.667Z</time>
      </trkpt>
      <trkpt lat="48.60143" lon="-2.82327">
        <ele>6.334295</ele>
        <time>2023-03-24T12:15:52.824Z</time>
      </trkpt>
      <trkpt lat="48.60141" lon="-2.82342">
        <ele>6.458012</ele>
        <time>2023-03-24T12:15:55.318Z</time>
      </trkpt>
      <trkpt lat="48.60137" lon="-2.82391">
        <ele>7.575631</ele>
        <time>2023-03-24T12:16:02.864Z</time>
      </trkpt>
      <trkpt lat="48.60137" lon="-2.82435">
        <ele>8.586426</ele>
        <time>2023-03-24T12:16:11.870Z</time>
      </trkpt>
      <trkpt lat="48.6014" lon="-2.82439">
        <ele>8.715865</ele>
        <time>2023-03-24T12:16:12.892Z</time>
      </trkpt>
      <trkpt lat="48.60141" lon="-2.82449">
        <ele>8.963434</ele>
        <time>2023-03-24T12:16:14.559Z</time>
      </trkpt>
      <trkpt lat="48.60158" lon="-2.82456">
        <ele>9.564008</ele>
        <time>2023-03-24T12:16:20.941Z</time>
      </trkpt>
      <trkpt lat="48.60169" lon="-2.8246">
        <ele>9.972148</ele>
        <time>2023-03-24T12:16:23.841Z</time>
      </trkpt>
      <trkpt lat="48.60177" lon="-2.82464">
        <ele>10.238307</ele>
        <time>2023-03-24T12:16:26.491Z</time>
      </trkpt>
      <trkpt lat="48.60175" lon="-2.8244">
        <ele>10.771752</ele>
        <time>2023-03-24T12:16:32.481Z</time>
      </trkpt>
      <trkpt lat="48.60172" lon="-2.82423">
        <ele>11.179116</ele>
        <time>2023-03-24T12:16:38.244Z</time>
      </trkpt>
      <trkpt lat="48.60159" lon="-2.8236">
        <ele>12.72706</ele>
        <time>2023-03-24T12:16:59.440Z</time>
      </trkpt>
      <trkpt lat="48.60158" lon="-2.8235">
        <ele>13.269355</ele>
        <time>2023-03-24T12:17:04.770Z</time>
      </trkpt>
      <trkpt lat="48.60179" lon="-2.82292">
        <ele>16.707798</ele>
        <time>2023-03-24T12:17:29.818Z</time>
      </trkpt>
      <trkpt lat="48.60204" lon="-2.82243">
        <ele>19.944078</ele>
        <time>2023-03-24T12:17:53.934Z</time>
      </trkpt>
      <trkpt lat="48.60208" lon="-2.82242">
        <ele>20.224347</ele>
        <time>2023-03-24T12:17:57.708Z</time>
      </trkpt>
      <trkpt lat="48.60224" lon="-2.82238">
        <ele>21.550426</ele>
        <time>2023-03-24T12:18:07.628Z</time>
      </trkpt>
      <trkpt lat="48.60232" lon="-2.82236">
        <ele>22.14192</ele>
        <time>2023-03-24T12:18:12.330Z</time>
      </trkpt>
      <trkpt lat="48.60287" lon="-2.82246">
        <ele>26.503929</ele>
        <time>2023-03-24T12:18:48.780Z</time>
      </trkpt>
      <trkpt lat="48.60371" lon="-2.82261">
        <ele>31.181242</ele>
        <time>2023-03-24T12:19:37.801Z</time>
      </trkpt>
      <trkpt lat="48.60387" lon="-2.82263">
        <ele>32.066574</ele>
        <time>2023-03-24T12:19:45.880Z</time>
      </trkpt>
      <trkpt lat="48.60433" lon="-2.82281">
        <ele>34.629075</ele>
        <time>2023-03-24T12:20:04.411Z</time>
      </trkpt>
      <trkpt lat="48.60469" lon="-2.82292">
        <ele>36.552336</ele>
        <time>2023-03-24T12:20:14.404Z</time>
      </trkpt>
      <trkpt lat="48.60476" lon="-2.82281">
        <ele>36.719658</ele>
        <time>2023-03-24T12:20:16.833Z</time>
      </trkpt>
      <trkpt lat="48.60489" lon="-2.82153">
        <ele>38.141507</ele>
        <time>2023-03-24T12:20:43.120Z</time>
      </trkpt>
      <trkpt lat="48.60505" lon="-2.82096">
        <ele>38.823754</ele>
        <time>2023-03-24T12:20:55.699Z</time>
      </trkpt>
      <trkpt lat="48.60537" lon="-2.82123">
        <ele>39.436242</ele>
        <time>2023-03-24T12:21:04.582Z</time>
      </trkpt>
      <trkpt lat="48.60574" lon="-2.82142">
        <ele>40.048031</ele>
        <time>2023-03-24T12:21:12.228Z</time>
      </trkpt>
      <trkpt lat="48.606" lon="-2.82146">
        <ele>40.459826</ele>
        <time>2023-03-24T12:21:18.905Z</time>
      </trkpt>
      <trkpt lat="48.60637" lon="-2.82152">
        <ele>41.030617</ele>
        <time>2023-03-24T12:21:28.619Z</time>
      </trkpt>
      <trkpt lat="48.60642" lon="-2.82142">
        <ele>41.161008</ele>
        <time>2023-03-24T12:21:30.742Z</time>
      </trkpt>
      <trkpt lat="48.6065" lon="-2.82126">
        <ele>41.365744</ele>
        <time>2023-03-24T12:21:37.018Z</time>
      </trkpt>
      <trkpt lat="48.60658" lon="-2.82108">
        <ele>41.58245</ele>
        <time>2023-03-24T12:21:43.513Z</time>
      </trkpt>
      <trkpt lat="48.60683" lon="-2.82051">
        <ele>42.295715</ele>
        <time>2023-03-24T12:21:59.648Z</time>
      </trkpt>
      <trkpt lat="48.6076" lon="-2.82094">
        <ele>42.733497</ele>
        <time>2023-03-24T12:22:16.557Z</time>
      </trkpt>
      <trkpt lat="48.6078" lon="-2.82109">
        <ele>42.850602</ele>
        <time>2023-03-24T12:22:20.327Z</time>
      </trkpt>
      <trkpt lat="48.60821" lon="-2.82139">
        <ele>43.084119</ele>
        <time>2023-03-24T12:22:28.920Z</time>
      </trkpt>
      <trkpt lat="48.60841" lon="-2.82069">
        <ele>43.401967</ele>
        <time>2023-03-24T12:22:43.582Z</time>
      </trkpt>
      <trkpt lat="48.60844" lon="-2.81977">
        <ele>43.899805</ele>
        <time>2023-03-24T12:23:01.115Z</time>
      </trkpt>
      <trkpt lat="48.60848" lon="-2.81969">
        <ele>43.95333</ele>
        <time>2023-03-24T12:23:02.106Z</time>
      </trkpt>
      <trkpt lat="48.60891" lon="-2.81946">
        <ele>44.327765</ele>
        <time>2023-03-24T12:23:09.205Z</time>
      </trkpt>
      <trkpt lat="48.60901" lon="-2.8196">
        <ele>44.442913</ele>
        <time>2023-03-24T12:23:15.610Z</time>
      </trkpt>
      <trkpt lat="48.60912" lon="-2.81996">
        <ele>44.652898</ele>
        <time>2023-03-24T12:23:19.893Z</time>
      </trkpt>
      <trkpt lat="48.6091" lon="-2.82012">
        <ele>44.696785</ele>
        <time>2023-03-24T12:23:25.420Z</time>
      </trkpt>
      <trkpt lat="48.60905" lon="-2.82031">
        <ele>44.581794</ele>
        <time>2023-03-24T12:23:29.735Z</time>
      </trkpt>
      <trkpt lat="48.60905" lon="-2.82031">
        <ele>44.581794</ele>
        <time>2023-03-24T12:23:29.883Z</time>
      </trkpt>
      <trkpt lat="48.60905" lon="-2.82031">
        <ele>44.581794</ele>
        <time>2023-03-24T12:23:29.883Z</time>
      </trkpt>
      <trkpt lat="48.60909" lon="-2.82034">
        <ele>44.542069</ele>
        <time>2023-03-24T12:23:31.933Z</time>
      </trkpt>
      <trkpt lat="48.60908" lon="-2.82038">
        <ele>44.51567</ele>
        <time>2023-03-24T12:23:33.290Z</time>
      </trkpt>
      <trkpt lat="48.60899" lon="-2.82062">
        <ele>44.3633</ele>
        <time>2023-03-24T12:23:41.126Z</time>
      </trkpt>
      <trkpt lat="48.60898" lon="-2.82066">
        <ele>44.340475</ele>
        <time>2023-03-24T12:23:42.299Z</time>
      </trkpt>
      <trkpt lat="48.60897" lon="-2.8207">
        <ele>44.317226</ele>
        <time>2023-03-24T12:23:43.494Z</time>
      </trkpt>
      <trkpt lat="48.60897" lon="-2.82074">
        <ele>44.296799</ele>
        <time>2023-03-24T12:23:44.544Z</time>
      </trkpt>
      <trkpt lat="48.60898" lon="-2.82077">
        <ele>44.27582</ele>
        <time>2023-03-24T12:23:45.632Z</time>
      </trkpt>
      <trkpt lat="48.609" lon="-2.82079">
        <ele>44.257233</ele>
        <time>2023-03-24T12:23:46.590Z</time>
      </trkpt>
      <trkpt lat="48.60903" lon="-2.8208">
        <ele>44.23723</ele>
        <time>2023-03-24T12:23:47.618Z</time>
      </trkpt>
      <trkpt lat="48.60905" lon="-2.82079">
        <ele>44.216244</ele>
        <time>2023-03-24T12:23:48.697Z</time>
      </trkpt>
      <trkpt lat="48.60908" lon="-2.82078">
        <ele>44.194724</ele>
        <time>2023-03-24T12:23:49.804Z</time>
      </trkpt>
      <trkpt lat="48.60913" lon="-2.82077">
        <ele>44.148624</ele>
        <time>2023-03-24T12:23:52.177Z</time>
      </trkpt>
      <trkpt lat="48.60916" lon="-2.82076">
        <ele>44.125006</ele>
        <time>2023-03-24T12:23:53.392Z</time>
      </trkpt>
      <trkpt lat="48.60922" lon="-2.82076">
        <ele>44.076586</ele>
        <time>2023-03-24T12:23:55.881Z</time>
      </trkpt>
      <trkpt lat="48.60928" lon="-2.82075">
        <ele>44.024698</ele>
        <time>2023-03-24T12:23:58.549Z</time>
      </trkpt>
      <trkpt lat="48.60931" lon="-2.82075">
        <ele>43.998068</ele>
        <time>2023-03-24T12:23:59.919Z</time>
      </trkpt>
      <trkpt lat="48.60937" lon="-2.82075">
        <ele>43.945568</ele>
        <time>2023-03-24T12:24:02.625Z</time>
      </trkpt>
      <trkpt lat="48.60944" lon="-2.82077">
        <ele>43.893131</ele>
        <time>2023-03-24T12:24:05.320Z</time>
      </trkpt>
      <trkpt lat="48.60946" lon="-2.82078">
        <ele>43.868912</ele>
        <time>2023-03-24T12:24:06.566Z</time>
      </trkpt>
      <trkpt lat="48.60949" lon="-2.82079">
        <ele>43.845199</ele>
        <time>2023-03-24T12:24:07.785Z</time>
      </trkpt>
      <trkpt lat="48.60952" lon="-2.82079">
        <ele>43.82104</ele>
        <time>2023-03-24T12:24:09.027Z</time>
      </trkpt>
      <trkpt lat="48.60954" lon="-2.82076">
        <ele>43.797469</ele>
        <time>2023-03-24T12:24:10.239Z</time>
      </trkpt>
      <trkpt lat="48.60955" lon="-2.82072">
        <ele>43.773424</ele>
        <time>2023-03-24T12:24:11.476Z</time>
      </trkpt>
      <trkpt lat="48.60956" lon="-2.82067">
        <ele>43.745599</ele>
        <time>2023-03-24T12:24:12.908Z</time>
      </trkpt>
      <trkpt lat="48.60956" lon="-2.82056">
        <ele>43.682273</ele>
        <time>2023-03-24T12:24:16.163Z</time>
      </trkpt>
      <trkpt lat="48.60957" lon="-2.82042">
        <ele>43.607527</ele>
        <time>2023-03-24T12:24:20.004Z</time>
      </trkpt>
      <trkpt lat="48.60958" lon="-2.82035">
        <ele>43.567209</ele>
        <time>2023-03-24T12:24:22.078Z</time>
      </trkpt>
      <trkpt lat="48.60959" lon="-2.82027">
        <ele>43.52564</ele>
        <time>2023-03-24T12:24:24.216Z</time>
      </trkpt>
      <trkpt lat="48.6096" lon="-2.8202">
        <ele>43.484781</ele>
        <time>2023-03-24T12:24:26.319Z</time>
      </trkpt>
      <trkpt lat="48.60961" lon="-2.82012">
        <ele>43.441054</ele>
        <time>2023-03-24T12:24:28.576Z</time>
      </trkpt>
      <trkpt lat="48.60962" lon="-2.82004">
        <ele>43.396255</ele>
        <time>2023-03-24T12:24:30.893Z</time>
      </trkpt>
      <trkpt lat="48.60959" lon="-2.82004">
        <ele>43.373459</ele>
        <time>2023-03-24T12:24:32.060Z</time>
      </trkpt>
      <trkpt lat="48.60972" lon="-2.8189">
        <ele>39.874115</ele>
        <time>2023-03-24T12:24:42.123Z</time>
      </trkpt>
      <trkpt lat="48.6097" lon="-2.81805">
        <ele>36.608108</ele>
        <time>2023-03-24T12:24:49.724Z</time>
      </trkpt>
      <trkpt lat="48.60977" lon="-2.81786">
        <ele>35.747279</ele>
        <time>2023-03-24T12:25:00.005Z</time>
      </trkpt>
      <trkpt lat="48.60982" lon="-2.81691">
        <ele>33.254707</ele>
        <time>2023-03-24T12:25:43.736Z</time>
      </trkpt>
      <trkpt lat="48.60983" lon="-2.81673">
        <ele>33.725231</ele>
        <time>2023-03-24T12:25:52.127Z</time>
      </trkpt>
      <trkpt lat="48.60996" lon="-2.81665">
        <ele>34.27711</ele>
        <time>2023-03-24T12:26:01.979Z</time>
      </trkpt>
      <trkpt lat="48.61022" lon="-2.81656">
        <ele>35.30184</ele>
        <time>2023-03-24T12:26:20.258Z</time>
      </trkpt>
      <trkpt lat="48.61067" lon="-2.81632">
        <ele>37.1422</ele>
        <time>2023-03-24T12:26:44.885Z</time>
      </trkpt>
      <trkpt lat="48.61098" lon="-2.81601">
        <ele>38.607592</ele>
        <time>2023-03-24T12:27:13.013Z</time>
      </trkpt>
      <trkpt lat="48.61102" lon="-2.81605">
        <ele>38.789481</ele>
        <time>2023-03-24T12:27:16.133Z</time>
      </trkpt>
      <trkpt lat="48.61107" lon="-2.8162">
        <ele>39.233638</ele>
        <time>2023-03-24T12:27:25.417Z</time>
      </trkpt>
      <trkpt lat="48.61128" lon="-2.81727">
        <ele>45.162063</ele>
        <time>2023-03-24T12:28:21.071Z</time>
      </trkpt>
      <trkpt lat="48.61137" lon="-2.81787">
        <ele>48.852019</ele>
        <time>2023-03-24T12:28:48.832Z</time>
      </trkpt>
      <trkpt lat="48.6114" lon="-2.81869">
        <ele>53.838441</ele>
        <time>2023-03-24T12:29:23.625Z</time>
      </trkpt>
      <trkpt lat="48.61141" lon="-2.81893">
        <ele>55.283153</ele>
        <time>2023-03-24T12:29:32.337Z</time>
      </trkpt>
      <trkpt lat="48.61143" lon="-2.81958">
        <ele>57.65425</ele>
        <time>2023-03-24T12:29:53.388Z</time>
      </trkpt>
      <trkpt lat="48.61151" lon="-2.82063">
        <ele>60.782091</ele>
        <time>2023-03-24T12:30:21.569Z</time>
      </trkpt>
      <trkpt lat="48.61151" lon="-2.82114">
        <ele>62.278456</ele>
        <time>2023-03-24T12:30:33.904Z</time>
      </trkpt>
      <trkpt lat="48.61152" lon="-2.82166">
        <ele>63.83129</ele>
        <time>2023-03-24T12:30:46.562Z</time>
      </trkpt>
      <trkpt lat="48.61147" lon="-2.82207">
        <ele>64.705732</ele>
        <time>2023-03-24T12:30:56.336Z</time>
      </trkpt>
      <trkpt lat="48.61133" lon="-2.82297">
        <ele>66.262741</ele>
        <time>2023-03-24T12:31:16.580Z</time>
      </trkpt>
      <trkpt lat="48.61132" lon="-2.82303">
        <ele>66.367738</ele>
        <time>2023-03-24T12:31:18.009Z</time>
      </trkpt>
      <trkpt lat="48.61148" lon="-2.82312">
        <ele>66.812665</ele>
        <time>2023-03-24T12:31:30.128Z</time>
      </trkpt>
      <trkpt lat="48.61166" lon="-2.82335">
        <ele>67.409221</ele>
        <time>2023-03-24T12:31:46.382Z</time>
      </trkpt>
      <trkpt lat="48.61179" lon="-2.82318">
        <ele>67.857256</ele>
        <time>2023-03-24T12:31:58.603Z</time>
      </trkpt>
      <trkpt lat="48.61256" lon="-2.82314">
        <ele>69.4939</ele>
        <time>2023-03-24T12:32:52.428Z</time>
      </trkpt>
      <trkpt lat="48.61287" lon="-2.82313">
        <ele>70.021901</ele>
        <time>2023-03-24T12:33:14.006Z</time>
      </trkpt>
      <trkpt lat="48.61283" lon="-2.82253">
        <ele>70.693093</ele>
        <time>2023-03-24T12:33:25.081Z</time>
      </trkpt>
      <trkpt lat="48.61282" lon="-2.82247">
        <ele>70.761147</ele>
        <time>2023-03-24T12:33:26.030Z</time>
      </trkpt>
      <trkpt lat="48.61288" lon="-2.82255">
        <ele>70.899014</ele>
        <time>2023-03-24T12:33:28.417Z</time>
      </trkpt>
      <trkpt lat="48.61302" lon="-2.82287">
        <ele>71.334588</ele>
        <time>2023-03-24T12:33:34.945Z</time>
      </trkpt>
      <trkpt lat="48.61309" lon="-2.82308">
        <ele>71.592192</ele>
        <time>2023-03-24T12:33:39.904Z</time>
      </trkpt>
      <trkpt lat="48.61313" lon="-2.82312">
        <ele>71.673196</ele>
        <time>2023-03-24T12:33:41.449Z</time>
      </trkpt>
      <trkpt lat="48.61312" lon="-2.82365">
        <ele>72.109451</ele>
        <time>2023-03-24T12:33:50.256Z</time>
      </trkpt>
      <trkpt lat="48.61315" lon="-2.82383">
        <ele>72.232477</ele>
        <time>2023-03-24T12:33:53.170Z</time>
      </trkpt>
      <trkpt lat="48.61314" lon="-2.82395">
        <ele>72.30847</ele>
        <time>2023-03-24T12:33:54.853Z</time>
      </trkpt>
      <trkpt lat="48.61284" lon="-2.82529">
        <ele>73.238906</ele>
        <time>2023-03-24T12:34:18.234Z</time>
      </trkpt>
      <trkpt lat="48.61385" lon="-2.82549">
        <ele>73.899876</ele>
        <time>2023-03-24T12:34:40.456Z</time>
      </trkpt>
      <trkpt lat="48.61433" lon="-2.8256">
        <ele>74.091631</ele>
        <time>2023-03-24T12:34:51.091Z</time>
      </trkpt>
      <trkpt lat="48.61467" lon="-2.82566">
        <ele>74.225894</ele>
        <time>2023-03-24T12:34:58.624Z</time>
      </trkpt>
      <trkpt lat="48.61544" lon="-2.82567">
        <ele>74.021907</ele>
        <time>2023-03-24T12:35:13.900Z</time>
      </trkpt>
      <trkpt lat="48.61548" lon="-2.82568">
        <ele>73.99341</ele>
        <time>2023-03-24T12:35:14.502Z</time>
      </trkpt>
      <trkpt lat="48.61567" lon="-2.82573">
        <ele>73.824312</ele>
        <time>2023-03-24T12:35:17.920Z</time>
      </trkpt>
      <trkpt lat="48.6158" lon="-2.82583">
        <ele>73.692206</ele>
        <time>2023-03-24T12:35:20.563Z</time>
      </trkpt>
      <trkpt lat="48.61587" lon="-2.82579">
        <ele>73.630679</ele>
        <time>2023-03-24T12:35:21.805Z</time>
      </trkpt>
      <trkpt lat="48.61619" lon="-2.82564">
        <ele>73.328777</ele>
        <time>2023-03-24T12:35:27.600Z</time>
      </trkpt>
      <trkpt lat="48.6165" lon="-2.82555">
        <ele>73.05737</ele>
        <time>2023-03-24T12:35:32.631Z</time>
      </trkpt>
      <trkpt lat="48.61693" lon="-2.82556">
        <ele>72.495503</ele>
        <time>2023-03-24T12:35:39.507Z</time>
      </trkpt>
      <trkpt lat="48.61732" lon="-2.82468">
        <ele>70.959214</ele>
        <time>2023-03-24T12:35:58.098Z</time>
      </trkpt>
      <trkpt lat="48.61843" lon="-2.82322">
        <ele>68.129055</ele>
        <time>2023-03-24T12:36:37.869Z</time>
      </trkpt>
      <trkpt lat="48.61863" lon="-2.82311">
        <ele>67.842845</ele>
        <time>2023-03-24T12:36:43.820Z</time>
      </trkpt>
      <trkpt lat="48.61868" lon="-2.82313">
        <ele>67.766752</ele>
        <time>2023-03-24T12:36:45.488Z</time>
      </trkpt>
      <trkpt lat="48.61883" lon="-2.82344">
        <ele>67.421279</ele>
        <time>2023-03-24T12:36:52.755Z</time>
      </trkpt>
      <trkpt lat="48.6191" lon="-2.8243">
        <ele>66.547413</ele>
        <time>2023-03-24T12:37:04.049Z</time>
      </trkpt>
      <trkpt lat="48.61925" lon="-2.82473">
        <ele>65.915912</ele>
        <time>2023-03-24T12:37:09.936Z</time>
      </trkpt>
      <trkpt lat="48.61936" lon="-2.82501">
        <ele>65.402362</ele>
        <time>2023-03-24T12:37:13.918Z</time>
      </trkpt>
      <trkpt lat="48.61938" lon="-2.82507">
        <ele>65.301759</ele>
        <time>2023-03-24T12:37:14.713Z</time>
      </trkpt>
      <trkpt lat="48.6196" lon="-2.825">
        <ele>64.741941</ele>
        <time>2023-03-24T12:37:18.590Z</time>
      </trkpt>
      <trkpt lat="48.61991" lon="-2.82475">
        <ele>63.889341</ele>
        <time>2023-03-24T12:37:24.226Z</time>
      </trkpt>
      <trkpt lat="48.61996" lon="-2.82506">
        <ele>63.382742</ele>
        <time>2023-03-24T12:37:38.748Z</time>
      </trkpt>
      <trkpt lat="48.62006" lon="-2.8251">
        <ele>63.120492</ele>
        <time>2023-03-24T12:37:46.278Z</time>
      </trkpt>
      <trkpt lat="48.62042" lon="-2.82489">
        <ele>62.181064</ele>
        <time>2023-03-24T12:38:13.260Z</time>
      </trkpt>
      <trkpt lat="48.62051" lon="-2.82488">
        <ele>61.949597</ele>
        <time>2023-03-24T12:38:19.523Z</time>
      </trkpt>
      <trkpt lat="48.62059" lon="-2.82494">
        <ele>61.547644</ele>
        <time>2023-03-24T12:38:25.663Z</time>
      </trkpt>
      <trkpt lat="48.62061" lon="-2.82505">
        <ele>61.207048</ele>
        <time>2023-03-24T12:38:30.934Z</time>
      </trkpt>
      <trkpt lat="48.62093" lon="-2.82463">
        <ele>59.320847</ele>
        <time>2023-03-24T12:38:59.995Z</time>
      </trkpt>
      <trkpt lat="48.62126" lon="-2.82424">
        <ele>57.431426</ele>
        <time>2023-03-24T12:39:29.100Z</time>
      </trkpt>
      <trkpt lat="48.62159" lon="-2.82414">
        <ele>55.903165</ele>
        <time>2023-03-24T12:39:52.609Z</time>
      </trkpt>
      <trkpt lat="48.62164" lon="-2.82413">
        <ele>55.686824</ele>
        <time>2023-03-24T12:39:55.959Z</time>
      </trkpt>
      <trkpt lat="48.62202" lon="-2.8239">
        <ele>53.843706</ele>
        <time>2023-03-24T12:40:24.457Z</time>
      </trkpt>
      <trkpt lat="48.62229" lon="-2.82384">
        <ele>53.147665</ele>
        <time>2023-03-24T12:40:43.344Z</time>
      </trkpt>
      <trkpt lat="48.62265" lon="-2.82378">
        <ele>52.217119</ele>
        <time>2023-03-24T12:41:08.508Z</time>
      </trkpt>
      <trkpt lat="48.62275" lon="-2.82451">
        <ele>50.957088</ele>
        <time>2023-03-24T12:41:16.075Z</time>
      </trkpt>
      <trkpt lat="48.62285" lon="-2.82442">
        <ele>50.659971</ele>
        <time>2023-03-24T12:41:18.331Z</time>
      </trkpt>
      <trkpt lat="48.62309" lon="-2.82429">
        <ele>49.998361</ele>
        <time>2023-03-24T12:41:23.097Z</time>
      </trkpt>
      <trkpt lat="48.62316" lon="-2.82431">
        <ele>49.815061</ele>
        <time>2023-03-24T12:41:24.206Z</time>
      </trkpt>
      <trkpt lat="48.62318" lon="-2.82427">
        <ele>49.733067</ele>
        <time>2023-03-24T12:41:24.754Z</time>
      </trkpt>
      <trkpt lat="48.62326" lon="-2.82415">
        <ele>49.437695</ele>
        <time>2023-03-24T12:41:26.477Z</time>
      </trkpt>
      <trkpt lat="48.62348" lon="-2.824">
        <ele>49.689182</ele>
        <time>2023-03-24T12:41:34.298Z</time>
      </trkpt>
      <trkpt lat="48.62369" lon="-2.82392">
        <ele>50.341884</ele>
        <time>2023-03-24T12:41:41.622Z</time>
      </trkpt>
      <trkpt lat="48.62387" lon="-2.82397">
        <ele>50.866278</ele>
        <time>2023-03-24T12:41:47.073Z</time>
      </trkpt>
      <trkpt lat="48.62388" lon="-2.82403">
        <ele>50.97529</ele>
        <time>2023-03-24T12:41:47.561Z</time>
      </trkpt>
      <trkpt lat="48.62386" lon="-2.82411">
        <ele>51.156978</ele>
        <time>2023-03-24T12:41:51.391Z</time>
      </trkpt>
      <trkpt lat="48.62373" lon="-2.82432">
        <ele>51.711772</ele>
        <time>2023-03-24T12:41:58.551Z</time>
      </trkpt>
      <trkpt lat="48.62362" lon="-2.82468">
        <ele>52.485619</ele>
        <time>2023-03-24T12:42:07.837Z</time>
      </trkpt>
      <trkpt lat="48.62351" lon="-2.82506">
        <ele>53.292246</ele>
        <time>2023-03-24T12:42:15.677Z</time>
      </trkpt>
      <trkpt lat="48.62347" lon="-2.8252">
        <ele>53.594275</ele>
        <time>2023-03-24T12:42:21.658Z</time>
      </trkpt>
      <trkpt lat="48.62344" lon="-2.82528">
        <ele>53.757512</ele>
        <time>2023-03-24T12:42:23.581Z</time>
      </trkpt>
      <trkpt lat="48.62338" lon="-2.82561">
        <ele>54.430192</ele>
        <time>2023-03-24T12:42:34.754Z</time>
      </trkpt>
      <trkpt lat="48.62339" lon="-2.82585">
        <ele>55.16232</ele>
        <time>2023-03-24T12:42:41.400Z</time>
      </trkpt>
      <trkpt lat="48.62346" lon="-2.82609">
        <ele>56.031731</ele>
        <time>2023-03-24T12:42:50.687Z</time>
      </trkpt>
      <trkpt lat="48.62342" lon="-2.82619">
        <ele>56.442635</ele>
        <time>2023-03-24T12:42:56.184Z</time>
      </trkpt>
      <trkpt lat="48.62335" lon="-2.82659">
        <ele>57.834458</ele>
        <time>2023-03-24T12:43:10.403Z</time>
      </trkpt>
      <trkpt lat="48.62315" lon="-2.82803">
        <ele>62.781687</ele>
        <time>2023-03-24T12:43:54.743Z</time>
      </trkpt>
      <trkpt lat="48.6231" lon="-2.8288">
        <ele>64.607727</ele>
        <time>2023-03-24T12:44:15.032Z</time>
      </trkpt>
      <trkpt lat="48.62284" lon="-2.82936">
        <ele>65.832355</ele>
        <time>2023-03-24T12:44:30.807Z</time>
      </trkpt>
      <trkpt lat="48.62302" lon="-2.82967">
        <ele>66.560254</ele>
        <time>2023-03-24T12:44:40.030Z</time>
      </trkpt>
      <trkpt lat="48.62318" lon="-2.83001">
        <ele>67.317582</ele>
        <time>2023-03-24T12:44:49.084Z</time>
      </trkpt>
      <trkpt lat="48.62354" lon="-2.83074">
        <ele>68.659494</ele>
        <time>2023-03-24T12:45:06.476Z</time>
      </trkpt>
      <trkpt lat="48.62422" lon="-2.83229">
        <ele>69.288058</ele>
        <time>2023-03-24T12:45:34.160Z</time>
      </trkpt>
      <trkpt lat="48.62462" lon="-2.83328">
        <ele>69.491812</ele>
        <time>2023-03-24T12:45:49.450Z</time>
      </trkpt>
      <trkpt lat="48.62465" lon="-2.83346">
        <ele>69.484466</ele>
        <time>2023-03-24T12:45:51.773Z</time>
      </trkpt>
      <trkpt lat="48.62464" lon="-2.83361">
        <ele>69.47824</ele>
        <time>2023-03-24T12:45:53.757Z</time>
      </trkpt>
      <trkpt lat="48.62492" lon="-2.83386">
        <ele>69.458152</ele>
        <time>2023-03-24T12:45:59.718Z</time>
      </trkpt>
      <trkpt lat="48.62488" lon="-2.8341">
        <ele>69.44823</ele>
        <time>2023-03-24T12:46:02.647Z</time>
      </trkpt>
      <trkpt lat="48.62481" lon="-2.83544">
        <ele>69.380312</ele>
        <time>2023-03-24T12:46:19.741Z</time>
      </trkpt>
      <trkpt lat="48.62484" lon="-2.83549">
        <ele>69.372781</ele>
        <time>2023-03-24T12:46:20.951Z</time>
      </trkpt>
      <trkpt lat="48.62493" lon="-2.83571">
        <ele>69.345641</ele>
        <time>2023-03-24T12:46:25.134Z</time>
      </trkpt>
      <trkpt lat="48.6249" lon="-2.83587">
        <ele>69.327203</ele>
        <time>2023-03-24T12:46:28.005Z</time>
      </trkpt>
      <trkpt lat="48.62479" lon="-2.836">
        <ele>69.303787</ele>
        <time>2023-03-24T12:46:31.617Z</time>
      </trkpt>
      <trkpt lat="48.62479" lon="-2.8361">
        <ele>69.29327</ele>
        <time>2023-03-24T12:46:32.821Z</time>
      </trkpt>
      <trkpt lat="48.62476" lon="-2.83658">
        <ele>69.239984</ele>
        <time>2023-03-24T12:46:38.896Z</time>
      </trkpt>
      <trkpt lat="48.62474" lon="-2.83742">
        <ele>69.147764</ele>
        <time>2023-03-24T12:46:49.213Z</time>
      </trkpt>
      <trkpt lat="48.62487" lon="-2.83799">
        <ele>68.975208</ele>
        <time>2023-03-24T12:46:56.326Z</time>
      </trkpt>
      <trkpt lat="48.62497" lon="-2.83819">
        <ele>68.798976</ele>
        <time>2023-03-24T12:46:59.420Z</time>
      </trkpt>
      <trkpt lat="48.62525" lon="-2.83857">
        <ele>68.395675</ele>
        <time>2023-03-24T12:47:06.413Z</time>
      </trkpt>
      <trkpt lat="48.62617" lon="-2.83982">
        <ele>67.013831</ele>
        <time>2023-03-24T12:47:27.906Z</time>
      </trkpt>
      <trkpt lat="48.62634" lon="-2.83989">
        <ele>66.738235</ele>
        <time>2023-03-24T12:47:30.773Z</time>
      </trkpt>
      <trkpt lat="48.62629" lon="-2.8403">
        <ele>66.295182</ele>
        <time>2023-03-24T12:47:35.155Z</time>
      </trkpt>
      <trkpt lat="48.62688" lon="-2.84038">
        <ele>65.362536</ele>
        <time>2023-03-24T12:47:47.895Z</time>
      </trkpt>
      <trkpt lat="48.62731" lon="-2.84054">
        <ele>64.646986</ele>
        <time>2023-03-24T12:47:57.762Z</time>
      </trkpt>
      <trkpt lat="48.62857" lon="-2.84116">
        <ele>62.12879</ele>
        <time>2023-03-24T12:48:34.620Z</time>
      </trkpt>
      <trkpt lat="48.62966" lon="-2.84183">
        <ele>59.572589</ele>
        <time>2023-03-24T12:49:06.174Z</time>
      </trkpt>
      <trkpt lat="48.63059" lon="-2.84231">
        <ele>57.097887</ele>
        <time>2023-03-24T12:49:32.188Z</time>
      </trkpt>
      <trkpt lat="48.63094" lon="-2.8424">
        <ele>56.216098</ele>
        <time>2023-03-24T12:49:41.767Z</time>
      </trkpt>
      <trkpt lat="48.63128" lon="-2.84236">
        <ele>55.507466</ele>
        <time>2023-03-24T12:49:51.017Z</time>
      </trkpt>
      <trkpt lat="48.63228" lon="-2.84162">
        <ele>53.182</ele>
        <time>2023-03-24T12:50:21.980Z</time>
      </trkpt>
      <trkpt lat="48.63245" lon="-2.84154">
        <ele>52.805891</ele>
        <time>2023-03-24T12:50:26.883Z</time>
      </trkpt>
      <trkpt lat="48.63313" lon="-2.84148">
        <ele>50.441622</ele>
        <time>2023-03-24T12:50:44.706Z</time>
      </trkpt>
      <trkpt lat="48.63342" lon="-2.84147">
        <ele>49.288749</ele>
        <time>2023-03-24T12:50:52.306Z</time>
      </trkpt>
      <trkpt lat="48.63464" lon="-2.84147">
        <ele>44.25084</ele>
        <time>2023-03-24T12:51:21.901Z</time>
      </trkpt>
      <trkpt lat="48.63477" lon="-2.84148">
        <ele>43.56118</ele>
        <time>2023-03-24T12:51:24.962Z</time>
      </trkpt>
      <trkpt lat="48.63566" lon="-2.84145">
        <ele>38.884111</ele>
        <time>2023-03-24T12:51:45.576Z</time>
      </trkpt>
      <trkpt lat="48.63587" lon="-2.84138">
        <ele>37.73688</ele>
        <time>2023-03-24T12:51:50.652Z</time>
      </trkpt>
      <trkpt lat="48.63621" lon="-2.84113">
        <ele>36.062872</ele>
        <time>2023-03-24T12:51:59.719Z</time>
      </trkpt>
      <trkpt lat="48.63715" lon="-2.83983">
        <ele>35.299229</ele>
        <time>2023-03-24T12:52:35.452Z</time>
      </trkpt>
      <trkpt lat="48.63737" lon="-2.84007">
        <ele>35.13667</ele>
        <time>2023-03-24T12:52:46.876Z</time>
      </trkpt>
      <trkpt lat="48.63743" lon="-2.84022">
        <ele>35.06585</ele>
        <time>2023-03-24T12:52:51.886Z</time>
      </trkpt>
      <trkpt lat="48.63717" lon="-2.84202">
        <ele>41.128212</ele>
        <time>2023-03-24T12:54:03.591Z</time>
      </trkpt>
      <trkpt lat="48.63716" lon="-2.84323">
        <ele>45.395517</ele>
        <time>2023-03-24T12:54:55.666Z</time>
      </trkpt>
      <trkpt lat="48.63712" lon="-2.84366">
        <ele>46.883026</ele>
        <time>2023-03-24T12:55:13.249Z</time>
      </trkpt>
      <trkpt lat="48.63697" lon="-2.84433">
        <ele>49.305525</ele>
        <time>2023-03-24T12:55:41.536Z</time>
      </trkpt>
      <trkpt lat="48.63693" lon="-2.84456">
        <ele>50.127125</ele>
        <time>2023-03-24T12:55:50.582Z</time>
      </trkpt>
      <trkpt lat="48.63685" lon="-2.84512">
        <ele>52.08143</ele>
        <time>2023-03-24T12:56:10.991Z</time>
      </trkpt>
      <trkpt lat="48.63591" lon="-2.84529">
        <ele>55.770992</ele>
        <time>2023-03-24T12:56:48.636Z</time>
      </trkpt>
      <trkpt lat="48.63561" lon="-2.84542">
        <ele>56.759876</ele>
        <time>2023-03-24T12:57:00.424Z</time>
      </trkpt>
      <trkpt lat="48.63543" lon="-2.8456">
        <ele>57.417588</ele>
        <time>2023-03-24T12:57:08.423Z</time>
      </trkpt>
      <trkpt lat="48.6354" lon="-2.84581">
        <ele>57.865718</ele>
        <time>2023-03-24T12:57:12.678Z</time>
      </trkpt>
      <trkpt lat="48.63542" lon="-2.84616">
        <ele>58.599275</ele>
        <time>2023-03-24T12:57:20.814Z</time>
      </trkpt>
      <trkpt lat="48.63582" lon="-2.84679">
        <ele>59.98393</ele>
        <time>2023-03-24T12:57:44.752Z</time>
      </trkpt>
      <trkpt lat="48.6363" lon="-2.84806">
        <ele>61.425752</ele>
        <time>2023-03-24T12:58:23.255Z</time>
      </trkpt>
      <trkpt lat="48.63679" lon="-2.84922">
        <ele>62.419881</ele>
        <time>2023-03-24T12:58:56.578Z</time>
      </trkpt>
      <trkpt lat="48.6369" lon="-2.84954">
        <ele>62.510131</ele>
        <time>2023-03-24T12:59:04.724Z</time>
      </trkpt>
      <trkpt lat="48.63653" lon="-2.84988">
        <ele>62.673991</ele>
        <time>2023-03-24T12:59:19.295Z</time>
      </trkpt>
      <trkpt lat="48.63622" lon="-2.85022">
        <ele>62.815495</ele>
        <time>2023-03-24T12:59:31.630Z</time>
      </trkpt>
      <trkpt lat="48.63664" lon="-2.85116">
        <ele>62.883296</ele>
        <time>2023-03-24T12:59:47.062Z</time>
      </trkpt>
      <trkpt lat="48.63699" lon="-2.85201">
        <ele>62.714918</ele>
        <time>2023-03-24T12:59:59.913Z</time>
      </trkpt>
      <trkpt lat="48.63708" lon="-2.85236">
        <ele>62.650896</ele>
        <time>2023-03-24T13:00:04.489Z</time>
      </trkpt>
      <trkpt lat="48.63732" lon="-2.85316">
        <ele>62.513199</ele>
        <time>2023-03-24T13:00:15.534Z</time>
      </trkpt>
      <trkpt lat="48.63752" lon="-2.85402">
        <ele>62.573493</ele>
        <time>2023-03-24T13:00:27.520Z</time>
      </trkpt>
      <trkpt lat="48.63755" lon="-2.85429">
        <ele>62.591598</ele>
        <time>2023-03-24T13:00:31.307Z</time>
      </trkpt>
      <trkpt lat="48.63753" lon="-2.85437">
        <ele>62.597722</ele>
        <time>2023-03-24T13:00:32.574Z</time>
      </trkpt>
      <trkpt lat="48.63745" lon="-2.85447">
        <ele>62.607639</ele>
        <time>2023-03-24T13:00:34.735Z</time>
      </trkpt>
      <trkpt lat="48.63705" lon="-2.8547">
        <ele>62.650647</ele>
        <time>2023-03-24T13:00:44.106Z</time>
      </trkpt>
      <trkpt lat="48.63668" lon="-2.85491">
        <ele>62.690223</ele>
        <time>2023-03-24T13:00:53.006Z</time>
      </trkpt>
      <trkpt lat="48.63648" lon="-2.85508">
        <ele>62.671462</ele>
        <time>2023-03-24T13:00:57.952Z</time>
      </trkpt>
      <trkpt lat="48.63608" lon="-2.85573">
        <ele>62.622048</ele>
        <time>2023-03-24T13:01:10.804Z</time>
      </trkpt>
      <trkpt lat="48.63595" lon="-2.85606">
        <ele>62.601173</ele>
        <time>2023-03-24T13:01:15.697Z</time>
      </trkpt>
      <trkpt lat="48.63581" lon="-2.85648">
        <ele>62.574672</ele>
        <time>2023-03-24T13:01:21.739Z</time>
      </trkpt>
      <trkpt lat="48.6356" lon="-2.85678">
        <ele>62.550716</ele>
        <time>2023-03-24T13:01:27.083Z</time>
      </trkpt>
      <trkpt lat="48.63553" lon="-2.85697">
        <ele>62.537403</ele>
        <time>2023-03-24T13:01:29.933Z</time>
      </trkpt>
      <trkpt lat="48.63594" lon="-2.85779">
        <ele>62.419936</ele>
        <time>2023-03-24T13:01:42.498Z</time>
      </trkpt>
      <trkpt lat="48.63655" lon="-2.85878">
        <ele>62.266516</ele>
        <time>2023-03-24T13:02:00.488Z</time>
      </trkpt>
      <trkpt lat="48.63676" lon="-2.85922">
        <ele>62.375666</ele>
        <time>2023-03-24T13:02:07.873Z</time>
      </trkpt>
      <trkpt lat="48.6369" lon="-2.85961">
        <ele>62.664086</ele>
        <time>2023-03-24T13:02:14.391Z</time>
      </trkpt>
      <trkpt lat="48.63695" lon="-2.85982">
        <ele>62.807008</ele>
        <time>2023-03-24T13:02:18.659Z</time>
      </trkpt>
      <trkpt lat="48.63772" lon="-2.85942">
        <ele>63.601158</ele>
        <time>2023-03-24T13:02:39.127Z</time>
      </trkpt>
      <trkpt lat="48.63835" lon="-2.85914">
        <ele>64.22038</ele>
        <time>2023-03-24T13:02:56.530Z</time>
      </trkpt>
      <trkpt lat="48.63863" lon="-2.85895">
        <ele>64.494416</ele>
        <time>2023-03-24T13:03:03.593Z</time>
      </trkpt>
      <trkpt lat="48.63864" lon="-2.85909">
        <ele>64.579677</ele>
        <time>2023-03-24T13:03:06.661Z</time>
      </trkpt>
      <trkpt lat="48.6384" lon="-2.8598">
        <ele>65.050136</ele>
        <time>2023-03-24T13:03:25.144Z</time>
      </trkpt>
      <trkpt lat="48.63771" lon="-2.86117">
        <ele>66.072814</ele>
        <time>2023-03-24T13:04:06.607Z</time>
      </trkpt>
      <trkpt lat="48.63738" lon="-2.862">
        <ele>66.644697</ele>
        <time>2023-03-24T13:04:30.020Z</time>
      </trkpt>
      <trkpt lat="48.63697" lon="-2.8633">
        <ele>67.282413</ele>
        <time>2023-03-24T13:05:04.275Z</time>
      </trkpt>
      <trkpt lat="48.6373" lon="-2.86363">
        <ele>67.35836</ele>
        <time>2023-03-24T13:05:17.916Z</time>
      </trkpt>
      <trkpt lat="48.63745" lon="-2.86368">
        <ele>67.38828</ele>
        <time>2023-03-24T13:05:23.107Z</time>
      </trkpt>
      <trkpt lat="48.6378" lon="-2.86366">
        <ele>67.455943</ele>
        <time>2023-03-24T13:05:34.530Z</time>
      </trkpt>
      <trkpt lat="48.63811" lon="-2.86355">
        <ele>67.518322</ele>
        <time>2023-03-24T13:05:44.646Z</time>
      </trkpt>
      <trkpt lat="48.63823" lon="-2.86347">
        <ele>67.543061</ele>
        <time>2023-03-24T13:05:48.583Z</time>
      </trkpt>
      <trkpt lat="48.63848" lon="-2.8631">
        <ele>67.393979</ele>
        <time>2023-03-24T13:05:58.907Z</time>
      </trkpt>
      <trkpt lat="48.63946" lon="-2.86343">
        <ele>66.553743</ele>
        <time>2023-03-24T13:06:28.720Z</time>
      </trkpt>
      <trkpt lat="48.64009" lon="-2.86353">
        <ele>66.000843</ele>
        <time>2023-03-24T13:06:47.156Z</time>
      </trkpt>
      <trkpt lat="48.6406" lon="-2.86376">
        <ele>65.266672</ele>
        <time>2023-03-24T13:07:02.771Z</time>
      </trkpt>
      <trkpt lat="48.64156" lon="-2.86394">
        <ele>63.948887</ele>
        <time>2023-03-24T13:07:30.150Z</time>
      </trkpt>
      <trkpt lat="48.64177" lon="-2.86436">
        <ele>63.418291</ele>
        <time>2023-03-24T13:07:39.805Z</time>
      </trkpt>
      <trkpt lat="48.64276" lon="-2.86467">
        <ele>61.492996</ele>
        <time>2023-03-24T13:08:07.947Z</time>
      </trkpt>
      <trkpt lat="48.64318" lon="-2.86477">
        <ele>60.673525</ele>
        <time>2023-03-24T13:08:16.996Z</time>
      </trkpt>
      <trkpt lat="48.64325" lon="-2.86483">
        <ele>60.530318</ele>
        <time>2023-03-24T13:08:18.540Z</time>
      </trkpt>
      <trkpt lat="48.64351" lon="-2.86524">
        <ele>59.977173</ele>
        <time>2023-03-24T13:08:26.219Z</time>
      </trkpt>
      <trkpt lat="48.64362" lon="-2.86523">
        <ele>59.869893</ele>
        <time>2023-03-24T13:08:28.420Z</time>
      </trkpt>
      <trkpt lat="48.64376" lon="-2.86511">
        <ele>59.716079</ele>
        <time>2023-03-24T13:08:31.706Z</time>
      </trkpt>
      <trkpt lat="48.64381" lon="-2.86513">
        <ele>59.662783</ele>
        <time>2023-03-24T13:08:32.852Z</time>
      </trkpt>
      <trkpt lat="48.64386" lon="-2.86524">
        <ele>59.578865</ele>
        <time>2023-03-24T13:08:34.665Z</time>
      </trkpt>
      <trkpt lat="48.64386" lon="-2.86575">
        <ele>59.248159</ele>
        <time>2023-03-24T13:08:42.300Z</time>
      </trkpt>
      <trkpt lat="48.64409" lon="-2.86567">
        <ele>59.023061</ele>
        <time>2023-03-24T13:08:46.447Z</time>
      </trkpt>
      <trkpt lat="48.64423" lon="-2.86559">
        <ele>58.868889</ele>
        <time>2023-03-24T13:08:49.229Z</time>
      </trkpt>
      <trkpt lat="48.64458" lon="-2.8653">
        <ele>58.481516</ele>
        <time>2023-03-24T13:08:57.290Z</time>
      </trkpt>
      <trkpt lat="48.64478" lon="-2.86516">
        <ele>58.657198</ele>
        <time>2023-03-24T13:09:03.165Z</time>
      </trkpt>
      <trkpt lat="48.64522" lon="-2.86496">
        <ele>59.49569</ele>
        <time>2023-03-24T13:09:13.942Z</time>
      </trkpt>
      <trkpt lat="48.64556" lon="-2.86465">
        <ele>60.237149</ele>
        <time>2023-03-24T13:09:23.977Z</time>
      </trkpt>
      <trkpt lat="48.64568" lon="-2.86466">
        <ele>60.455719</ele>
        <time>2023-03-24T13:09:28.025Z</time>
      </trkpt>
      <trkpt lat="48.6458" lon="-2.86471">
        <ele>60.690868</ele>
        <time>2023-03-24T13:09:32.445Z</time>
      </trkpt>
      <trkpt lat="48.6459" lon="-2.86467">
        <ele>60.873414</ele>
        <time>2023-03-24T13:09:35.192Z</time>
      </trkpt>
      <trkpt lat="48.64614" lon="-2.86491">
        <ele>61.409693</ele>
        <time>2023-03-24T13:09:46.141Z</time>
      </trkpt>
      <trkpt lat="48.64667" lon="-2.86557">
        <ele>62.844786</ele>
        <time>2023-03-24T13:10:10.061Z</time>
      </trkpt>
      <trkpt lat="48.64683" lon="-2.86583">
        <ele>63.357637</ele>
        <time>2023-03-24T13:10:17.467Z</time>
      </trkpt>
      <trkpt lat="48.6469" lon="-2.86599">
        <ele>63.638487</ele>
        <time>2023-03-24T13:10:22.220Z</time>
      </trkpt>
      <trkpt lat="48.6471" lon="-2.86657">
        <ele>64.581466</ele>
        <time>2023-03-24T13:10:35.010Z</time>
      </trkpt>
      <trkpt lat="48.6472" lon="-2.86657">
        <ele>64.796979</ele>
        <time>2023-03-24T13:10:37.399Z</time>
      </trkpt>
      <trkpt lat="48.64731" lon="-2.86652">
        <ele>65.048712</ele>
        <time>2023-03-24T13:10:40.661Z</time>
      </trkpt>
      <trkpt lat="48.64766" lon="-2.86609">
        <ele>65.788212</ele>
        <time>2023-03-24T13:10:58.348Z</time>
      </trkpt>
      <trkpt lat="48.64822" lon="-2.86529">
        <ele>66.412998</ele>
        <time>2023-03-24T13:11:26.699Z</time>
      </trkpt>
      <trkpt lat="48.64852" lon="-2.86482">
        <ele>66.763919</ele>
        <time>2023-03-24T13:11:41.881Z</time>
      </trkpt>
      <trkpt lat="48.64872" lon="-2.86434">
        <ele>67.068899</ele>
        <time>2023-03-24T13:11:54.381Z</time>
      </trkpt>
      <trkpt lat="48.64879" lon="-2.86407">
        <ele>67.110736</ele>
        <time>2023-03-24T13:12:00.511Z</time>
      </trkpt>
      <trkpt lat="48.64956" lon="-2.86563">
        <ele>67.149668</ele>
        <time>2023-03-24T13:12:41.213Z</time>
      </trkpt>
      <trkpt lat="48.65004" lon="-2.86625">
        <ele>67.404582</ele>
        <time>2023-03-24T13:13:01.330Z</time>
      </trkpt>
      <trkpt lat="48.65042" lon="-2.86588">
        <ele>67.818842</ele>
        <time>2023-03-24T13:13:16.481Z</time>
      </trkpt>
      <trkpt lat="48.6511" lon="-2.8651">
        <ele>68.604414</ele>
        <time>2023-03-24T13:13:47.702Z</time>
      </trkpt>
      <trkpt lat="48.65212" lon="-2.86465">
        <ele>70.448412</ele>
        <time>2023-03-24T13:14:33.788Z</time>
      </trkpt>
      <trkpt lat="48.65268" lon="-2.86453">
        <ele>71.563713</ele>
        <time>2023-03-24T13:14:57.958Z</time>
      </trkpt>
      <trkpt lat="48.65281" lon="-2.86515">
        <ele>72.336948</ele>
        <time>2023-03-24T13:15:10.518Z</time>
      </trkpt>
      <trkpt lat="48.65287" lon="-2.86528">
        <ele>72.338098</ele>
        <time>2023-03-24T13:15:13.132Z</time>
      </trkpt>
      <trkpt lat="48.65296" lon="-2.86533">
        <ele>72.339101</ele>
        <time>2023-03-24T13:15:16.068Z</time>
      </trkpt>
      <trkpt lat="48.65309" lon="-2.86522">
        <ele>72.340777</ele>
        <time>2023-03-24T13:15:20.082Z</time>
      </trkpt>
      <trkpt lat="48.65323" lon="-2.86484">
        <ele>72.343913</ele>
        <time>2023-03-24T13:15:30.796Z</time>
      </trkpt>
      <trkpt lat="48.65327" lon="-2.8646">
        <ele>72.345642</ele>
        <time>2023-03-24T13:15:36.335Z</time>
      </trkpt>
      <trkpt lat="48.6533" lon="-2.86421">
        <ele>72.348468</ele>
        <time>2023-03-24T13:15:45.010Z</time>
      </trkpt>
      <trkpt lat="48.65339" lon="-2.86382">
        <ele>72.351478</ele>
        <time>2023-03-24T13:15:53.338Z</time>
      </trkpt>
      <trkpt lat="48.65399" lon="-2.86247">
        <ele>70.534711</ele>
        <time>2023-03-24T13:16:22.608Z</time>
      </trkpt>
      <trkpt lat="48.65419" lon="-2.86217">
        <ele>69.733807</ele>
        <time>2023-03-24T13:16:30.081Z</time>
      </trkpt>
      <trkpt lat="48.65519" lon="-2.86109">
        <ele>66.019573</ele>
        <time>2023-03-24T13:17:01.481Z</time>
      </trkpt>
      <trkpt lat="48.65561" lon="-2.8607">
        <ele>64.294981</ele>
        <time>2023-03-24T13:17:13.361Z</time>
      </trkpt>
      <trkpt lat="48.65626" lon="-2.85996">
        <ele>61.397707</ele>
        <time>2023-03-24T13:17:34.365Z</time>
      </trkpt>
      <trkpt lat="48.65648" lon="-2.85977">
        <ele>60.715912</ele>
        <time>2023-03-24T13:17:40.560Z</time>
      </trkpt>
      <trkpt lat="48.65639" lon="-2.85966">
        <ele>60.494148</ele>
        <time>2023-03-24T13:17:44.067Z</time>
      </trkpt>
      <trkpt lat="48.65631" lon="-2.85956">
        <ele>60.311307</ele>
        <time>2023-03-24T13:17:46.588Z</time>
      </trkpt>
      <trkpt lat="48.65549" lon="-2.85884">
        <ele>58.519188</ele>
        <time>2023-03-24T13:18:13.170Z</time>
      </trkpt>
      <trkpt lat="48.65533" lon="-2.85864">
        <ele>58.137079</ele>
        <time>2023-03-24T13:18:18.673Z</time>
      </trkpt>
      <trkpt lat="48.65508" lon="-2.85815">
        <ele>57.360367</ele>
        <time>2023-03-24T13:18:30.767Z</time>
      </trkpt>
      <trkpt lat="48.65478" lon="-2.85735">
        <ele>56.172299</ele>
        <time>2023-03-24T13:18:49.195Z</time>
      </trkpt>
      <trkpt lat="48.65488" lon="-2.85701">
        <ele>55.696781</ele>
        <time>2023-03-24T13:18:55.818Z</time>
      </trkpt>
      <trkpt lat="48.65522" lon="-2.85638">
        <ele>54.646149</ele>
        <time>2023-03-24T13:19:10.104Z</time>
      </trkpt>
      <trkpt lat="48.65543" lon="-2.85609">
        <ele>54.087152</ele>
        <time>2023-03-24T13:19:17.572Z</time>
      </trkpt>
      <trkpt lat="48.65557" lon="-2.85598">
        <ele>53.638531</ele>
        <time>2023-03-24T13:19:21.549Z</time>
      </trkpt>
      <trkpt lat="48.65581" lon="-2.85559">
        <ele>52.578693</ele>
        <time>2023-03-24T13:19:30.538Z</time>
      </trkpt>
      <trkpt lat="48.65614" lon="-2.8552">
        <ele>51.31044</ele>
        <time>2023-03-24T13:19:41.406Z</time>
      </trkpt>
      <trkpt lat="48.65573" lon="-2.85475">
        <ele>49.792575</ele>
        <time>2023-03-24T13:19:49.300Z</time>
      </trkpt>
      <trkpt lat="48.65542" lon="-2.85466">
        <ele>48.817561</ele>
        <time>2023-03-24T13:19:54.202Z</time>
      </trkpt>
      <trkpt lat="48.6547" lon="-2.85426">
        <ele>47.432248</ele>
        <time>2023-03-24T13:20:06.080Z</time>
      </trkpt>
      <trkpt lat="48.65472" lon="-2.85412">
        <ele>47.264187</ele>
        <time>2023-03-24T13:20:07.728Z</time>
      </trkpt>
      <trkpt lat="48.65493" lon="-2.8527">
        <ele>45.632274</ele>
        <time>2023-03-24T13:20:23.632Z</time>
      </trkpt>
      <trkpt lat="48.65495" lon="-2.85276">
        <ele>45.555903</ele>
        <time>2023-03-24T13:20:24.794Z</time>
      </trkpt>
      <trkpt lat="48.65523" lon="-2.85298">
        <ele>45.83558</ele>
        <time>2023-03-24T13:20:30.582Z</time>
      </trkpt>
      <trkpt lat="48.65625" lon="-2.8535">
        <ele>46.822059</ele>
        <time>2023-03-24T13:20:56.450Z</time>
      </trkpt>
      <trkpt lat="48.65636" lon="-2.85344">
        <ele>46.924538</ele>
        <time>2023-03-24T13:21:00.608Z</time>
      </trkpt>
      <trkpt lat="48.6564" lon="-2.85356">
        <ele>47.0043</ele>
        <time>2023-03-24T13:21:03.067Z</time>
      </trkpt>
      <trkpt lat="48.65654" lon="-2.85348">
        <ele>47.134951</ele>
        <time>2023-03-24T13:21:07.613Z</time>
      </trkpt>
      <trkpt lat="48.65715" lon="-2.85329">
        <ele>49.057328</ele>
        <time>2023-03-24T13:21:29.246Z</time>
      </trkpt>
      <trkpt lat="48.65809" lon="-2.85267">
        <ele>52.438473</ele>
        <time>2023-03-24T13:22:09.001Z</time>
      </trkpt>
      <trkpt lat="48.65802" lon="-2.85243">
        <ele>53.011825</ele>
        <time>2023-03-24T13:22:15.474Z</time>
      </trkpt>
      <trkpt lat="48.65823" lon="-2.85226">
        <ele>53.589196</ele>
        <time>2023-03-24T13:22:25.159Z</time>
      </trkpt>
      <trkpt lat="48.65854" lon="-2.852">
        <ele>54.384228</ele>
        <time>2023-03-24T13:22:38.312Z</time>
      </trkpt>
      <trkpt lat="48.65922" lon="-2.8516">
        <ele>56.042056</ele>
        <time>2023-03-24T13:23:02.050Z</time>
      </trkpt>
      <trkpt lat="48.65944" lon="-2.85142">
        <ele>56.593434</ele>
        <time>2023-03-24T13:23:08.869Z</time>
      </trkpt>
      <trkpt lat="48.65954" lon="-2.85132">
        <ele>56.873708</ele>
        <time>2023-03-24T13:23:11.999Z</time>
      </trkpt>
      <trkpt lat="48.65993" lon="-2.85073">
        <ele>56.817329</ele>
        <time>2023-03-24T13:23:23.079Z</time>
      </trkpt>
      <trkpt lat="48.65994" lon="-2.85072">
        <ele>56.808838</ele>
        <time>2023-03-24T13:23:23.261Z</time>
      </trkpt>
      <trkpt lat="48.66037" lon="-2.84991">
        <ele>56.18856</ele>
        <time>2023-03-24T13:23:35.772Z</time>
      </trkpt>
      <trkpt lat="48.66045" lon="-2.84983">
        <ele>56.105929</ele>
        <time>2023-03-24T13:23:37.388Z</time>
      </trkpt>
      <trkpt lat="48.66071" lon="-2.85028">
        <ele>55.748548</ele>
        <time>2023-03-24T13:23:48.395Z</time>
      </trkpt>
      <trkpt lat="48.66122" lon="-2.85088">
        <ele>54.418088</ele>
        <time>2023-03-24T13:24:05.936Z</time>
      </trkpt>
      <trkpt lat="48.66151" lon="-2.85104">
        <ele>53.604679</ele>
        <time>2023-03-24T13:24:14.073Z</time>
      </trkpt>
      <trkpt lat="48.66176" lon="-2.85104">
        <ele>52.951654</ele>
        <time>2023-03-24T13:24:20.497Z</time>
      </trkpt>
      <trkpt lat="48.66199" lon="-2.85039">
        <ele>51.689936</ele>
        <time>2023-03-24T13:24:33.213Z</time>
      </trkpt>
      <trkpt lat="48.66224" lon="-2.84986">
        <ele>50.633652</ele>
        <time>2023-03-24T13:24:44.678Z</time>
      </trkpt>
      <trkpt lat="48.66237" lon="-2.84976">
        <ele>50.348196</ele>
        <time>2023-03-24T13:24:46.694Z</time>
      </trkpt>
      <trkpt lat="48.6628" lon="-2.84955">
        <ele>49.438917</ele>
        <time>2023-03-24T13:24:53.743Z</time>
      </trkpt>
      <trkpt lat="48.66332" lon="-2.84913">
        <ele>48.271681</ele>
        <time>2023-03-24T13:25:02.704Z</time>
      </trkpt>
      <trkpt lat="48.66336" lon="-2.84927">
        <ele>48.061513</ele>
        <time>2023-03-24T13:25:04.434Z</time>
      </trkpt>
      <trkpt lat="48.66343" lon="-2.84951">
        <ele>47.723179</ele>
        <time>2023-03-24T13:25:07.308Z</time>
      </trkpt>
      <trkpt lat="48.66366" lon="-2.85083">
        <ele>45.252236</ele>
        <time>2023-03-24T13:25:22.355Z</time>
      </trkpt>
      <trkpt lat="48.6639" lon="-2.85177">
        <ele>43.279626</ele>
        <time>2023-03-24T13:25:32.084Z</time>
      </trkpt>
      <trkpt lat="48.66396" lon="-2.85201">
        <ele>42.767681</ele>
        <time>2023-03-24T13:25:34.443Z</time>
      </trkpt>
      <trkpt lat="48.66401" lon="-2.85218">
        <ele>42.410918</ele>
        <time>2023-03-24T13:25:36.137Z</time>
      </trkpt>
      <trkpt lat="48.66427" lon="-2.85263">
        <ele>39.941835</ele>
        <time>2023-03-24T13:25:41.344Z</time>
      </trkpt>
      <trkpt lat="48.66453" lon="-2.85289">
        <ele>37.350403</ele>
        <time>2023-03-24T13:25:45.189Z</time>
      </trkpt>
      <trkpt lat="48.66475" lon="-2.85302">
        <ele>35.322741</ele>
        <time>2023-03-24T13:25:48.097Z</time>
      </trkpt>
      <trkpt lat="48.66505" lon="-2.85313">
        <ele>32.784925</ele>
        <time>2023-03-24T13:25:51.730Z</time>
      </trkpt>
      <trkpt lat="48.66527" lon="-2.85328">
        <ele>30.745516</ele>
        <time>2023-03-24T13:25:54.649Z</time>
      </trkpt>
      <trkpt lat="48.66604" lon="-2.8542">
        <ele>23.605325</ele>
        <time>2023-03-24T13:26:06.358Z</time>
      </trkpt>
      <trkpt lat="48.66674" lon="-2.85505">
        <ele>17.996434</ele>
        <time>2023-03-24T13:26:17.927Z</time>
      </trkpt>
      <trkpt lat="48.66681" lon="-2.85482">
        <ele>16.949108</ele>
        <time>2023-03-24T13:26:20.255Z</time>
      </trkpt>
      <trkpt lat="48.66697" lon="-2.85431">
        <ele>15.784062</ele>
        <time>2023-03-24T13:26:26.084Z</time>
      </trkpt>
      <trkpt lat="48.667" lon="-2.85421">
        <ele>15.8797</ele>
        <time>2023-03-24T13:26:27.757Z</time>
      </trkpt>
      <trkpt lat="48.66709" lon="-2.85432">
        <ele>16.02513</ele>
        <time>2023-03-24T13:26:35.608Z</time>
      </trkpt>
      <trkpt lat="48.66719" lon="-2.85437">
        <ele>16.1684</ele>
        <time>2023-03-24T13:26:43.296Z</time>
      </trkpt>
      <trkpt lat="48.66682" lon="-2.8551">
        <ele>16.95762</ele>
        <time>2023-03-24T13:27:25.750Z</time>
      </trkpt>
      <trkpt lat="48.6668" lon="-2.85536">
        <ele>17.182095</ele>
        <time>2023-03-24T13:27:37.830Z</time>
      </trkpt>
      <trkpt lat="48.66673" lon="-2.85548">
        <ele>17.315154</ele>
        <time>2023-03-24T13:27:44.958Z</time>
      </trkpt>
      <trkpt lat="48.66668" lon="-2.85576">
        <ele>17.565827</ele>
        <time>2023-03-24T13:27:58.474Z</time>
      </trkpt>
      <trkpt lat="48.66662" lon="-2.85587">
        <ele>17.681867</ele>
        <time>2023-03-24T13:28:04.669Z</time>
      </trkpt>
      <trkpt lat="48.66657" lon="-2.85607">
        <ele>17.867193</ele>
        <time>2023-03-24T13:28:14.667Z</time>
      </trkpt>
      <trkpt lat="48.66647" lon="-2.85625">
        <ele>18.271465</ele>
        <time>2023-03-24T13:28:25.521Z</time>
      </trkpt>
      <trkpt lat="48.66633" lon="-2.85682">
        <ele>19.482088</ele>
        <time>2023-03-24T13:28:53.522Z</time>
      </trkpt>
      <trkpt lat="48.66631" lon="-2.85719">
        <ele>20.21154</ele>
        <time>2023-03-24T13:29:10.358Z</time>
      </trkpt>
      <trkpt lat="48.66632" lon="-2.85729">
        <ele>20.422357</ele>
        <time>2023-03-24T13:29:15.249Z</time>
      </trkpt>
      <trkpt lat="48.66635" lon="-2.85755">
        <ele>20.948232</ele>
        <time>2023-03-24T13:29:27.432Z</time>
      </trkpt>
      <trkpt lat="48.66635" lon="-2.8577">
        <ele>21.250382</ele>
        <time>2023-03-24T13:29:34.389Z</time>
      </trkpt>
      <trkpt lat="48.66611" lon="-2.85895">
        <ele>23.739979</ele>
        <time>2023-03-24T13:30:33.805Z</time>
      </trkpt>
      <trkpt lat="48.66598" lon="-2.85948">
        <ele>24.679237</ele>
        <time>2023-03-24T13:30:59.770Z</time>
      </trkpt>
      <trkpt lat="48.66591" lon="-2.85997">
        <ele>25.522441</ele>
        <time>2023-03-24T13:31:23.089Z</time>
      </trkpt>
      <trkpt lat="48.66592" lon="-2.86023">
        <ele>25.951533</ele>
        <time>2023-03-24T13:31:34.920Z</time>
      </trkpt>
      <trkpt lat="48.66608" lon="-2.86066">
        <ele>26.761764</ele>
        <time>2023-03-24T13:31:57.297Z</time>
      </trkpt>
      <trkpt lat="48.66606" lon="-2.8607">
        <ele>26.860198</ele>
        <time>2023-03-24T13:32:00.051Z</time>
      </trkpt>
      <trkpt lat="48.66616" lon="-2.86095">
        <ele>27.334377</ele>
        <time>2023-03-24T13:32:06.196Z</time>
      </trkpt>
      <trkpt lat="48.66657" lon="-2.86126">
        <ele>28.46719</ele>
        <time>2023-03-24T13:32:21.929Z</time>
      </trkpt>
      <trkpt lat="48.66707" lon="-2.86112">
        <ele>29.669356</ele>
        <time>2023-03-24T13:32:38.852Z</time>
      </trkpt>
      <trkpt lat="48.66711" lon="-2.86111">
        <ele>29.778124</ele>
        <time>2023-03-24T13:32:40.285Z</time>
      </trkpt>
      <trkpt lat="48.6678" lon="-2.86093">
        <ele>31.436547</ele>
        <time>2023-03-24T13:33:01.595Z</time>
      </trkpt>
      <trkpt lat="48.66805" lon="-2.86082">
        <ele>32.069231</ele>
        <time>2023-03-24T13:33:09.572Z</time>
      </trkpt>
      <trkpt lat="48.66861" lon="-2.86145">
        <ele>32.414443</ele>
        <time>2023-03-24T13:33:27.716Z</time>
      </trkpt>
      <trkpt lat="48.66957" lon="-2.86236">
        <ele>32.877051</ele>
        <time>2023-03-24T13:33:48.873Z</time>
      </trkpt>
      <trkpt lat="48.66977" lon="-2.86254">
        <ele>32.726173</ele>
        <time>2023-03-24T13:33:52.771Z</time>
      </trkpt>
      <trkpt lat="48.67044" lon="-2.86307">
        <ele>32.232354</ele>
        <time>2023-03-24T13:34:05.377Z</time>
      </trkpt>
      <trkpt lat="48.67052" lon="-2.86314">
        <ele>32.169856</ele>
        <time>2023-03-24T13:34:06.958Z</time>
      </trkpt>
      <trkpt lat="48.671" lon="-2.8635">
        <ele>31.819788</ele>
        <time>2023-03-24T13:34:16.733Z</time>
      </trkpt>
      <trkpt lat="48.6711" lon="-2.86357">
        <ele>31.749111</ele>
        <time>2023-03-24T13:34:18.547Z</time>
      </trkpt>
      <trkpt lat="48.6714" lon="-2.86381">
        <ele>32.182814</ele>
        <time>2023-03-24T13:34:25.127Z</time>
      </trkpt>
      <trkpt lat="48.67148" lon="-2.86387">
        <ele>32.342776</ele>
        <time>2023-03-24T13:34:26.647Z</time>
      </trkpt>
      <trkpt lat="48.67148" lon="-2.86393">
        <ele>32.417116</ele>
        <time>2023-03-24T13:34:29.440Z</time>
      </trkpt>
      <trkpt lat="48.67149" lon="-2.86399">
        <ele>32.492353</ele>
        <time>2023-03-24T13:34:32.362Z</time>
      </trkpt>
      <trkpt lat="48.67136" lon="-2.86437">
        <ele>33.002405</ele>
        <time>2023-03-24T13:34:42.071Z</time>
      </trkpt>
      <trkpt lat="48.67136" lon="-2.86464">
        <ele>33.327839</ele>
        <time>2023-03-24T13:34:49.107Z</time>
      </trkpt>
      <trkpt lat="48.67142" lon="-2.86491">
        <ele>33.680804</ele>
        <time>2023-03-24T13:34:56.156Z</time>
      </trkpt>
      <trkpt lat="48.67146" lon="-2.86493">
        <ele>33.744018</ele>
        <time>2023-03-24T13:34:57.247Z</time>
      </trkpt>
      <trkpt lat="48.67147" lon="-2.86512">
        <ele>33.973811</ele>
        <time>2023-03-24T13:35:06.019Z</time>
      </trkpt>
      <trkpt lat="48.67144" lon="-2.86526">
        <ele>34.150082</ele>
        <time>2023-03-24T13:35:12.778Z</time>
      </trkpt>
      <trkpt lat="48.67133" lon="-2.8656">
        <ele>34.606338</ele>
        <time>2023-03-24T13:35:30.228Z</time>
      </trkpt>
      <trkpt lat="48.67124" lon="-2.86581">
        <ele>34.911033</ele>
        <time>2023-03-24T13:35:41.872Z</time>
      </trkpt>
      <trkpt lat="48.67123" lon="-2.86582">
        <ele>34.924058</ele>
        <time>2023-03-24T13:35:42.390Z</time>
      </trkpt>
      <trkpt lat="48.6712" lon="-2.86601">
        <ele>35.56688</ele>
        <time>2023-03-24T13:35:51.676Z</time>
      </trkpt>
      <trkpt lat="48.67117" lon="-2.86637">
        <ele>36.889451</ele>
        <time>2023-03-24T13:36:08.281Z</time>
      </trkpt>
      <trkpt lat="48.67125" lon="-2.8666">
        <ele>37.852856</ele>
        <time>2023-03-24T13:36:20.407Z</time>
      </trkpt>
      <trkpt lat="48.67129" lon="-2.86678">
        <ele>38.532099</ele>
        <time>2023-03-24T13:36:28.922Z</time>
      </trkpt>
      <trkpt lat="48.67122" lon="-2.86706">
        <ele>39.634306</ele>
        <time>2023-03-24T13:36:42.773Z</time>
      </trkpt>
      <trkpt lat="48.67098" lon="-2.86749">
        <ele>41.701788</ele>
        <time>2023-03-24T13:37:08.759Z</time>
      </trkpt>
      <trkpt lat="48.67066" lon="-2.86796">
        <ele>44.168384</ele>
        <time>2023-03-24T13:37:39.706Z</time>
      </trkpt>
      <trkpt lat="48.67042" lon="-2.86814">
        <ele>45.555209</ele>
        <time>2023-03-24T13:37:58.562Z</time>
      </trkpt>
      <trkpt lat="48.67014" lon="-2.8683">
        <ele>46.958255</ele>
        <time>2023-03-24T13:38:19.326Z</time>
      </trkpt>
      <trkpt lat="48.67013" lon="-2.86884">
        <ele>48.642101</ele>
        <time>2023-03-24T13:38:36.392Z</time>
      </trkpt>
      <trkpt lat="48.6699" lon="-2.87081">
        <ele>54.029832</ele>
        <time>2023-03-24T13:39:25.906Z</time>
      </trkpt>
      <trkpt lat="48.66985" lon="-2.87178">
        <ele>55.376664</ele>
        <time>2023-03-24T13:39:44.816Z</time>
      </trkpt>
      <trkpt lat="48.66965" lon="-2.87311">
        <ele>57.147009</ele>
        <time>2023-03-24T13:40:08.951Z</time>
      </trkpt>
      <trkpt lat="48.66951" lon="-2.87381">
        <ele>57.240982</ele>
        <time>2023-03-24T13:40:19.871Z</time>
      </trkpt>
      <trkpt lat="48.66933" lon="-2.87431">
        <ele>57.315819</ele>
        <time>2023-03-24T13:40:28.568Z</time>
      </trkpt>
      <trkpt lat="48.66923" lon="-2.8745">
        <ele>57.348039</ele>
        <time>2023-03-24T13:40:31.786Z</time>
      </trkpt>
      <trkpt lat="48.66929" lon="-2.87457">
        <ele>57.364473</ele>
        <time>2023-03-24T13:40:33.181Z</time>
      </trkpt>
      <trkpt lat="48.66926" lon="-2.87491">
        <ele>57.408481</ele>
        <time>2023-03-24T13:40:40.178Z</time>
      </trkpt>
      <trkpt lat="48.66929" lon="-2.87555">
        <ele>57.473618</ele>
        <time>2023-03-24T13:40:52.841Z</time>
      </trkpt>
      <trkpt lat="48.66912" lon="-2.87591">
        <ele>56.943576</ele>
        <time>2023-03-24T13:41:01.529Z</time>
      </trkpt>
      <trkpt lat="48.66905" lon="-2.87602">
        <ele>56.759304</ele>
        <time>2023-03-24T13:41:04.448Z</time>
      </trkpt>
      <trkpt lat="48.66898" lon="-2.87606">
        <ele>56.626542</ele>
        <time>2023-03-24T13:41:06.551Z</time>
      </trkpt>
      <trkpt lat="48.6689" lon="-2.87618">
        <ele>56.425156</ele>
        <time>2023-03-24T13:41:09.949Z</time>
      </trkpt>
      <trkpt lat="48.66908" lon="-2.87633">
        <ele>56.049408</ele>
        <time>2023-03-24T13:41:13.285Z</time>
      </trkpt>
      <trkpt lat="48.66947" lon="-2.87675">
        <ele>55.192965</ele>
        <time>2023-03-24T13:41:20.740Z</time>
      </trkpt>
      <trkpt lat="48.6699" lon="-2.87712">
        <ele>54.307693</ele>
        <time>2023-03-24T13:41:28.301Z</time>
      </trkpt>
      <trkpt lat="48.67003" lon="-2.87718">
        <ele>53.841277</ele>
        <time>2023-03-24T13:41:30.157Z</time>
      </trkpt>
      <trkpt lat="48.6706" lon="-2.87728">
        <ele>51.645048</ele>
        <time>2023-03-24T13:41:38.274Z</time>
      </trkpt>
      <trkpt lat="48.67086" lon="-2.87741">
        <ele>50.568454</ele>
        <time>2023-03-24T13:41:42.158Z</time>
      </trkpt>
      <trkpt lat="48.67116" lon="-2.87785">
        <ele>48.988828</ele>
        <time>2023-03-24T13:41:52.528Z</time>
      </trkpt>
      <trkpt lat="48.67131" lon="-2.87806">
        <ele>48.197736</ele>
        <time>2023-03-24T13:41:57.524Z</time>
      </trkpt>
      <trkpt lat="48.67174" lon="-2.8785">
        <ele>45.425777</ele>
        <time>2023-03-24T13:42:10.581Z</time>
      </trkpt>
      <trkpt lat="48.67235" lon="-2.87904">
        <ele>40.942498</ele>
        <time>2023-03-24T13:42:26.576Z</time>
      </trkpt>
      <trkpt lat="48.67279" lon="-2.87949">
        <ele>37.55059</ele>
        <time>2023-03-24T13:42:38.589Z</time>
      </trkpt>
      <trkpt lat="48.67312" lon="-2.87992">
        <ele>34.684396</ele>
        <time>2023-03-24T13:42:48.473Z</time>
      </trkpt>
      <trkpt lat="48.67316" lon="-2.88001">
        <ele>34.144237</ele>
        <time>2023-03-24T13:42:50.317Z</time>
      </trkpt>
      <trkpt lat="48.67349" lon="-2.88038">
        <ele>31.265811</ele>
        <time>2023-03-24T13:42:59.588Z</time>
      </trkpt>
      <trkpt lat="48.67373" lon="-2.88058">
        <ele>29.357837</ele>
        <time>2023-03-24T13:43:05.651Z</time>
      </trkpt>
      <trkpt lat="48.67376" lon="-2.88059">
        <ele>29.17556</ele>
        <time>2023-03-24T13:43:06.201Z</time>
      </trkpt>
      <trkpt lat="48.67376" lon="-2.88059">
        <ele>29.17556</ele>
        <time>2023-03-24T13:43:06.401Z</time>
      </trkpt>
      <trkpt lat="48.67376" lon="-2.88059">
        <ele>29.17556</ele>
        <time>2023-03-24T13:43:06.401Z</time>
      </trkpt>
      <trkpt lat="48.67378" lon="-2.88049">
        <ele>28.698903</ele>
        <time>2023-03-24T13:43:09.322Z</time>
      </trkpt>
      <trkpt lat="48.6739" lon="-2.88055">
        <ele>27.766931</ele>
        <time>2023-03-24T13:43:15.028Z</time>
      </trkpt>
      <trkpt lat="48.67397" lon="-2.88057">
        <ele>27.309393</ele>
        <time>2023-03-24T13:43:17.828Z</time>
      </trkpt>
      <trkpt lat="48.67402" lon="-2.88058">
        <ele>26.916628</ele>
        <time>2023-03-24T13:43:20.239Z</time>
      </trkpt>
      <trkpt lat="48.67407" lon="-2.88057">
        <ele>26.570453</ele>
        <time>2023-03-24T13:43:22.354Z</time>
      </trkpt>
      <trkpt lat="48.67411" lon="-2.88056">
        <ele>26.282461</ele>
        <time>2023-03-24T13:43:24.121Z</time>
      </trkpt>
      <trkpt lat="48.67415" lon="-2.88056">
        <ele>26.034633</ele>
        <time>2023-03-24T13:43:25.639Z</time>
      </trkpt>
      <trkpt lat="48.67418" lon="-2.88055">
        <ele>25.826392</ele>
        <time>2023-03-24T13:43:26.914Z</time>
      </trkpt>
      <trkpt lat="48.6742" lon="-2.88054">
        <ele>25.65038</ele>
        <time>2023-03-24T13:43:27.992Z</time>
      </trkpt>
      <trkpt lat="48.67422" lon="-2.88054">
        <ele>25.489279</ele>
        <time>2023-03-24T13:43:28.978Z</time>
      </trkpt>
      <trkpt lat="48.67424" lon="-2.88053">
        <ele>25.365912</ele>
        <time>2023-03-24T13:43:29.733Z</time>
      </trkpt>
      <trkpt lat="48.67426" lon="-2.88054">
        <ele>25.230426</ele>
        <time>2023-03-24T13:43:30.563Z</time>
      </trkpt>
      <trkpt lat="48.67427" lon="-2.88054">
        <ele>25.15327</ele>
        <time>2023-03-24T13:43:31.035Z</time>
      </trkpt>
      <trkpt lat="48.67428" lon="-2.88055">
        <ele>25.067241</ele>
        <time>2023-03-24T13:43:31.562Z</time>
      </trkpt>
      <trkpt lat="48.6743" lon="-2.88054">
        <ele>24.890683</ele>
        <time>2023-03-24T13:43:32.643Z</time>
      </trkpt>
      <trkpt lat="48.67432" lon="-2.88054">
        <ele>24.796774</ele>
        <time>2023-03-24T13:43:33.218Z</time>
      </trkpt>
      <trkpt lat="48.67432" lon="-2.88054">
        <ele>24.747546</ele>
        <time>2023-03-24T13:43:33.519Z</time>
      </trkpt>
      <trkpt lat="48.67433" lon="-2.88054">
        <ele>24.677378</ele>
        <time>2023-03-24T13:43:33.949Z</time>
      </trkpt>
      <trkpt lat="48.67434" lon="-2.88053">
        <ele>24.624995</ele>
        <time>2023-03-24T13:43:34.270Z</time>
      </trkpt>
      <trkpt lat="48.6747" lon="-2.88062">
        <ele>22.485671</ele>
        <time>2023-03-24T13:43:49.807Z</time>
      </trkpt>
      <trkpt lat="48.67474" lon="-2.88065">
        <ele>22.27462</ele>
        <time>2023-03-24T13:43:51.747Z</time>
      </trkpt>
      <trkpt lat="48.67476" lon="-2.88067">
        <ele>22.147707</ele>
        <time>2023-03-24T13:43:52.924Z</time>
      </trkpt>
      <trkpt lat="48.67481" lon="-2.88073">
        <ele>21.837029</ele>
        <time>2023-03-24T13:43:55.779Z</time>
      </trkpt>
      <trkpt lat="48.67487" lon="-2.88081">
        <ele>21.481251</ele>
        <time>2023-03-24T13:43:59.045Z</time>
      </trkpt>
      <trkpt lat="48.67493" lon="-2.8809">
        <ele>21.09108</ele>
        <time>2023-03-24T13:44:02.626Z</time>
      </trkpt>
      <trkpt lat="48.67518" lon="-2.88121">
        <ele>19.595685</ele>
        <time>2023-03-24T13:44:16.341Z</time>
      </trkpt>
      <trkpt lat="48.67521" lon="-2.88126">
        <ele>19.373315</ele>
        <time>2023-03-24T13:44:18.382Z</time>
      </trkpt>
      <trkpt lat="48.67525" lon="-2.88131">
        <ele>19.153567</ele>
        <time>2023-03-24T13:44:20.399Z</time>
      </trkpt>
      <trkpt lat="48.67532" lon="-2.88141">
        <ele>18.699867</ele>
        <time>2023-03-24T13:44:24.561Z</time>
      </trkpt>
      <trkpt lat="48.67543" lon="-2.88155">
        <ele>18.006401</ele>
        <time>2023-03-24T13:44:30.924Z</time>
      </trkpt>
      <trkpt lat="48.67551" lon="-2.88166">
        <ele>17.536119</ele>
        <time>2023-03-24T13:44:35.240Z</time>
      </trkpt>
      <trkpt lat="48.67558" lon="-2.88176">
        <ele>17.057517</ele>
        <time>2023-03-24T13:44:39.629Z</time>
      </trkpt>
      <trkpt lat="48.67565" lon="-2.88187">
        <ele>16.577083</ele>
        <time>2023-03-24T13:44:44.036Z</time>
      </trkpt>
      <trkpt lat="48.67581" lon="-2.88209">
        <ele>15.592797</ele>
        <time>2023-03-24T13:44:53.066Z</time>
      </trkpt>
      <trkpt lat="48.67588" lon="-2.88221">
        <ele>15.090465</ele>
        <time>2023-03-24T13:44:57.672Z</time>
      </trkpt>
      <trkpt lat="48.67592" lon="-2.88227">
        <ele>14.865319</ele>
        <time>2023-03-24T13:44:59.991Z</time>
      </trkpt>
      <trkpt lat="48.67604" lon="-2.88243">
        <ele>14.516675</ele>
        <time>2023-03-24T13:45:06.945Z</time>
      </trkpt>
      <trkpt lat="48.67616" lon="-2.88259">
        <ele>14.170223</ele>
        <time>2023-03-24T13:45:13.854Z</time>
      </trkpt>
      <trkpt lat="48.67646" lon="-2.88296">
        <ele>13.354847</ele>
        <time>2023-03-24T13:45:30.116Z</time>
      </trkpt>
      <trkpt lat="48.67659" lon="-2.8831">
        <ele>13.008506</ele>
        <time>2023-03-24T13:45:37.026Z</time>
      </trkpt>
      <trkpt lat="48.67671" lon="-2.88325">
        <ele>12.669012</ele>
        <time>2023-03-24T13:45:43.794Z</time>
      </trkpt>
      <trkpt lat="48.67693" lon="-2.88347">
        <ele>12.108402</ele>
        <time>2023-03-24T13:45:54.973Z</time>
      </trkpt>
      <trkpt lat="48.67697" lon="-2.88352">
        <ele>11.996379</ele>
        <time>2023-03-24T13:45:57.207Z</time>
      </trkpt>
      <trkpt lat="48.67701" lon="-2.88357">
        <ele>11.886901</ele>
        <time>2023-03-24T13:45:59.389Z</time>
      </trkpt>
      <trkpt lat="48.67705" lon="-2.88362">
        <ele>11.780527</ele>
        <time>2023-03-24T13:46:01.510Z</time>
      </trkpt>
      <trkpt lat="48.67708" lon="-2.88368">
        <ele>11.67728</ele>
        <time>2023-03-24T13:46:03.569Z</time>
      </trkpt>
      <trkpt lat="48.6771" lon="-2.88374">
        <ele>11.574439</ele>
        <time>2023-03-24T13:46:05.627Z</time>
      </trkpt>
      <trkpt lat="48.67712" lon="-2.8838">
        <ele>11.474742</ele>
        <time>2023-03-24T13:46:07.614Z</time>
      </trkpt>
      <trkpt lat="48.67721" lon="-2.88402">
        <ele>11.11125</ele>
        <time>2023-03-24T13:46:14.861Z</time>
      </trkpt>
      <trkpt lat="48.67722" lon="-2.88408">
        <ele>11.036935</ele>
        <time>2023-03-24T13:46:16.568Z</time>
      </trkpt>
      <trkpt lat="48.67724" lon="-2.88413">
        <ele>11.148244</ele>
        <time>2023-03-24T13:46:18.271Z</time>
      </trkpt>
      <trkpt lat="48.67726" lon="-2.88418">
        <ele>11.254583</ele>
        <time>2023-03-24T13:46:19.898Z</time>
      </trkpt>
      <trkpt lat="48.67727" lon="-2.88418">
        <ele>11.278133</ele>
        <time>2023-03-24T13:46:20.294Z</time>
      </trkpt>
      <trkpt lat="48.67723" lon="-2.88434">
        <ele>11.570849</ele>
        <time>2023-03-24T13:46:24.046Z</time>
      </trkpt>
      <trkpt lat="48.67723" lon="-2.88467">
        <ele>12.191089</ele>
        <time>2023-03-24T13:46:30.116Z</time>
      </trkpt>
      <trkpt lat="48.67725" lon="-2.88552">
        <ele>13.751587</ele>
        <time>2023-03-24T13:46:47.309Z</time>
      </trkpt>
      <trkpt lat="48.67665" lon="-2.88551">
        <ele>15.437231</ele>
        <time>2023-03-24T13:47:11.074Z</time>
      </trkpt>
      <trkpt lat="48.67595" lon="-2.88556">
        <ele>19.201229</ele>
        <time>2023-03-24T13:47:46.149Z</time>
      </trkpt>
      <trkpt lat="48.6759" lon="-2.88563">
        <ele>19.658794</ele>
        <time>2023-03-24T13:47:50.308Z</time>
      </trkpt>
      <trkpt lat="48.6759" lon="-2.88652">
        <ele>23.567071</ele>
        <time>2023-03-24T13:48:29.237Z</time>
      </trkpt>
      <trkpt lat="48.67593" lon="-2.88695">
        <ele>25.481129</ele>
        <time>2023-03-24T13:48:50.252Z</time>
      </trkpt>
      <trkpt lat="48.67587" lon="-2.88754">
        <ele>28.053184</ele>
        <time>2023-03-24T13:49:17.565Z</time>
      </trkpt>
      <trkpt lat="48.67537" lon="-2.88908">
        <ele>33.400034</ele>
        <time>2023-03-24T13:50:23.568Z</time>
      </trkpt>
      <trkpt lat="48.67519" lon="-2.89031">
        <ele>36.069198</ele>
        <time>2023-03-24T13:51:06.562Z</time>
      </trkpt>
      <trkpt lat="48.6752" lon="-2.89082">
        <ele>35.381526</ele>
        <time>2023-03-24T13:51:16.674Z</time>
      </trkpt>
      <trkpt lat="48.67527" lon="-2.89163">
        <ele>34.270429</ele>
        <time>2023-03-24T13:51:31.518Z</time>
      </trkpt>
      <trkpt lat="48.67527" lon="-2.89206">
        <ele>33.675534</ele>
        <time>2023-03-24T13:51:39.142Z</time>
      </trkpt>
      <trkpt lat="48.67558" lon="-2.89255">
        <ele>32.748626</ele>
        <time>2023-03-24T13:51:49.538Z</time>
      </trkpt>
      <trkpt lat="48.67574" lon="-2.89278">
        <ele>32.114409</ele>
        <time>2023-03-24T13:51:54.629Z</time>
      </trkpt>
      <trkpt lat="48.6761" lon="-2.8932">
        <ele>30.804258</ele>
        <time>2023-03-24T13:52:05.117Z</time>
      </trkpt>
      <trkpt lat="48.6762" lon="-2.89329">
        <ele>30.459043</ele>
        <time>2023-03-24T13:52:07.694Z</time>
      </trkpt>
      <trkpt lat="48.67634" lon="-2.89329">
        <ele>30.072076</ele>
        <time>2023-03-24T13:52:11.248Z</time>
      </trkpt>
      <trkpt lat="48.67661" lon="-2.89324">
        <ele>29.274005</ele>
        <time>2023-03-24T13:52:18.163Z</time>
      </trkpt>
      <trkpt lat="48.6768" lon="-2.8933">
        <ele>28.711891</ele>
        <time>2023-03-24T13:52:23.302Z</time>
      </trkpt>
      <trkpt lat="48.67694" lon="-2.89321">
        <ele>28.28751</ele>
        <time>2023-03-24T13:52:29.190Z</time>
      </trkpt>
      <trkpt lat="48.67724" lon="-2.89301">
        <ele>28.153178</ele>
        <time>2023-03-24T13:52:43.399Z</time>
      </trkpt>
      <trkpt lat="48.67729" lon="-2.89301">
        <ele>28.657565</ele>
        <time>2023-03-24T13:52:48.723Z</time>
      </trkpt>
      <trkpt lat="48.67735" lon="-2.89302">
        <ele>29.15338</ele>
        <time>2023-03-24T13:52:52.366Z</time>
      </trkpt>
      <trkpt lat="48.67741" lon="-2.893">
        <ele>29.743907</ele>
        <time>2023-03-24T13:52:56.071Z</time>
      </trkpt>
      <trkpt lat="48.67741" lon="-2.89329">
        <ele>31.440107</ele>
        <time>2023-03-24T13:53:03.373Z</time>
      </trkpt>
      <trkpt lat="48.6776" lon="-2.89338">
        <ele>33.259127</ele>
        <time>2023-03-24T13:53:14.976Z</time>
      </trkpt>
      <trkpt lat="48.67771" lon="-2.89337">
        <ele>34.245191</ele>
        <time>2023-03-24T13:53:18.327Z</time>
      </trkpt>
      <trkpt lat="48.67778" lon="-2.89338">
        <ele>34.876132</ele>
        <time>2023-03-24T13:53:25.976Z</time>
      </trkpt>
      <trkpt lat="48.67836" lon="-2.8938">
        <ele>40.54005</ele>
        <time>2023-03-24T13:54:20.215Z</time>
      </trkpt>
      <trkpt lat="48.67941" lon="-2.89445">
        <ele>52.851064</ele>
        <time>2023-03-24T13:56:20.634Z</time>
      </trkpt>
      <trkpt lat="48.67956" lon="-2.89449">
        <ele>54.652879</ele>
        <time>2023-03-24T13:56:35.650Z</time>
      </trkpt>
      <trkpt lat="48.67985" lon="-2.89509">
        <ele>60.316498</ele>
        <time>2023-03-24T13:57:14.990Z</time>
      </trkpt>
      <trkpt lat="48.68103" lon="-2.89727">
        <ele>75.555868</ele>
        <time>2023-03-24T13:59:28.418Z</time>
      </trkpt>
      <trkpt lat="48.68145" lon="-2.89754">
        <ele>78.45747</ele>
        <time>2023-03-24T13:59:54.452Z</time>
      </trkpt>
      <trkpt lat="48.68129" lon="-2.898">
        <ele>79.974686</ele>
        <time>2023-03-24T14:00:13.409Z</time>
      </trkpt>
      <trkpt lat="48.68101" lon="-2.89841">
        <ele>81.7068</ele>
        <time>2023-03-24T14:00:34.968Z</time>
      </trkpt>
      <trkpt lat="48.68047" lon="-2.89964">
        <ele>85.96064</ele>
        <time>2023-03-24T14:01:24.824Z</time>
      </trkpt>
      <trkpt lat="48.6807" lon="-2.89989">
        <ele>86.896081</ele>
        <time>2023-03-24T14:01:35.348Z</time>
      </trkpt>
      <trkpt lat="48.68095" lon="-2.90028">
        <ele>88.099961</ele>
        <time>2023-03-24T14:01:48.204Z</time>
      </trkpt>
      <trkpt lat="48.6818" lon="-2.9011">
        <ele>91.502858</ele>
        <time>2023-03-24T14:02:25.579Z</time>
      </trkpt>
      <trkpt lat="48.68224" lon="-2.90136">
        <ele>92.954548</ele>
        <time>2023-03-24T14:02:42.055Z</time>
      </trkpt>
      <trkpt lat="48.68303" lon="-2.90152">
        <ele>95.354229</ele>
        <time>2023-03-24T14:03:10.254Z</time>
      </trkpt>
      <trkpt lat="48.68326" lon="-2.90081">
        <ele>96.949049</ele>
        <time>2023-03-24T14:03:28.802Z</time>
      </trkpt>
      <trkpt lat="48.68348" lon="-2.90042">
        <ele>97.775578</ele>
        <time>2023-03-24T14:03:40.465Z</time>
      </trkpt>
      <trkpt lat="48.68383" lon="-2.89991">
        <ele>98.904599</ele>
        <time>2023-03-24T14:03:56.968Z</time>
      </trkpt>
      <trkpt lat="48.68397" lon="-2.89971">
        <ele>99.333855</ele>
        <time>2023-03-24T14:04:03.323Z</time>
      </trkpt>
      <trkpt lat="48.6842" lon="-2.89918">
        <ele>100.307572</ele>
        <time>2023-03-24T14:04:15.814Z</time>
      </trkpt>
      <trkpt lat="48.68432" lon="-2.89897">
        <ele>100.721934</ele>
        <time>2023-03-24T14:04:20.998Z</time>
      </trkpt>
      <trkpt lat="48.68439" lon="-2.89893">
        <ele>100.903291</ele>
        <time>2023-03-24T14:04:23.471Z</time>
      </trkpt>
      <trkpt lat="48.68482" lon="-2.89894">
        <ele>101.646178</ele>
        <time>2023-03-24T14:04:35.547Z</time>
      </trkpt>
      <trkpt lat="48.68516" lon="-2.89891">
        <ele>102.09683</ele>
        <time>2023-03-24T14:04:45.050Z</time>
      </trkpt>
      <trkpt lat="48.68506" lon="-2.89876">
        <ele>102.278096</ele>
        <time>2023-03-24T14:04:48.376Z</time>
      </trkpt>
      <trkpt lat="48.68475" lon="-2.89838">
        <ele>102.806896</ele>
        <time>2023-03-24T14:04:58.954Z</time>
      </trkpt>
      <trkpt lat="48.68481" lon="-2.89814">
        <ele>103.030747</ele>
        <time>2023-03-24T14:05:03.790Z</time>
      </trkpt>
      <trkpt lat="48.68513" lon="-2.89752">
        <ele>103.720371</ele>
        <time>2023-03-24T14:05:17.234Z</time>
      </trkpt>
      <trkpt lat="48.68534" lon="-2.89677">
        <ele>104.125491</ele>
        <time>2023-03-24T14:05:37.036Z</time>
      </trkpt>
      <trkpt lat="48.68543" lon="-2.89657">
        <ele>104.245049</ele>
        <time>2023-03-24T14:05:42.630Z</time>
      </trkpt>
      <trkpt lat="48.68587" lon="-2.89611">
        <ele>104.642066</ele>
        <time>2023-03-24T14:06:01.732Z</time>
      </trkpt>
      <trkpt lat="48.68622" lon="-2.89567">
        <ele>104.986547</ele>
        <time>2023-03-24T14:06:17.543Z</time>
      </trkpt>
      <trkpt lat="48.68625" lon="-2.89556">
        <ele>105.043818</ele>
        <time>2023-03-24T14:06:20.127Z</time>
      </trkpt>
      <trkpt lat="48.68627" lon="-2.89518">
        <ele>105.070895</ele>
        <time>2023-03-24T14:06:28.313Z</time>
      </trkpt>
      <trkpt lat="48.68633" lon="-2.89499">
        <ele>105.075225</ele>
        <time>2023-03-24T14:06:32.900Z</time>
      </trkpt>
      <trkpt lat="48.68675" lon="-2.89419">
        <ele>105.095925</ele>
        <time>2023-03-24T14:06:54.638Z</time>
      </trkpt>
      <trkpt lat="48.68774" lon="-2.89284">
        <ele>104.808303</ele>
        <time>2023-03-24T14:07:36.052Z</time>
      </trkpt>
      <trkpt lat="48.68824" lon="-2.89228">
        <ele>104.467427</ele>
        <time>2023-03-24T14:07:55.113Z</time>
      </trkpt>
      <trkpt lat="48.68855" lon="-2.89199">
        <ele>104.268739</ele>
        <time>2023-03-24T14:08:06.090Z</time>
      </trkpt>
      <trkpt lat="48.68857" lon="-2.89156">
        <ele>104.078029</ele>
        <time>2023-03-24T14:08:10.949Z</time>
      </trkpt>
      <trkpt lat="48.68864" lon="-2.89101">
        <ele>103.608892</ele>
        <time>2023-03-24T14:08:17.179Z</time>
      </trkpt>
      <trkpt lat="48.68891" lon="-2.89095">
        <ele>103.271986</ele>
        <time>2023-03-24T14:08:21.459Z</time>
      </trkpt>
      <trkpt lat="48.68913" lon="-2.89095">
        <ele>102.984903</ele>
        <time>2023-03-24T14:08:25.145Z</time>
      </trkpt>
      <trkpt lat="48.68952" lon="-2.89108">
        <ele>102.480055</ele>
        <time>2023-03-24T14:08:31.583Z</time>
      </trkpt>
      <trkpt lat="48.68957" lon="-2.89112">
        <ele>102.416671</ele>
        <time>2023-03-24T14:08:32.336Z</time>
      </trkpt>
      <trkpt lat="48.68971" lon="-2.89145">
        <ele>102.085014</ele>
        <time>2023-03-24T14:08:36.834Z</time>
      </trkpt>
      <trkpt lat="48.69008" lon="-2.89184">
        <ele>101.462007</ele>
        <time>2023-03-24T14:08:44.190Z</time>
      </trkpt>
      <trkpt lat="48.69012" lon="-2.8919">
        <ele>101.374206</ele>
        <time>2023-03-24T14:08:45.167Z</time>
      </trkpt>
      <trkpt lat="48.69023" lon="-2.89202">
        <ele>101.170206</ele>
        <time>2023-03-24T14:08:47.404Z</time>
      </trkpt>
      <trkpt lat="48.69032" lon="-2.89217">
        <ele>100.971704</ele>
        <time>2023-03-24T14:08:49.468Z</time>
      </trkpt>
      <trkpt lat="48.69033" lon="-2.89242">
        <ele>100.727315</ele>
        <time>2023-03-24T14:08:52.110Z</time>
      </trkpt>
      <trkpt lat="48.69044" lon="-2.8928">
        <ele>100.321303</ele>
        <time>2023-03-24T14:08:56.330Z</time>
      </trkpt>
      <trkpt lat="48.69053" lon="-2.89307">
        <ele>100.022952</ele>
        <time>2023-03-24T14:08:59.588Z</time>
      </trkpt>
      <trkpt lat="48.6908" lon="-2.89368">
        <ele>99.29949</ele>
        <time>2023-03-24T14:09:07.411Z</time>
      </trkpt>
      <trkpt lat="48.69089" lon="-2.89379">
        <ele>99.133172</ele>
        <time>2023-03-24T14:09:09.498Z</time>
      </trkpt>
      <trkpt lat="48.69097" lon="-2.89396">
        <ele>98.963674</ele>
        <time>2023-03-24T14:09:11.683Z</time>
      </trkpt>
      <trkpt lat="48.69103" lon="-2.89409">
        <ele>98.832762</ele>
        <time>2023-03-24T14:09:13.417Z</time>
      </trkpt>
      <trkpt lat="48.69114" lon="-2.89439">
        <ele>98.546876</ele>
        <time>2023-03-24T14:09:17.365Z</time>
      </trkpt>
      <trkpt lat="48.69119" lon="-2.89483">
        <ele>98.183418</ele>
        <time>2023-03-24T14:09:22.072Z</time>
      </trkpt>
      <trkpt lat="48.69118" lon="-2.8954">
        <ele>97.712242</ele>
        <time>2023-03-24T14:09:28.166Z</time>
      </trkpt>
      <trkpt lat="48.6912" lon="-2.89557">
        <ele>97.570575</ele>
        <time>2023-03-24T14:09:29.995Z</time>
      </trkpt>
      <trkpt lat="48.69126" lon="-2.89584">
        <ele>97.331987</ele>
        <time>2023-03-24T14:09:33.111Z</time>
      </trkpt>
      <trkpt lat="48.69135" lon="-2.89602">
        <ele>97.14897</ele>
        <time>2023-03-24T14:09:35.462Z</time>
      </trkpt>
      <trkpt lat="48.69157" lon="-2.89616">
        <ele>96.882948</ele>
        <time>2023-03-24T14:09:39.386Z</time>
      </trkpt>
      <trkpt lat="48.69163" lon="-2.89625">
        <ele>96.803734</ele>
        <time>2023-03-24T14:09:41.013Z</time>
      </trkpt>
      <trkpt lat="48.69168" lon="-2.8965">
        <ele>96.653261</ele>
        <time>2023-03-24T14:09:44.067Z</time>
      </trkpt>
      <trkpt lat="48.69166" lon="-2.89667">
        <ele>96.550096</ele>
        <time>2023-03-24T14:09:46.054Z</time>
      </trkpt>
      <trkpt lat="48.69178" lon="-2.89679">
        <ele>96.425098</ele>
        <time>2023-03-24T14:09:48.628Z</time>
      </trkpt>
      <trkpt lat="48.69182" lon="-2.89688">
        <ele>96.36224</ele>
        <time>2023-03-24T14:09:49.950Z</time>
      </trkpt>
      <trkpt lat="48.69195" lon="-2.89755">
        <ele>95.95511</ele>
        <time>2023-03-24T14:09:57.759Z</time>
      </trkpt>
      <trkpt lat="48.69206" lon="-2.89791">
        <ele>95.721487</ele>
        <time>2023-03-24T14:10:02.262Z</time>
      </trkpt>
      <trkpt lat="48.69241" lon="-2.89791">
        <ele>95.417365</ele>
        <time>2023-03-24T14:10:08.004Z</time>
      </trkpt>
      <trkpt lat="48.6928" lon="-2.89795">
        <ele>95.22806</ele>
        <time>2023-03-24T14:10:14.839Z</time>
      </trkpt>
      <trkpt lat="48.6931" lon="-2.89794">
        <ele>95.113487</ele>
        <time>2023-03-24T14:10:19.971Z</time>
      </trkpt>
      <trkpt lat="48.69413" lon="-2.89772">
        <ele>94.70773</ele>
        <time>2023-03-24T14:10:38.979Z</time>
      </trkpt>
      <trkpt lat="48.69414" lon="-2.89786">
        <ele>94.671727</ele>
        <time>2023-03-24T14:10:41.165Z</time>
      </trkpt>
      <trkpt lat="48.69409" lon="-2.89801">
        <ele>94.717912</ele>
        <time>2023-03-24T14:10:43.248Z</time>
      </trkpt>
      <trkpt lat="48.69389" lon="-2.89832">
        <ele>94.980071</ele>
        <time>2023-03-24T14:10:49.239Z</time>
      </trkpt>
      <trkpt lat="48.69375" lon="-2.89849">
        <ele>95.14431</ele>
        <time>2023-03-24T14:10:53.042Z</time>
      </trkpt>
      <trkpt lat="48.69317" lon="-2.89903">
        <ele>95.771363</ele>
        <time>2023-03-24T14:11:09.599Z</time>
      </trkpt>
      <trkpt lat="48.69262" lon="-2.89959">
        <ele>96.413024</ele>
        <time>2023-03-24T14:11:27.280Z</time>
      </trkpt>
      <trkpt lat="48.69245" lon="-2.89985">
        <ele>96.735631</ele>
        <time>2023-03-24T14:11:33.914Z</time>
      </trkpt>
      <trkpt lat="48.69233" lon="-2.90019">
        <ele>97.075397</ele>
        <time>2023-03-24T14:11:40.993Z</time>
      </trkpt>
      <trkpt lat="48.69214" lon="-2.90134">
        <ele>98.109734</ele>
        <time>2023-03-24T14:12:01.409Z</time>
      </trkpt>
      <trkpt lat="48.69207" lon="-2.90175">
        <ele>98.48445</ele>
        <time>2023-03-24T14:12:08.773Z</time>
      </trkpt>
      <trkpt lat="48.69206" lon="-2.90178">
        <ele>98.511568</ele>
        <time>2023-03-24T14:12:09.292Z</time>
      </trkpt>
      <trkpt lat="48.69179" lon="-2.90282">
        <ele>97.852184</ele>
        <time>2023-03-24T14:12:26.248Z</time>
      </trkpt>
      <trkpt lat="48.6917" lon="-2.90392">
        <ele>96.802021</ele>
        <time>2023-03-24T14:12:38.384Z</time>
      </trkpt>
      <trkpt lat="48.6918" lon="-2.90385">
        <ele>96.65272</ele>
        <time>2023-03-24T14:12:39.873Z</time>
      </trkpt>
      <trkpt lat="48.6919" lon="-2.90383">
        <ele>96.502207</ele>
        <time>2023-03-24T14:12:41.379Z</time>
      </trkpt>
      <trkpt lat="48.69217" lon="-2.90387">
        <ele>96.059593</ele>
        <time>2023-03-24T14:12:45.130Z</time>
      </trkpt>
      <trkpt lat="48.69245" lon="-2.90389">
        <ele>94.351145</ele>
        <time>2023-03-24T14:12:48.937Z</time>
      </trkpt>
      <trkpt lat="48.69306" lon="-2.90575">
        <ele>86.01735</ele>
        <time>2023-03-24T14:13:20.491Z</time>
      </trkpt>
      <trkpt lat="48.69349" lon="-2.9067">
        <ele>82.101859</ele>
        <time>2023-03-24T14:13:37.607Z</time>
      </trkpt>
      <trkpt lat="48.69383" lon="-2.9076">
        <ele>78.662317</ele>
        <time>2023-03-24T14:13:54.231Z</time>
      </trkpt>
      <trkpt lat="48.6939" lon="-2.90755">
        <ele>78.268058</ele>
        <time>2023-03-24T14:13:55.379Z</time>
      </trkpt>
      <trkpt lat="48.69393" lon="-2.9078">
        <ele>77.412407</ele>
        <time>2023-03-24T14:13:59.797Z</time>
      </trkpt>
      <trkpt lat="48.69383" lon="-2.9082">
        <ele>76.21067</ele>
        <time>2023-03-24T14:14:07.197Z</time>
      </trkpt>
      <trkpt lat="48.69382" lon="-2.90831">
        <ele>76.196118</ele>
        <time>2023-03-24T14:14:09.142Z</time>
      </trkpt>
      <trkpt lat="48.69385" lon="-2.90843">
        <ele>76.179473</ele>
        <time>2023-03-24T14:14:11.372Z</time>
      </trkpt>
      <trkpt lat="48.69396" lon="-2.90864">
        <ele>76.144155</ele>
        <time>2023-03-24T14:14:16.246Z</time>
      </trkpt>
      <trkpt lat="48.69405" lon="-2.90875">
        <ele>76.12196</ele>
        <time>2023-03-24T14:14:19.324Z</time>
      </trkpt>
      <trkpt lat="48.69414" lon="-2.90881">
        <ele>76.102051</ele>
        <time>2023-03-24T14:14:22.103Z</time>
      </trkpt>
      <trkpt lat="48.69426" lon="-2.90878">
        <ele>76.077682</ele>
        <time>2023-03-24T14:14:25.706Z</time>
      </trkpt>
      <trkpt lat="48.69445" lon="-2.90889">
        <ele>76.037833</ele>
        <time>2023-03-24T14:14:31.690Z</time>
      </trkpt>
      <trkpt lat="48.69457" lon="-2.9092">
        <ele>75.989698</ele>
        <time>2023-03-24T14:14:39.644Z</time>
      </trkpt>
      <trkpt lat="48.69472" lon="-2.90979">
        <ele>75.907159</ele>
        <time>2023-03-24T14:14:57.107Z</time>
      </trkpt>
      <trkpt lat="48.69484" lon="-2.91079">
        <ele>77.207951</ele>
        <time>2023-03-24T14:15:26.318Z</time>
      </trkpt>
      <trkpt lat="48.69486" lon="-2.91135">
        <ele>78.324081</ele>
        <time>2023-03-24T14:15:43.354Z</time>
      </trkpt>
      <trkpt lat="48.69482" lon="-2.91184">
        <ele>79.314023</ele>
        <time>2023-03-24T14:15:59.394Z</time>
      </trkpt>
      <trkpt lat="48.69425" lon="-2.91212">
        <ele>81.106617</ele>
        <time>2023-03-24T14:16:21.064Z</time>
      </trkpt>
      <trkpt lat="48.69451" lon="-2.91361">
        <ele>83.834741</ele>
        <time>2023-03-24T14:17:10.918Z</time>
      </trkpt>
      <trkpt lat="48.69463" lon="-2.91398">
        <ele>84.544097</ele>
        <time>2023-03-24T14:17:22.053Z</time>
      </trkpt>
      <trkpt lat="48.69474" lon="-2.91452">
        <ele>85.529743</ele>
        <time>2023-03-24T14:17:37.728Z</time>
      </trkpt>
      <trkpt lat="48.69474" lon="-2.91481">
        <ele>86.042074</ele>
        <time>2023-03-24T14:17:45.595Z</time>
      </trkpt>
      <trkpt lat="48.69472" lon="-2.91494">
        <ele>86.14262</ele>
        <time>2023-03-24T14:17:48.831Z</time>
      </trkpt>
      <trkpt lat="48.69458" lon="-2.9151">
        <ele>86.333003</ele>
        <time>2023-03-24T14:17:56.160Z</time>
      </trkpt>
      <trkpt lat="48.69452" lon="-2.91596">
        <ele>86.954032</ele>
        <time>2023-03-24T14:18:17.187Z</time>
      </trkpt>
      <trkpt lat="48.69442" lon="-2.91611">
        <ele>87.105691</ele>
        <time>2023-03-24T14:18:22.584Z</time>
      </trkpt>
      <trkpt lat="48.69424" lon="-2.91624">
        <ele>87.325985</ele>
        <time>2023-03-24T14:18:29.760Z</time>
      </trkpt>
      <trkpt lat="48.69423" lon="-2.91633">
        <ele>87.385957</ele>
        <time>2023-03-24T14:18:32.072Z</time>
      </trkpt>
      <trkpt lat="48.69414" lon="-2.91658">
        <ele>87.593003</ele>
        <time>2023-03-24T14:18:39.110Z</time>
      </trkpt>
      <trkpt lat="48.69389" lon="-2.91726">
        <ele>87.993548</ele>
        <time>2023-03-24T14:18:57.458Z</time>
      </trkpt>
      <trkpt lat="48.69373" lon="-2.9176">
        <ele>87.977682</ele>
        <time>2023-03-24T14:19:06.724Z</time>
      </trkpt>
      <trkpt lat="48.6936" lon="-2.91806">
        <ele>87.958635</ele>
        <time>2023-03-24T14:19:17.450Z</time>
      </trkpt>
      <trkpt lat="48.69353" lon="-2.91851">
        <ele>87.941126</ele>
        <time>2023-03-24T14:19:23.137Z</time>
      </trkpt>
      <trkpt lat="48.69358" lon="-2.91877">
        <ele>87.930878</ele>
        <time>2023-03-24T14:19:26.337Z</time>
      </trkpt>
      <trkpt lat="48.6937" lon="-2.91896">
        <ele>87.920858</ele>
        <time>2023-03-24T14:19:29.447Z</time>
      </trkpt>
      <trkpt lat="48.69386" lon="-2.91919">
        <ele>87.907982</ele>
        <time>2023-03-24T14:19:33.412Z</time>
      </trkpt>
      <trkpt lat="48.69404" lon="-2.91961">
        <ele>87.816243</ele>
        <time>2023-03-24T14:19:39.243Z</time>
      </trkpt>
      <trkpt lat="48.69439" lon="-2.92042">
        <ele>87.476599</ele>
        <time>2023-03-24T14:19:50.509Z</time>
      </trkpt>
      <trkpt lat="48.69464" lon="-2.92098">
        <ele>87.241281</ele>
        <time>2023-03-24T14:19:58.236Z</time>
      </trkpt>
      <trkpt lat="48.69463" lon="-2.92108">
        <ele>87.205079</ele>
        <time>2023-03-24T14:20:00.258Z</time>
      </trkpt>
      <trkpt lat="48.69468" lon="-2.92122">
        <ele>87.147325</ele>
        <time>2023-03-24T14:20:03.512Z</time>
      </trkpt>
      <trkpt lat="48.69505" lon="-2.92196">
        <ele>86.989084</ele>
        <time>2023-03-24T14:20:22.059Z</time>
      </trkpt>
      <trkpt lat="48.69523" lon="-2.92243">
        <ele>87.066605</ele>
        <time>2023-03-24T14:20:33.585Z</time>
      </trkpt>
      <trkpt lat="48.69544" lon="-2.92321">
        <ele>87.186191</ele>
        <time>2023-03-24T14:20:52.569Z</time>
      </trkpt>
      <trkpt lat="48.69563" lon="-2.92355">
        <ele>87.250083</ele>
        <time>2023-03-24T14:21:02.825Z</time>
      </trkpt>
      <trkpt lat="48.69587" lon="-2.92391">
        <ele>87.322186</ele>
        <time>2023-03-24T14:21:14.342Z</time>
      </trkpt>
      <trkpt lat="48.69584" lon="-2.92409">
        <ele>87.336727</ele>
        <time>2023-03-24T14:21:17.025Z</time>
      </trkpt>
      <trkpt lat="48.69597" lon="-2.92442">
        <ele>87.356813</ele>
        <time>2023-03-24T14:21:22.514Z</time>
      </trkpt>
      <trkpt lat="48.69608" lon="-2.92515">
        <ele>87.396133</ele>
        <time>2023-03-24T14:21:38.623Z</time>
      </trkpt>
      <trkpt lat="48.69616" lon="-2.92543">
        <ele>87.412271</ele>
        <time>2023-03-24T14:21:45.040Z</time>
      </trkpt>
      <trkpt lat="48.69638" lon="-2.92598">
        <ele>87.446013</ele>
        <time>2023-03-24T14:21:58.402Z</time>
      </trkpt>
      <trkpt lat="48.69673" lon="-2.92651">
        <ele>87.42407</ele>
        <time>2023-03-24T14:22:13.805Z</time>
      </trkpt>
      <trkpt lat="48.69729" lon="-2.9275">
        <ele>87.149492</ele>
        <time>2023-03-24T14:22:40.086Z</time>
      </trkpt>
      <trkpt lat="48.69765" lon="-2.92791">
        <ele>87.006468</ele>
        <time>2023-03-24T14:22:53.779Z</time>
      </trkpt>
      <trkpt lat="48.69803" lon="-2.9285">
        <ele>86.903296</ele>
        <time>2023-03-24T14:23:10.644Z</time>
      </trkpt>
      <trkpt lat="48.69879" lon="-2.92932">
        <ele>86.915297</ele>
        <time>2023-03-24T14:23:41.179Z</time>
      </trkpt>
      <trkpt lat="48.69927" lon="-2.93015">
        <ele>86.89806</ele>
        <time>2023-03-24T14:24:04.541Z</time>
      </trkpt>
      <trkpt lat="48.70006" lon="-2.93089">
        <ele>86.579534</ele>
        <time>2023-03-24T14:24:21.780Z</time>
      </trkpt>
      <trkpt lat="48.70018" lon="-2.93083">
        <ele>86.536912</ele>
        <time>2023-03-24T14:24:24.064Z</time>
      </trkpt>
      <trkpt lat="48.70034" lon="-2.93103">
        <ele>86.465535</ele>
        <time>2023-03-24T14:24:30.390Z</time>
      </trkpt>
      <trkpt lat="48.70071" lon="-2.93133">
        <ele>86.320754</ele>
        <time>2023-03-24T14:24:43.244Z</time>
      </trkpt>
      <trkpt lat="48.70093" lon="-2.93158">
        <ele>86.178327</ele>
        <time>2023-03-24T14:24:51.379Z</time>
      </trkpt>
      <trkpt lat="48.70145" lon="-2.9324">
        <ele>85.757527</ele>
        <time>2023-03-24T14:25:13.159Z</time>
      </trkpt>
      <trkpt lat="48.70175" lon="-2.933">
        <ele>85.480994</ele>
        <time>2023-03-24T14:25:28.336Z</time>
      </trkpt>
      <trkpt lat="48.70199" lon="-2.93312">
        <ele>85.337127</ele>
        <time>2023-03-24T14:25:36.471Z</time>
      </trkpt>
      <trkpt lat="48.70237" lon="-2.93318">
        <ele>85.417046</ele>
        <time>2023-03-24T14:25:49.139Z</time>
      </trkpt>
      <trkpt lat="48.70243" lon="-2.93331">
        <ele>85.45361</ele>
        <time>2023-03-24T14:25:51.220Z</time>
      </trkpt>
      <trkpt lat="48.70251" lon="-2.9334">
        <ele>85.490854</ele>
        <time>2023-03-24T14:25:53.465Z</time>
      </trkpt>
      <trkpt lat="48.70228" lon="-2.93455">
        <ele>85.776425</ele>
        <time>2023-03-24T14:26:11.500Z</time>
      </trkpt>
      <trkpt lat="48.70227" lon="-2.93495">
        <ele>85.870999</ele>
        <time>2023-03-24T14:26:16.856Z</time>
      </trkpt>
      <trkpt lat="48.70222" lon="-2.93511">
        <ele>85.913034</ele>
        <time>2023-03-24T14:26:19.913Z</time>
      </trkpt>
      <trkpt lat="48.70218" lon="-2.93563">
        <ele>86.019189</ele>
        <time>2023-03-24T14:26:28.185Z</time>
      </trkpt>
      <trkpt lat="48.70219" lon="-2.93646">
        <ele>86.173615</ele>
        <time>2023-03-24T14:26:40.473Z</time>
      </trkpt>
      <trkpt lat="48.7022" lon="-2.93726">
        <ele>86.323566</ele>
        <time>2023-03-24T14:26:52.089Z</time>
      </trkpt>
      <trkpt lat="48.70222" lon="-2.93752">
        <ele>86.37266</ele>
        <time>2023-03-24T14:26:55.556Z</time>
      </trkpt>
      <trkpt lat="48.70288" lon="-2.93765">
        <ele>86.500149</ele>
        <time>2023-03-24T14:27:08.851Z</time>
      </trkpt>
      <trkpt lat="48.70292" lon="-2.93764">
        <ele>86.505028</ele>
        <time>2023-03-24T14:27:09.705Z</time>
      </trkpt>
      <trkpt lat="48.70286" lon="-2.93823">
        <ele>86.549326</ele>
        <time>2023-03-24T14:27:17.689Z</time>
      </trkpt>
      <trkpt lat="48.70273" lon="-2.939">
        <ele>86.608763</ele>
        <time>2023-03-24T14:27:28.442Z</time>
      </trkpt>
      <trkpt lat="48.70353" lon="-2.93926">
        <ele>86.788734</ele>
        <time>2023-03-24T14:27:55.780Z</time>
      </trkpt>
      <trkpt lat="48.70377" lon="-2.93951">
        <ele>86.893616</ele>
        <time>2023-03-24T14:28:05.806Z</time>
      </trkpt>
      <trkpt lat="48.70393" lon="-2.93964">
        <ele>86.963123</ele>
        <time>2023-03-24T14:28:12.207Z</time>
      </trkpt>
      <trkpt lat="48.70441" lon="-2.93972">
        <ele>87.136126</ele>
        <time>2023-03-24T14:28:28.393Z</time>
      </trkpt>
      <trkpt lat="48.70464" lon="-2.9398">
        <ele>87.223756</ele>
        <time>2023-03-24T14:28:36.276Z</time>
      </trkpt>
      <trkpt lat="48.70482" lon="-2.9399">
        <ele>87.291547</ele>
        <time>2023-03-24T14:28:42.608Z</time>
      </trkpt>
      <trkpt lat="48.70497" lon="-2.94006">
        <ele>87.368017</ele>
        <time>2023-03-24T14:28:48.704Z</time>
      </trkpt>
      <trkpt lat="48.70513" lon="-2.94016">
        <ele>87.443397</ele>
        <time>2023-03-24T14:28:54.619Z</time>
      </trkpt>
      <trkpt lat="48.70492" lon="-2.94176">
        <ele>87.907368</ele>
        <time>2023-03-24T14:29:30.680Z</time>
      </trkpt>
      <trkpt lat="48.70508" lon="-2.9421">
        <ele>88.027656</ele>
        <time>2023-03-24T14:29:40.126Z</time>
      </trkpt>
      <trkpt lat="48.70536" lon="-2.94254">
        <ele>88.422625</ele>
        <time>2023-03-24T14:29:54.228Z</time>
      </trkpt>
      <trkpt lat="48.70549" lon="-2.94292">
        <ele>88.790746</ele>
        <time>2023-03-24T14:30:04.296Z</time>
      </trkpt>
      <trkpt lat="48.70551" lon="-2.94327">
        <ele>89.094181</ele>
        <time>2023-03-24T14:30:12.927Z</time>
      </trkpt>
      <trkpt lat="48.70541" lon="-2.94424">
        <ele>89.959359</ele>
        <time>2023-03-24T14:30:38.605Z</time>
      </trkpt>
      <trkpt lat="48.70619" lon="-2.94489">
        <ele>91.424594</ele>
        <time>2023-03-24T14:31:15.766Z</time>
      </trkpt>
      <trkpt lat="48.70736" lon="-2.94589">
        <ele>93.928001</ele>
        <time>2023-03-24T14:32:11.420Z</time>
      </trkpt>
      <trkpt lat="48.70744" lon="-2.94592">
        <ele>94.036851</ele>
        <time>2023-03-24T14:32:15.140Z</time>
      </trkpt>
      <trkpt lat="48.7075" lon="-2.94587">
        <ele>94.115581</ele>
        <time>2023-03-24T14:32:17.638Z</time>
      </trkpt>
      <trkpt lat="48.70796" lon="-2.9446">
        <ele>95.291938</ele>
        <time>2023-03-24T14:32:54.589Z</time>
      </trkpt>
      <trkpt lat="48.70808" lon="-2.94443">
        <ele>95.49393</ele>
        <time>2023-03-24T14:33:00.383Z</time>
      </trkpt>
      <trkpt lat="48.70828" lon="-2.94429">
        <ele>95.765405</ele>
        <time>2023-03-24T14:33:08.476Z</time>
      </trkpt>
      <trkpt lat="48.70833" lon="-2.94458">
        <ele>96.009935</ele>
        <time>2023-03-24T14:33:15.337Z</time>
      </trkpt>
      <trkpt lat="48.70836" lon="-2.94492">
        <ele>96.151069</ele>
        <time>2023-03-24T14:33:23.052Z</time>
      </trkpt>
      <trkpt lat="48.70835" lon="-2.94538">
        <ele>96.278585</ele>
        <time>2023-03-24T14:33:33.880Z</time>
      </trkpt>
      <trkpt lat="48.70829" lon="-2.94608">
        <ele>96.472564</ele>
        <time>2023-03-24T14:33:50.019Z</time>
      </trkpt>
      <trkpt lat="48.70834" lon="-2.94658">
        <ele>96.609722</ele>
        <time>2023-03-24T14:34:01.571Z</time>
      </trkpt>
      <trkpt lat="48.7084" lon="-2.94688">
        <ele>96.695398</ele>
        <time>2023-03-24T14:34:08.252Z</time>
      </trkpt>
      <trkpt lat="48.70859" lon="-2.94744">
        <ele>96.780316</ele>
        <time>2023-03-24T14:34:16.641Z</time>
      </trkpt>
      <trkpt lat="48.70885" lon="-2.94809">
        <ele>96.483659</ele>
        <time>2023-03-24T14:34:26.402Z</time>
      </trkpt>
      <trkpt lat="48.70912" lon="-2.94852">
        <ele>96.250157</ele>
        <time>2023-03-24T14:34:33.913Z</time>
      </trkpt>
      <trkpt lat="48.70915" lon="-2.94867">
        <ele>96.18934</ele>
        <time>2023-03-24T14:34:35.819Z</time>
      </trkpt>
      <trkpt lat="48.70917" lon="-2.94877">
        <ele>96.149222</ele>
        <time>2023-03-24T14:34:37.085Z</time>
      </trkpt>
      <trkpt lat="48.7092" lon="-2.94941">
        <ele>95.896743</ele>
        <time>2023-03-24T14:34:44.904Z</time>
      </trkpt>
      <trkpt lat="48.70908" lon="-2.95182">
        <ele>93.80408</ele>
        <time>2023-03-24T14:35:12.156Z</time>
      </trkpt>
      <trkpt lat="48.7092" lon="-2.95202">
        <ele>93.546233</ele>
        <time>2023-03-24T14:35:15.380Z</time>
      </trkpt>
      <trkpt lat="48.70954" lon="-2.95213">
        <ele>93.077954</ele>
        <time>2023-03-24T14:35:21.349Z</time>
      </trkpt>
      <trkpt lat="48.70962" lon="-2.95229">
        <ele>92.931767</ele>
        <time>2023-03-24T14:35:23.427Z</time>
      </trkpt>
      <trkpt lat="48.70965" lon="-2.95239">
        <ele>92.850535</ele>
        <time>2023-03-24T14:35:24.689Z</time>
      </trkpt>
      <trkpt lat="48.70968" lon="-2.9529">
        <ele>92.470977</ele>
        <time>2023-03-24T14:35:30.522Z</time>
      </trkpt>
      <trkpt lat="48.70963" lon="-2.95436">
        <ele>91.380446</ele>
        <time>2023-03-24T14:35:47.856Z</time>
      </trkpt>
      <trkpt lat="48.70972" lon="-2.95442">
        <ele>91.276394</ele>
        <time>2023-03-24T14:35:49.344Z</time>
      </trkpt>
      <trkpt lat="48.70969" lon="-2.95495">
        <ele>90.922862</ele>
        <time>2023-03-24T14:36:00.121Z</time>
      </trkpt>
      <trkpt lat="48.7095" lon="-2.9565">
        <ele>89.915732</ele>
        <time>2023-03-24T14:36:30.768Z</time>
      </trkpt>
      <trkpt lat="48.70952" lon="-2.95657">
        <ele>89.863178</ele>
        <time>2023-03-24T14:36:32.352Z</time>
      </trkpt>
      <trkpt lat="48.70994" lon="-2.95679">
        <ele>89.437372</ele>
        <time>2023-03-24T14:36:45.031Z</time>
      </trkpt>
      <trkpt lat="48.71039" lon="-2.95674">
        <ele>88.825542</ele>
        <time>2023-03-24T14:36:57.760Z</time>
      </trkpt>
      <trkpt lat="48.71147" lon="-2.95647">
        <ele>87.320284</ele>
        <time>2023-03-24T14:37:28.786Z</time>
      </trkpt>
      <trkpt lat="48.71169" lon="-2.95638">
        <ele>87.010075</ele>
        <time>2023-03-24T14:37:35.280Z</time>
      </trkpt>
      <trkpt lat="48.71193" lon="-2.95614">
        <ele>86.796314</ele>
        <time>2023-03-24T14:37:43.632Z</time>
      </trkpt>
      <trkpt lat="48.71204" lon="-2.95607">
        <ele>86.721367</ele>
        <time>2023-03-24T14:37:47.056Z</time>
      </trkpt>
      <trkpt lat="48.71218" lon="-2.9561">
        <ele>86.625347</ele>
        <time>2023-03-24T14:37:51.341Z</time>
      </trkpt>
      <trkpt lat="48.71233" lon="-2.95623">
        <ele>86.514331</ele>
        <time>2023-03-24T14:37:56.486Z</time>
      </trkpt>
      <trkpt lat="48.71262" lon="-2.95648">
        <ele>86.30195</ele>
        <time>2023-03-24T14:38:06.366Z</time>
      </trkpt>
      <trkpt lat="48.71298" lon="-2.95689">
        <ele>86.008255</ele>
        <time>2023-03-24T14:38:20.350Z</time>
      </trkpt>
      <trkpt lat="48.71327" lon="-2.95715">
        <ele>85.794508</ele>
        <time>2023-03-24T14:38:30.860Z</time>
      </trkpt>
      <trkpt lat="48.71334" lon="-2.95738">
        <ele>85.773827</ele>
        <time>2023-03-24T14:38:34.114Z</time>
      </trkpt>
      <trkpt lat="48.71345" lon="-2.95739">
        <ele>85.759568</ele>
        <time>2023-03-24T14:38:36.504Z</time>
      </trkpt>
      <trkpt lat="48.71378" lon="-2.95742">
        <ele>85.718284</ele>
        <time>2023-03-24T14:38:43.177Z</time>
      </trkpt>
      <trkpt lat="48.71397" lon="-2.9574">
        <ele>85.695724</ele>
        <time>2023-03-24T14:38:46.792Z</time>
      </trkpt>
      <trkpt lat="48.71481" lon="-2.9571">
        <ele>85.588857</ele>
        <time>2023-03-24T14:39:03.994Z</time>
      </trkpt>
      <trkpt lat="48.71502" lon="-2.95691">
        <ele>85.534018</ele>
        <time>2023-03-24T14:39:08.883Z</time>
      </trkpt>
      <trkpt lat="48.71521" lon="-2.95663">
        <ele>85.44532</ele>
        <time>2023-03-24T14:39:14.134Z</time>
      </trkpt>
      <trkpt lat="48.71538" lon="-2.95643">
        <ele>85.372874</ele>
        <time>2023-03-24T14:39:18.409Z</time>
      </trkpt>
      <trkpt lat="48.71603" lon="-2.95589">
        <ele>85.127977</ele>
        <time>2023-03-24T14:39:32.493Z</time>
      </trkpt>
      <trkpt lat="48.71622" lon="-2.95572">
        <ele>85.053618</ele>
        <time>2023-03-24T14:39:36.688Z</time>
      </trkpt>
      <trkpt lat="48.7176" lon="-2.9562">
        <ele>84.15801</ele>
        <time>2023-03-24T14:40:19.793Z</time>
      </trkpt>
      <trkpt lat="48.7183" lon="-2.95642">
        <ele>83.496804</ele>
        <time>2023-03-24T14:40:40.866Z</time>
      </trkpt>
      <trkpt lat="48.7186" lon="-2.95647">
        <ele>82.740011</ele>
        <time>2023-03-24T14:40:49.656Z</time>
      </trkpt>
      <trkpt lat="48.71855" lon="-2.95583">
        <ele>81.680721</ele>
        <time>2023-03-24T14:40:56.198Z</time>
      </trkpt>
      <trkpt lat="48.71844" lon="-2.95518">
        <ele>80.581129</ele>
        <time>2023-03-24T14:41:02.734Z</time>
      </trkpt>
      <trkpt lat="48.71846" lon="-2.95459">
        <ele>79.603143</ele>
        <time>2023-03-24T14:41:08.348Z</time>
      </trkpt>
      <trkpt lat="48.71843" lon="-2.95413">
        <ele>78.639188</ele>
        <time>2023-03-24T14:41:12.528Z</time>
      </trkpt>
      <trkpt lat="48.7184" lon="-2.95371">
        <ele>77.594221</ele>
        <time>2023-03-24T14:41:16.234Z</time>
      </trkpt>
      <trkpt lat="48.71827" lon="-2.95257">
        <ele>74.731753</ele>
        <time>2023-03-24T14:41:27.406Z</time>
      </trkpt>
      <trkpt lat="48.71836" lon="-2.95238">
        <ele>74.155651</ele>
        <time>2023-03-24T14:41:29.673Z</time>
      </trkpt>
      <trkpt lat="48.71802" lon="-2.95178">
        <ele>72.313984</ele>
        <time>2023-03-24T14:41:43.284Z</time>
      </trkpt>
      <trkpt lat="48.71784" lon="-2.95141">
        <ele>71.678491</ele>
        <time>2023-03-24T14:41:51.340Z</time>
      </trkpt>
      <trkpt lat="48.71784" lon="-2.95128">
        <ele>71.498019</ele>
        <time>2023-03-24T14:41:53.704Z</time>
      </trkpt>
      <trkpt lat="48.71786" lon="-2.95118">
        <ele>71.356598</ele>
        <time>2023-03-24T14:41:55.304Z</time>
      </trkpt>
      <trkpt lat="48.718" lon="-2.95099">
        <ele>70.971654</ele>
        <time>2023-03-24T14:42:00.728Z</time>
      </trkpt>
      <trkpt lat="48.71803" lon="-2.95094">
        <ele>70.86476</ele>
        <time>2023-03-24T14:42:02.205Z</time>
      </trkpt>
      <trkpt lat="48.71843" lon="-2.95072">
        <ele>69.981631</ele>
        <time>2023-03-24T14:42:14.146Z</time>
      </trkpt>
      <trkpt lat="48.71881" lon="-2.95064">
        <ele>69.186019</ele>
        <time>2023-03-24T14:42:25.041Z</time>
      </trkpt>
      <trkpt lat="48.7191" lon="-2.9507">
        <ele>68.398944</ele>
        <time>2023-03-24T14:42:33.546Z</time>
      </trkpt>
      <trkpt lat="48.71912" lon="-2.9507">
        <ele>68.300712</ele>
        <time>2023-03-24T14:42:34.191Z</time>
      </trkpt>
      <trkpt lat="48.71953" lon="-2.95101">
        <ele>66.297237</ele>
        <time>2023-03-24T14:42:46.160Z</time>
      </trkpt>
      <trkpt lat="48.72008" lon="-2.95154">
        <ele>63.42711</ele>
        <time>2023-03-24T14:43:02.112Z</time>
      </trkpt>
      <trkpt lat="48.72016" lon="-2.95157">
        <ele>63.040368</ele>
        <time>2023-03-24T14:43:04.071Z</time>
      </trkpt>
      <trkpt lat="48.72039" lon="-2.95128">
        <ele>61.736932</ele>
        <time>2023-03-24T14:43:08.098Z</time>
      </trkpt>
      <trkpt lat="48.72062" lon="-2.9509">
        <ele>59.9621</ele>
        <time>2023-03-24T14:43:12.746Z</time>
      </trkpt>
      <trkpt lat="48.72105" lon="-2.95027">
        <ele>55.923457</ele>
        <time>2023-03-24T14:43:20.875Z</time>
      </trkpt>
      <trkpt lat="48.72121" lon="-2.95049">
        <ele>54.484618</ele>
        <time>2023-03-24T14:43:23.705Z</time>
      </trkpt>
      <trkpt lat="48.72138" lon="-2.95058">
        <ele>53.238492</ele>
        <time>2023-03-24T14:43:26.258Z</time>
      </trkpt>
      <trkpt lat="48.72148" lon="-2.95063">
        <ele>52.559988</ele>
        <time>2023-03-24T14:43:27.563Z</time>
      </trkpt>
      <trkpt lat="48.72171" lon="-2.95066">
        <ele>51.003619</ele>
        <time>2023-03-24T14:43:30.761Z</time>
      </trkpt>
      <trkpt lat="48.72176" lon="-2.95066">
        <ele>50.688804</ele>
        <time>2023-03-24T14:43:31.392Z</time>
      </trkpt>
      <trkpt lat="48.7219" lon="-2.95066">
        <ele>49.730962</ele>
        <time>2023-03-24T14:43:33.286Z</time>
      </trkpt>
      <trkpt lat="48.72224" lon="-2.95059">
        <ele>47.783172</ele>
        <time>2023-03-24T14:43:37.896Z</time>
      </trkpt>
      <trkpt lat="48.72246" lon="-2.95059">
        <ele>46.677468</ele>
        <time>2023-03-24T14:43:43.218Z</time>
      </trkpt>
      <trkpt lat="48.72268" lon="-2.95041">
        <ele>45.418849</ele>
        <time>2023-03-24T14:43:49.133Z</time>
      </trkpt>
      <trkpt lat="48.72303" lon="-2.95005">
        <ele>43.315882</ele>
        <time>2023-03-24T14:43:59.280Z</time>
      </trkpt>
      <trkpt lat="48.72398" lon="-2.94902">
        <ele>39.154724</ele>
        <time>2023-03-24T14:44:28.491Z</time>
      </trkpt>
      <trkpt lat="48.72406" lon="-2.94893">
        <ele>39.019505</ele>
        <time>2023-03-24T14:44:31.071Z</time>
      </trkpt>
      <trkpt lat="48.72431" lon="-2.94877">
        <ele>38.653086</ele>
        <time>2023-03-24T14:44:38.294Z</time>
      </trkpt>
      <trkpt lat="48.72474" lon="-2.94867">
        <ele>38.063204</ele>
        <time>2023-03-24T14:44:50.733Z</time>
      </trkpt>
      <trkpt lat="48.725" lon="-2.94871">
        <ele>37.703542</ele>
        <time>2023-03-24T14:44:58.608Z</time>
      </trkpt>
      <trkpt lat="48.72514" lon="-2.94876">
        <ele>37.512321</ele>
        <time>2023-03-24T14:45:04.084Z</time>
      </trkpt>
      <trkpt lat="48.72534" lon="-2.94889">
        <ele>37.571762</ele>
        <time>2023-03-24T14:45:14.657Z</time>
      </trkpt>
      <trkpt lat="48.72553" lon="-2.94906">
        <ele>38.179921</ele>
        <time>2023-03-24T14:45:25.058Z</time>
      </trkpt>
      <trkpt lat="48.72594" lon="-2.94955">
        <ele>39.630278</ele>
        <time>2023-03-24T14:45:50.235Z</time>
      </trkpt>
      <trkpt lat="48.72591" lon="-2.94963">
        <ele>39.796854</ele>
        <time>2023-03-24T14:45:57.599Z</time>
      </trkpt>
      <trkpt lat="48.72608" lon="-2.94975">
        <ele>40.313405</ele>
        <time>2023-03-24T14:46:20.582Z</time>
      </trkpt>
      <trkpt lat="48.72622" lon="-2.94987">
        <ele>40.760005</ele>
        <time>2023-03-24T14:46:27.649Z</time>
      </trkpt>
      <trkpt lat="48.72619" lon="-2.94996">
        <ele>40.936034</ele>
        <time>2023-03-24T14:46:30.444Z</time>
      </trkpt>
      <trkpt lat="48.7263" lon="-2.95013">
        <ele>41.377799</ele>
        <time>2023-03-24T14:46:37.561Z</time>
      </trkpt>
      <trkpt lat="48.72633" lon="-2.95033">
        <ele>41.745961</ele>
        <time>2023-03-24T14:46:41.686Z</time>
      </trkpt>
      <trkpt lat="48.72625" lon="-2.95161">
        <ele>41.856955</ele>
        <time>2023-03-24T14:47:08.697Z</time>
      </trkpt>
      <trkpt lat="48.72621" lon="-2.95182">
        <ele>41.74961</ele>
        <time>2023-03-24T14:47:13.031Z</time>
      </trkpt>
      <trkpt lat="48.726" lon="-2.9524">
        <ele>41.418482</ele>
        <time>2023-03-24T14:47:23.826Z</time>
      </trkpt>
      <trkpt lat="48.72604" lon="-2.95264">
        <ele>41.298438</ele>
        <time>2023-03-24T14:47:26.195Z</time>
      </trkpt>
      <trkpt lat="48.72613" lon="-2.9527">
        <ele>41.226452</ele>
        <time>2023-03-24T14:47:27.600Z</time>
      </trkpt>
      <trkpt lat="48.72619" lon="-2.95269">
        <ele>41.179603</ele>
        <time>2023-03-24T14:47:28.532Z</time>
      </trkpt>
      <trkpt lat="48.72625" lon="-2.95264">
        <ele>41.129821</ele>
        <time>2023-03-24T14:47:29.534Z</time>
      </trkpt>
      <trkpt lat="48.72633" lon="-2.95247">
        <ele>41.024877</ele>
        <time>2023-03-24T14:47:31.442Z</time>
      </trkpt>
      <trkpt lat="48.72656" lon="-2.95142">
        <ele>35.048512</ele>
        <time>2023-03-24T14:47:40.968Z</time>
      </trkpt>
      <trkpt lat="48.72665" lon="-2.95111">
        <ele>33.059479</ele>
        <time>2023-03-24T14:47:43.845Z</time>
      </trkpt>
      <trkpt lat="48.72692" lon="-2.95044">
        <ele>28.53056</ele>
        <time>2023-03-24T14:47:50.317Z</time>
      </trkpt>
      <trkpt lat="48.72723" lon="-2.94956">
        <ele>23.532008</ele>
        <time>2023-03-24T14:47:58.805Z</time>
      </trkpt>
      <trkpt lat="48.7273" lon="-2.94937">
        <ele>22.690297</ele>
        <time>2023-03-24T14:48:00.640Z</time>
      </trkpt>
      <trkpt lat="48.72741" lon="-2.94902">
        <ele>21.207697</ele>
        <time>2023-03-24T14:48:03.750Z</time>
      </trkpt>
      <trkpt lat="48.72722" lon="-2.9488">
        <ele>19.845833</ele>
        <time>2023-03-24T14:48:07.707Z</time>
      </trkpt>
      <trkpt lat="48.72723" lon="-2.94872">
        <ele>19.544365</ele>
        <time>2023-03-24T14:48:08.634Z</time>
      </trkpt>
      <trkpt lat="48.72742" lon="-2.94861">
        <ele>18.311924</ele>
        <time>2023-03-24T14:48:12.249Z</time>
      </trkpt>
      <trkpt lat="48.7275" lon="-2.9488">
        <ele>17.454525</ele>
        <time>2023-03-24T14:48:14.300Z</time>
      </trkpt>
      <trkpt lat="48.72771" lon="-2.94935">
        <ele>14.986555</ele>
        <time>2023-03-24T14:48:20.828Z</time>
      </trkpt>
      <trkpt lat="48.72776" lon="-2.94961">
        <ele>15.451686</ele>
        <time>2023-03-24T14:48:23.582Z</time>
      </trkpt>
      <trkpt lat="48.72776" lon="-2.94983">
        <ele>16.426795</ele>
        <time>2023-03-24T14:48:28.565Z</time>
      </trkpt>
      <trkpt lat="48.72768" lon="-2.95033">
        <ele>18.725658</ele>
        <time>2023-03-24T14:48:42.779Z</time>
      </trkpt>
      <trkpt lat="48.72767" lon="-2.95039">
        <ele>18.996424</ele>
        <time>2023-03-24T14:48:44.464Z</time>
      </trkpt>
      <trkpt lat="48.72787" lon="-2.95043">
        <ele>20.353534</ele>
        <time>2023-03-24T14:48:56.291Z</time>
      </trkpt>
      <trkpt lat="48.72832" lon="-2.95049">
        <ele>23.42868</ele>
        <time>2023-03-24T14:49:27.922Z</time>
      </trkpt>
      <trkpt lat="48.72875" lon="-2.95038">
        <ele>26.392002</ele>
        <time>2023-03-24T14:49:57.622Z</time>
      </trkpt>
      <trkpt lat="48.7289" lon="-2.95038">
        <ele>27.907223</ele>
        <time>2023-03-24T14:50:06.117Z</time>
      </trkpt>
      <trkpt lat="48.72892" lon="-2.95033">
        <ele>28.382261</ele>
        <time>2023-03-24T14:50:09.723Z</time>
      </trkpt>
      <trkpt lat="48.72919" lon="-2.9501">
        <ele>32.242071</ele>
        <time>2023-03-24T14:50:34.178Z</time>
      </trkpt>
      <trkpt lat="48.72931" lon="-2.94984">
        <ele>34.871305</ele>
        <time>2023-03-24T14:50:54.591Z</time>
      </trkpt>
      <trkpt lat="48.72948" lon="-2.94932">
        <ele>39.676342</ele>
        <time>2023-03-24T14:51:28.758Z</time>
      </trkpt>
      <trkpt lat="48.7295" lon="-2.94903">
        <ele>42.080105</ele>
        <time>2023-03-24T14:51:45.628Z</time>
      </trkpt>
      <trkpt lat="48.72941" lon="-2.94853">
        <ele>46.341547</ele>
        <time>2023-03-24T14:52:16.858Z</time>
      </trkpt>
      <trkpt lat="48.72938" lon="-2.94823">
        <ele>48.778774</ele>
        <time>2023-03-24T14:52:35.172Z</time>
      </trkpt>
      <trkpt lat="48.7294" lon="-2.94809">
        <ele>49.721108</ele>
        <time>2023-03-24T14:52:41.225Z</time>
      </trkpt>
      <trkpt lat="48.72976" lon="-2.9467">
        <ele>57.247871</ele>
        <time>2023-03-24T14:53:48.928Z</time>
      </trkpt>
      <trkpt lat="48.72987" lon="-2.94644">
        <ele>58.789133</ele>
        <time>2023-03-24T14:54:01.421Z</time>
      </trkpt>
      <trkpt lat="48.72996" lon="-2.94636">
        <ele>59.596816</ele>
        <time>2023-03-24T14:54:08.232Z</time>
      </trkpt>
      <trkpt lat="48.73004" lon="-2.94631">
        <ele>60.290402</ele>
        <time>2023-03-24T14:54:13.106Z</time>
      </trkpt>
      <trkpt lat="48.73007" lon="-2.9463">
        <ele>60.512102</ele>
        <time>2023-03-24T14:54:14.944Z</time>
      </trkpt>
      <trkpt lat="48.73033" lon="-2.94627">
        <ele>62.508479</ele>
        <time>2023-03-24T14:54:25.182Z</time>
      </trkpt>
      <trkpt lat="48.7304" lon="-2.94623">
        <ele>63.040233</ele>
        <time>2023-03-24T14:54:27.033Z</time>
      </trkpt>
      <trkpt lat="48.73051" lon="-2.94589">
        <ele>62.294774</ele>
        <time>2023-03-24T14:54:32.056Z</time>
      </trkpt>
      <trkpt lat="48.72968" lon="-2.94553">
        <ele>59.732009</ele>
        <time>2023-03-24T14:54:43.489Z</time>
      </trkpt>
      <trkpt lat="48.72905" lon="-2.94527">
        <ele>57.790523</ele>
        <time>2023-03-24T14:54:52.880Z</time>
      </trkpt>
      <trkpt lat="48.72895" lon="-2.94517">
        <ele>57.49006</ele>
        <time>2023-03-24T14:54:54.343Z</time>
      </trkpt>
      <trkpt lat="48.72894" lon="-2.94503">
        <ele>57.288737</ele>
        <time>2023-03-24T14:54:55.665Z</time>
      </trkpt>
      <trkpt lat="48.72898" lon="-2.9449">
        <ele>57.068947</ele>
        <time>2023-03-24T14:54:57.298Z</time>
      </trkpt>
      <trkpt lat="48.72927" lon="-2.94422">
        <ele>55.834665</ele>
        <time>2023-03-24T14:55:04.384Z</time>
      </trkpt>
      <trkpt lat="48.72945" lon="-2.94387">
        <ele>55.164883</ele>
        <time>2023-03-24T14:55:08.837Z</time>
      </trkpt>
      <trkpt lat="48.72951" lon="-2.94379">
        <ele>54.966452</ele>
        <time>2023-03-24T14:55:09.974Z</time>
      </trkpt>
      <trkpt lat="48.72964" lon="-2.9437">
        <ele>54.649098</ele>
        <time>2023-03-24T14:55:13.183Z</time>
      </trkpt>
      <trkpt lat="48.72978" lon="-2.94368">
        <ele>54.317861</ele>
        <time>2023-03-24T14:55:15.628Z</time>
      </trkpt>
      <trkpt lat="48.7304" lon="-2.94387">
        <ele>53.88719</ele>
        <time>2023-03-24T14:55:36.077Z</time>
      </trkpt>
      <trkpt lat="48.73049" lon="-2.94388">
        <ele>53.988383</ele>
        <time>2023-03-24T14:55:39.120Z</time>
      </trkpt>
      <trkpt lat="48.73064" lon="-2.94382">
        <ele>54.165843</ele>
        <time>2023-03-24T14:55:44.657Z</time>
      </trkpt>
      <trkpt lat="48.73076" lon="-2.94371">
        <ele>54.324092</ele>
        <time>2023-03-24T14:55:49.874Z</time>
      </trkpt>
      <trkpt lat="48.73088" lon="-2.94355">
        <ele>54.500052</ele>
        <time>2023-03-24T14:55:54.286Z</time>
      </trkpt>
      <trkpt lat="48.73096" lon="-2.94333">
        <ele>54.68918</ele>
        <time>2023-03-24T14:55:58.351Z</time>
      </trkpt>
      <trkpt lat="48.73099" lon="-2.94313">
        <ele>54.842026</ele>
        <time>2023-03-24T14:56:01.035Z</time>
      </trkpt>
      <trkpt lat="48.73101" lon="-2.94266">
        <ele>55.195828</ele>
        <time>2023-03-24T14:56:07.082Z</time>
      </trkpt>
      <trkpt lat="48.73105" lon="-2.94234">
        <ele>55.440653</ele>
        <time>2023-03-24T14:56:11.394Z</time>
      </trkpt>
      <trkpt lat="48.73142" lon="-2.94113">
        <ele>56.284356</ele>
        <time>2023-03-24T14:56:33.252Z</time>
      </trkpt>
      <trkpt lat="48.73166" lon="-2.94034">
        <ele>56.817429</ele>
        <time>2023-03-24T14:56:48.336Z</time>
      </trkpt>
      <trkpt lat="48.73174" lon="-2.94016">
        <ele>56.946374</ele>
        <time>2023-03-24T14:56:52.196Z</time>
      </trkpt>
      <trkpt lat="48.73184" lon="-2.94002">
        <ele>57.075649</ele>
        <time>2023-03-24T14:56:55.692Z</time>
      </trkpt>
      <trkpt lat="48.73199" lon="-2.9399">
        <ele>57.233996</ele>
        <time>2023-03-24T14:57:00.083Z</time>
      </trkpt>
      <trkpt lat="48.73272" lon="-2.93968">
        <ele>57.576803</ele>
        <time>2023-03-24T14:57:17.925Z</time>
      </trkpt>
      <trkpt lat="48.73361" lon="-2.93905">
        <ele>58.018969</ele>
        <time>2023-03-24T14:57:38.513Z</time>
      </trkpt>
      <trkpt lat="48.7366" lon="-2.93687">
        <ele>59.167861</ele>
        <time>2023-03-24T14:58:45.925Z</time>
      </trkpt>
      <trkpt lat="48.7354" lon="-2.94451">
        <ele>72.266189</ele>
        <time>2023-03-24T15:02:47.216Z</time>
      </trkpt>
      <trkpt lat="48.73535" lon="-2.94486">
        <ele>72.724617</ele>
        <time>2023-03-24T15:02:53.101Z</time>
      </trkpt>
      <trkpt lat="48.73488" lon="-2.94792">
        <ele>72.963964</ele>
        <time>2023-03-24T15:03:33.268Z</time>
      </trkpt>
      <trkpt lat="48.73554" lon="-2.94822">
        <ele>72.625099</ele>
        <time>2023-03-24T15:03:46.183Z</time>
      </trkpt>
      <trkpt lat="48.73766" lon="-2.94919">
        <ele>70.20542</ele>
        <time>2023-03-24T15:04:27.811Z</time>
      </trkpt>
      <trkpt lat="48.73764" lon="-2.94893">
        <ele>69.911344</ele>
        <time>2023-03-24T15:04:30.344Z</time>
      </trkpt>
      <trkpt lat="48.73744" lon="-2.94762">
        <ele>67.732213</ele>
        <time>2023-03-24T15:04:43.907Z</time>
      </trkpt>
      <trkpt lat="48.73741" lon="-2.94721">
        <ele>66.649418</ele>
        <time>2023-03-24T15:04:47.908Z</time>
      </trkpt>
      <trkpt lat="48.73745" lon="-2.94704">
        <ele>66.181275</ele>
        <time>2023-03-24T15:04:49.674Z</time>
      </trkpt>
      <trkpt lat="48.73762" lon="-2.94653">
        <ele>64.648089</ele>
        <time>2023-03-24T15:04:55.282Z</time>
      </trkpt>
      <trkpt lat="48.73775" lon="-2.94631">
        <ele>63.886179</ele>
        <time>2023-03-24T15:04:58.135Z</time>
      </trkpt>
      <trkpt lat="48.73783" lon="-2.94623">
        <ele>63.487433</ele>
        <time>2023-03-24T15:04:59.637Z</time>
      </trkpt>
      <trkpt lat="48.73799" lon="-2.94617">
        <ele>62.845328</ele>
        <time>2023-03-24T15:05:01.967Z</time>
      </trkpt>
      <trkpt lat="48.73834" lon="-2.94615">
        <ele>61.322958</ele>
        <time>2023-03-24T15:05:07.073Z</time>
      </trkpt>
      <trkpt lat="48.73849" lon="-2.94606">
        <ele>60.250273</ele>
        <time>2023-03-24T15:05:09.401Z</time>
      </trkpt>
      <trkpt lat="48.73863" lon="-2.94587">
        <ele>59.000241</ele>
        <time>2023-03-24T15:05:12.041Z</time>
      </trkpt>
      <trkpt lat="48.73872" lon="-2.94556">
        <ele>57.532682</ele>
        <time>2023-03-24T15:05:15.071Z</time>
      </trkpt>
      <trkpt lat="48.73888" lon="-2.94433">
        <ele>52.042352</ele>
        <time>2023-03-24T15:05:26.236Z</time>
      </trkpt>
      <trkpt lat="48.73894" lon="-2.94406">
        <ele>50.791368</ele>
        <time>2023-03-24T15:05:28.694Z</time>
      </trkpt>
      <trkpt lat="48.73902" lon="-2.94386">
        <ele>49.768248</ele>
        <time>2023-03-24T15:05:30.703Z</time>
      </trkpt>
      <trkpt lat="48.73971" lon="-2.94286">
        <ele>44.329005</ele>
        <time>2023-03-24T15:05:43.155Z</time>
      </trkpt>
      <trkpt lat="48.7398" lon="-2.94273">
        <ele>43.631312</ele>
        <time>2023-03-24T15:05:44.870Z</time>
      </trkpt>
      <trkpt lat="48.74013" lon="-2.94311">
        <ele>41.271839</ele>
        <time>2023-03-24T15:05:54.751Z</time>
      </trkpt>
      <trkpt lat="48.7405" lon="-2.94346">
        <ele>39.976614</ele>
        <time>2023-03-24T15:06:06.214Z</time>
      </trkpt>
      <trkpt lat="48.74103" lon="-2.94371">
        <ele>42.45962</ele>
        <time>2023-03-24T15:06:29.209Z</time>
      </trkpt>
      <trkpt lat="48.7413" lon="-2.944">
        <ele>43.968143</ele>
        <time>2023-03-24T15:06:48.805Z</time>
      </trkpt>
      <trkpt lat="48.74134" lon="-2.94421">
        <ele>44.604524</ele>
        <time>2023-03-24T15:06:57.711Z</time>
      </trkpt>
      <trkpt lat="48.74132" lon="-2.94474">
        <ele>46.174044</ele>
        <time>2023-03-24T15:07:23.161Z</time>
      </trkpt>
      <trkpt lat="48.7414" lon="-2.94522">
        <ele>47.74386</ele>
        <time>2023-03-24T15:07:49.959Z</time>
      </trkpt>
      <trkpt lat="48.74162" lon="-2.9456">
        <ele>50.295636</ele>
        <time>2023-03-24T15:08:15.641Z</time>
      </trkpt>
      <trkpt lat="48.74196" lon="-2.94591">
        <ele>53.328626</ele>
        <time>2023-03-24T15:08:43.897Z</time>
      </trkpt>
      <trkpt lat="48.74272" lon="-2.94619">
        <ele>59.244481</ele>
        <time>2023-03-24T15:09:38.758Z</time>
      </trkpt>
      <trkpt lat="48.74284" lon="-2.94645">
        <ele>60.856652</ele>
        <time>2023-03-24T15:09:52.374Z</time>
      </trkpt>
      <trkpt lat="48.74296" lon="-2.94685">
        <ele>61.956729</ele>
        <time>2023-03-24T15:10:09.907Z</time>
      </trkpt>
      <trkpt lat="48.74304" lon="-2.94729">
        <ele>62.865619</ele>
        <time>2023-03-24T15:10:26.478Z</time>
      </trkpt>
      <trkpt lat="48.74294" lon="-2.94771">
        <ele>63.769762</ele>
        <time>2023-03-24T15:10:41.624Z</time>
      </trkpt>
      <trkpt lat="48.74285" lon="-2.94796">
        <ele>64.3184</ele>
        <time>2023-03-24T15:10:49.055Z</time>
      </trkpt>
      <trkpt lat="48.74284" lon="-2.94807">
        <ele>64.555814</ele>
        <time>2023-03-24T15:10:53.992Z</time>
      </trkpt>
      <trkpt lat="48.74282" lon="-2.94854">
        <ele>65.488877</ele>
        <time>2023-03-24T15:11:05.287Z</time>
      </trkpt>
      <trkpt lat="48.7433" lon="-2.9479">
        <ele>66.169567</ele>
        <time>2023-03-24T15:11:19.287Z</time>
      </trkpt>
      <trkpt lat="48.74345" lon="-2.94764">
        <ele>65.700943</ele>
        <time>2023-03-24T15:11:23.555Z</time>
      </trkpt>
      <trkpt lat="48.74356" lon="-2.9473">
        <ele>65.17374</ele>
        <time>2023-03-24T15:11:28.139Z</time>
      </trkpt>
      <trkpt lat="48.7436" lon="-2.94706">
        <ele>64.835891</ele>
        <time>2023-03-24T15:11:30.644Z</time>
      </trkpt>
      <trkpt lat="48.74359" lon="-2.94681">
        <ele>64.502626</ele>
        <time>2023-03-24T15:11:33.080Z</time>
      </trkpt>
      <trkpt lat="48.74358" lon="-2.9467">
        <ele>64.351009</ele>
        <time>2023-03-24T15:11:34.147Z</time>
      </trkpt>
      <trkpt lat="48.74349" lon="-2.94634">
        <ele>63.821558</ele>
        <time>2023-03-24T15:11:37.913Z</time>
      </trkpt>
      <trkpt lat="48.74332" lon="-2.94589">
        <ele>63.117325</ele>
        <time>2023-03-24T15:11:43.022Z</time>
      </trkpt>
      <trkpt lat="48.74322" lon="-2.9457">
        <ele>62.804161</ele>
        <time>2023-03-24T15:11:45.479Z</time>
      </trkpt>
      <trkpt lat="48.74311" lon="-2.94552">
        <ele>62.519834</ele>
        <time>2023-03-24T15:11:48.085Z</time>
      </trkpt>
      <trkpt lat="48.7426" lon="-2.9449">
        <ele>61.361196</ele>
        <time>2023-03-24T15:11:58.477Z</time>
      </trkpt>
      <trkpt lat="48.74254" lon="-2.9448">
        <ele>61.197091</ele>
        <time>2023-03-24T15:12:00.039Z</time>
      </trkpt>
      <trkpt lat="48.74249" lon="-2.94462">
        <ele>60.970996</ele>
        <time>2023-03-24T15:12:02.084Z</time>
      </trkpt>
      <trkpt lat="48.74248" lon="-2.94436">
        <ele>60.666243</ele>
        <time>2023-03-24T15:12:05.128Z</time>
      </trkpt>
      <trkpt lat="48.74255" lon="-2.94402">
        <ele>60.24464</ele>
        <time>2023-03-24T15:12:09.196Z</time>
      </trkpt>
      <trkpt lat="48.74269" lon="-2.94378">
        <ele>59.866809</ele>
        <time>2023-03-24T15:12:13.709Z</time>
      </trkpt>
      <trkpt lat="48.74288" lon="-2.94368">
        <ele>59.856358</ele>
        <time>2023-03-24T15:12:17.572Z</time>
      </trkpt>
      <trkpt lat="48.7447" lon="-2.94371">
        <ele>60.589404</ele>
        <time>2023-03-24T15:13:04.127Z</time>
      </trkpt>
      <trkpt lat="48.74548" lon="-2.94372">
        <ele>58.7931</ele>
        <time>2023-03-24T15:13:18.642Z</time>
      </trkpt>
      <trkpt lat="48.74584" lon="-2.94352">
        <ele>57.917704</ele>
        <time>2023-03-24T15:13:24.461Z</time>
      </trkpt>
      <trkpt lat="48.74604" lon="-2.94332">
        <ele>57.361763</ele>
        <time>2023-03-24T15:13:27.949Z</time>
      </trkpt>
      <trkpt lat="48.74614" lon="-2.94319">
        <ele>57.063029</ele>
        <time>2023-03-24T15:13:29.766Z</time>
      </trkpt>
      <trkpt lat="48.74629" lon="-2.9429">
        <ele>56.032365</ele>
        <time>2023-03-24T15:13:33.076Z</time>
      </trkpt>
      <trkpt lat="48.74696" lon="-2.94123">
        <ele>48.581579</ele>
        <time>2023-03-24T15:13:50.478Z</time>
      </trkpt>
      <trkpt lat="48.74717" lon="-2.9407">
        <ele>46.396884</ele>
        <time>2023-03-24T15:13:56.416Z</time>
      </trkpt>
      <trkpt lat="48.74739" lon="-2.94022">
        <ele>46.215987</ele>
        <time>2023-03-24T15:14:02.174Z</time>
      </trkpt>
      <trkpt lat="48.74751" lon="-2.94001">
        <ele>46.129712</ele>
        <time>2023-03-24T15:14:04.882Z</time>
      </trkpt>
      <trkpt lat="48.74767" lon="-2.93982">
        <ele>46.031187</ele>
        <time>2023-03-24T15:14:09.233Z</time>
      </trkpt>
      <trkpt lat="48.74785" lon="-2.93968">
        <ele>45.935936</ele>
        <time>2023-03-24T15:14:12.648Z</time>
      </trkpt>
      <trkpt lat="48.74819" lon="-2.9395">
        <ele>45.763433</ele>
        <time>2023-03-24T15:14:21.658Z</time>
      </trkpt>
      <trkpt lat="48.74914" lon="-2.93932">
        <ele>47.445809</ele>
        <time>2023-03-24T15:14:58.256Z</time>
      </trkpt>
      <trkpt lat="48.75008" lon="-2.9389">
        <ele>50.97982</ele>
        <time>2023-03-24T15:15:37.303Z</time>
      </trkpt>
      <trkpt lat="48.75028" lon="-2.9388">
        <ele>51.739275</ele>
        <time>2023-03-24T15:15:45.878Z</time>
      </trkpt>
      <trkpt lat="48.75142" lon="-2.93826">
        <ele>54.015747</ele>
        <time>2023-03-24T15:16:27.545Z</time>
      </trkpt>
      <trkpt lat="48.75153" lon="-2.93715">
        <ele>55.10416</ele>
        <time>2023-03-24T15:16:43.860Z</time>
      </trkpt>
      <trkpt lat="48.75162" lon="-2.93663">
        <ele>54.395971</ele>
        <time>2023-03-24T15:16:49.794Z</time>
      </trkpt>
      <trkpt lat="48.75179" lon="-2.93613">
        <ele>53.656689</ele>
        <time>2023-03-24T15:16:55.713Z</time>
      </trkpt>
      <trkpt lat="48.75199" lon="-2.93572">
        <ele>52.978218</ele>
        <time>2023-03-24T15:17:00.811Z</time>
      </trkpt>
      <trkpt lat="48.75217" lon="-2.93543">
        <ele>52.456597</ele>
        <time>2023-03-24T15:17:04.727Z</time>
      </trkpt>
      <trkpt lat="48.75255" lon="-2.93505">
        <ele>51.676877</ele>
        <time>2023-03-24T15:17:12.241Z</time>
      </trkpt>
      <trkpt lat="48.75283" lon="-2.93458">
        <ele>52.14556</ele>
        <time>2023-03-24T15:17:19.440Z</time>
      </trkpt>
      <trkpt lat="48.75317" lon="-2.93432">
        <ele>52.58228</ele>
        <time>2023-03-24T15:17:27.162Z</time>
      </trkpt>
      <trkpt lat="48.755" lon="-2.93596">
        <ele>56.619345</ele>
        <time>2023-03-24T15:19:07.967Z</time>
      </trkpt>
      <trkpt lat="48.75584" lon="-2.9367">
        <ele>58.317625</ele>
        <time>2023-03-24T15:19:46.625Z</time>
      </trkpt>
      <trkpt lat="48.75587" lon="-2.93675">
        <ele>58.333439</ele>
        <time>2023-03-24T15:19:48.251Z</time>
      </trkpt>
      <trkpt lat="48.7559" lon="-2.93691">
        <ele>58.370541</ele>
        <time>2023-03-24T15:19:52.237Z</time>
      </trkpt>
      <trkpt lat="48.75594" lon="-2.93741">
        <ele>58.482191</ele>
        <time>2023-03-24T15:20:03.054Z</time>
      </trkpt>
      <trkpt lat="48.75596" lon="-2.93767">
        <ele>58.540021</ele>
        <time>2023-03-24T15:20:08.169Z</time>
      </trkpt>
      <trkpt lat="48.75606" lon="-2.93874">
        <ele>58.780643</ele>
        <time>2023-03-24T15:20:30.163Z</time>
      </trkpt>
      <trkpt lat="48.75599" lon="-2.939">
        <ele>58.833615</ele>
        <time>2023-03-24T15:20:36.133Z</time>
      </trkpt>
      <trkpt lat="48.7537" lon="-2.94417">
        <ele>60.515022</ele>
        <time>2023-03-24T15:22:52.894Z</time>
      </trkpt>
      <trkpt lat="48.75366" lon="-2.94418">
        <ele>60.567739</ele>
        <time>2023-03-24T15:22:54.605Z</time>
      </trkpt>
      <trkpt lat="48.75356" lon="-2.94411">
        <ele>60.684816</ele>
        <time>2023-03-24T15:22:57.392Z</time>
      </trkpt>
      <trkpt lat="48.75281" lon="-2.94337">
        <ele>61.676758</ele>
        <time>2023-03-24T15:23:22.099Z</time>
      </trkpt>
      <trkpt lat="48.7521" lon="-2.94268">
        <ele>62.59625</ele>
        <time>2023-03-24T15:23:45.889Z</time>
      </trkpt>
      <trkpt lat="48.7519" lon="-2.94276">
        <ele>62.828907</ele>
        <time>2023-03-24T15:23:51.290Z</time>
      </trkpt>
      <trkpt lat="48.75132" lon="-2.94329">
        <ele>63.56436</ele>
        <time>2023-03-24T15:24:07.523Z</time>
      </trkpt>
      <trkpt lat="48.75107" lon="-2.94367">
        <ele>63.85857</ele>
        <time>2023-03-24T15:24:15.920Z</time>
      </trkpt>
      <trkpt lat="48.75095" lon="-2.94385">
        <ele>63.927011</ele>
        <time>2023-03-24T15:24:19.819Z</time>
      </trkpt>
      <trkpt lat="48.75015" lon="-2.94458">
        <ele>64.325485</ele>
        <time>2023-03-24T15:24:40.909Z</time>
      </trkpt>
      <trkpt lat="48.74968" lon="-2.94528">
        <ele>64.633879</ele>
        <time>2023-03-24T15:24:54.793Z</time>
      </trkpt>
      <trkpt lat="48.74943" lon="-2.94584">
        <ele>64.942227</ele>
        <time>2023-03-24T15:25:03.713Z</time>
      </trkpt>
      <trkpt lat="48.74941" lon="-2.94588">
        <ele>64.969768</ele>
        <time>2023-03-24T15:25:04.528Z</time>
      </trkpt>
      <trkpt lat="48.74909" lon="-2.9464">
        <ele>65.293595</ele>
        <time>2023-03-24T15:25:15.520Z</time>
      </trkpt>
      <trkpt lat="48.74905" lon="-2.94654">
        <ele>65.363248</ele>
        <time>2023-03-24T15:25:18.219Z</time>
      </trkpt>
      <trkpt lat="48.74906" lon="-2.94666">
        <ele>65.418237</ele>
        <time>2023-03-24T15:25:20.030Z</time>
      </trkpt>
      <trkpt lat="48.74907" lon="-2.94674">
        <ele>65.454198</ele>
        <time>2023-03-24T15:25:21.127Z</time>
      </trkpt>
      <trkpt lat="48.74926" lon="-2.94706">
        <ele>65.648983</ele>
        <time>2023-03-24T15:25:28.605Z</time>
      </trkpt>
      <trkpt lat="48.7493" lon="-2.94727">
        <ele>65.750975</ele>
        <time>2023-03-24T15:25:32.142Z</time>
      </trkpt>
      <trkpt lat="48.74912" lon="-2.94806">
        <ele>66.815001</ele>
        <time>2023-03-24T15:25:47.472Z</time>
      </trkpt>
      <trkpt lat="48.74859" lon="-2.94904">
        <ele>68.636507</ele>
        <time>2023-03-24T15:26:13.198Z</time>
      </trkpt>
      <trkpt lat="48.74796" lon="-2.95031">
        <ele>71.148614</ele>
        <time>2023-03-24T15:26:50.392Z</time>
      </trkpt>
      <trkpt lat="48.74782" lon="-2.95062">
        <ele>71.789673</ele>
        <time>2023-03-24T15:26:59.174Z</time>
      </trkpt>
      <trkpt lat="48.74771" lon="-2.95104">
        <ele>72.567172</ele>
        <time>2023-03-24T15:27:09.521Z</time>
      </trkpt>
      <trkpt lat="48.74761" lon="-2.95176">
        <ele>73.81966</ele>
        <time>2023-03-24T15:27:24.406Z</time>
      </trkpt>
      <trkpt lat="48.74752" lon="-2.95205">
        <ele>74.389279</ele>
        <time>2023-03-24T15:27:31.569Z</time>
      </trkpt>
      <trkpt lat="48.74748" lon="-2.95239">
        <ele>74.728397</ele>
        <time>2023-03-24T15:27:37.993Z</time>
      </trkpt>
      <trkpt lat="48.74751" lon="-2.95295">
        <ele>75.262673</ele>
        <time>2023-03-24T15:27:48.427Z</time>
      </trkpt>
      <trkpt lat="48.74749" lon="-2.95317">
        <ele>75.473142</ele>
        <time>2023-03-24T15:27:52.906Z</time>
      </trkpt>
      <trkpt lat="48.74736" lon="-2.95396">
        <ele>76.25809</ele>
        <time>2023-03-24T15:28:08.619Z</time>
      </trkpt>
      <trkpt lat="48.74729" lon="-2.95503">
        <ele>77.056133</ele>
        <time>2023-03-24T15:28:25.630Z</time>
      </trkpt>
      <trkpt lat="48.74715" lon="-2.95598">
        <ele>77.159093</ele>
        <time>2023-03-24T15:28:38.532Z</time>
      </trkpt>
      <trkpt lat="48.74697" lon="-2.95703">
        <ele>77.273991</ele>
        <time>2023-03-24T15:28:52.799Z</time>
      </trkpt>
      <trkpt lat="48.74694" lon="-2.9575">
        <ele>77.325933</ele>
        <time>2023-03-24T15:28:59.495Z</time>
      </trkpt>
      <trkpt lat="48.74701" lon="-2.95804">
        <ele>77.390266</ele>
        <time>2023-03-24T15:29:07.095Z</time>
      </trkpt>
      <trkpt lat="48.74702" lon="-2.95812">
        <ele>77.399571</ele>
        <time>2023-03-24T15:29:08.183Z</time>
      </trkpt>
      <trkpt lat="48.74704" lon="-2.9583">
        <ele>77.420524</ele>
        <time>2023-03-24T15:29:10.513Z</time>
      </trkpt>
      <trkpt lat="48.747" lon="-2.95875">
        <ele>77.473449</ele>
        <time>2023-03-24T15:29:16.448Z</time>
      </trkpt>
      <trkpt lat="48.74685" lon="-2.96003">
        <ele>77.624415</ele>
        <time>2023-03-24T15:29:35.233Z</time>
      </trkpt>
      <trkpt lat="48.74668" lon="-2.96093">
        <ele>77.306023</ele>
        <time>2023-03-24T15:29:49.291Z</time>
      </trkpt>
      <trkpt lat="48.74665" lon="-2.96106">
        <ele>77.253845</ele>
        <time>2023-03-24T15:29:51.168Z</time>
      </trkpt>
      <trkpt lat="48.74633" lon="-2.96155">
        <ele>76.991613</ele>
        <time>2023-03-24T15:29:59.959Z</time>
      </trkpt>
      <trkpt lat="48.74624" lon="-2.96174">
        <ele>76.904227</ele>
        <time>2023-03-24T15:30:02.737Z</time>
      </trkpt>
      <trkpt lat="48.7461" lon="-2.96222">
        <ele>76.704056</ele>
        <time>2023-03-24T15:30:08.761Z</time>
      </trkpt>
      <trkpt lat="48.74597" lon="-2.9628">
        <ele>75.942209</ele>
        <time>2023-03-24T15:30:15.468Z</time>
      </trkpt>
      <trkpt lat="48.74685" lon="-2.96329">
        <ele>73.099491</ele>
        <time>2023-03-24T15:30:29.915Z</time>
      </trkpt>
      <trkpt lat="48.74703" lon="-2.96338">
        <ele>72.507987</ele>
        <time>2023-03-24T15:30:32.748Z</time>
      </trkpt>
      <trkpt lat="48.74722" lon="-2.96339">
        <ele>71.934082</ele>
        <time>2023-03-24T15:30:35.534Z</time>
      </trkpt>
      <trkpt lat="48.7474" lon="-2.96333">
        <ele>71.387426</ele>
        <time>2023-03-24T15:30:38.149Z</time>
      </trkpt>
      <trkpt lat="48.74822" lon="-2.96309">
        <ele>68.875306</ele>
        <time>2023-03-24T15:30:50.631Z</time>
      </trkpt>
      <trkpt lat="48.74846" lon="-2.96293">
        <ele>68.065004</ele>
        <time>2023-03-24T15:30:54.721Z</time>
      </trkpt>
      <trkpt lat="48.74916" lon="-2.96227">
        <ele>65.683631</ele>
        <time>2023-03-24T15:31:07.929Z</time>
      </trkpt>
      <trkpt lat="48.74936" lon="-2.96222">
        <ele>65.570584</ele>
        <time>2023-03-24T15:31:11.171Z</time>
      </trkpt>
      <trkpt lat="48.74944" lon="-2.96227">
        <ele>65.517449</ele>
        <time>2023-03-24T15:31:12.765Z</time>
      </trkpt>
      <trkpt lat="48.74957" lon="-2.96243">
        <ele>65.420391</ele>
        <time>2023-03-24T15:31:15.743Z</time>
      </trkpt>
      <trkpt lat="48.74966" lon="-2.96274">
        <ele>65.29454</ele>
        <time>2023-03-24T15:31:19.683Z</time>
      </trkpt>
      <trkpt lat="48.74969" lon="-2.9629">
        <ele>65.23195</ele>
        <time>2023-03-24T15:31:21.811Z</time>
      </trkpt>
      <trkpt lat="48.74976" lon="-2.96409">
        <ele>64.777778</ele>
        <time>2023-03-24T15:31:38.078Z</time>
      </trkpt>
      <trkpt lat="48.74978" lon="-2.96423">
        <ele>64.723406</ele>
        <time>2023-03-24T15:31:40.140Z</time>
      </trkpt>
      <trkpt lat="48.74981" lon="-2.96429">
        <ele>64.69281</ele>
        <time>2023-03-24T15:31:41.413Z</time>
      </trkpt>
      <trkpt lat="48.74991" lon="-2.96431">
        <ele>64.688602</ele>
        <time>2023-03-24T15:31:43.741Z</time>
      </trkpt>
      <trkpt lat="48.75133" lon="-2.96345">
        <ele>65.134568</ele>
        <time>2023-03-24T15:32:17.440Z</time>
      </trkpt>
      <trkpt lat="48.75145" lon="-2.96337">
        <ele>65.172586</ele>
        <time>2023-03-24T15:32:19.992Z</time>
      </trkpt>
      <trkpt lat="48.75154" lon="-2.96326">
        <ele>65.201107</ele>
        <time>2023-03-24T15:32:22.368Z</time>
      </trkpt>
      <trkpt lat="48.75166" lon="-2.96278">
        <ele>65.254109</ele>
        <time>2023-03-24T15:32:29.362Z</time>
      </trkpt>
      <trkpt lat="48.75182" lon="-2.96227">
        <ele>65.313905</ele>
        <time>2023-03-24T15:32:37.278Z</time>
      </trkpt>
      <trkpt lat="48.75197" lon="-2.96196">
        <ele>65.353877</ele>
        <time>2023-03-24T15:32:42.498Z</time>
      </trkpt>
      <trkpt lat="48.75211" lon="-2.96174">
        <ele>65.38673</ele>
        <time>2023-03-24T15:32:46.838Z</time>
      </trkpt>
      <trkpt lat="48.75233" lon="-2.96149">
        <ele>65.429507</ele>
        <time>2023-03-24T15:32:52.191Z</time>
      </trkpt>
      <trkpt lat="48.75251" lon="-2.96146">
        <ele>65.457702</ele>
        <time>2023-03-24T15:32:55.973Z</time>
      </trkpt>
      <trkpt lat="48.75302" lon="-2.96146">
        <ele>65.687676</ele>
        <time>2023-03-24T15:33:07.116Z</time>
      </trkpt>
      <trkpt lat="48.7538" lon="-2.96152">
        <ele>66.126309</ele>
        <time>2023-03-24T15:33:25.577Z</time>
      </trkpt>
      <trkpt lat="48.754" lon="-2.96158">
        <ele>66.242024</ele>
        <time>2023-03-24T15:33:30.680Z</time>
      </trkpt>
      <trkpt lat="48.75418" lon="-2.96168">
        <ele>66.352482</ele>
        <time>2023-03-24T15:33:35.437Z</time>
      </trkpt>
      <trkpt lat="48.75457" lon="-2.96166">
        <ele>66.519549</ele>
        <time>2023-03-24T15:33:44.303Z</time>
      </trkpt>
      <trkpt lat="48.75462" lon="-2.96162">
        <ele>66.530618</ele>
        <time>2023-03-24T15:33:45.498Z</time>
      </trkpt>
      <trkpt lat="48.75471" lon="-2.96137">
        <ele>66.567363</ele>
        <time>2023-03-24T15:33:49.735Z</time>
      </trkpt>
      <trkpt lat="48.75471" lon="-2.96017">
        <ele>66.723692</ele>
        <time>2023-03-24T15:34:07.017Z</time>
      </trkpt>
      <trkpt lat="48.75481" lon="-2.95927">
        <ele>66.841841</ele>
        <time>2023-03-24T15:34:18.973Z</time>
      </trkpt>
      <trkpt lat="48.75506" lon="-2.95792">
        <ele>66.627833</ele>
        <time>2023-03-24T15:34:36.877Z</time>
      </trkpt>
      <trkpt lat="48.75489" lon="-2.95764">
        <ele>66.565725</ele>
        <time>2023-03-24T15:34:41.805Z</time>
      </trkpt>
      <trkpt lat="48.7548" lon="-2.95741">
        <ele>66.523893</ele>
        <time>2023-03-24T15:34:45.137Z</time>
      </trkpt>
      <trkpt lat="48.75479" lon="-2.95719">
        <ele>66.487692</ele>
        <time>2023-03-24T15:34:48.031Z</time>
      </trkpt>
      <trkpt lat="48.75487" lon="-2.95668">
        <ele>66.403715</ele>
        <time>2023-03-24T15:34:54.760Z</time>
      </trkpt>
      <trkpt lat="48.75509" lon="-2.95547">
        <ele>66.195012</ele>
        <time>2023-03-24T15:35:20.937Z</time>
      </trkpt>
      <trkpt lat="48.75508" lon="-2.95483">
        <ele>66.088467</ele>
        <time>2023-03-24T15:35:34.305Z</time>
      </trkpt>
      <trkpt lat="48.75513" lon="-2.95446">
        <ele>66.025826</ele>
        <time>2023-03-24T15:35:41.974Z</time>
      </trkpt>
      <trkpt lat="48.75521" lon="-2.95422">
        <ele>65.980039</ele>
        <time>2023-03-24T15:35:47.394Z</time>
      </trkpt>
      <trkpt lat="48.75532" lon="-2.95415">
        <ele>65.939275</ele>
        <time>2023-03-24T15:35:50.885Z</time>
      </trkpt>
      <trkpt lat="48.75559" lon="-2.9543">
        <ele>65.672857</ele>
        <time>2023-03-24T15:35:59.606Z</time>
      </trkpt>
      <trkpt lat="48.75597" lon="-2.95438">
        <ele>65.328306</ele>
        <time>2023-03-24T15:36:10.849Z</time>
      </trkpt>
      <trkpt lat="48.75628" lon="-2.9545">
        <ele>65.03198</ele>
        <time>2023-03-24T15:36:20.470Z</time>
      </trkpt>
      <trkpt lat="48.75644" lon="-2.95405">
        <ele>64.724531</ele>
        <time>2023-03-24T15:36:26.591Z</time>
      </trkpt>
      <trkpt lat="48.7566" lon="-2.95325">
        <ele>64.15454</ele>
        <time>2023-03-24T15:36:36.329Z</time>
      </trkpt>
      <trkpt lat="48.75691" lon="-2.95241">
        <ele>63.16818</ele>
        <time>2023-03-24T15:36:47.146Z</time>
      </trkpt>
      <trkpt lat="48.75707" lon="-2.95178">
        <ele>62.470754</ele>
        <time>2023-03-24T15:36:54.889Z</time>
      </trkpt>
      <trkpt lat="48.75712" lon="-2.95168">
        <ele>62.350737</ele>
        <time>2023-03-24T15:36:56.154Z</time>
      </trkpt>
      <trkpt lat="48.75738" lon="-2.95106">
        <ele>61.586933</ele>
        <time>2023-03-24T15:37:04.273Z</time>
      </trkpt>
      <trkpt lat="48.75759" lon="-2.94973">
        <ele>60.083409</ele>
        <time>2023-03-24T15:37:19.022Z</time>
      </trkpt>
      <trkpt lat="48.75774" lon="-2.94905">
        <ele>59.283078</ele>
        <time>2023-03-24T15:37:26.720Z</time>
      </trkpt>
      <trkpt lat="48.758" lon="-2.94812">
        <ele>58.479813</ele>
        <time>2023-03-24T15:37:38.776Z</time>
      </trkpt>
      <trkpt lat="48.75802" lon="-2.948">
        <ele>58.476534</ele>
        <time>2023-03-24T15:37:40.204Z</time>
      </trkpt>
      <trkpt lat="48.758" lon="-2.94767">
        <ele>58.468047</ele>
        <time>2023-03-24T15:37:44.481Z</time>
      </trkpt>
      <trkpt lat="48.75801" lon="-2.94749">
        <ele>58.463189</ele>
        <time>2023-03-24T15:37:46.580Z</time>
      </trkpt>
      <trkpt lat="48.75827" lon="-2.94683">
        <ele>58.443068</ele>
        <time>2023-03-24T15:37:56.377Z</time>
      </trkpt>
      <trkpt lat="48.75832" lon="-2.94691">
        <ele>58.440176</ele>
        <time>2023-03-24T15:38:00.037Z</time>
      </trkpt>
      <trkpt lat="48.75836" lon="-2.94721">
        <ele>58.432002</ele>
        <time>2023-03-24T15:38:06.685Z</time>
      </trkpt>
      <trkpt lat="48.75837" lon="-2.94726">
        <ele>58.430732</ele>
        <time>2023-03-24T15:38:07.659Z</time>
      </trkpt>
      <trkpt lat="48.75848" lon="-2.94776">
        <ele>58.416994</ele>
        <time>2023-03-24T15:38:20.215Z</time>
      </trkpt>
      <trkpt lat="48.75885" lon="-2.94797">
        <ele>58.810383</ele>
        <time>2023-03-24T15:38:34.575Z</time>
      </trkpt>
      <trkpt lat="48.75892" lon="-2.94854">
        <ele>59.215001</ele>
        <time>2023-03-24T15:38:49.026Z</time>
      </trkpt>
      <trkpt lat="48.75899" lon="-2.94875">
        <ele>59.383713</ele>
        <time>2023-03-24T15:38:56.144Z</time>
      </trkpt>
      <trkpt lat="48.75924" lon="-2.94922">
        <ele>59.809332</ele>
        <time>2023-03-24T15:39:10.538Z</time>
      </trkpt>
      <trkpt lat="48.75944" lon="-2.94941">
        <ele>60.058783</ele>
        <time>2023-03-24T15:39:19.039Z</time>
      </trkpt>
      <trkpt lat="48.75992" lon="-2.95012">
        <ele>60.522935</ele>
        <time>2023-03-24T15:39:42.751Z</time>
      </trkpt>
      <trkpt lat="48.75972" lon="-2.95065">
        <ele>60.71317</ele>
        <time>2023-03-24T15:39:57.093Z</time>
      </trkpt>
      <trkpt lat="48.75955" lon="-2.95118">
        <ele>60.896447</ele>
        <time>2023-03-24T15:40:10.517Z</time>
      </trkpt>
      <trkpt lat="48.75948" lon="-2.95159">
        <ele>61.029835</ele>
        <time>2023-03-24T15:40:19.920Z</time>
      </trkpt>
      <trkpt lat="48.75947" lon="-2.95205">
        <ele>61.17167</ele>
        <time>2023-03-24T15:40:29.691Z</time>
      </trkpt>
      <trkpt lat="48.75931" lon="-2.9533">
        <ele>60.509538</ele>
        <time>2023-03-24T15:40:55.494Z</time>
      </trkpt>
      <trkpt lat="48.75943" lon="-2.9535">
        <ele>60.366112</ele>
        <time>2023-03-24T15:41:00.738Z</time>
      </trkpt>
      <trkpt lat="48.75955" lon="-2.95366">
        <ele>60.235505</ele>
        <time>2023-03-24T15:41:05.342Z</time>
      </trkpt>
      <trkpt lat="48.76011" lon="-2.95379">
        <ele>59.778436</ele>
        <time>2023-03-24T15:41:15.054Z</time>
      </trkpt>
      <trkpt lat="48.76016" lon="-2.95382">
        <ele>59.729566</ele>
        <time>2023-03-24T15:41:16.091Z</time>
      </trkpt>
      <trkpt lat="48.76024" lon="-2.95393">
        <ele>59.502121</ele>
        <time>2023-03-24T15:41:17.945Z</time>
      </trkpt>
      <trkpt lat="48.76013" lon="-2.95425">
        <ele>58.96552</ele>
        <time>2023-03-24T15:41:21.735Z</time>
      </trkpt>
      <trkpt lat="48.76004" lon="-2.95442">
        <ele>58.633603</ele>
        <time>2023-03-24T15:41:23.964Z</time>
      </trkpt>
      <trkpt lat="48.76026" lon="-2.95466">
        <ele>58.006028</ele>
        <time>2023-03-24T15:41:31.517Z</time>
      </trkpt>
      <trkpt lat="48.76029" lon="-2.95473">
        <ele>57.882926</ele>
        <time>2023-03-24T15:41:32.950Z</time>
      </trkpt>
      <trkpt lat="48.76029" lon="-2.95488">
        <ele>57.666826</ele>
        <time>2023-03-24T15:41:35.570Z</time>
      </trkpt>
      <trkpt lat="48.76028" lon="-2.95503">
        <ele>57.438027</ele>
        <time>2023-03-24T15:41:38.275Z</time>
      </trkpt>
      <trkpt lat="48.76034" lon="-2.95529">
        <ele>57.024455</ele>
        <time>2023-03-24T15:41:43.054Z</time>
      </trkpt>
      <trkpt lat="48.76073" lon="-2.95599">
        <ele>55.647782</ele>
        <time>2023-03-24T15:41:59.197Z</time>
      </trkpt>
      <trkpt lat="48.7608" lon="-2.95606">
        <ele>55.196711</ele>
        <time>2023-03-24T15:42:01.638Z</time>
      </trkpt>
      <trkpt lat="48.76099" lon="-2.95614">
        <ele>54.149997</ele>
        <time>2023-03-24T15:42:06.642Z</time>
      </trkpt>
      <trkpt lat="48.76116" lon="-2.95612">
        <ele>53.182286</ele>
        <time>2023-03-24T15:42:10.738Z</time>
      </trkpt>
      <trkpt lat="48.76152" lon="-2.95597">
        <ele>51.070329</ele>
        <time>2023-03-24T15:42:19.924Z</time>
      </trkpt>
      <trkpt lat="48.76189" lon="-2.95596">
        <ele>48.991086</ele>
        <time>2023-03-24T15:42:28.675Z</time>
      </trkpt>
      <trkpt lat="48.76211" lon="-2.956">
        <ele>47.7962</ele>
        <time>2023-03-24T15:42:33.642Z</time>
      </trkpt>
      <trkpt lat="48.76237" lon="-2.95627">
        <ele>46.051746</ele>
        <time>2023-03-24T15:42:40.562Z</time>
      </trkpt>
      <trkpt lat="48.76252" lon="-2.95636">
        <ele>44.991005</ele>
        <time>2023-03-24T15:42:44.123Z</time>
      </trkpt>
      <trkpt lat="48.76298" lon="-2.9568">
        <ele>40.828132</ele>
        <time>2023-03-24T15:42:51.346Z</time>
      </trkpt>
      <trkpt lat="48.76345" lon="-2.9572">
        <ele>36.711583</ele>
        <time>2023-03-24T15:42:58.170Z</time>
      </trkpt>
      <trkpt lat="48.76349" lon="-2.95709">
        <ele>36.106261</ele>
        <time>2023-03-24T15:42:59.194Z</time>
      </trkpt>
      <trkpt lat="48.76357" lon="-2.95714">
        <ele>35.437401</ele>
        <time>2023-03-24T15:43:00.690Z</time>
      </trkpt>
      <trkpt lat="48.76359" lon="-2.9572">
        <ele>35.123</ele>
        <time>2023-03-24T15:43:01.228Z</time>
      </trkpt>
      <trkpt lat="48.76371" lon="-2.95771">
        <ele>32.395272</ele>
        <time>2023-03-24T15:43:06.047Z</time>
      </trkpt>
      <trkpt lat="48.76379" lon="-2.95819">
        <ele>31.918196</ele>
        <time>2023-03-24T15:43:10.888Z</time>
      </trkpt>
      <trkpt lat="48.76379" lon="-2.95849">
        <ele>31.971623</ele>
        <time>2023-03-24T15:43:13.788Z</time>
      </trkpt>
      <trkpt lat="48.76349" lon="-2.95893">
        <ele>32.08499</ele>
        <time>2023-03-24T15:43:21.457Z</time>
      </trkpt>
      <trkpt lat="48.76328" lon="-2.95908">
        <ele>32.147813</ele>
        <time>2023-03-24T15:43:29.769Z</time>
      </trkpt>
      <trkpt lat="48.76324" lon="-2.9592">
        <ele>32.171616</ele>
        <time>2023-03-24T15:43:31.812Z</time>
      </trkpt>
      <trkpt lat="48.76292" lon="-2.96015">
        <ele>32.783359</ele>
        <time>2023-03-24T15:43:56.771Z</time>
      </trkpt>
      <trkpt lat="48.76278" lon="-2.96071">
        <ele>34.621791</ele>
        <time>2023-03-24T15:44:16.998Z</time>
      </trkpt>
      <trkpt lat="48.76268" lon="-2.96147">
        <ele>37.004451</ele>
        <time>2023-03-24T15:44:42.060Z</time>
      </trkpt>
      <trkpt lat="48.7626" lon="-2.96178">
        <ele>38.034055</ele>
        <time>2023-03-24T15:44:51.686Z</time>
      </trkpt>
      <trkpt lat="48.76234" lon="-2.96243">
        <ele>40.338857</ele>
        <time>2023-03-24T15:45:10.677Z</time>
      </trkpt>
      <trkpt lat="48.76211" lon="-2.96351">
        <ele>43.155685</ele>
        <time>2023-03-24T15:45:37.292Z</time>
      </trkpt>
      <trkpt lat="48.76208" lon="-2.96364">
        <ele>43.489855</ele>
        <time>2023-03-24T15:45:40.389Z</time>
      </trkpt>
      <trkpt lat="48.762" lon="-2.96379">
        <ele>43.955483</ele>
        <time>2023-03-24T15:45:44.751Z</time>
      </trkpt>
      <trkpt lat="48.76188" lon="-2.96391">
        <ele>44.491746</ele>
        <time>2023-03-24T15:45:49.946Z</time>
      </trkpt>
      <trkpt lat="48.76173" lon="-2.96395">
        <ele>45.037126</ele>
        <time>2023-03-24T15:45:55.126Z</time>
      </trkpt>
      <trkpt lat="48.7616" lon="-2.96392">
        <ele>45.538557</ele>
        <time>2023-03-24T15:46:00.102Z</time>
      </trkpt>
      <trkpt lat="48.76144" lon="-2.96383">
        <ele>46.153196</ele>
        <time>2023-03-24T15:46:06.875Z</time>
      </trkpt>
      <trkpt lat="48.76045" lon="-2.96272">
        <ele>50.82771</ele>
        <time>2023-03-24T15:46:58.276Z</time>
      </trkpt>
      <trkpt lat="48.75992" lon="-2.96235">
        <ele>53.055981</ele>
        <time>2023-03-24T15:47:20.152Z</time>
      </trkpt>
      <trkpt lat="48.75961" lon="-2.96219">
        <ele>54.251466</ele>
        <time>2023-03-24T15:47:31.345Z</time>
      </trkpt>
      <trkpt lat="48.75929" lon="-2.96211">
        <ele>54.727372</ele>
        <time>2023-03-24T15:47:41.482Z</time>
      </trkpt>
      <trkpt lat="48.75926" lon="-2.96239">
        <ele>55.00513</ele>
        <time>2023-03-24T15:47:49.438Z</time>
      </trkpt>
      <trkpt lat="48.75926" lon="-2.96248">
        <ele>55.09337</ele>
        <time>2023-03-24T15:47:52.267Z</time>
      </trkpt>
      <trkpt lat="48.75924" lon="-2.96264">
        <ele>55.245522</ele>
        <time>2023-03-24T15:47:56.669Z</time>
      </trkpt>
      <trkpt lat="48.75914" lon="-2.96274">
        <ele>55.422497</ele>
        <time>2023-03-24T15:48:01.280Z</time>
      </trkpt>
      <trkpt lat="48.75862" lon="-2.96293">
        <ele>56.205852</ele>
        <time>2023-03-24T15:48:21.206Z</time>
      </trkpt>
      <trkpt lat="48.75843" lon="-2.96328">
        <ele>56.652868</ele>
        <time>2023-03-24T15:48:30.947Z</time>
      </trkpt>
      <trkpt lat="48.75824" lon="-2.96353">
        <ele>56.956581</ele>
        <time>2023-03-24T15:48:38.656Z</time>
      </trkpt>
      <trkpt lat="48.75813" lon="-2.96364">
        <ele>57.064875</ele>
        <time>2023-03-24T15:48:42.989Z</time>
      </trkpt>
      <trkpt lat="48.75823" lon="-2.96379">
        <ele>57.185456</ele>
        <time>2023-03-24T15:48:47.232Z</time>
      </trkpt>
      <trkpt lat="48.7588" lon="-2.96402">
        <ele>57.693332</ele>
        <time>2023-03-24T15:49:09.290Z</time>
      </trkpt>
      <trkpt lat="48.75942" lon="-2.96432">
        <ele>58.24504</ele>
        <time>2023-03-24T15:49:33.245Z</time>
      </trkpt>
      <trkpt lat="48.75962" lon="-2.96443">
        <ele>58.461086</ele>
        <time>2023-03-24T15:49:41.278Z</time>
      </trkpt>
      <trkpt lat="48.75968" lon="-2.96452">
        <ele>58.624211</ele>
        <time>2023-03-24T15:49:44.578Z</time>
      </trkpt>
      <trkpt lat="48.7596" lon="-2.96477">
        <ele>58.968725</ele>
        <time>2023-03-24T15:49:52.105Z</time>
      </trkpt>
      <trkpt lat="48.75976" lon="-2.96498">
        <ele>59.369607</ele>
        <time>2023-03-24T15:50:00.451Z</time>
      </trkpt>
      <trkpt lat="48.75979" lon="-2.96552">
        <ele>60.023716</ele>
        <time>2023-03-24T15:50:14.699Z</time>
      </trkpt>
      <trkpt lat="48.75982" lon="-2.9657">
        <ele>60.252826</ele>
        <time>2023-03-24T15:50:20.023Z</time>
      </trkpt>
      <trkpt lat="48.75983" lon="-2.9661">
        <ele>60.749098</ele>
        <time>2023-03-24T15:50:31.494Z</time>
      </trkpt>
      <trkpt lat="48.75985" lon="-2.96636">
        <ele>61.061148</ele>
        <time>2023-03-24T15:50:39.239Z</time>
      </trkpt>
      <trkpt lat="48.75989" lon="-2.96749">
        <ele>62.34056</ele>
        <time>2023-03-24T15:51:10.682Z</time>
      </trkpt>
      <trkpt lat="48.75984" lon="-2.96781">
        <ele>62.668515</ele>
        <time>2023-03-24T15:51:19.235Z</time>
      </trkpt>
      <trkpt lat="48.75966" lon="-2.96793">
        <ele>62.96554</ele>
        <time>2023-03-24T15:51:26.576Z</time>
      </trkpt>
      <trkpt lat="48.75941" lon="-2.96794">
        <ele>63.35393</ele>
        <time>2023-03-24T15:51:37.196Z</time>
      </trkpt>
      <trkpt lat="48.75935" lon="-2.96811">
        <ele>63.543193</ele>
        <time>2023-03-24T15:51:41.233Z</time>
      </trkpt>
      <trkpt lat="48.75931" lon="-2.96831">
        <ele>63.767246</ele>
        <time>2023-03-24T15:51:47.190Z</time>
      </trkpt>
      <trkpt lat="48.75928" lon="-2.96942">
        <ele>64.774683</ele>
        <time>2023-03-24T15:52:14.265Z</time>
      </trkpt>
      <trkpt lat="48.75926" lon="-2.96947">
        <ele>64.817311</ele>
        <time>2023-03-24T15:52:15.446Z</time>
      </trkpt>
      <trkpt lat="48.75897" lon="-2.96999">
        <ele>65.278722</ele>
        <time>2023-03-24T15:52:26.910Z</time>
      </trkpt>
      <trkpt lat="48.75892" lon="-2.97005">
        <ele>65.343776</ele>
        <time>2023-03-24T15:52:28.199Z</time>
      </trkpt>
      <trkpt lat="48.75861" lon="-2.97019">
        <ele>65.66955</ele>
        <time>2023-03-24T15:52:36.173Z</time>
      </trkpt>
      <trkpt lat="48.75842" lon="-2.97042">
        <ele>65.917975</ele>
        <time>2023-03-24T15:52:41.936Z</time>
      </trkpt>
      <trkpt lat="48.75806" lon="-2.97077">
        <ele>66.356959</ele>
        <time>2023-03-24T15:52:52.809Z</time>
      </trkpt>
      <trkpt lat="48.75742" lon="-2.97151">
        <ele>67.241496</ele>
        <time>2023-03-24T15:53:14.448Z</time>
      </trkpt>
      <trkpt lat="48.75744" lon="-2.97206">
        <ele>67.635363</ele>
        <time>2023-03-24T15:53:24.390Z</time>
      </trkpt>
      <trkpt lat="48.75755" lon="-2.97379">
        <ele>68.15958</ele>
        <time>2023-03-24T15:53:52.191Z</time>
      </trkpt>
      <trkpt lat="48.75755" lon="-2.97439">
        <ele>68.012378</ele>
        <time>2023-03-24T15:53:59.910Z</time>
      </trkpt>
      <trkpt lat="48.75822" lon="-2.97447">
        <ele>67.760122</ele>
        <time>2023-03-24T15:54:12.282Z</time>
      </trkpt>
      <trkpt lat="48.75846" lon="-2.97446">
        <ele>67.666299</ele>
        <time>2023-03-24T15:54:16.349Z</time>
      </trkpt>
      <trkpt lat="48.75859" lon="-2.97445">
        <ele>67.470196</ele>
        <time>2023-03-24T15:54:18.661Z</time>
      </trkpt>
      <trkpt lat="48.75908" lon="-2.9743">
        <ele>66.762016</ele>
        <time>2023-03-24T15:54:26.908Z</time>
      </trkpt>
      <trkpt lat="48.75957" lon="-2.97425">
        <ele>66.066245</ele>
        <time>2023-03-24T15:54:35.165Z</time>
      </trkpt>
      <trkpt lat="48.76033" lon="-2.97414">
        <ele>65.105984</ele>
        <time>2023-03-24T15:54:57.247Z</time>
      </trkpt>
      <trkpt lat="48.76028" lon="-2.97507">
        <ele>65.021808</ele>
        <time>2023-03-24T15:55:15.681Z</time>
      </trkpt>
      <trkpt lat="48.75985" lon="-2.9751">
        <ele>64.962417</ele>
        <time>2023-03-24T15:55:29.236Z</time>
      </trkpt>
      <trkpt lat="48.75967" lon="-2.9759">
        <ele>64.886514</ele>
        <time>2023-03-24T15:55:48.319Z</time>
      </trkpt>
      <trkpt lat="48.75953" lon="-2.97617">
        <ele>65.098093</ele>
        <time>2023-03-24T15:55:56.570Z</time>
      </trkpt>
      <trkpt lat="48.75933" lon="-2.9764">
        <ele>65.521026</ele>
        <time>2023-03-24T15:56:05.931Z</time>
      </trkpt>
      <trkpt lat="48.75917" lon="-2.97668">
        <ele>65.925198</ele>
        <time>2023-03-24T15:56:14.441Z</time>
      </trkpt>
      <trkpt lat="48.75907" lon="-2.97676">
        <ele>66.120827</ele>
        <time>2023-03-24T15:56:18.854Z</time>
      </trkpt>
      <trkpt lat="48.75901" lon="-2.97704">
        <ele>66.444236</ele>
        <time>2023-03-24T15:56:25.971Z</time>
      </trkpt>
      <trkpt lat="48.75891" lon="-2.97718">
        <ele>66.675583</ele>
        <time>2023-03-24T15:56:31.555Z</time>
      </trkpt>
      <trkpt lat="48.7588" lon="-2.97727">
        <ele>66.888563</ele>
        <time>2023-03-24T15:56:36.373Z</time>
      </trkpt>
      <trkpt lat="48.75862" lon="-2.97695">
        <ele>67.355328</ele>
        <time>2023-03-24T15:56:48.827Z</time>
      </trkpt>
      <trkpt lat="48.75838" lon="-2.97729">
        <ele>67.952795</ele>
        <time>2023-03-24T15:57:04.658Z</time>
      </trkpt>
      <trkpt lat="48.75826" lon="-2.97752">
        <ele>68.675646</ele>
        <time>2023-03-24T15:57:13.805Z</time>
      </trkpt>
      <trkpt lat="48.75818" lon="-2.97762">
        <ele>69.091852</ele>
        <time>2023-03-24T15:57:18.650Z</time>
      </trkpt>
      <trkpt lat="48.75771" lon="-2.97741">
        <ele>71.024056</ele>
        <time>2023-03-24T15:57:42.158Z</time>
      </trkpt>
      <trkpt lat="48.75741" lon="-2.97735">
        <ele>72.197499</ele>
        <time>2023-03-24T15:57:58.861Z</time>
      </trkpt>
      <trkpt lat="48.75722" lon="-2.97732">
        <ele>72.924115</ele>
        <time>2023-03-24T15:58:07.477Z</time>
      </trkpt>
      <trkpt lat="48.75703" lon="-2.97733">
        <ele>73.699968</ele>
        <time>2023-03-24T15:58:15.012Z</time>
      </trkpt>
      <trkpt lat="48.75682" lon="-2.97776">
        <ele>75.040305</ele>
        <time>2023-03-24T15:58:30.246Z</time>
      </trkpt>
      <trkpt lat="48.75673" lon="-2.97783">
        <ele>75.363731</ele>
        <time>2023-03-24T15:58:34.657Z</time>
      </trkpt>
      <trkpt lat="48.75638" lon="-2.97781">
        <ele>76.467721</ele>
        <time>2023-03-24T15:58:49.405Z</time>
      </trkpt>
      <trkpt lat="48.75625" lon="-2.97789">
        <ele>76.898177</ele>
        <time>2023-03-24T15:58:56.171Z</time>
      </trkpt>
      <trkpt lat="48.75623" lon="-2.97892">
        <ele>79.022828</ele>
        <time>2023-03-24T15:59:19.346Z</time>
      </trkpt>
      <trkpt lat="48.75638" lon="-2.97955">
        <ele>80.412242</ele>
        <time>2023-03-24T15:59:33.636Z</time>
      </trkpt>
      <trkpt lat="48.75671" lon="-2.98051">
        <ele>80.497656</ele>
        <time>2023-03-24T15:59:51.514Z</time>
      </trkpt>
      <trkpt lat="48.75673" lon="-2.98085">
        <ele>80.467795</ele>
        <time>2023-03-24T15:59:55.807Z</time>
      </trkpt>
      <trkpt lat="48.75671" lon="-2.98167">
        <ele>80.396931</ele>
        <time>2023-03-24T16:00:05.908Z</time>
      </trkpt>
      <trkpt lat="48.75674" lon="-2.98189">
        <ele>80.377472</ele>
        <time>2023-03-24T16:00:08.370Z</time>
      </trkpt>
      <trkpt lat="48.75699" lon="-2.98328">
        <ele>79.104434</ele>
        <time>2023-03-24T16:00:24.404Z</time>
      </trkpt>
      <trkpt lat="48.7571" lon="-2.98409">
        <ele>78.172198</ele>
        <time>2023-03-24T16:00:33.290Z</time>
      </trkpt>
      <trkpt lat="48.7571" lon="-2.98483">
        <ele>77.337828</ele>
        <time>2023-03-24T16:00:41.485Z</time>
      </trkpt>
      <trkpt lat="48.7571" lon="-2.98537">
        <ele>76.809609</ele>
        <time>2023-03-24T16:00:47.574Z</time>
      </trkpt>
      <trkpt lat="48.75716" lon="-2.98673">
        <ele>75.500977</ele>
        <time>2023-03-24T16:01:03.441Z</time>
      </trkpt>
      <trkpt lat="48.75721" lon="-2.98789">
        <ele>74.064125</ele>
        <time>2023-03-24T16:01:16.514Z</time>
      </trkpt>
      <trkpt lat="48.75723" lon="-2.98846">
        <ele>72.832684</ele>
        <time>2023-03-24T16:01:22.628Z</time>
      </trkpt>
      <trkpt lat="48.75721" lon="-2.98857">
        <ele>72.587387</ele>
        <time>2023-03-24T16:01:23.831Z</time>
      </trkpt>
      <trkpt lat="48.75713" lon="-2.98876">
        <ele>72.101646</ele>
        <time>2023-03-24T16:01:26.145Z</time>
      </trkpt>
      <trkpt lat="48.75694" lon="-2.98904">
        <ele>71.250725</ele>
        <time>2023-03-24T16:01:30.163Z</time>
      </trkpt>
      <trkpt lat="48.75749" lon="-2.98898">
        <ele>69.453194</ele>
        <time>2023-03-24T16:01:38.346Z</time>
      </trkpt>
      <trkpt lat="48.75843" lon="-2.98898">
        <ele>64.257965</ele>
        <time>2023-03-24T16:01:51.577Z</time>
      </trkpt>
      <trkpt lat="48.75916" lon="-2.98932">
        <ele>59.509537</ele>
        <time>2023-03-24T16:02:01.985Z</time>
      </trkpt>
      <trkpt lat="48.75965" lon="-2.98934">
        <ele>55.986187</ele>
        <time>2023-03-24T16:02:08.423Z</time>
      </trkpt>
      <trkpt lat="48.7601" lon="-2.98942">
        <ele>51.846633</ele>
        <time>2023-03-24T16:02:14.458Z</time>
      </trkpt>
      <trkpt lat="48.7601" lon="-2.98942">
        <ele>51.846633</ele>
        <time>2023-03-24T16:02:14.463Z</time>
      </trkpt>
      <trkpt lat="48.76081" lon="-2.98967">
        <ele>45.384246</ele>
        <time>2023-03-24T16:02:23.630Z</time>
      </trkpt>
      <trkpt lat="48.76118" lon="-2.98986">
        <ele>41.857192</ele>
        <time>2023-03-24T16:02:28.608Z</time>
      </trkpt>
      <trkpt lat="48.76194" lon="-2.99062">
        <ele>36.844134</ele>
        <time>2023-03-24T16:02:40.393Z</time>
      </trkpt>
      <trkpt lat="48.76208" lon="-2.99074">
        <ele>35.997741</ele>
        <time>2023-03-24T16:02:42.602Z</time>
      </trkpt>
      <trkpt lat="48.76204" lon="-2.99099">
        <ele>35.077204</ele>
        <time>2023-03-24T16:02:46.767Z</time>
      </trkpt>
      <trkpt lat="48.76204" lon="-2.99125">
        <ele>34.135031</ele>
        <time>2023-03-24T16:02:51.501Z</time>
      </trkpt>
      <trkpt lat="48.76209" lon="-2.99144">
        <ele>33.41633</ele>
        <time>2023-03-24T16:02:55.143Z</time>
      </trkpt>
      <trkpt lat="48.7622" lon="-2.99171">
        <ele>32.289662</ele>
        <time>2023-03-24T16:03:01.496Z</time>
      </trkpt>
      <trkpt lat="48.76238" lon="-2.99242">
        <ele>33.958721</ele>
        <time>2023-03-24T16:03:20.998Z</time>
      </trkpt>
      <trkpt lat="48.76173" lon="-2.9929">
        <ele>37.441394</ele>
        <time>2023-03-24T16:04:03.352Z</time>
      </trkpt>
      <trkpt lat="48.76141" lon="-2.99354">
        <ele>39.969354</ele>
        <time>2023-03-24T16:04:40.083Z</time>
      </trkpt>
      <trkpt lat="48.76114" lon="-2.99399">
        <ele>42.814671</ele>
        <time>2023-03-24T16:05:08.935Z</time>
      </trkpt>
      <trkpt lat="48.76095" lon="-2.99424">
        <ele>44.840126</ele>
        <time>2023-03-24T16:05:26.906Z</time>
      </trkpt>
      <trkpt lat="48.76068" lon="-2.99451">
        <ele>47.53171</ele>
        <time>2023-03-24T16:05:49.096Z</time>
      </trkpt>
      <trkpt lat="48.7605" lon="-2.99481">
        <ele>49.708178</ele>
        <time>2023-03-24T16:06:10.673Z</time>
      </trkpt>
      <trkpt lat="48.76046" lon="-2.99494">
        <ele>50.455065</ele>
        <time>2023-03-24T16:06:16.551Z</time>
      </trkpt>
      <trkpt lat="48.76045" lon="-2.99519">
        <ele>51.772368</ele>
        <time>2023-03-24T16:06:29.951Z</time>
      </trkpt>
      <trkpt lat="48.76034" lon="-2.99561">
        <ele>54.180006</ele>
        <time>2023-03-24T16:06:50.788Z</time>
      </trkpt>
      <trkpt lat="48.76019" lon="-2.99601">
        <ele>56.586063</ele>
        <time>2023-03-24T16:07:12.680Z</time>
      </trkpt>
      <trkpt lat="48.76005" lon="-2.99648">
        <ele>59.145316</ele>
        <time>2023-03-24T16:07:37.467Z</time>
      </trkpt>
      <trkpt lat="48.76002" lon="-2.99678">
        <ele>60.629925</ele>
        <time>2023-03-24T16:07:53.859Z</time>
      </trkpt>
      <trkpt lat="48.75986" lon="-2.998">
        <ele>66.808597</ele>
        <time>2023-03-24T16:08:49.893Z</time>
      </trkpt>
      <trkpt lat="48.75978" lon="-2.99822">
        <ele>68.04938</ele>
        <time>2023-03-24T16:09:01.591Z</time>
      </trkpt>
      <trkpt lat="48.76" lon="-2.9992">
        <ele>70.291261</ele>
        <time>2023-03-24T16:09:33.432Z</time>
      </trkpt>
      <trkpt lat="48.7601" lon="-2.99949">
        <ele>70.873945</ele>
        <time>2023-03-24T16:09:39.867Z</time>
      </trkpt>
      <trkpt lat="48.76024" lon="-2.99975">
        <ele>71.474063</ele>
        <time>2023-03-24T16:09:46.215Z</time>
      </trkpt>
      <trkpt lat="48.76098" lon="-3.0006">
        <ele>73.324177</ele>
        <time>2023-03-24T16:10:05.950Z</time>
      </trkpt>
      <trkpt lat="48.76111" lon="-3.00089">
        <ele>73.071614</ele>
        <time>2023-03-24T16:10:10.301Z</time>
      </trkpt>
      <trkpt lat="48.76128" lon="-3.00145">
        <ele>72.627207</ele>
        <time>2023-03-24T16:10:17.319Z</time>
      </trkpt>
      <trkpt lat="48.76134" lon="-3.00162">
        <ele>72.484561</ele>
        <time>2023-03-24T16:10:19.441Z</time>
      </trkpt>
      <trkpt lat="48.76175" lon="-3.00284">
        <ele>71.455</ele>
        <time>2023-03-24T16:10:33.601Z</time>
      </trkpt>
      <trkpt lat="48.76188" lon="-3.00312">
        <ele>70.870553</ele>
        <time>2023-03-24T16:10:37.040Z</time>
      </trkpt>
      <trkpt lat="48.76203" lon="-3.00341">
        <ele>70.249581</ele>
        <time>2023-03-24T16:10:40.734Z</time>
      </trkpt>
      <trkpt lat="48.76221" lon="-3.00389">
        <ele>69.31143</ele>
        <time>2023-03-24T16:10:46.290Z</time>
      </trkpt>
      <trkpt lat="48.76233" lon="-3.00425">
        <ele>68.630929</ele>
        <time>2023-03-24T16:10:50.248Z</time>
      </trkpt>
      <trkpt lat="48.76236" lon="-3.00441">
        <ele>68.359215</ele>
        <time>2023-03-24T16:10:51.917Z</time>
      </trkpt>
      <trkpt lat="48.76235" lon="-3.00474">
        <ele>67.80101</ele>
        <time>2023-03-24T16:10:55.055Z</time>
      </trkpt>
      <trkpt lat="48.76229" lon="-3.00504">
        <ele>67.262706</ele>
        <time>2023-03-24T16:10:58.135Z</time>
      </trkpt>
      <trkpt lat="48.76227" lon="-3.0058">
        <ele>65.546737</ele>
        <time>2023-03-24T16:11:05.210Z</time>
      </trkpt>
      <trkpt lat="48.76241" lon="-3.00654">
        <ele>63.663699</ele>
        <time>2023-03-24T16:11:12.395Z</time>
      </trkpt>
      <trkpt lat="48.76249" lon="-3.00795">
        <ele>60.201833</ele>
        <time>2023-03-24T16:11:25.169Z</time>
      </trkpt>
      <trkpt lat="48.76253" lon="-3.00817">
        <ele>59.61485</ele>
        <time>2023-03-24T16:11:27.405Z</time>
      </trkpt>
      <trkpt lat="48.76277" lon="-3.00877">
        <ele>57.85076</ele>
        <time>2023-03-24T16:11:33.877Z</time>
      </trkpt>
      <trkpt lat="48.76277" lon="-3.00882">
        <ele>57.730382</ele>
        <time>2023-03-24T16:11:34.251Z</time>
      </trkpt>
      <trkpt lat="48.76302" lon="-3.00909">
        <ele>56.57687</ele>
        <time>2023-03-24T16:11:38.628Z</time>
      </trkpt>
      <trkpt lat="48.76333" lon="-3.00956">
        <ele>54.911184</ele>
        <time>2023-03-24T16:11:44.647Z</time>
      </trkpt>
      <trkpt lat="48.7634" lon="-3.00976">
        <ele>54.344708</ele>
        <time>2023-03-24T16:11:46.841Z</time>
      </trkpt>
      <trkpt lat="48.76345" lon="-3.01028">
        <ele>53.044124</ele>
        <time>2023-03-24T16:11:51.784Z</time>
      </trkpt>
      <trkpt lat="48.76363" lon="-3.01161">
        <ele>49.974157</ele>
        <time>2023-03-24T16:12:04.386Z</time>
      </trkpt>
      <trkpt lat="48.76386" lon="-3.01245">
        <ele>47.894358</ele>
        <time>2023-03-24T16:12:13.182Z</time>
      </trkpt>
      <trkpt lat="48.76389" lon="-3.01279">
        <ele>47.102949</ele>
        <time>2023-03-24T16:12:16.349Z</time>
      </trkpt>
      <trkpt lat="48.76386" lon="-3.01308">
        <ele>46.021244</ele>
        <time>2023-03-24T16:12:19.185Z</time>
      </trkpt>
      <trkpt lat="48.7638" lon="-3.01343">
        <ele>44.722275</ele>
        <time>2023-03-24T16:12:22.426Z</time>
      </trkpt>
      <trkpt lat="48.76354" lon="-3.01444">
        <ele>40.779827</ele>
        <time>2023-03-24T16:12:31.921Z</time>
      </trkpt>
      <trkpt lat="48.76351" lon="-3.01511">
        <ele>38.336796</ele>
        <time>2023-03-24T16:12:37.432Z</time>
      </trkpt>
      <trkpt lat="48.76353" lon="-3.01559">
        <ele>36.602139</ele>
        <time>2023-03-24T16:12:41.387Z</time>
      </trkpt>
      <trkpt lat="48.76354" lon="-3.01564">
        <ele>36.440451</ele>
        <time>2023-03-24T16:12:41.760Z</time>
      </trkpt>
      <trkpt lat="48.76361" lon="-3.01597">
        <ele>35.189457</ele>
        <time>2023-03-24T16:12:44.688Z</time>
      </trkpt>
      <trkpt lat="48.76411" lon="-3.01706">
        <ele>30.439976</ele>
        <time>2023-03-24T16:12:56.082Z</time>
      </trkpt>
      <trkpt lat="48.76413" lon="-3.01712">
        <ele>30.187631</ele>
        <time>2023-03-24T16:12:56.666Z</time>
      </trkpt>
      <trkpt lat="48.76435" lon="-3.01718">
        <ele>28.974788</ele>
        <time>2023-03-24T16:13:00.912Z</time>
      </trkpt>
      <trkpt lat="48.76479" lon="-3.01737">
        <ele>26.993191</ele>
        <time>2023-03-24T16:13:09.867Z</time>
      </trkpt>
      <trkpt lat="48.76495" lon="-3.01749">
        <ele>26.469332</ele>
        <time>2023-03-24T16:13:13.478Z</time>
      </trkpt>
      <trkpt lat="48.76515" lon="-3.01745">
        <ele>25.90129</ele>
        <time>2023-03-24T16:13:17.949Z</time>
      </trkpt>
      <trkpt lat="48.76527" lon="-3.01735">
        <ele>25.538144</ele>
        <time>2023-03-24T16:13:20.618Z</time>
      </trkpt>
      <trkpt lat="48.76544" lon="-3.0172">
        <ele>24.967881</ele>
        <time>2023-03-24T16:13:25.427Z</time>
      </trkpt>
      <trkpt lat="48.76541" lon="-3.01729">
        <ele>24.781484</ele>
        <time>2023-03-24T16:13:26.653Z</time>
      </trkpt>
      <trkpt lat="48.76543" lon="-3.01739">
        <ele>24.596385</ele>
        <time>2023-03-24T16:13:28.012Z</time>
      </trkpt>
      <trkpt lat="48.76546" lon="-3.01727">
        <ele>24.365204</ele>
        <time>2023-03-24T16:13:31.224Z</time>
      </trkpt>
      <trkpt lat="48.76558" lon="-3.01708">
        <ele>23.871572</ele>
        <time>2023-03-24T16:13:35.003Z</time>
      </trkpt>
      <trkpt lat="48.76569" lon="-3.01697">
        <ele>23.516114</ele>
        <time>2023-03-24T16:13:37.455Z</time>
      </trkpt>
      <trkpt lat="48.7659" lon="-3.01664">
        <ele>22.650137</ele>
        <time>2023-03-24T16:13:43.603Z</time>
      </trkpt>
      <trkpt lat="48.766" lon="-3.01647">
        <ele>21.911218</ele>
        <time>2023-03-24T16:13:46.893Z</time>
      </trkpt>
      <trkpt lat="48.76619" lon="-3.01606">
        <ele>19.845896</ele>
        <time>2023-03-24T16:13:52.600Z</time>
      </trkpt>
      <trkpt lat="48.76626" lon="-3.01604">
        <ele>19.359682</ele>
        <time>2023-03-24T16:13:54.052Z</time>
      </trkpt>
      <trkpt lat="48.76637" lon="-3.01615">
        <ele>18.513755</ele>
        <time>2023-03-24T16:13:56.325Z</time>
      </trkpt>
      <trkpt lat="48.76732" lon="-3.01707">
        <ele>11.326003</ele>
        <time>2023-03-24T16:14:15.617Z</time>
      </trkpt>
      <trkpt lat="48.76742" lon="-3.01704">
        <ele>10.785904</ele>
        <time>2023-03-24T16:14:17.283Z</time>
      </trkpt>
      <trkpt lat="48.76806" lon="-3.01699">
        <ele>8.38474</ele>
        <time>2023-03-24T16:14:26.851Z</time>
      </trkpt>
      <trkpt lat="48.76824" lon="-3.01701">
        <ele>7.711787</ele>
        <time>2023-03-24T16:14:29.608Z</time>
      </trkpt>
      <trkpt lat="48.76835" lon="-3.01708">
        <ele>7.257156</ele>
        <time>2023-03-24T16:14:31.724Z</time>
      </trkpt>
      <trkpt lat="48.76851" lon="-3.01726">
        <ele>6.52723</ele>
        <time>2023-03-24T16:14:34.766Z</time>
      </trkpt>
      <trkpt lat="48.76898" lon="-3.0178">
        <ele>4.346116</ele>
        <time>2023-03-24T16:14:45.727Z</time>
      </trkpt>
      <trkpt lat="48.76901" lon="-3.01785">
        <ele>4.233726</ele>
        <time>2023-03-24T16:14:46.899Z</time>
      </trkpt>
      <trkpt lat="48.76904" lon="-3.01805">
        <ele>4.268563</ele>
        <time>2023-03-24T16:14:50.113Z</time>
      </trkpt>
      <trkpt lat="48.76919" lon="-3.01833">
        <ele>4.329053</ele>
        <time>2023-03-24T16:14:55.671Z</time>
      </trkpt>
      <trkpt lat="48.76968" lon="-3.01924">
        <ele>4.52707</ele>
        <time>2023-03-24T16:15:14.045Z</time>
      </trkpt>
      <trkpt lat="48.77034" lon="-3.02053">
        <ele>4.794725</ele>
        <time>2023-03-24T16:15:39.784Z</time>
      </trkpt>
      <trkpt lat="48.77052" lon="-3.02083">
        <ele>4.857496</ele>
        <time>2023-03-24T16:15:46.028Z</time>
      </trkpt>
      <trkpt lat="48.77056" lon="-3.0209">
        <ele>4.87081</ele>
        <time>2023-03-24T16:15:47.560Z</time>
      </trkpt>
      <trkpt lat="48.77062" lon="-3.021">
        <ele>4.893041</ele>
        <time>2023-03-24T16:15:50.141Z</time>
      </trkpt>
      <trkpt lat="48.77068" lon="-3.02106">
        <ele>4.91048</ele>
        <time>2023-03-24T16:15:52.112Z</time>
      </trkpt>
      <trkpt lat="48.77078" lon="-3.02117">
        <ele>4.938939</ele>
        <time>2023-03-24T16:15:55.227Z</time>
      </trkpt>
      <trkpt lat="48.77084" lon="-3.02119">
        <ele>4.953556</ele>
        <time>2023-03-24T16:15:56.833Z</time>
      </trkpt>
      <trkpt lat="48.77111" lon="-3.02179">
        <ele>5.067991</ele>
        <time>2023-03-24T16:16:09.196Z</time>
      </trkpt>
      <trkpt lat="48.77128" lon="-3.02207">
        <ele>5.09978</ele>
        <time>2023-03-24T16:16:15.266Z</time>
      </trkpt>
      <trkpt lat="48.77155" lon="-3.02231">
        <ele>4.978841</ele>
        <time>2023-03-24T16:16:23.215Z</time>
      </trkpt>
      <trkpt lat="48.77169" lon="-3.02252">
        <ele>4.904787</ele>
        <time>2023-03-24T16:16:28.106Z</time>
      </trkpt>
      <trkpt lat="48.77181" lon="-3.02285">
        <ele>4.809211</ele>
        <time>2023-03-24T16:16:34.271Z</time>
      </trkpt>
      <trkpt lat="48.77183" lon="-3.02289">
        <ele>4.796529</ele>
        <time>2023-03-24T16:16:35.079Z</time>
      </trkpt>
      <trkpt lat="48.77185" lon="-3.02292">
        <ele>4.783867</ele>
        <time>2023-03-24T16:16:35.892Z</time>
      </trkpt>
      <trkpt lat="48.77227" lon="-3.02318">
        <ele>4.612358</ele>
        <time>2023-03-24T16:16:46.737Z</time>
      </trkpt>
      <trkpt lat="48.7724" lon="-3.02334">
        <ele>4.547784</ele>
        <time>2023-03-24T16:16:50.724Z</time>
      </trkpt>
      <trkpt lat="48.7725" lon="-3.02356">
        <ele>4.479863</ele>
        <time>2023-03-24T16:16:54.851Z</time>
      </trkpt>
      <trkpt lat="48.77265" lon="-3.0242">
        <ele>4.180771</ele>
        <time>2023-03-24T16:17:05.082Z</time>
      </trkpt>
      <trkpt lat="48.77298" lon="-3.02454">
        <ele>3.860537</ele>
        <time>2023-03-24T16:17:14.257Z</time>
      </trkpt>
      <trkpt lat="48.77361" lon="-3.0253">
        <ele>3.220046</ele>
        <time>2023-03-24T16:17:29.749Z</time>
      </trkpt>
      <trkpt lat="48.77421" lon="-3.02595">
        <ele>3.280063</ele>
        <time>2023-03-24T16:17:44.372Z</time>
      </trkpt>
      <trkpt lat="48.77437" lon="-3.02624">
        <ele>3.4385</ele>
        <time>2023-03-24T16:17:49.977Z</time>
      </trkpt>
      <trkpt lat="48.77458" lon="-3.02648">
        <ele>3.607911</ele>
        <time>2023-03-24T16:17:56.673Z</time>
      </trkpt>
      <trkpt lat="48.77481" lon="-3.02685">
        <ele>3.819855</ele>
        <time>2023-03-24T16:18:05.635Z</time>
      </trkpt>
      <trkpt lat="48.77512" lon="-3.02712">
        <ele>4.0513</ele>
        <time>2023-03-24T16:18:16.112Z</time>
      </trkpt>
      <trkpt lat="48.77517" lon="-3.02719">
        <ele>4.094933</ele>
        <time>2023-03-24T16:18:18.026Z</time>
      </trkpt>
      <trkpt lat="48.7752" lon="-3.02724">
        <ele>4.123549</ele>
        <time>2023-03-24T16:18:19.255Z</time>
      </trkpt>
      <trkpt lat="48.77526" lon="-3.02739">
        <ele>4.277437</ele>
        <time>2023-03-24T16:18:22.574Z</time>
      </trkpt>
      <trkpt lat="48.77532" lon="-3.02762">
        <ele>4.523265</ele>
        <time>2023-03-24T16:18:28.181Z</time>
      </trkpt>
      <trkpt lat="48.77531" lon="-3.02786">
        <ele>4.7725</ele>
        <time>2023-03-24T16:18:32.487Z</time>
      </trkpt>
      <trkpt lat="48.77528" lon="-3.02803">
        <ele>4.951427</ele>
        <time>2023-03-24T16:18:36.728Z</time>
      </trkpt>
      <trkpt lat="48.77521" lon="-3.02807">
        <ele>5.061818</ele>
        <time>2023-03-24T16:18:39.031Z</time>
      </trkpt>
      <trkpt lat="48.77497" lon="-3.02796">
        <ele>5.45126</ele>
        <time>2023-03-24T16:18:46.099Z</time>
      </trkpt>
      <trkpt lat="48.77436" lon="-3.02847">
        <ele>6.520936</ele>
        <time>2023-03-24T16:19:05.227Z</time>
      </trkpt>
      <trkpt lat="48.77427" lon="-3.02855">
        <ele>6.679235</ele>
        <time>2023-03-24T16:19:08.460Z</time>
      </trkpt>
      <trkpt lat="48.77429" lon="-3.02864">
        <ele>6.771697</ele>
        <time>2023-03-24T16:19:09.880Z</time>
      </trkpt>
      <trkpt lat="48.77433" lon="-3.02868">
        <ele>6.855087</ele>
        <time>2023-03-24T16:19:10.872Z</time>
      </trkpt>
      <trkpt lat="48.77464" lon="-3.02938">
        <ele>6.955147</ele>
        <time>2023-03-24T16:19:23.024Z</time>
      </trkpt>
      <trkpt lat="48.77478" lon="-3.02964">
        <ele>6.976964</ele>
        <time>2023-03-24T16:19:26.987Z</time>
      </trkpt>
      <trkpt lat="48.77495" lon="-3.02989">
        <ele>7.001</ele>
        <time>2023-03-24T16:19:31.370Z</time>
      </trkpt>
      <trkpt lat="48.77514" lon="-3.0301">
        <ele>7.024512</ele>
        <time>2023-03-24T16:19:35.818Z</time>
      </trkpt>
      <trkpt lat="48.7753" lon="-3.03021">
        <ele>7.042187</ele>
        <time>2023-03-24T16:19:38.912Z</time>
      </trkpt>
      <trkpt lat="48.77553" lon="-3.03044">
        <ele>7.069806</ele>
        <time>2023-03-24T16:19:44.012Z</time>
      </trkpt>
      <trkpt lat="48.77559" lon="-3.03043">
        <ele>7.075978</ele>
        <time>2023-03-24T16:19:45.066Z</time>
      </trkpt>
      <trkpt lat="48.77568" lon="-3.03049">
        <ele>7.0978</ele>
        <time>2023-03-24T16:19:47.186Z</time>
      </trkpt>
      <trkpt lat="48.77603" lon="-3.03083">
        <ele>7.290027</ele>
        <time>2023-03-24T16:19:55.059Z</time>
      </trkpt>
      <trkpt lat="48.77613" lon="-3.03091">
        <ele>7.338098</ele>
        <time>2023-03-24T16:19:56.973Z</time>
      </trkpt>
      <trkpt lat="48.77619" lon="-3.03096">
        <ele>7.36968</ele>
        <time>2023-03-24T16:19:58.150Z</time>
      </trkpt>
      <trkpt lat="48.77637" lon="-3.03111">
        <ele>7.465674</ele>
        <time>2023-03-24T16:20:02.527Z</time>
      </trkpt>
      <trkpt lat="48.77656" lon="-3.03134">
        <ele>7.577783</ele>
        <time>2023-03-24T16:20:07.578Z</time>
      </trkpt>
      <trkpt lat="48.77703" lon="-3.03205">
        <ele>7.884728</ele>
        <time>2023-03-24T16:20:23.490Z</time>
      </trkpt>
      <trkpt lat="48.77725" lon="-3.03232">
        <ele>8.18195</ele>
        <time>2023-03-24T16:20:30.591Z</time>
      </trkpt>
      <trkpt lat="48.77752" lon="-3.0326">
        <ele>8.589046</ele>
        <time>2023-03-24T16:20:39.623Z</time>
      </trkpt>
      <trkpt lat="48.77761" lon="-3.03262">
        <ele>8.705093</ele>
        <time>2023-03-24T16:20:42.405Z</time>
      </trkpt>
      <trkpt lat="48.77776" lon="-3.03265">
        <ele>8.884669</ele>
        <time>2023-03-24T16:20:46.173Z</time>
      </trkpt>
      <trkpt lat="48.77832" lon="-3.03317">
        <ele>9.699792</ele>
        <time>2023-03-24T16:21:02.835Z</time>
      </trkpt>
      <trkpt lat="48.7787" lon="-3.03357">
        <ele>10.225444</ele>
        <time>2023-03-24T16:21:14.254Z</time>
      </trkpt>
      <trkpt lat="48.77877" lon="-3.03371">
        <ele>10.322368</ele>
        <time>2023-03-24T16:21:17.179Z</time>
      </trkpt>
      <trkpt lat="48.77909" lon="-3.0344">
        <ele>10.78132</ele>
        <time>2023-03-24T16:21:30.310Z</time>
      </trkpt>
      <trkpt lat="48.77933" lon="-3.0347">
        <ele>11.034603</ele>
        <time>2023-03-24T16:21:37.232Z</time>
      </trkpt>
      <trkpt lat="48.78024" lon="-3.03596">
        <ele>11.885966</ele>
        <time>2023-03-24T16:22:05.297Z</time>
      </trkpt>
      <trkpt lat="48.78078" lon="-3.03718">
        <ele>12.383893</ele>
        <time>2023-03-24T16:22:27.369Z</time>
      </trkpt>
      <trkpt lat="48.7812" lon="-3.03779">
        <ele>12.171662</ele>
        <time>2023-03-24T16:22:38.529Z</time>
      </trkpt>
      <trkpt lat="48.78128" lon="-3.0379">
        <ele>12.038374</ele>
        <time>2023-03-24T16:22:40.428Z</time>
      </trkpt>
      <trkpt lat="48.78142" lon="-3.03825">
        <ele>11.684513</ele>
        <time>2023-03-24T16:22:45.021Z</time>
      </trkpt>
      <trkpt lat="48.78158" lon="-3.03941">
        <ele>10.674586</ele>
        <time>2023-03-24T16:22:57.400Z</time>
      </trkpt>
      <trkpt lat="48.7816" lon="-3.03951">
        <ele>10.587242</ele>
        <time>2023-03-24T16:22:58.438Z</time>
      </trkpt>
      <trkpt lat="48.78198" lon="-3.04026">
        <ele>9.643541</ele>
        <time>2023-03-24T16:23:07.847Z</time>
      </trkpt>
      <trkpt lat="48.78227" lon="-3.0408">
        <ele>8.873673</ele>
        <time>2023-03-24T16:23:14.888Z</time>
      </trkpt>
      <trkpt lat="48.78233" lon="-3.04094">
        <ele>8.696978</ele>
        <time>2023-03-24T16:23:16.520Z</time>
      </trkpt>
      <trkpt lat="48.78233" lon="-3.0411">
        <ele>8.512878</ele>
        <time>2023-03-24T16:23:18.278Z</time>
      </trkpt>
      <trkpt lat="48.78233" lon="-3.04115">
        <ele>8.46078</ele>
        <time>2023-03-24T16:23:18.778Z</time>
      </trkpt>
      <trkpt lat="48.78227" lon="-3.04137">
        <ele>8.191232</ele>
        <time>2023-03-24T16:23:21.334Z</time>
      </trkpt>
      <trkpt lat="48.78221" lon="-3.04161">
        <ele>7.911934</ele>
        <time>2023-03-24T16:23:23.987Z</time>
      </trkpt>
      <trkpt lat="48.78215" lon="-3.04184">
        <ele>7.630653</ele>
        <time>2023-03-24T16:23:26.745Z</time>
      </trkpt>
      <trkpt lat="48.7822" lon="-3.0419">
        <ele>7.526171</ele>
        <time>2023-03-24T16:23:27.725Z</time>
      </trkpt>
      <trkpt lat="48.78219" lon="-3.04195">
        <ele>7.47452</ele>
        <time>2023-03-24T16:23:28.247Z</time>
      </trkpt>
      <trkpt lat="48.78215" lon="-3.04198">
        <ele>7.396888</ele>
        <time>2023-03-24T16:23:29.038Z</time>
      </trkpt>
      <trkpt lat="48.78212" lon="-3.04196">
        <ele>7.336286</ele>
        <time>2023-03-24T16:23:29.653Z</time>
      </trkpt>
      <trkpt lat="48.78211" lon="-3.0419">
        <ele>7.268936</ele>
        <time>2023-03-24T16:23:30.348Z</time>
      </trkpt>
      <trkpt lat="48.78174" lon="-3.04216">
        <ele>7.111536</ele>
        <time>2023-03-24T16:23:37.471Z</time>
      </trkpt>
      <trkpt lat="48.78132" lon="-3.04238">
        <ele>7.027882</ele>
        <time>2023-03-24T16:23:45.730Z</time>
      </trkpt>
      <trkpt lat="48.78134" lon="-3.04249">
        <ele>7.013373</ele>
        <time>2023-03-24T16:23:47.545Z</time>
      </trkpt>
      <trkpt lat="48.78125" lon="-3.04254">
        <ele>6.995606</ele>
        <time>2023-03-24T16:23:54.057Z</time>
      </trkpt>
      <trkpt lat="48.7805" lon="-3.04292">
        <ele>6.846272</ele>
        <time>2023-03-24T16:24:48.879Z</time>
      </trkpt>
      <trkpt lat="48.78039" lon="-3.04298">
        <ele>6.798163</ele>
        <time>2023-03-24T16:24:56.889Z</time>
      </trkpt>
      <trkpt lat="48.78029" lon="-3.04303">
        <ele>6.735961</ele>
        <time>2023-03-24T16:25:04.472Z</time>
      </trkpt>
      <trkpt lat="48.77945" lon="-3.04305">
        <ele>6.259092</ele>
        <time>2023-03-24T16:26:02.973Z</time>
      </trkpt>
      <trkpt lat="48.77943" lon="-3.04305">
        <ele>6.246052</ele>
        <time>2023-03-24T16:26:04.558Z</time>
      </trkpt>
      <trkpt lat="48.77943" lon="-3.04436">
        <ele>5.73325</ele>
        <time>2023-03-24T16:27:04.589Z</time>
      </trkpt>
      <trkpt lat="48.77945" lon="-3.04443">
        <ele>5.693305</ele>
        <time>2023-03-24T16:27:08.165Z</time>
      </trkpt>
      <trkpt lat="48.7795" lon="-3.04448">
        <ele>5.645663</ele>
        <time>2023-03-24T16:27:12.409Z</time>
      </trkpt>
      <trkpt lat="48.78002" lon="-3.04449">
        <ele>5.2401</ele>
        <time>2023-03-24T16:27:48.614Z</time>
      </trkpt>
      <trkpt lat="48.78031" lon="-3.0445">
        <ele>5.01436</ele>
        <time>2023-03-24T16:28:08.770Z</time>
      </trkpt>
      <trkpt lat="48.78048" lon="-3.04466">
        <ele>4.859158</ele>
        <time>2023-03-24T16:28:22.643Z</time>
      </trkpt>
      <trkpt lat="48.78045" lon="-3.04472">
        <ele>4.824465</ele>
        <time>2023-03-24T16:28:23.376Z</time>
      </trkpt>
      <trkpt lat="48.78067" lon="-3.04494">
        <ele>4.622475</ele>
        <time>2023-03-24T16:28:27.816Z</time>
      </trkpt>
      <trkpt lat="48.78119" lon="-3.04538">
        <ele>4.210363</ele>
        <time>2023-03-24T16:28:38.004Z</time>
      </trkpt>
      <trkpt lat="48.78124" lon="-3.0454">
        <ele>4.176833</ele>
        <time>2023-03-24T16:28:38.961Z</time>
      </trkpt>
      <trkpt lat="48.78134" lon="-3.04536">
        <ele>4.110847</ele>
        <time>2023-03-24T16:28:40.743Z</time>
      </trkpt>
      <trkpt lat="48.78177" lon="-3.04507">
        <ele>3.818305</ele>
        <time>2023-03-24T16:28:49.390Z</time>
      </trkpt>
      <trkpt lat="48.78187" lon="-3.04504">
        <ele>3.753474</ele>
        <time>2023-03-24T16:28:51.268Z</time>
      </trkpt>
      <trkpt lat="48.78195" lon="-3.04492">
        <ele>3.681903</ele>
        <time>2023-03-24T16:28:53.263Z</time>
      </trkpt>
      <trkpt lat="48.78315" lon="-3.04391">
        <ele>2.959792</ele>
        <time>2023-03-24T16:29:16.979Z</time>
      </trkpt>
      <trkpt lat="48.78321" lon="-3.04386">
        <ele>2.92631</ele>
        <time>2023-03-24T16:29:18.320Z</time>
      </trkpt>
      <trkpt lat="48.78329" lon="-3.0438">
        <ele>2.890575</ele>
        <time>2023-03-24T16:29:19.734Z</time>
      </trkpt>
      <trkpt lat="48.78372" lon="-3.04435">
        <ele>2.638715</ele>
        <time>2023-03-24T16:29:33.506Z</time>
      </trkpt>
      <trkpt lat="48.78396" lon="-3.04468">
        <ele>2.497199</ele>
        <time>2023-03-24T16:29:41.346Z</time>
      </trkpt>
      <trkpt lat="48.78482" lon="-3.04589">
        <ele>3.108928</ele>
        <time>2023-03-24T16:30:12.751Z</time>
      </trkpt>
      <trkpt lat="48.78486" lon="-3.04584">
        <ele>3.139439</ele>
        <time>2023-03-24T16:30:19.857Z</time>
      </trkpt>
      <trkpt lat="48.78557" lon="-3.04643">
        <ele>3.810949</ele>
        <time>2023-03-24T16:30:39.801Z</time>
      </trkpt>
      <trkpt lat="48.78571" lon="-3.04644">
        <ele>4.046581</ele>
        <time>2023-03-24T16:30:43.840Z</time>
      </trkpt>
      <trkpt lat="48.7858" lon="-3.04637">
        <ele>4.210098</ele>
        <time>2023-03-24T16:30:46.437Z</time>
      </trkpt>
      <trkpt lat="48.78635" lon="-3.0471">
        <ele>5.410475</ele>
        <time>2023-03-24T16:31:11.218Z</time>
      </trkpt>
      <trkpt lat="48.78653" lon="-3.04724">
        <ele>5.738427</ele>
        <time>2023-03-24T16:31:18.374Z</time>
      </trkpt>
      <trkpt lat="48.78665" lon="-3.04787">
        <ele>6.440076</ele>
        <time>2023-03-24T16:31:33.479Z</time>
      </trkpt>
      <trkpt lat="48.7867" lon="-3.04809">
        <ele>6.685899</ele>
        <time>2023-03-24T16:31:38.733Z</time>
      </trkpt>
      <trkpt lat="48.78671" lon="-3.04813">
        <ele>6.723921</ele>
        <time>2023-03-24T16:31:39.635Z</time>
      </trkpt>
      <trkpt lat="48.7868" lon="-3.04837">
        <ele>7.018065</ele>
        <time>2023-03-24T16:31:46.530Z</time>
      </trkpt>
      <trkpt lat="48.78693" lon="-3.04834">
        <ele>7.215257</ele>
        <time>2023-03-24T16:31:49.924Z</time>
      </trkpt>
      <trkpt lat="48.78703" lon="-3.04853">
        <ele>7.462853</ele>
        <time>2023-03-24T16:31:54.805Z</time>
      </trkpt>
      <trkpt lat="48.78709" lon="-3.04877">
        <ele>7.736342</ele>
        <time>2023-03-24T16:31:59.606Z</time>
      </trkpt>
      <trkpt lat="48.78711" lon="-3.04887">
        <ele>7.835795</ele>
        <time>2023-03-24T16:32:01.335Z</time>
      </trkpt>
      <trkpt lat="48.78668" lon="-3.04885">
        <ele>8.504914</ele>
        <time>2023-03-24T16:32:12.557Z</time>
      </trkpt>
      <trkpt lat="48.78622" lon="-3.04886">
        <ele>9.2271</ele>
        <time>2023-03-24T16:32:24.134Z</time>
      </trkpt>
      <trkpt lat="48.7862" lon="-3.04908">
        <ele>9.425091</ele>
        <time>2023-03-24T16:32:27.471Z</time>
      </trkpt>
      <trkpt lat="48.78579" lon="-3.05101">
        <ele>11.259642</ele>
        <time>2023-03-24T16:33:00.862Z</time>
      </trkpt>
      <trkpt lat="48.78608" lon="-3.05137">
        <ele>12.014453</ele>
        <time>2023-03-24T16:33:10.424Z</time>
      </trkpt>
      <trkpt lat="48.78628" lon="-3.05156">
        <ele>13.248155</ele>
        <time>2023-03-24T16:33:17.941Z</time>
      </trkpt>
      <trkpt lat="48.78644" lon="-3.05169">
        <ele>14.134473</ele>
        <time>2023-03-24T16:33:24.019Z</time>
      </trkpt>
      <trkpt lat="48.78656" lon="-3.05185">
        <ele>15.00362</ele>
        <time>2023-03-24T16:33:30.436Z</time>
      </trkpt>
      <trkpt lat="48.78712" lon="-3.05258">
        <ele>18.759565</ele>
        <time>2023-03-24T16:34:04.546Z</time>
      </trkpt>
      <trkpt lat="48.7871" lon="-3.05265">
        <ele>18.981486</ele>
        <time>2023-03-24T16:34:06.773Z</time>
      </trkpt>
      <trkpt lat="48.78806" lon="-3.05398">
        <ele>27.230994</ele>
        <time>2023-03-24T16:35:42.972Z</time>
      </trkpt>
      <trkpt lat="48.78808" lon="-3.054">
        <ele>27.406493</ele>
        <time>2023-03-24T16:35:44.706Z</time>
      </trkpt>
      <trkpt lat="48.7886" lon="-3.05454">
        <ele>31.783353</ele>
        <time>2023-03-24T16:36:19.752Z</time>
      </trkpt>
      <trkpt lat="48.78913" lon="-3.05509">
        <ele>33.530362</ele>
        <time>2023-03-24T16:36:44.412Z</time>
      </trkpt>
      <trkpt lat="48.78929" lon="-3.05533">
        <ele>33.65439</ele>
        <time>2023-03-24T16:36:50.764Z</time>
      </trkpt>
      <trkpt lat="48.78934" lon="-3.05538">
        <ele>33.685884</ele>
        <time>2023-03-24T16:36:52.443Z</time>
      </trkpt>
      <trkpt lat="48.78998" lon="-3.05616">
        <ele>34.13277</ele>
        <time>2023-03-24T16:37:07.279Z</time>
      </trkpt>
      <trkpt lat="48.79009" lon="-3.05628">
        <ele>34.207172</ele>
        <time>2023-03-24T16:37:09.362Z</time>
      </trkpt>
      <trkpt lat="48.79073" lon="-3.05719">
        <ele>33.497813</ele>
        <time>2023-03-24T16:37:23.529Z</time>
      </trkpt>
      <trkpt lat="48.79087" lon="-3.05729">
        <ele>33.335231</ele>
        <time>2023-03-24T16:37:26.091Z</time>
      </trkpt>
      <trkpt lat="48.79145" lon="-3.05738">
        <ele>32.718938</ele>
        <time>2023-03-24T16:37:36.721Z</time>
      </trkpt>
      <trkpt lat="48.79159" lon="-3.05738">
        <ele>32.56745</ele>
        <time>2023-03-24T16:37:39.875Z</time>
      </trkpt>
      <trkpt lat="48.79186" lon="-3.05731">
        <ele>32.575414</ele>
        <time>2023-03-24T16:37:46.397Z</time>
      </trkpt>
      <trkpt lat="48.79216" lon="-3.0573">
        <ele>33.259934</ele>
        <time>2023-03-24T16:37:53.294Z</time>
      </trkpt>
      <trkpt lat="48.79223" lon="-3.05878">
        <ele>35.489519</ele>
        <time>2023-03-24T16:38:22.298Z</time>
      </trkpt>
      <trkpt lat="48.79225" lon="-3.05906">
        <ele>35.916837</ele>
        <time>2023-03-24T16:38:30.079Z</time>
      </trkpt>
      <trkpt lat="48.79232" lon="-3.05948">
        <ele>36.723884</ele>
        <time>2023-03-24T16:38:41.592Z</time>
      </trkpt>
      <trkpt lat="48.79247" lon="-3.05982">
        <ele>38.385404</ele>
        <time>2023-03-24T16:38:54.096Z</time>
      </trkpt>
      <trkpt lat="48.79267" lon="-3.06019">
        <ele>40.309898</ele>
        <time>2023-03-24T16:39:09.923Z</time>
      </trkpt>
      <trkpt lat="48.794" lon="-3.06201">
        <ele>51.124484</ele>
        <time>2023-03-24T16:40:47.503Z</time>
      </trkpt>
      <trkpt lat="48.79453" lon="-3.0626">
        <ele>54.916167</ele>
        <time>2023-03-24T16:41:21.056Z</time>
      </trkpt>
      <trkpt lat="48.79577" lon="-3.06354">
        <ele>60.712592</ele>
        <time>2023-03-24T16:42:18.310Z</time>
      </trkpt>
      <trkpt lat="48.79595" lon="-3.06373">
        <ele>61.416167</ele>
        <time>2023-03-24T16:42:26.248Z</time>
      </trkpt>
      <trkpt lat="48.79574" lon="-3.06464">
        <ele>63.445327</ele>
        <time>2023-03-24T16:42:53.936Z</time>
      </trkpt>
      <trkpt lat="48.79564" lon="-3.06516">
        <ele>63.599563</ele>
        <time>2023-03-24T16:43:08.185Z</time>
      </trkpt>
      <trkpt lat="48.79547" lon="-3.06604">
        <ele>63.330799</ele>
        <time>2023-03-24T16:43:28.252Z</time>
      </trkpt>
      <trkpt lat="48.79516" lon="-3.06745">
        <ele>62.689015</ele>
        <time>2023-03-24T16:43:56.197Z</time>
      </trkpt>
      <trkpt lat="48.79509" lon="-3.06755">
        <ele>62.329183</ele>
        <time>2023-03-24T16:43:58.434Z</time>
      </trkpt>
      <trkpt lat="48.79498" lon="-3.06759">
        <ele>61.878196</ele>
        <time>2023-03-24T16:44:01.460Z</time>
      </trkpt>
      <trkpt lat="48.79445" lon="-3.06763">
        <ele>59.763191</ele>
        <time>2023-03-24T16:44:15.146Z</time>
      </trkpt>
      <trkpt lat="48.79385" lon="-3.06774">
        <ele>57.398758</ele>
        <time>2023-03-24T16:44:29.707Z</time>
      </trkpt>
      <trkpt lat="48.79385" lon="-3.06789">
        <ele>57.008659</ele>
        <time>2023-03-24T16:44:31.160Z</time>
      </trkpt>
      <trkpt lat="48.7936" lon="-3.0678">
        <ele>55.994943</ele>
        <time>2023-03-24T16:44:37.182Z</time>
      </trkpt>
      <trkpt lat="48.78944" lon="-3.06528">
        <ele>35.87402</ele>
        <time>2023-03-24T16:46:25.095Z</time>
      </trkpt>
      <trkpt lat="48.78902" lon="-3.06589">
        <ele>34.490408</ele>
        <time>2023-03-24T16:46:35.446Z</time>
      </trkpt>
      <trkpt lat="48.78875" lon="-3.06576">
        <ele>33.815958</ele>
        <time>2023-03-24T16:46:41.284Z</time>
      </trkpt>
      <trkpt lat="48.78842" lon="-3.06574">
        <ele>34.051962</ele>
        <time>2023-03-24T16:46:49.001Z</time>
      </trkpt>
      <trkpt lat="48.78813" lon="-3.06579">
        <ele>34.656812</ele>
        <time>2023-03-24T16:46:58.498Z</time>
      </trkpt>
      <trkpt lat="48.78763" lon="-3.06597">
        <ele>35.708712</ele>
        <time>2023-03-24T16:47:15.952Z</time>
      </trkpt>
      <trkpt lat="48.78693" lon="-3.06615">
        <ele>37.160524</ele>
        <time>2023-03-24T16:47:40.255Z</time>
      </trkpt>
      <trkpt lat="48.78677" lon="-3.06627">
        <ele>37.333489</ele>
        <time>2023-03-24T16:47:46.178Z</time>
      </trkpt>
      <trkpt lat="48.78635" lon="-3.06608">
        <ele>37.553712</ele>
        <time>2023-03-24T16:47:57.864Z</time>
      </trkpt>
      <trkpt lat="48.78624" lon="-3.06598">
        <ele>37.618776</ele>
        <time>2023-03-24T16:48:00.692Z</time>
      </trkpt>
      <trkpt lat="48.78616" lon="-3.06585">
        <ele>37.674695</ele>
        <time>2023-03-24T16:48:03.643Z</time>
      </trkpt>
      <trkpt lat="48.78609" lon="-3.06554">
        <ele>37.786607</ele>
        <time>2023-03-24T16:48:08.042Z</time>
      </trkpt>
      <trkpt lat="48.7862" lon="-3.06495">
        <ele>37.991013</ele>
        <time>2023-03-24T16:48:20.648Z</time>
      </trkpt>
      <trkpt lat="48.78619" lon="-3.06468">
        <ele>38.08134</ele>
        <time>2023-03-24T16:48:26.814Z</time>
      </trkpt>
      <trkpt lat="48.78609" lon="-3.06412">
        <ele>38.045454</ele>
        <time>2023-03-24T16:48:37.757Z</time>
      </trkpt>
      <trkpt lat="48.78576" lon="-3.06292">
        <ele>37.470724</ele>
        <time>2023-03-24T16:49:02.127Z</time>
      </trkpt>
      <trkpt lat="48.78556" lon="-3.06289">
        <ele>37.34068</ele>
        <time>2023-03-24T16:49:08.117Z</time>
      </trkpt>
      <trkpt lat="48.78542" lon="-3.06291">
        <ele>37.24152</ele>
        <time>2023-03-24T16:49:12.527Z</time>
      </trkpt>
      <trkpt lat="48.78522" lon="-3.06279">
        <ele>37.100725</ele>
        <time>2023-03-24T16:49:19.231Z</time>
      </trkpt>
      <trkpt lat="48.78504" lon="-3.06251">
        <ele>37.11284</ele>
        <time>2023-03-24T16:49:27.327Z</time>
      </trkpt>
      <trkpt lat="48.785" lon="-3.06221">
        <ele>37.552496</ele>
        <time>2023-03-24T16:49:31.295Z</time>
      </trkpt>
      <trkpt lat="48.78467" lon="-3.06196">
        <ele>38.368647</ele>
        <time>2023-03-24T16:49:46.907Z</time>
      </trkpt>
      <trkpt lat="48.78452" lon="-3.06191">
        <ele>38.707084</ele>
        <time>2023-03-24T16:49:52.997Z</time>
      </trkpt>
      <trkpt lat="48.78421" lon="-3.0614">
        <ele>39.683321</ele>
        <time>2023-03-24T16:50:13.472Z</time>
      </trkpt>
      <trkpt lat="48.78418" lon="-3.06141">
        <ele>39.751784</ele>
        <time>2023-03-24T16:50:16.499Z</time>
      </trkpt>
      <trkpt lat="48.7839" lon="-3.06177">
        <ele>40.548737</ele>
        <time>2023-03-24T16:50:34.126Z</time>
      </trkpt>
      <trkpt lat="48.78372" lon="-3.0618">
        <ele>40.960241</ele>
        <time>2023-03-24T16:50:41.619Z</time>
      </trkpt>
      <trkpt lat="48.78369" lon="-3.06201">
        <ele>41.399713</ele>
        <time>2023-03-24T16:50:47.958Z</time>
      </trkpt>
      <trkpt lat="48.78366" lon="-3.06204">
        <ele>41.524016</ele>
        <time>2023-03-24T16:50:51.915Z</time>
      </trkpt>
      <trkpt lat="48.78346" lon="-3.06202">
        <ele>42.172294</ele>
        <time>2023-03-24T16:51:00.559Z</time>
      </trkpt>
      <trkpt lat="48.78322" lon="-3.0618">
        <ele>43.028934</ele>
        <time>2023-03-24T16:51:13.580Z</time>
      </trkpt>
      <trkpt lat="48.78308" lon="-3.06183">
        <ele>43.479671</ele>
        <time>2023-03-24T16:51:20.073Z</time>
      </trkpt>
      <trkpt lat="48.78294" lon="-3.06195">
        <ele>43.989109</ele>
        <time>2023-03-24T16:51:28.766Z</time>
      </trkpt>
      <trkpt lat="48.78277" lon="-3.06218">
        <ele>44.709581</ele>
        <time>2023-03-24T16:51:38.907Z</time>
      </trkpt>
      <trkpt lat="48.78258" lon="-3.0626">
        <ele>45.760375</ele>
        <time>2023-03-24T16:51:55.584Z</time>
      </trkpt>
      <trkpt lat="48.78242" lon="-3.06363">
        <ele>46.900244</ele>
        <time>2023-03-24T16:52:27.480Z</time>
      </trkpt>
      <trkpt lat="48.78232" lon="-3.06376">
        <ele>47.003505</ele>
        <time>2023-03-24T16:52:32.915Z</time>
      </trkpt>
      <trkpt lat="48.78205" lon="-3.06395">
        <ele>47.23762</ele>
        <time>2023-03-24T16:52:44.526Z</time>
      </trkpt>
      <trkpt lat="48.78169" lon="-3.06445">
        <ele>47.614054</ele>
        <time>2023-03-24T16:52:59.638Z</time>
      </trkpt>
      <trkpt lat="48.78157" lon="-3.06449">
        <ele>47.708435</ele>
        <time>2023-03-24T16:53:03.419Z</time>
      </trkpt>
      <trkpt lat="48.78083" lon="-3.06423">
        <ele>46.727505</ele>
        <time>2023-03-24T16:53:25.771Z</time>
      </trkpt>
      <trkpt lat="48.78067" lon="-3.06423">
        <ele>46.293779</ele>
        <time>2023-03-24T16:53:30.107Z</time>
      </trkpt>
      <trkpt lat="48.78042" lon="-3.06391">
        <ele>45.420035</ele>
        <time>2023-03-24T16:53:35.261Z</time>
      </trkpt>
      <trkpt lat="48.78012" lon="-3.06338">
        <ele>44.189142</ele>
        <time>2023-03-24T16:53:42.181Z</time>
      </trkpt>
      <trkpt lat="48.78006" lon="-3.06309">
        <ele>43.640267</ele>
        <time>2023-03-24T16:53:45.217Z</time>
      </trkpt>
      <trkpt lat="48.78007" lon="-3.06268">
        <ele>42.785267</ele>
        <time>2023-03-24T16:53:49.246Z</time>
      </trkpt>
      <trkpt lat="48.78016" lon="-3.06206">
        <ele>41.003924</ele>
        <time>2023-03-24T16:53:55.159Z</time>
      </trkpt>
      <trkpt lat="48.78009" lon="-3.06188">
        <ele>40.417486</ele>
        <time>2023-03-24T16:53:57.060Z</time>
      </trkpt>
      <trkpt lat="48.77992" lon="-3.06167">
        <ele>39.469063</ele>
        <time>2023-03-24T16:54:00.406Z</time>
      </trkpt>
      <trkpt lat="48.77983" lon="-3.06173">
        <ele>39.013367</ele>
        <time>2023-03-24T16:54:01.793Z</time>
      </trkpt>
      <trkpt lat="48.77973" lon="-3.06175">
        <ele>38.589894</ele>
        <time>2023-03-24T16:54:03.184Z</time>
      </trkpt>
      <trkpt lat="48.77961" lon="-3.0617">
        <ele>38.083837</ele>
        <time>2023-03-24T16:54:04.824Z</time>
      </trkpt>
      <trkpt lat="48.77887" lon="-3.06102">
        <ele>34.813615</ele>
        <time>2023-03-24T16:54:16.480Z</time>
      </trkpt>
      <trkpt lat="48.77842" lon="-3.06061">
        <ele>33.560007</ele>
        <time>2023-03-24T16:54:24.128Z</time>
      </trkpt>
      <trkpt lat="48.77811" lon="-3.0603">
        <ele>32.677336</ele>
        <time>2023-03-24T16:54:29.911Z</time>
      </trkpt>
      <trkpt lat="48.7781" lon="-3.06044">
        <ele>32.454309</ele>
        <time>2023-03-24T16:54:31.470Z</time>
      </trkpt>
      <trkpt lat="48.77799" lon="-3.06135">
        <ele>31.039646</ele>
        <time>2023-03-24T16:54:41.917Z</time>
      </trkpt>
      <trkpt lat="48.77789" lon="-3.06204">
        <ele>30.316722</ele>
        <time>2023-03-24T16:54:49.772Z</time>
      </trkpt>
      <trkpt lat="48.77787" lon="-3.06255">
        <ele>29.803832</ele>
        <time>2023-03-24T16:54:55.200Z</time>
      </trkpt>
      <trkpt lat="48.77795" lon="-3.06323">
        <ele>29.102712</ele>
        <time>2023-03-24T16:55:02.646Z</time>
      </trkpt>
      <trkpt lat="48.77707" lon="-3.06327">
        <ele>27.148721</ele>
        <time>2023-03-24T16:55:26.346Z</time>
      </trkpt>
      <trkpt lat="48.77673" lon="-3.06316">
        <ele>26.029613</ele>
        <time>2023-03-24T16:55:35.130Z</time>
      </trkpt>
      <trkpt lat="48.77672" lon="-3.06316">
        <ele>26.006367</ele>
        <time>2023-03-24T16:55:35.327Z</time>
      </trkpt>
      <trkpt lat="48.77623" lon="-3.06334">
        <ele>24.398758</ele>
        <time>2023-03-24T16:55:47.897Z</time>
      </trkpt>
      <trkpt lat="48.77589" lon="-3.06343">
        <ele>23.272257</ele>
        <time>2023-03-24T16:55:56.755Z</time>
      </trkpt>
      <trkpt lat="48.77575" lon="-3.06344">
        <ele>22.821595</ele>
        <time>2023-03-24T16:56:00.317Z</time>
      </trkpt>
      <trkpt lat="48.77565" lon="-3.06343">
        <ele>22.536458</ele>
        <time>2023-03-24T16:56:02.861Z</time>
      </trkpt>
      <trkpt lat="48.77552" lon="-3.06334">
        <ele>22.295683</ele>
        <time>2023-03-24T16:56:06.985Z</time>
      </trkpt>
      <trkpt lat="48.77541" lon="-3.06313">
        <ele>21.999971</ele>
        <time>2023-03-24T16:56:11.467Z</time>
      </trkpt>
      <trkpt lat="48.7753" lon="-3.0634">
        <ele>21.647059</ele>
        <time>2023-03-24T16:56:15.204Z</time>
      </trkpt>
      <trkpt lat="48.77461" lon="-3.06479">
        <ele>19.721399</ele>
        <time>2023-03-24T16:56:34.750Z</time>
      </trkpt>
      <trkpt lat="48.77447" lon="-3.06499">
        <ele>19.583472</ele>
        <time>2023-03-24T16:56:38.201Z</time>
      </trkpt>
      <trkpt lat="48.77411" lon="-3.06567">
        <ele>19.81906</ele>
        <time>2023-03-24T16:56:50.275Z</time>
      </trkpt>
      <trkpt lat="48.77372" lon="-3.06653">
        <ele>20.103703</ele>
        <time>2023-03-24T16:57:05.714Z</time>
      </trkpt>
      <trkpt lat="48.7736" lon="-3.06673">
        <ele>20.175993</ele>
        <time>2023-03-24T16:57:10.382Z</time>
      </trkpt>
      <trkpt lat="48.77345" lon="-3.06689">
        <ele>20.251167</ele>
        <time>2023-03-24T16:57:15.362Z</time>
      </trkpt>
      <trkpt lat="48.77312" lon="-3.06713">
        <ele>21.036122</ele>
        <time>2023-03-24T16:57:25.669Z</time>
      </trkpt>
      <trkpt lat="48.77278" lon="-3.06745">
        <ele>22.10602</ele>
        <time>2023-03-24T16:57:38.050Z</time>
      </trkpt>
      <trkpt lat="48.77266" lon="-3.06778">
        <ele>22.765731</ele>
        <time>2023-03-24T16:57:46.298Z</time>
      </trkpt>
      <trkpt lat="48.77256" lon="-3.0682">
        <ele>23.564507</ele>
        <time>2023-03-24T16:57:57.070Z</time>
      </trkpt>
      <trkpt lat="48.77247" lon="-3.06896">
        <ele>24.929718</ele>
        <time>2023-03-24T16:58:15.897Z</time>
      </trkpt>
      <trkpt lat="48.77239" lon="-3.07107">
        <ele>29.999247</ele>
        <time>2023-03-24T16:59:11.967Z</time>
      </trkpt>
      <trkpt lat="48.77237" lon="-3.0715">
        <ele>31.045971</ele>
        <time>2023-03-24T16:59:22.515Z</time>
      </trkpt>
      <trkpt lat="48.77233" lon="-3.07172">
        <ele>31.592351</ele>
        <time>2023-03-24T16:59:28.299Z</time>
      </trkpt>
      <trkpt lat="48.77223" lon="-3.07188">
        <ele>31.953775</ele>
        <time>2023-03-24T16:59:33.375Z</time>
      </trkpt>
      <trkpt lat="48.77182" lon="-3.07232">
        <ele>32.945817</ele>
        <time>2023-03-24T16:59:49.967Z</time>
      </trkpt>
      <trkpt lat="48.77146" lon="-3.07255">
        <ele>33.709386</ele>
        <time>2023-03-24T17:00:01.770Z</time>
      </trkpt>
      <trkpt lat="48.77148" lon="-3.07263">
        <ele>33.815845</ele>
        <time>2023-03-24T17:00:03.543Z</time>
      </trkpt>
      <trkpt lat="48.7714" lon="-3.07369">
        <ele>35.206471</ele>
        <time>2023-03-24T17:00:21.600Z</time>
      </trkpt>
      <trkpt lat="48.77139" lon="-3.07387">
        <ele>35.348754</ele>
        <time>2023-03-24T17:00:24.224Z</time>
      </trkpt>
      <trkpt lat="48.77138" lon="-3.07403">
        <ele>35.425165</ele>
        <time>2023-03-24T17:00:26.468Z</time>
      </trkpt>
      <trkpt lat="48.77143" lon="-3.07415">
        <ele>35.492948</ele>
        <time>2023-03-24T17:00:28.592Z</time>
      </trkpt>
      <trkpt lat="48.77165" lon="-3.07431">
        <ele>35.673697</ele>
        <time>2023-03-24T17:00:34.079Z</time>
      </trkpt>
      <trkpt lat="48.77184" lon="-3.07432">
        <ele>35.809014</ele>
        <time>2023-03-24T17:00:38.237Z</time>
      </trkpt>
      <trkpt lat="48.77187" lon="-3.0743">
        <ele>35.832969</ele>
        <time>2023-03-24T17:00:38.921Z</time>
      </trkpt>
      <trkpt lat="48.77202" lon="-3.0742">
        <ele>35.955142</ele>
        <time>2023-03-24T17:00:42.391Z</time>
      </trkpt>
      <trkpt lat="48.77245" lon="-3.07391">
        <ele>36.2979</ele>
        <time>2023-03-24T17:00:52.515Z</time>
      </trkpt>
      <trkpt lat="48.77277" lon="-3.07384">
        <ele>36.533675</ele>
        <time>2023-03-24T17:01:00.109Z</time>
      </trkpt>
      <trkpt lat="48.77303" lon="-3.07389">
        <ele>36.841277</ele>
        <time>2023-03-24T17:01:06.493Z</time>
      </trkpt>
      <trkpt lat="48.77361" lon="-3.07422">
        <ele>37.754229</ele>
        <time>2023-03-24T17:01:21.888Z</time>
      </trkpt>
      <trkpt lat="48.77431" lon="-3.07454">
        <ele>38.832548</ele>
        <time>2023-03-24T17:01:41.195Z</time>
      </trkpt>
      <trkpt lat="48.77528" lon="-3.0748">
        <ele>40.824027</ele>
        <time>2023-03-24T17:02:11.730Z</time>
      </trkpt>
      <trkpt lat="48.77608" lon="-3.07482">
        <ele>42.599036</ele>
        <time>2023-03-24T17:02:37.217Z</time>
      </trkpt>
      <trkpt lat="48.77651" lon="-3.07482">
        <ele>43.365834</ele>
        <time>2023-03-24T17:02:49.553Z</time>
      </trkpt>
      <trkpt lat="48.77654" lon="-3.07591">
        <ele>43.884304</ele>
        <time>2023-03-24T17:03:09.174Z</time>
      </trkpt>
      <trkpt lat="48.77658" lon="-3.07609">
        <ele>43.976946</ele>
        <time>2023-03-24T17:03:12.009Z</time>
      </trkpt>
      <trkpt lat="48.77663" lon="-3.07618">
        <ele>44.031579</ele>
        <time>2023-03-24T17:03:14.264Z</time>
      </trkpt>
      <trkpt lat="48.77625" lon="-3.07632">
        <ele>44.310858</ele>
        <time>2023-03-24T17:03:26.869Z</time>
      </trkpt>
      <trkpt lat="48.77599" lon="-3.07645">
        <ele>44.506363</ele>
        <time>2023-03-24T17:03:35.054Z</time>
      </trkpt>
      <trkpt lat="48.77552" lon="-3.07678">
        <ele>43.952059</ele>
        <time>2023-03-24T17:03:50.447Z</time>
      </trkpt>
      <trkpt lat="48.77527" lon="-3.07701">
        <ele>43.51547</ele>
        <time>2023-03-24T17:03:59.062Z</time>
      </trkpt>
      <trkpt lat="48.77524" lon="-3.07704">
        <ele>43.473184</ele>
        <time>2023-03-24T17:03:59.871Z</time>
      </trkpt>
      <trkpt lat="48.77524" lon="-3.07704">
        <ele>43.473184</ele>
        <time>2023-03-24T17:03:59.888Z</time>
      </trkpt>
      <trkpt lat="48.77524" lon="-3.07704">
        <ele>43.469094</ele>
        <time>2023-03-24T17:04:00.009Z</time>
      </trkpt>
      <trkpt lat="48.7752" lon="-3.07708">
        <ele>43.40221</ele>
        <time>2023-03-24T17:04:01.976Z</time>
      </trkpt>
      <trkpt lat="48.77513" lon="-3.07715">
        <ele>43.278562</ele>
        <time>2023-03-24T17:04:05.613Z</time>
      </trkpt>
      <trkpt lat="48.7751" lon="-3.07719">
        <ele>43.216584</ele>
        <time>2023-03-24T17:04:07.436Z</time>
      </trkpt>
      <trkpt lat="48.77506" lon="-3.07722">
        <ele>43.159113</ele>
        <time>2023-03-24T17:04:09.126Z</time>
      </trkpt>
      <trkpt lat="48.77503" lon="-3.07724">
        <ele>43.101327</ele>
        <time>2023-03-24T17:04:10.826Z</time>
      </trkpt>
      <trkpt lat="48.77499" lon="-3.07725">
        <ele>43.047926</ele>
        <time>2023-03-24T17:04:12.397Z</time>
      </trkpt>
      <trkpt lat="48.77496" lon="-3.07727">
        <ele>42.99587</ele>
        <time>2023-03-24T17:04:13.928Z</time>
      </trkpt>
      <trkpt lat="48.77493" lon="-3.07729">
        <ele>42.946105</ele>
        <time>2023-03-24T17:04:15.392Z</time>
      </trkpt>
      <trkpt lat="48.77489" lon="-3.07732">
        <ele>42.889438</ele>
        <time>2023-03-24T17:04:17.059Z</time>
      </trkpt>
      <trkpt lat="48.77486" lon="-3.07734">
        <ele>42.839962</ele>
        <time>2023-03-24T17:04:18.514Z</time>
      </trkpt>
      <trkpt lat="48.7748" lon="-3.07739">
        <ele>42.740478</ele>
        <time>2023-03-24T17:04:21.440Z</time>
      </trkpt>
      <trkpt lat="48.77474" lon="-3.07744">
        <ele>42.640776</ele>
        <time>2023-03-24T17:04:24.373Z</time>
      </trkpt>
      <trkpt lat="48.77468" lon="-3.0775">
        <ele>42.532615</ele>
        <time>2023-03-24T17:04:27.555Z</time>
      </trkpt>
      <trkpt lat="48.77465" lon="-3.07754">
        <ele>42.47799</ele>
        <time>2023-03-24T17:04:29.162Z</time>
      </trkpt>
      <trkpt lat="48.77463" lon="-3.07758">
        <ele>42.434315</ele>
        <time>2023-03-24T17:04:30.446Z</time>
      </trkpt>
      <trkpt lat="48.7746" lon="-3.07762">
        <ele>42.378769</ele>
        <time>2023-03-24T17:04:32.080Z</time>
      </trkpt>
      <trkpt lat="48.77459" lon="-3.07766">
        <ele>42.332353</ele>
        <time>2023-03-24T17:04:33.446Z</time>
      </trkpt>
      <trkpt lat="48.77456" lon="-3.0777">
        <ele>42.281217</ele>
        <time>2023-03-24T17:04:34.950Z</time>
      </trkpt>
      <trkpt lat="48.77454" lon="-3.07774">
        <ele>42.225883</ele>
        <time>2023-03-24T17:04:36.577Z</time>
      </trkpt>
      <trkpt lat="48.77451" lon="-3.07779">
        <ele>42.163731</ele>
        <time>2023-03-24T17:04:38.405Z</time>
      </trkpt>
      <trkpt lat="48.77449" lon="-3.07784">
        <ele>42.111716</ele>
        <time>2023-03-24T17:04:39.935Z</time>
      </trkpt>
      <trkpt lat="48.77446" lon="-3.07787">
        <ele>42.057231</ele>
        <time>2023-03-24T17:04:41.539Z</time>
      </trkpt>
      <trkpt lat="48.77443" lon="-3.07791">
        <ele>41.997875</ele>
        <time>2023-03-24T17:04:43.285Z</time>
      </trkpt>
      <trkpt lat="48.77435" lon="-3.07804">
        <ele>41.797872</ele>
        <time>2023-03-24T17:04:48.227Z</time>
      </trkpt>
      <trkpt lat="48.77424" lon="-3.07819">
        <ele>41.523689</ele>
        <time>2023-03-24T17:04:54.667Z</time>
      </trkpt>
      <trkpt lat="48.77421" lon="-3.07823">
        <ele>41.448947</ele>
        <time>2023-03-24T17:04:56.423Z</time>
      </trkpt>
      <trkpt lat="48.77412" lon="-3.07835">
        <ele>41.230966</ele>
        <time>2023-03-24T17:05:01.544Z</time>
      </trkpt>
      <trkpt lat="48.77408" lon="-3.07839">
        <ele>41.152621</ele>
        <time>2023-03-24T17:05:03.384Z</time>
      </trkpt>
      <trkpt lat="48.77402" lon="-3.07848">
        <ele>40.992561</ele>
        <time>2023-03-24T17:05:07.143Z</time>
      </trkpt>
      <trkpt lat="48.77398" lon="-3.07856">
        <ele>40.868668</ele>
        <time>2023-03-24T17:05:10.053Z</time>
      </trkpt>
      <trkpt lat="48.77393" lon="-3.07865">
        <ele>40.737056</ele>
        <time>2023-03-24T17:05:13.146Z</time>
      </trkpt>
      <trkpt lat="48.77387" lon="-3.07879">
        <ele>40.534464</ele>
        <time>2023-03-24T17:05:17.904Z</time>
      </trkpt>
      <trkpt lat="48.77382" lon="-3.07887">
        <ele>40.402677</ele>
        <time>2023-03-24T17:05:20.999Z</time>
      </trkpt>
      <trkpt lat="48.77378" lon="-3.07896">
        <ele>40.272166</ele>
        <time>2023-03-24T17:05:24.064Z</time>
      </trkpt>
      <trkpt lat="48.77375" lon="-3.07899">
        <ele>40.207603</ele>
        <time>2023-03-24T17:05:25.581Z</time>
      </trkpt>
      <trkpt lat="48.77373" lon="-3.07903">
        <ele>40.146467</ele>
        <time>2023-03-24T17:05:27.020Z</time>
      </trkpt>
      <trkpt lat="48.7737" lon="-3.07906">
        <ele>40.083301</ele>
        <time>2023-03-24T17:05:28.505Z</time>
      </trkpt>
      <trkpt lat="48.77369" lon="-3.07909">
        <ele>40.038108</ele>
        <time>2023-03-24T17:05:29.567Z</time>
      </trkpt>
      <trkpt lat="48.77366" lon="-3.07913">
        <ele>39.978547</ele>
        <time>2023-03-24T17:05:30.966Z</time>
      </trkpt>
      <trkpt lat="48.77364" lon="-3.07916">
        <ele>39.924742</ele>
        <time>2023-03-24T17:05:32.229Z</time>
      </trkpt>
      <trkpt lat="48.7736" lon="-3.07922">
        <ele>39.817222</ele>
        <time>2023-03-24T17:05:34.754Z</time>
      </trkpt>
      <trkpt lat="48.77356" lon="-3.07926">
        <ele>39.734527</ele>
        <time>2023-03-24T17:05:36.697Z</time>
      </trkpt>
      <trkpt lat="48.77354" lon="-3.07928">
        <ele>39.692781</ele>
        <time>2023-03-24T17:05:37.677Z</time>
      </trkpt>
      <trkpt lat="48.77352" lon="-3.07929">
        <ele>39.64886</ele>
        <time>2023-03-24T17:05:38.709Z</time>
      </trkpt>
      <trkpt lat="48.77347" lon="-3.07933">
        <ele>39.549135</ele>
        <time>2023-03-24T17:05:41.051Z</time>
      </trkpt>
      <trkpt lat="48.77341" lon="-3.07935">
        <ele>39.433452</ele>
        <time>2023-03-24T17:05:43.772Z</time>
      </trkpt>
      <trkpt lat="48.77338" lon="-3.07936">
        <ele>39.380468</ele>
        <time>2023-03-24T17:05:45.016Z</time>
      </trkpt>
      <trkpt lat="48.77336" lon="-3.07938">
        <ele>39.340846</ele>
        <time>2023-03-24T17:05:45.947Z</time>
      </trkpt>
      <trkpt lat="48.77331" lon="-3.07939">
        <ele>39.238632</ele>
        <time>2023-03-24T17:05:48.347Z</time>
      </trkpt>
      <trkpt lat="48.77326" lon="-3.0794">
        <ele>39.158426</ele>
        <time>2023-03-24T17:05:50.231Z</time>
      </trkpt>
      <trkpt lat="48.77322" lon="-3.07939">
        <ele>39.085229</ele>
        <time>2023-03-24T17:05:51.950Z</time>
      </trkpt>
      <trkpt lat="48.77319" lon="-3.07939">
        <ele>39.034226</ele>
        <time>2023-03-24T17:05:53.148Z</time>
      </trkpt>
      <trkpt lat="48.77317" lon="-3.0794">
        <ele>38.984824</ele>
        <time>2023-03-24T17:05:54.308Z</time>
      </trkpt>
      <trkpt lat="48.77314" lon="-3.0794">
        <ele>38.927561</ele>
        <time>2023-03-24T17:05:55.653Z</time>
      </trkpt>
      <trkpt lat="48.77311" lon="-3.0794">
        <ele>38.874697</ele>
        <time>2023-03-24T17:05:56.895Z</time>
      </trkpt>
      <trkpt lat="48.77308" lon="-3.0794">
        <ele>38.823651</ele>
        <time>2023-03-24T17:05:58.096Z</time>
      </trkpt>
      <trkpt lat="48.77305" lon="-3.0794">
        <ele>38.768692</ele>
        <time>2023-03-24T17:05:59.387Z</time>
      </trkpt>
      <trkpt lat="48.77303" lon="-3.0794">
        <ele>38.726739</ele>
        <time>2023-03-24T17:06:00.373Z</time>
      </trkpt>
      <trkpt lat="48.773" lon="-3.0794">
        <ele>38.679501</ele>
        <time>2023-03-24T17:06:01.613Z</time>
      </trkpt>
      <trkpt lat="48.77292" lon="-3.07939">
        <ele>38.647976</ele>
        <time>2023-03-24T17:06:04.876Z</time>
      </trkpt>
      <trkpt lat="48.77289" lon="-3.07939">
        <ele>38.636736</ele>
        <time>2023-03-24T17:06:06.039Z</time>
      </trkpt>
      <trkpt lat="48.77287" lon="-3.0794">
        <ele>38.627245</ele>
        <time>2023-03-24T17:06:07.021Z</time>
      </trkpt>
      <trkpt lat="48.77285" lon="-3.07942">
        <ele>38.617037</ele>
        <time>2023-03-24T17:06:08.078Z</time>
      </trkpt>
      <trkpt lat="48.77284" lon="-3.07946">
        <ele>38.605982</ele>
        <time>2023-03-24T17:06:09.222Z</time>
      </trkpt>
      <trkpt lat="48.77281" lon="-3.07961">
        <ele>38.564336</ele>
        <time>2023-03-24T17:06:13.533Z</time>
      </trkpt>
      <trkpt lat="48.77278" lon="-3.07978">
        <ele>38.516185</ele>
        <time>2023-03-24T17:06:18.516Z</time>
      </trkpt>
      <trkpt lat="48.77272" lon="-3.08001">
        <ele>38.449569</ele>
        <time>2023-03-24T17:06:25.411Z</time>
      </trkpt>
      <trkpt lat="48.77271" lon="-3.08007">
        <ele>38.43133</ele>
        <time>2023-03-24T17:06:27.298Z</time>
      </trkpt>
      <trkpt lat="48.77265" lon="-3.08005">
        <ele>38.406286</ele>
        <time>2023-03-24T17:06:29.914Z</time>
      </trkpt>
      <trkpt lat="48.77263" lon="-3.08018">
        <ele>38.368509</ele>
        <time>2023-03-24T17:06:33.191Z</time>
      </trkpt>
      <trkpt lat="48.77262" lon="-3.08049">
        <ele>38.286134</ele>
        <time>2023-03-24T17:06:39.548Z</time>
      </trkpt>
      <trkpt lat="48.77264" lon="-3.08049">
        <ele>38.276845</ele>
        <time>2023-03-24T17:06:40.111Z</time>
      </trkpt>
      <trkpt lat="48.77263" lon="-3.08065">
        <ele>38.234467</ele>
        <time>2023-03-24T17:06:41.993Z</time>
      </trkpt>
      <trkpt lat="48.77266" lon="-3.08105">
        <ele>38.124727</ele>
        <time>2023-03-24T17:06:47.277Z</time>
      </trkpt>
      <trkpt lat="48.77257" lon="-3.08158">
        <ele>37.975333</ele>
        <time>2023-03-24T17:06:54.789Z</time>
      </trkpt>
      <trkpt lat="48.77255" lon="-3.08177">
        <ele>38.018684</ele>
        <time>2023-03-24T17:06:57.917Z</time>
      </trkpt>
      <trkpt lat="48.77257" lon="-3.08191">
        <ele>38.192756</ele>
        <time>2023-03-24T17:07:00.255Z</time>
      </trkpt>
      <trkpt lat="48.77292" lon="-3.08223">
        <ele>39.005234</ele>
        <time>2023-03-24T17:07:11.315Z</time>
      </trkpt>
      <trkpt lat="48.77292" lon="-3.08217">
        <ele>39.080651</ele>
        <time>2023-03-24T17:07:12.485Z</time>
      </trkpt>
      <trkpt lat="48.77301" lon="-3.08202">
        <ele>39.346302</ele>
        <time>2023-03-24T17:07:16.975Z</time>
      </trkpt>
      <trkpt lat="48.7731" lon="-3.08198">
        <ele>39.534574</ele>
        <time>2023-03-24T17:07:20.053Z</time>
      </trkpt>
      <trkpt lat="48.77336" lon="-3.08218">
        <ele>40.110181</ele>
        <time>2023-03-24T17:07:32.525Z</time>
      </trkpt>
      <trkpt lat="48.7736" lon="-3.08243">
        <ele>40.697145</ele>
        <time>2023-03-24T17:07:45.547Z</time>
      </trkpt>
      <trkpt lat="48.77419" lon="-3.08295">
        <ele>42.175098</ele>
        <time>2023-03-24T17:08:16.358Z</time>
      </trkpt>
      <trkpt lat="48.77437" lon="-3.08323">
        <ele>42.798366</ele>
        <time>2023-03-24T17:08:27.885Z</time>
      </trkpt>
      <trkpt lat="48.7747" lon="-3.08343">
        <ele>43.669675</ele>
        <time>2023-03-24T17:08:44.139Z</time>
      </trkpt>
      <trkpt lat="48.77531" lon="-3.08362">
        <ele>45.165271</ele>
        <time>2023-03-24T17:09:12.057Z</time>
      </trkpt>
      <trkpt lat="48.77549" lon="-3.08375">
        <ele>45.67334</ele>
        <time>2023-03-24T17:09:20.676Z</time>
      </trkpt>
      <trkpt lat="48.77593" lon="-3.08421">
        <ele>46.374301</ele>
        <time>2023-03-24T17:09:41.634Z</time>
      </trkpt>
      <trkpt lat="48.77625" lon="-3.08472">
        <ele>46.8823</ele>
        <time>2023-03-24T17:09:59.595Z</time>
      </trkpt>
      <trkpt lat="48.77594" lon="-3.08563">
        <ele>47.625306</ele>
        <time>2023-03-24T17:10:15.456Z</time>
      </trkpt>
      <trkpt lat="48.77599" lon="-3.08572">
        <ele>47.721106</ele>
        <time>2023-03-24T17:10:19.237Z</time>
      </trkpt>
      <trkpt lat="48.7761" lon="-3.08583">
        <ele>47.85747</ele>
        <time>2023-03-24T17:10:23.220Z</time>
      </trkpt>
      <trkpt lat="48.77672" lon="-3.08628">
        <ele>47.619659</ele>
        <time>2023-03-24T17:10:45.330Z</time>
      </trkpt>
      <trkpt lat="48.77678" lon="-3.08636">
        <ele>47.59139</ele>
        <time>2023-03-24T17:10:47.709Z</time>
      </trkpt>
      <trkpt lat="48.77682" lon="-3.08649">
        <ele>47.560473</ele>
        <time>2023-03-24T17:10:50.288Z</time>
      </trkpt>
      <trkpt lat="48.77682" lon="-3.08728">
        <ele>47.381265</ele>
        <time>2023-03-24T17:11:06.681Z</time>
      </trkpt>
      <trkpt lat="48.77679" lon="-3.08784">
        <ele>47.253982</ele>
        <time>2023-03-24T17:11:17.576Z</time>
      </trkpt>
      <trkpt lat="48.77684" lon="-3.08812">
        <ele>46.906291</ele>
        <time>2023-03-24T17:11:23.198Z</time>
      </trkpt>
      <trkpt lat="48.7769" lon="-3.08875">
        <ele>45.977925</ele>
        <time>2023-03-24T17:11:34.920Z</time>
      </trkpt>
      <trkpt lat="48.7769" lon="-3.08905">
        <ele>45.532613</ele>
        <time>2023-03-24T17:11:40.469Z</time>
      </trkpt>
      <trkpt lat="48.77682" lon="-3.09018">
        <ele>43.877608</ele>
        <time>2023-03-24T17:12:00.337Z</time>
      </trkpt>
      <trkpt lat="48.77716" lon="-3.09213">
        <ele>39.412861</ele>
        <time>2023-03-24T17:12:20.396Z</time>
      </trkpt>
      <trkpt lat="48.7772" lon="-3.09282">
        <ele>37.718602</ele>
        <time>2023-03-24T17:12:27.122Z</time>
      </trkpt>
      <trkpt lat="48.77722" lon="-3.09417">
        <ele>34.222289</ele>
        <time>2023-03-24T17:12:40.173Z</time>
      </trkpt>
      <trkpt lat="48.77724" lon="-3.09543">
        <ele>30.836092</ele>
        <time>2023-03-24T17:12:52.542Z</time>
      </trkpt>
      <trkpt lat="48.7773" lon="-3.09643">
        <ele>27.831066</ele>
        <time>2023-03-24T17:13:02.222Z</time>
      </trkpt>
      <trkpt lat="48.77735" lon="-3.09667">
        <ele>26.975928</ele>
        <time>2023-03-24T17:13:04.462Z</time>
      </trkpt>
      <trkpt lat="48.77744" lon="-3.09703">
        <ele>25.675279</ele>
        <time>2023-03-24T17:13:08.138Z</time>
      </trkpt>
      <trkpt lat="48.7773" lon="-3.09755">
        <ele>23.747601</ele>
        <time>2023-03-24T17:13:13.385Z</time>
      </trkpt>
      <trkpt lat="48.77711" lon="-3.09789">
        <ele>22.220617</ele>
        <time>2023-03-24T17:13:17.600Z</time>
      </trkpt>
      <trkpt lat="48.777" lon="-3.09798">
        <ele>21.586971</ele>
        <time>2023-03-24T17:13:19.216Z</time>
      </trkpt>
      <trkpt lat="48.77677" lon="-3.09818">
        <ele>20.219336</ele>
        <time>2023-03-24T17:13:22.938Z</time>
      </trkpt>
      <trkpt lat="48.77666" lon="-3.0983">
        <ele>19.462293</ele>
        <time>2023-03-24T17:13:24.630Z</time>
      </trkpt>
      <trkpt lat="48.77658" lon="-3.09851">
        <ele>18.570048</ele>
        <time>2023-03-24T17:13:26.735Z</time>
      </trkpt>
      <trkpt lat="48.77643" lon="-3.09979">
        <ele>13.751707</ele>
        <time>2023-03-24T17:13:37.647Z</time>
      </trkpt>
      <trkpt lat="48.77637" lon="-3.10008">
        <ele>12.610866</ele>
        <time>2023-03-24T17:13:40.299Z</time>
      </trkpt>
      <trkpt lat="48.77635" lon="-3.10019">
        <ele>12.202215</ele>
        <time>2023-03-24T17:13:41.352Z</time>
      </trkpt>
      <trkpt lat="48.77632" lon="-3.10038">
        <ele>11.452769</ele>
        <time>2023-03-24T17:13:43.199Z</time>
      </trkpt>
      <trkpt lat="48.77627" lon="-3.10091">
        <ele>9.68937</ele>
        <time>2023-03-24T17:13:48.308Z</time>
      </trkpt>
      <trkpt lat="48.77623" lon="-3.10101">
        <ele>9.484686</ele>
        <time>2023-03-24T17:13:49.508Z</time>
      </trkpt>
      <trkpt lat="48.77614" lon="-3.10106">
        <ele>9.257976</ele>
        <time>2023-03-24T17:13:50.824Z</time>
      </trkpt>
      <trkpt lat="48.77559" lon="-3.10081">
        <ele>7.800842</ele>
        <time>2023-03-24T17:13:59.802Z</time>
      </trkpt>
      <trkpt lat="48.77554" lon="-3.101">
        <ele>7.454816</ele>
        <time>2023-03-24T17:14:03.394Z</time>
      </trkpt>
      <trkpt lat="48.7755" lon="-3.10105">
        <ele>7.333678</ele>
        <time>2023-03-24T17:14:04.728Z</time>
      </trkpt>
      <trkpt lat="48.77531" lon="-3.10113">
        <ele>6.833597</ele>
        <time>2023-03-24T17:14:10.212Z</time>
      </trkpt>
      <trkpt lat="48.77478" lon="-3.10109">
        <ele>5.49392</ele>
        <time>2023-03-24T17:14:25.447Z</time>
      </trkpt>
      <trkpt lat="48.77464" lon="-3.10094">
        <ele>5.245865</ele>
        <time>2023-03-24T17:14:30.645Z</time>
      </trkpt>
      <trkpt lat="48.77422" lon="-3.10089">
        <ele>4.892206</ele>
        <time>2023-03-24T17:14:43.073Z</time>
      </trkpt>
      <trkpt lat="48.77384" lon="-3.10098">
        <ele>4.564119</ele>
        <time>2023-03-24T17:14:54.650Z</time>
      </trkpt>
      <trkpt lat="48.77368" lon="-3.10108">
        <ele>4.421145</ele>
        <time>2023-03-24T17:14:59.688Z</time>
      </trkpt>
      <trkpt lat="48.77362" lon="-3.10127">
        <ele>4.304323</ele>
        <time>2023-03-24T17:15:03.850Z</time>
      </trkpt>
      <trkpt lat="48.77357" lon="-3.10133">
        <ele>4.252558</ele>
        <time>2023-03-24T17:15:05.663Z</time>
      </trkpt>
      <trkpt lat="48.77331" lon="-3.10136">
        <ele>4.035603</ele>
        <time>2023-03-24T17:15:13.290Z</time>
      </trkpt>
      <trkpt lat="48.77315" lon="-3.10145">
        <ele>3.888106</ele>
        <time>2023-03-24T17:15:18.479Z</time>
      </trkpt>
      <trkpt lat="48.77269" lon="-3.10125">
        <ele>3.661226</ele>
        <time>2023-03-24T17:15:32.591Z</time>
      </trkpt>
      <trkpt lat="48.77256" lon="-3.10113">
        <ele>3.599342</ele>
        <time>2023-03-24T17:15:37.202Z</time>
      </trkpt>
      <trkpt lat="48.77229" lon="-3.10077">
        <ele>3.456605</ele>
        <time>2023-03-24T17:15:47.897Z</time>
      </trkpt>
      <trkpt lat="48.77194" lon="-3.10053">
        <ele>3.299356</ele>
        <time>2023-03-24T17:15:59.896Z</time>
      </trkpt>
      <trkpt lat="48.77186" lon="-3.10038">
        <ele>3.248771</ele>
        <time>2023-03-24T17:16:03.818Z</time>
      </trkpt>
      <trkpt lat="48.77097" lon="-3.09997">
        <ele>3.706464</ele>
        <time>2023-03-24T17:16:34.524Z</time>
      </trkpt>
      <trkpt lat="48.7705" lon="-3.0997">
        <ele>4.255402</ele>
        <time>2023-03-24T17:16:52.381Z</time>
      </trkpt>
      <trkpt lat="48.77036" lon="-3.09955">
        <ele>4.440261</ele>
        <time>2023-03-24T17:16:58.803Z</time>
      </trkpt>
      <trkpt lat="48.77021" lon="-3.09923">
        <ele>4.726124</ele>
        <time>2023-03-24T17:17:08.699Z</time>
      </trkpt>
      <trkpt lat="48.76985" lon="-3.09875">
        <ele>5.642384</ele>
        <time>2023-03-24T17:17:29.030Z</time>
      </trkpt>
      <trkpt lat="48.76942" lon="-3.09817">
        <ele>7.689323</ele>
        <time>2023-03-24T17:17:56.745Z</time>
      </trkpt>
      <trkpt lat="48.76889" lon="-3.09844">
        <ele>9.694356</ele>
        <time>2023-03-24T17:18:20.368Z</time>
      </trkpt>
      <trkpt lat="48.76876" lon="-3.09847">
        <ele>10.154786</ele>
        <time>2023-03-24T17:18:24.885Z</time>
      </trkpt>
      <trkpt lat="48.76867" lon="-3.09844">
        <ele>10.495979</ele>
        <time>2023-03-24T17:18:28.755Z</time>
      </trkpt>
      <trkpt lat="48.76854" lon="-3.0984">
        <ele>10.952993</ele>
        <time>2023-03-24T17:18:35.242Z</time>
      </trkpt>
      <trkpt lat="48.76736" lon="-3.09754">
        <ele>15.537863</ele>
        <time>2023-03-24T17:19:27.318Z</time>
      </trkpt>
      <trkpt lat="48.76729" lon="-3.09744">
        <ele>15.862589</ele>
        <time>2023-03-24T17:19:31.670Z</time>
      </trkpt>
      <trkpt lat="48.76725" lon="-3.09732">
        <ele>16.170838</ele>
        <time>2023-03-24T17:19:35.067Z</time>
      </trkpt>
      <trkpt lat="48.76725" lon="-3.09677">
        <ele>17.440327</ele>
        <time>2023-03-24T17:19:46.665Z</time>
      </trkpt>
      <trkpt lat="48.76723" lon="-3.09667">
        <ele>17.675255</ele>
        <time>2023-03-24T17:19:48.814Z</time>
      </trkpt>
      <trkpt lat="48.76714" lon="-3.09646">
        <ele>17.928552</ele>
        <time>2023-03-24T17:19:53.674Z</time>
      </trkpt>
      <trkpt lat="48.76695" lon="-3.09618">
        <ele>18.287684</ele>
        <time>2023-03-24T17:20:01.692Z</time>
      </trkpt>
      <trkpt lat="48.7668" lon="-3.09757">
        <ele>19.542208</ele>
        <time>2023-03-24T17:20:26.471Z</time>
      </trkpt>
      <trkpt lat="48.7665" lon="-3.09887">
        <ele>19.854221</ele>
        <time>2023-03-24T17:20:48.027Z</time>
      </trkpt>
      <trkpt lat="48.76613" lon="-3.1005">
        <ele>19.095961</ele>
        <time>2023-03-24T17:21:07.712Z</time>
      </trkpt>
      <trkpt lat="48.76587" lon="-3.10166">
        <ele>18.998992</ele>
        <time>2023-03-24T17:21:22.230Z</time>
      </trkpt>
      <trkpt lat="48.76582" lon="-3.10186">
        <ele>19.00959</ele>
        <time>2023-03-24T17:21:25.004Z</time>
      </trkpt>
      <trkpt lat="48.76577" lon="-3.1021">
        <ele>19.022397</ele>
        <time>2023-03-24T17:21:28.252Z</time>
      </trkpt>
      <trkpt lat="48.76565" lon="-3.10263">
        <ele>19.050152</ele>
        <time>2023-03-24T17:21:35.626Z</time>
      </trkpt>
      <trkpt lat="48.76556" lon="-3.10299">
        <ele>19.06961</ele>
        <time>2023-03-24T17:21:41.052Z</time>
      </trkpt>
      <trkpt lat="48.76526" lon="-3.10373">
        <ele>20.272787</ele>
        <time>2023-03-24T17:21:57.087Z</time>
      </trkpt>
      <trkpt lat="48.76512" lon="-3.10393">
        <ele>21.053721</ele>
        <time>2023-03-24T17:22:04.031Z</time>
      </trkpt>
      <trkpt lat="48.76499" lon="-3.10403">
        <ele>21.616544</ele>
        <time>2023-03-24T17:22:09.844Z</time>
      </trkpt>
      <trkpt lat="48.76471" lon="-3.10414">
        <ele>22.754206</ele>
        <time>2023-03-24T17:22:22.569Z</time>
      </trkpt>
      <trkpt lat="48.76464" lon="-3.1042">
        <ele>23.075978</ele>
        <time>2023-03-24T17:22:26.296Z</time>
      </trkpt>
      <trkpt lat="48.76428" lon="-3.10487">
        <ele>25.3619</ele>
        <time>2023-03-24T17:22:53.299Z</time>
      </trkpt>
      <trkpt lat="48.76368" lon="-3.10567">
        <ele>28.755708</ele>
        <time>2023-03-24T17:23:28.663Z</time>
      </trkpt>
      <trkpt lat="48.76336" lon="-3.10599">
        <ele>30.41458</ele>
        <time>2023-03-24T17:23:45.196Z</time>
      </trkpt>
      <trkpt lat="48.76284" lon="-3.10651">
        <ele>33.158939</ele>
        <time>2023-03-24T17:24:11.509Z</time>
      </trkpt>
      <trkpt lat="48.76238" lon="-3.10683">
        <ele>34.737321</ele>
        <time>2023-03-24T17:24:30.367Z</time>
      </trkpt>
      <trkpt lat="48.76212" lon="-3.10706">
        <ele>35.383868</ele>
        <time>2023-03-24T17:24:40.462Z</time>
      </trkpt>
      <trkpt lat="48.76206" lon="-3.10726">
        <ele>35.684709</ele>
        <time>2023-03-24T17:24:44.826Z</time>
      </trkpt>
      <trkpt lat="48.76113" lon="-3.1091">
        <ele>38.304412</ele>
        <time>2023-03-24T17:25:27.201Z</time>
      </trkpt>
      <trkpt lat="48.76101" lon="-3.10929">
        <ele>38.432802</ele>
        <time>2023-03-24T17:25:31.589Z</time>
      </trkpt>
      <trkpt lat="48.76053" lon="-3.10974">
        <ele>38.830628</ele>
        <time>2023-03-24T17:25:44.442Z</time>
      </trkpt>
      <trkpt lat="48.76032" lon="-3.1098">
        <ele>38.986729</ele>
        <time>2023-03-24T17:25:49.358Z</time>
      </trkpt>
      <trkpt lat="48.76009" lon="-3.10995">
        <ele>39.161763</ele>
        <time>2023-03-24T17:25:54.649Z</time>
      </trkpt>
      <trkpt lat="48.75972" lon="-3.11066">
        <ele>39.262953</ele>
        <time>2023-03-24T17:26:06.656Z</time>
      </trkpt>
      <trkpt lat="48.75964" lon="-3.11092">
        <ele>39.264346</ele>
        <time>2023-03-24T17:26:10.463Z</time>
      </trkpt>
      <trkpt lat="48.75947" lon="-3.11207">
        <ele>39.269984</ele>
        <time>2023-03-24T17:26:25.669Z</time>
      </trkpt>
      <trkpt lat="48.75934" lon="-3.11255">
        <ele>39.272475</ele>
        <time>2023-03-24T17:26:32.387Z</time>
      </trkpt>
      <trkpt lat="48.75905" lon="-3.11337">
        <ele>40.424401</ele>
        <time>2023-03-24T17:26:46.780Z</time>
      </trkpt>
      <trkpt lat="48.75888" lon="-3.11371">
        <ele>40.98578</ele>
        <time>2023-03-24T17:26:54.404Z</time>
      </trkpt>
      <trkpt lat="48.75874" lon="-3.11389">
        <ele>41.351179</ele>
        <time>2023-03-24T17:26:59.895Z</time>
      </trkpt>
      <trkpt lat="48.75828" lon="-3.11426">
        <ele>42.385918</ele>
        <time>2023-03-24T17:27:17.047Z</time>
      </trkpt>
      <trkpt lat="48.75808" lon="-3.11438">
        <ele>42.8158</ele>
        <time>2023-03-24T17:27:25.756Z</time>
      </trkpt>
      <trkpt lat="48.75804" lon="-3.11445">
        <ele>43.120434</ele>
        <time>2023-03-24T17:27:27.946Z</time>
      </trkpt>
      <trkpt lat="48.75786" lon="-3.11484">
        <ele>44.997041</ele>
        <time>2023-03-24T17:27:42.935Z</time>
      </trkpt>
      <trkpt lat="48.7577" lon="-3.1152">
        <ele>46.644297</ele>
        <time>2023-03-24T17:27:55.190Z</time>
      </trkpt>
      <trkpt lat="48.75757" lon="-3.11523">
        <ele>47.462223</ele>
        <time>2023-03-24T17:28:01.647Z</time>
      </trkpt>
      <trkpt lat="48.75743" lon="-3.1152">
        <ele>48.295611</ele>
        <time>2023-03-24T17:28:07.150Z</time>
      </trkpt>
      <trkpt lat="48.75732" lon="-3.11506">
        <ele>49.144165</ele>
        <time>2023-03-24T17:28:14.911Z</time>
      </trkpt>
      <trkpt lat="48.75723" lon="-3.11501">
        <ele>49.723513</ele>
        <time>2023-03-24T17:28:18.815Z</time>
      </trkpt>
      <trkpt lat="48.75711" lon="-3.11504">
        <ele>50.401368</ele>
        <time>2023-03-24T17:28:25.210Z</time>
      </trkpt>
      <trkpt lat="48.75688" lon="-3.1153">
        <ele>52.098236</ele>
        <time>2023-03-24T17:28:42.488Z</time>
      </trkpt>
      <trkpt lat="48.75665" lon="-3.11553">
        <ele>53.823827</ele>
        <time>2023-03-24T17:29:00.763Z</time>
      </trkpt>
      <trkpt lat="48.75649" lon="-3.1156">
        <ele>55.112602</ele>
        <time>2023-03-24T17:29:09.943Z</time>
      </trkpt>
      <trkpt lat="48.7562" lon="-3.11564">
        <ele>57.391855</ele>
        <time>2023-03-24T17:29:28.178Z</time>
      </trkpt>
      <trkpt lat="48.75605" lon="-3.1156">
        <ele>58.550494</ele>
        <time>2023-03-24T17:29:38.372Z</time>
      </trkpt>
      <trkpt lat="48.7559" lon="-3.1155">
        <ele>59.807421</ele>
        <time>2023-03-24T17:29:47.731Z</time>
      </trkpt>
      <trkpt lat="48.75568" lon="-3.11525">
        <ele>61.957319</ele>
        <time>2023-03-24T17:30:05.603Z</time>
      </trkpt>
      <trkpt lat="48.75527" lon="-3.11553">
        <ele>65.486099</ele>
        <time>2023-03-24T17:30:36.899Z</time>
      </trkpt>
      <trkpt lat="48.75457" lon="-3.11623">
        <ele>70.190836</ele>
        <time>2023-03-24T17:31:30.662Z</time>
      </trkpt>
      <trkpt lat="48.75423" lon="-3.11684">
        <ele>72.660475</ele>
        <time>2023-03-24T17:32:00.253Z</time>
      </trkpt>
      <trkpt lat="48.75401" lon="-3.11736">
        <ele>74.556318</ele>
        <time>2023-03-24T17:32:19.392Z</time>
      </trkpt>
      <trkpt lat="48.75393" lon="-3.11764">
        <ele>75.481187</ele>
        <time>2023-03-24T17:32:28.647Z</time>
      </trkpt>
      <trkpt lat="48.75382" lon="-3.11782">
        <ele>76.056686</ele>
        <time>2023-03-24T17:32:36.280Z</time>
      </trkpt>
      <trkpt lat="48.75318" lon="-3.11837">
        <ele>77.628593</ele>
        <time>2023-03-24T17:33:08.448Z</time>
      </trkpt>
      <trkpt lat="48.7529" lon="-3.11867">
        <ele>78.363816</ele>
        <time>2023-03-24T17:33:22.519Z</time>
      </trkpt>
      <trkpt lat="48.75243" lon="-3.11931">
        <ele>79.703498</ele>
        <time>2023-03-24T17:33:48.112Z</time>
      </trkpt>
      <trkpt lat="48.75164" lon="-3.12039">
        <ele>81.100481</ele>
        <time>2023-03-24T17:34:29.975Z</time>
      </trkpt>
      <trkpt lat="48.74965" lon="-3.12254">
        <ele>83.569905</ele>
        <time>2023-03-24T17:35:58.480Z</time>
      </trkpt>
      <trkpt lat="48.7488" lon="-3.12338">
        <ele>83.657964</ele>
        <time>2023-03-24T17:36:34.758Z</time>
      </trkpt>
      <trkpt lat="48.74805" lon="-3.12412">
        <ele>83.629943</ele>
        <time>2023-03-24T17:37:02.094Z</time>
      </trkpt>
      <trkpt lat="48.7486" lon="-3.1246">
        <ele>81.941264</ele>
        <time>2023-03-24T17:37:19.461Z</time>
      </trkpt>
      <trkpt lat="48.74918" lon="-3.12515">
        <ele>80.095647</ele>
        <time>2023-03-24T17:37:37.174Z</time>
      </trkpt>
      <trkpt lat="48.75046" lon="-3.12635">
        <ele>75.975825</ele>
        <time>2023-03-24T17:38:15.462Z</time>
      </trkpt>
      <trkpt lat="48.74954" lon="-3.12842">
        <ele>72.26834</ele>
        <time>2023-03-24T17:39:01.214Z</time>
      </trkpt>
      <trkpt lat="48.74921" lon="-3.12912">
        <ele>71.249986</ele>
        <time>2023-03-24T17:39:17.004Z</time>
      </trkpt>
      <trkpt lat="48.74901" lon="-3.12954">
        <ele>70.630454</ele>
        <time>2023-03-24T17:39:26.318Z</time>
      </trkpt>
      <trkpt lat="48.74821" lon="-3.13127">
        <ele>68.69772</ele>
        <time>2023-03-24T17:40:04.934Z</time>
      </trkpt>
      <trkpt lat="48.74774" lon="-3.13225">
        <ele>68.222563</ele>
        <time>2023-03-24T17:40:29.280Z</time>
      </trkpt>
      <trkpt lat="48.74772" lon="-3.13235">
        <ele>68.240486</ele>
        <time>2023-03-24T17:40:31.727Z</time>
      </trkpt>
      <trkpt lat="48.74764" lon="-3.13242">
        <ele>68.265164</ele>
        <time>2023-03-24T17:40:34.191Z</time>
      </trkpt>
      <trkpt lat="48.74707" lon="-3.13253">
        <ele>68.418323</ele>
        <time>2023-03-24T17:40:48.286Z</time>
      </trkpt>
      <trkpt lat="48.74632" lon="-3.13259">
        <ele>68.522935</ele>
        <time>2023-03-24T17:41:04.684Z</time>
      </trkpt>
      <trkpt lat="48.74627" lon="-3.13266">
        <ele>68.453123</ele>
        <time>2023-03-24T17:41:06.474Z</time>
      </trkpt>
      <trkpt lat="48.74626" lon="-3.13274">
        <ele>68.401597</ele>
        <time>2023-03-24T17:41:07.386Z</time>
      </trkpt>
      <trkpt lat="48.7463" lon="-3.13281">
        <ele>68.338506</ele>
        <time>2023-03-24T17:41:09.493Z</time>
      </trkpt>
      <trkpt lat="48.74642" lon="-3.13284">
        <ele>68.214778</ele>
        <time>2023-03-24T17:41:11.406Z</time>
      </trkpt>
      <trkpt lat="48.74659" lon="-3.13304">
        <ele>67.989035</ele>
        <time>2023-03-24T17:41:18.118Z</time>
      </trkpt>
      <trkpt lat="48.74731" lon="-3.13385">
        <ele>67.06431</ele>
        <time>2023-03-24T17:41:43.130Z</time>
      </trkpt>
      <trkpt lat="48.74767" lon="-3.13416">
        <ele>66.769953</ele>
        <time>2023-03-24T17:41:54.766Z</time>
      </trkpt>
      <trkpt lat="48.74794" lon="-3.13451">
        <ele>66.853447</ele>
        <time>2023-03-24T17:42:05.010Z</time>
      </trkpt>
      <trkpt lat="48.74807" lon="-3.13514">
        <ele>66.955531</ele>
        <time>2023-03-24T17:42:19.612Z</time>
      </trkpt>
      <trkpt lat="48.74775" lon="-3.13641">
        <ele>67.165139</ele>
        <time>2023-03-24T17:42:55.462Z</time>
      </trkpt>
      <trkpt lat="48.74736" lon="-3.1374">
        <ele>64.549817</ele>
        <time>2023-03-24T17:43:19.031Z</time>
      </trkpt>
      <trkpt lat="48.74705" lon="-3.13854">
        <ele>61.715225</ele>
        <time>2023-03-24T17:43:38.670Z</time>
      </trkpt>
      <trkpt lat="48.74603" lon="-3.14048">
        <ele>50.140592</ele>
        <time>2023-03-24T17:44:14.507Z</time>
      </trkpt>
      <trkpt lat="48.74574" lon="-3.14084">
        <ele>47.206947</ele>
        <time>2023-03-24T17:44:23.187Z</time>
      </trkpt>
      <trkpt lat="48.74539" lon="-3.14108">
        <ele>46.41017</ele>
        <time>2023-03-24T17:44:32.196Z</time>
      </trkpt>
      <trkpt lat="48.74497" lon="-3.14068">
        <ele>45.526255</ele>
        <time>2023-03-24T17:44:45.660Z</time>
      </trkpt>
      <trkpt lat="48.74461" lon="-3.14088">
        <ele>44.857024</ele>
        <time>2023-03-24T17:44:57.864Z</time>
      </trkpt>
      <trkpt lat="48.74487" lon="-3.14164">
        <ele>43.869561</ele>
        <time>2023-03-24T17:45:18.454Z</time>
      </trkpt>
      <trkpt lat="48.7447" lon="-3.14211">
        <ele>44.238356</ele>
        <time>2023-03-24T17:45:32.382Z</time>
      </trkpt>
      <trkpt lat="48.74454" lon="-3.14247">
        <ele>44.53551</ele>
        <time>2023-03-24T17:45:43.627Z</time>
      </trkpt>
      <trkpt lat="48.74412" lon="-3.14273">
        <ele>45.00904</ele>
        <time>2023-03-24T17:45:59.722Z</time>
      </trkpt>
      <trkpt lat="48.74383" lon="-3.14307">
        <ele>45.400904</ele>
        <time>2023-03-24T17:46:13.060Z</time>
      </trkpt>
      <trkpt lat="48.74359" lon="-3.14319">
        <ele>45.659753</ele>
        <time>2023-03-24T17:46:22.786Z</time>
      </trkpt>
      <trkpt lat="48.74342" lon="-3.14342">
        <ele>45.98577</ele>
        <time>2023-03-24T17:46:31.237Z</time>
      </trkpt>
      <trkpt lat="48.74327" lon="-3.1435">
        <ele>46.23284</ele>
        <time>2023-03-24T17:46:36.286Z</time>
      </trkpt>
      <trkpt lat="48.74311" lon="-3.14348">
        <ele>46.492618</ele>
        <time>2023-03-24T17:46:41.952Z</time>
      </trkpt>
      <trkpt lat="48.743" lon="-3.14352">
        <ele>46.674105</ele>
        <time>2023-03-24T17:46:45.888Z</time>
      </trkpt>
      <trkpt lat="48.74281" lon="-3.14348">
        <ele>46.982397</ele>
        <time>2023-03-24T17:46:53.068Z</time>
      </trkpt>
      <trkpt lat="48.7427" lon="-3.14354">
        <ele>47.166009</ele>
        <time>2023-03-24T17:46:57.432Z</time>
      </trkpt>
      <trkpt lat="48.74247" lon="-3.14343">
        <ele>47.555184</ele>
        <time>2023-03-24T17:47:06.769Z</time>
      </trkpt>
      <trkpt lat="48.74234" lon="-3.1435">
        <ele>47.779334</ele>
        <time>2023-03-24T17:47:12.407Z</time>
      </trkpt>
      <trkpt lat="48.74223" lon="-3.14347">
        <ele>47.957448</ele>
        <time>2023-03-24T17:47:16.985Z</time>
      </trkpt>
      <trkpt lat="48.74202" lon="-3.14353">
        <ele>48.310538</ele>
        <time>2023-03-24T17:47:26.327Z</time>
      </trkpt>
      <trkpt lat="48.74196" lon="-3.14349">
        <ele>48.412991</ele>
        <time>2023-03-24T17:47:29.019Z</time>
      </trkpt>
      <trkpt lat="48.74188" lon="-3.14324">
        <ele>48.776956</ele>
        <time>2023-03-24T17:47:37.740Z</time>
      </trkpt>
      <trkpt lat="48.74174" lon="-3.1431">
        <ele>49.29802</ele>
        <time>2023-03-24T17:47:45.873Z</time>
      </trkpt>
      <trkpt lat="48.74168" lon="-3.1429">
        <ele>49.74106</ele>
        <time>2023-03-24T17:47:53.024Z</time>
      </trkpt>
      <trkpt lat="48.74143" lon="-3.14252">
        <ele>50.847773</ele>
        <time>2023-03-24T17:48:10.710Z</time>
      </trkpt>
      <trkpt lat="48.74117" lon="-3.14232">
        <ele>51.763254</ele>
        <time>2023-03-24T17:48:25.284Z</time>
      </trkpt>
      <trkpt lat="48.74093" lon="-3.14238">
        <ele>52.500045</ele>
        <time>2023-03-24T17:48:36.880Z</time>
      </trkpt>
      <trkpt lat="48.74054" lon="-3.14263">
        <ele>53.812272</ele>
        <time>2023-03-24T17:48:57.380Z</time>
      </trkpt>
      <trkpt lat="48.74037" lon="-3.1426">
        <ele>54.256986</ele>
        <time>2023-03-24T17:49:05.387Z</time>
      </trkpt>
      <trkpt lat="48.7402" lon="-3.14243">
        <ele>54.353702</ele>
        <time>2023-03-24T17:49:14.760Z</time>
      </trkpt>
      <trkpt lat="48.73953" lon="-3.14243">
        <ele>54.662858</ele>
        <time>2023-03-24T17:49:40.930Z</time>
      </trkpt>
      <trkpt lat="48.73901" lon="-3.14294">
        <ele>54.947724</ele>
        <time>2023-03-24T17:49:59.996Z</time>
      </trkpt>
      <trkpt lat="48.73882" lon="-3.14302">
        <ele>55.037031</ele>
        <time>2023-03-24T17:50:05.447Z</time>
      </trkpt>
      <trkpt lat="48.7386" lon="-3.14305">
        <ele>54.542271</ele>
        <time>2023-03-24T17:50:11.420Z</time>
      </trkpt>
      <trkpt lat="48.73849" lon="-3.14311">
        <ele>54.145223</ele>
        <time>2023-03-24T17:50:14.557Z</time>
      </trkpt>
      <trkpt lat="48.73812" lon="-3.14343">
        <ele>52.675781</ele>
        <time>2023-03-24T17:50:25.716Z</time>
      </trkpt>
      <trkpt lat="48.73741" lon="-3.1437">
        <ele>50.181546</ele>
        <time>2023-03-24T17:50:44.491Z</time>
      </trkpt>
      <trkpt lat="48.73731" lon="-3.14362">
        <ele>49.781476</ele>
        <time>2023-03-24T17:50:47.122Z</time>
      </trkpt>
      <trkpt lat="48.73718" lon="-3.14345">
        <ele>49.221599</ele>
        <time>2023-03-24T17:50:51.901Z</time>
      </trkpt>
      <trkpt lat="48.73718" lon="-3.14345">
        <ele>49.221599</ele>
        <time>2023-03-24T17:50:52.009Z</time>
      </trkpt>
      <trkpt lat="48.73718" lon="-3.14345">
        <ele>49.221599</ele>
        <time>2023-03-24T17:50:52.009Z</time>
      </trkpt>
      <trkpt lat="48.73728" lon="-3.14347">
        <ele>48.899533</ele>
        <time>2023-03-24T17:50:56.214Z</time>
      </trkpt>
      <trkpt lat="48.73727" lon="-3.1434">
        <ele>48.814607</ele>
        <time>2023-03-24T17:50:58.147Z</time>
      </trkpt>
      <trkpt lat="48.73727" lon="-3.14338">
        <ele>48.782072</ele>
        <time>2023-03-24T17:50:58.878Z</time>
      </trkpt>
      <trkpt lat="48.73726" lon="-3.14336">
        <ele>48.75312</ele>
        <time>2023-03-24T17:50:59.514Z</time>
      </trkpt>
      <trkpt lat="48.73726" lon="-3.14333">
        <ele>48.713114</ele>
        <time>2023-03-24T17:51:00.395Z</time>
      </trkpt>
      <trkpt lat="48.73726" lon="-3.14329">
        <ele>48.665432</ele>
        <time>2023-03-24T17:51:01.442Z</time>
      </trkpt>
      <trkpt lat="48.73727" lon="-3.14325">
        <ele>48.611747</ele>
        <time>2023-03-24T17:51:02.621Z</time>
      </trkpt>
      <trkpt lat="48.73727" lon="-3.14316">
        <ele>48.496087</ele>
        <time>2023-03-24T17:51:05.162Z</time>
      </trkpt>
      <trkpt lat="48.73728" lon="-3.14312">
        <ele>48.436704</ele>
        <time>2023-03-24T17:51:06.467Z</time>
      </trkpt>
      <trkpt lat="48.73727" lon="-3.14309">
        <ele>48.404359</ele>
        <time>2023-03-24T17:51:07.178Z</time>
      </trkpt>
      <trkpt lat="48.73728" lon="-3.14306">
        <ele>48.364616</ele>
        <time>2023-03-24T17:51:08.067Z</time>
      </trkpt>
      <trkpt lat="48.73728" lon="-3.14304">
        <ele>48.328182</ele>
        <time>2023-03-24T17:51:08.868Z</time>
      </trkpt>
      <trkpt lat="48.73726" lon="-3.14302">
        <ele>48.294393</ele>
        <time>2023-03-24T17:51:09.613Z</time>
      </trkpt>
      <trkpt lat="48.73725" lon="-3.14301">
        <ele>48.267727</ele>
        <time>2023-03-24T17:51:10.208Z</time>
      </trkpt>
      <trkpt lat="48.73723" lon="-3.143">
        <ele>48.228252</ele>
        <time>2023-03-24T17:51:11.090Z</time>
      </trkpt>
      <trkpt lat="48.73721" lon="-3.143">
        <ele>48.183441</ele>
        <time>2023-03-24T17:51:12.098Z</time>
      </trkpt>
      <trkpt lat="48.73719" lon="-3.143">
        <ele>48.140118</ele>
        <time>2023-03-24T17:51:13.082Z</time>
      </trkpt>
      <trkpt lat="48.73716" lon="-3.14301">
        <ele>48.089423</ele>
        <time>2023-03-24T17:51:14.231Z</time>
      </trkpt>
      <trkpt lat="48.73716" lon="-3.14302">
        <ele>48.072987</ele>
        <time>2023-03-24T17:51:14.593Z</time>
      </trkpt>
      <trkpt lat="48.73714" lon="-3.14303">
        <ele>48.041016</ele>
        <time>2023-03-24T17:51:15.296Z</time>
      </trkpt>
      <trkpt lat="48.73712" lon="-3.14306">
        <ele>47.987395</ele>
        <time>2023-03-24T17:51:16.475Z</time>
      </trkpt>
      <trkpt lat="48.7371" lon="-3.14308">
        <ele>47.940738</ele>
        <time>2023-03-24T17:51:17.500Z</time>
      </trkpt>
      <trkpt lat="48.73708" lon="-3.14309">
        <ele>47.890043</ele>
        <time>2023-03-24T17:51:18.614Z</time>
      </trkpt>
      <trkpt lat="48.73704" lon="-3.14309">
        <ele>47.827078</ele>
        <time>2023-03-24T17:51:19.997Z</time>
      </trkpt>
      <trkpt lat="48.73701" lon="-3.1431">
        <ele>47.76464</ele>
        <time>2023-03-24T17:51:21.369Z</time>
      </trkpt>
      <trkpt lat="48.73695" lon="-3.14312">
        <ele>47.647212</ele>
        <time>2023-03-24T17:51:23.959Z</time>
      </trkpt>
      <trkpt lat="48.73693" lon="-3.14314">
        <ele>47.588474</ele>
        <time>2023-03-24T17:51:25.251Z</time>
      </trkpt>
      <trkpt lat="48.7369" lon="-3.14315">
        <ele>47.534897</ele>
        <time>2023-03-24T17:51:26.446Z</time>
      </trkpt>
      <trkpt lat="48.73685" lon="-3.14314">
        <ele>47.437219</ele>
        <time>2023-03-24T17:51:28.644Z</time>
      </trkpt>
      <trkpt lat="48.73682" lon="-3.14314">
        <ele>47.384247</ele>
        <time>2023-03-24T17:51:29.829Z</time>
      </trkpt>
      <trkpt lat="48.73678" lon="-3.14312">
        <ele>47.293347</ele>
        <time>2023-03-24T17:51:31.836Z</time>
      </trkpt>
      <trkpt lat="48.73675" lon="-3.14313">
        <ele>47.243837</ele>
        <time>2023-03-24T17:51:32.927Z</time>
      </trkpt>
      <trkpt lat="48.73671" lon="-3.14316">
        <ele>47.153422</ele>
        <time>2023-03-24T17:51:34.919Z</time>
      </trkpt>
      <trkpt lat="48.73669" lon="-3.14316">
        <ele>47.108465</ele>
        <time>2023-03-24T17:51:35.910Z</time>
      </trkpt>
      <trkpt lat="48.73664" lon="-3.14316">
        <ele>47.022162</ele>
        <time>2023-03-24T17:51:37.812Z</time>
      </trkpt>
      <trkpt lat="48.73655" lon="-3.14311">
        <ele>46.82685</ele>
        <time>2023-03-24T17:51:42.101Z</time>
      </trkpt>
      <trkpt lat="48.73652" lon="-3.1431">
        <ele>46.769446</ele>
        <time>2023-03-24T17:51:43.398Z</time>
      </trkpt>
      <trkpt lat="48.73649" lon="-3.14311">
        <ele>46.714857</ele>
        <time>2023-03-24T17:51:44.633Z</time>
      </trkpt>
      <trkpt lat="48.73646" lon="-3.14312">
        <ele>46.658835</ele>
        <time>2023-03-24T17:51:45.868Z</time>
      </trkpt>
      <trkpt lat="48.73639" lon="-3.14316">
        <ele>46.514973</ele>
        <time>2023-03-24T17:51:49.037Z</time>
      </trkpt>
      <trkpt lat="48.73637" lon="-3.14316">
        <ele>46.473357</ele>
        <time>2023-03-24T17:51:49.954Z</time>
      </trkpt>
      <trkpt lat="48.73635" lon="-3.14316">
        <ele>46.434386</ele>
        <time>2023-03-24T17:51:50.813Z</time>
      </trkpt>
      <trkpt lat="48.73633" lon="-3.14316">
        <ele>46.401056</ele>
        <time>2023-03-24T17:51:51.547Z</time>
      </trkpt>
      <trkpt lat="48.73632" lon="-3.14317">
        <ele>46.36675</ele>
        <time>2023-03-24T17:51:52.303Z</time>
      </trkpt>
      <trkpt lat="48.73629" lon="-3.14317">
        <ele>46.317911</ele>
        <time>2023-03-24T17:51:53.380Z</time>
      </trkpt>
      <trkpt lat="48.73629" lon="-3.14318">
        <ele>46.311489</ele>
        <time>2023-03-24T17:51:53.521Z</time>
      </trkpt>
      <trkpt lat="48.7363" lon="-3.14316">
        <ele>46.282476</ele>
        <time>2023-03-24T17:51:54.188Z</time>
      </trkpt>
      <trkpt lat="48.73633" lon="-3.14314">
        <ele>46.213266</ele>
        <time>2023-03-24T17:51:55.714Z</time>
      </trkpt>
      <trkpt lat="48.73645" lon="-3.14314">
        <ele>45.983432</ele>
        <time>2023-03-24T17:52:00.863Z</time>
      </trkpt>
      <trkpt lat="48.73652" lon="-3.14267">
        <ele>45.4766</ele>
        <time>2023-03-24T17:52:17.284Z</time>
      </trkpt>
      <trkpt lat="48.73675" lon="-3.14224">
        <ele>46.568916</ele>
        <time>2023-03-24T17:52:30.015Z</time>
      </trkpt>
      <trkpt lat="48.7369" lon="-3.14189">
        <ele>47.410976</ele>
        <time>2023-03-24T17:52:48.574Z</time>
      </trkpt>
      <trkpt lat="48.73672" lon="-3.14178">
        <ele>47.991508</ele>
        <time>2023-03-24T17:52:53.056Z</time>
      </trkpt>
      <trkpt lat="48.73646" lon="-3.14105">
        <ele>49.627521</ele>
        <time>2023-03-24T17:53:24.629Z</time>
      </trkpt>
      <trkpt lat="48.73633" lon="-3.14075">
        <ele>50.352355</ele>
        <time>2023-03-24T17:53:39.399Z</time>
      </trkpt>
      <trkpt lat="48.73635" lon="-3.14061">
        <ele>50.63002</ele>
        <time>2023-03-24T17:53:45.943Z</time>
      </trkpt>
      <trkpt lat="48.73633" lon="-3.14009">
        <ele>51.821726</ele>
        <time>2023-03-24T17:54:05.947Z</time>
      </trkpt>
      <trkpt lat="48.73618" lon="-3.13902">
        <ele>54.444308</ele>
        <time>2023-03-24T17:54:37.537Z</time>
      </trkpt>
      <trkpt lat="48.73623" lon="-3.13879">
        <ele>55.01464</ele>
        <time>2023-03-24T17:54:45.314Z</time>
      </trkpt>
      <trkpt lat="48.73619" lon="-3.13861">
        <ele>55.461544</ele>
        <time>2023-03-24T17:54:51.809Z</time>
      </trkpt>
      <trkpt lat="48.7362" lon="-3.13851">
        <ele>55.711903</ele>
        <time>2023-03-24T17:54:55.174Z</time>
      </trkpt>
      <trkpt lat="48.73625" lon="-3.1384">
        <ele>56.026744</ele>
        <time>2023-03-24T17:54:59.508Z</time>
      </trkpt>
      <trkpt lat="48.73625" lon="-3.13832">
        <ele>56.218239</ele>
        <time>2023-03-24T17:55:02.234Z</time>
      </trkpt>
      <trkpt lat="48.73606" lon="-3.13788">
        <ele>57.370747</ele>
        <time>2023-03-24T17:55:19.534Z</time>
      </trkpt>
      <trkpt lat="48.73606" lon="-3.13754">
        <ele>57.694289</ele>
        <time>2023-03-24T17:55:30.853Z</time>
      </trkpt>
      <trkpt lat="48.73618" lon="-3.13718">
        <ele>58.076497</ele>
        <time>2023-03-24T17:55:43.029Z</time>
      </trkpt>
      <trkpt lat="48.73621" lon="-3.13683">
        <ele>58.408572</ele>
        <time>2023-03-24T17:55:52.975Z</time>
      </trkpt>
      <trkpt lat="48.73616" lon="-3.13652">
        <ele>58.711054</ele>
        <time>2023-03-24T17:56:01.881Z</time>
      </trkpt>
      <trkpt lat="48.73574" lon="-3.13551">
        <ele>59.83977</ele>
        <time>2023-03-24T17:56:28.565Z</time>
      </trkpt>
      <trkpt lat="48.73563" lon="-3.13506">
        <ele>58.786252</ele>
        <time>2023-03-24T17:56:37.821Z</time>
      </trkpt>
      <trkpt lat="48.73561" lon="-3.13492">
        <ele>58.396808</ele>
        <time>2023-03-24T17:56:40.552Z</time>
      </trkpt>
      <trkpt lat="48.73565" lon="-3.13476">
        <ele>57.962106</ele>
        <time>2023-03-24T17:56:43.545Z</time>
      </trkpt>
      <trkpt lat="48.73589" lon="-3.13461">
        <ele>56.960735</ele>
        <time>2023-03-24T17:56:49.926Z</time>
      </trkpt>
      <trkpt lat="48.73593" lon="-3.13451">
        <ele>56.64896</ele>
        <time>2023-03-24T17:56:51.841Z</time>
      </trkpt>
      <trkpt lat="48.73578" lon="-3.13438">
        <ele>55.964275</ele>
        <time>2023-03-24T17:56:55.908Z</time>
      </trkpt>
      <trkpt lat="48.73528" lon="-3.13411">
        <ele>53.851288</ele>
        <time>2023-03-24T17:57:08.395Z</time>
      </trkpt>
      <trkpt lat="48.73516" lon="-3.13398">
        <ele>53.284699</ele>
        <time>2023-03-24T17:57:11.704Z</time>
      </trkpt>
      <trkpt lat="48.73496" lon="-3.13365">
        <ele>52.175465</ele>
        <time>2023-03-24T17:57:18.647Z</time>
      </trkpt>
      <trkpt lat="48.7346" lon="-3.13328">
        <ele>50.59981</ele>
        <time>2023-03-24T17:57:29.266Z</time>
      </trkpt>
      <trkpt lat="48.73455" lon="-3.13309">
        <ele>50.108128</ele>
        <time>2023-03-24T17:57:32.654Z</time>
      </trkpt>
      <trkpt lat="48.73448" lon="-3.13298">
        <ele>49.760652</ele>
        <time>2023-03-24T17:57:35.161Z</time>
      </trkpt>
      <trkpt lat="48.73446" lon="-3.13263">
        <ele>48.926741</ele>
        <time>2023-03-24T17:57:40.982Z</time>
      </trkpt>
      <trkpt lat="48.7343" lon="-3.13252">
        <ele>48.286583</ele>
        <time>2023-03-24T17:57:45.345Z</time>
      </trkpt>
      <trkpt lat="48.73411" lon="-3.13227">
        <ele>47.367388</ele>
        <time>2023-03-24T17:57:51.998Z</time>
      </trkpt>
      <trkpt lat="48.7339" lon="-3.13215">
        <ele>46.555738</ele>
        <time>2023-03-24T17:57:58.185Z</time>
      </trkpt>
      <trkpt lat="48.73373" lon="-3.13164">
        <ele>46.81067</ele>
        <time>2023-03-24T17:58:09.432Z</time>
      </trkpt>
      <trkpt lat="48.73361" lon="-3.13139">
        <ele>47.150158</ele>
        <time>2023-03-24T17:58:16.694Z</time>
      </trkpt>
      <trkpt lat="48.73348" lon="-3.13122">
        <ele>47.445372</ele>
        <time>2023-03-24T17:58:24.189Z</time>
      </trkpt>
      <trkpt lat="48.73319" lon="-3.13124">
        <ele>47.937534</ele>
        <time>2023-03-24T17:58:36.082Z</time>
      </trkpt>
      <trkpt lat="48.73295" lon="-3.13076">
        <ele>48.606263</ele>
        <time>2023-03-24T17:58:55.382Z</time>
      </trkpt>
      <trkpt lat="48.73275" lon="-3.13052">
        <ele>49.040309</ele>
        <time>2023-03-24T17:59:07.768Z</time>
      </trkpt>
      <trkpt lat="48.73248" lon="-3.13012">
        <ele>50.372008</ele>
        <time>2023-03-24T17:59:25.327Z</time>
      </trkpt>
      <trkpt lat="48.73244" lon="-3.12995">
        <ele>50.976078</ele>
        <time>2023-03-24T17:59:31.411Z</time>
      </trkpt>
      <trkpt lat="48.73244" lon="-3.12968">
        <ele>51.899925</ele>
        <time>2023-03-24T17:59:39.375Z</time>
      </trkpt>
      <trkpt lat="48.73255" lon="-3.12914">
        <ele>53.813736</ele>
        <time>2023-03-24T17:59:59.954Z</time>
      </trkpt>
      <trkpt lat="48.73254" lon="-3.12902">
        <ele>54.226024</ele>
        <time>2023-03-24T18:00:05.038Z</time>
      </trkpt>
      <trkpt lat="48.73242" lon="-3.12879">
        <ele>55.194868</ele>
        <time>2023-03-24T18:00:15.679Z</time>
      </trkpt>
      <trkpt lat="48.73239" lon="-3.12859">
        <ele>55.885802</ele>
        <time>2023-03-24T18:00:24.742Z</time>
      </trkpt>
      <trkpt lat="48.73239" lon="-3.12844">
        <ele>56.40407</ele>
        <time>2023-03-24T18:00:31.534Z</time>
      </trkpt>
      <trkpt lat="48.73248" lon="-3.12814">
        <ele>57.535664</ele>
        <time>2023-03-24T18:00:47.572Z</time>
      </trkpt>
      <trkpt lat="48.73287" lon="-3.12726">
        <ele>60.335312</ele>
        <time>2023-03-24T18:01:32.614Z</time>
      </trkpt>
      <trkpt lat="48.73295" lon="-3.12684">
        <ele>61.384315</ele>
        <time>2023-03-24T18:01:48.946Z</time>
      </trkpt>
      <trkpt lat="48.73298" lon="-3.12599">
        <ele>63.381195</ele>
        <time>2023-03-24T18:02:17.281Z</time>
      </trkpt>
      <trkpt lat="48.73238" lon="-3.12605">
        <ele>64.440638</ele>
        <time>2023-03-24T18:02:36.654Z</time>
      </trkpt>
      <trkpt lat="48.73218" lon="-3.12636">
        <ele>63.18441</ele>
        <time>2023-03-24T18:02:44.679Z</time>
      </trkpt>
      <trkpt lat="48.73158" lon="-3.12653">
        <ele>60.551341</ele>
        <time>2023-03-24T18:03:00.101Z</time>
      </trkpt>
      <trkpt lat="48.73132" lon="-3.12678">
        <ele>59.210814</ele>
        <time>2023-03-24T18:03:07.087Z</time>
      </trkpt>
      <trkpt lat="48.7311" lon="-3.12705">
        <ele>58.016729</ele>
        <time>2023-03-24T18:03:13.389Z</time>
      </trkpt>
      <trkpt lat="48.73081" lon="-3.12694">
        <ele>56.319077</ele>
        <time>2023-03-24T18:03:20.257Z</time>
      </trkpt>
      <trkpt lat="48.73027" lon="-3.12649">
        <ele>51.639414</ele>
        <time>2023-03-24T18:03:34.204Z</time>
      </trkpt>
      <trkpt lat="48.73022" lon="-3.12642">
        <ele>51.094273</ele>
        <time>2023-03-24T18:03:35.743Z</time>
      </trkpt>
      <trkpt lat="48.72994" lon="-3.12564">
        <ele>46.696015</ele>
        <time>2023-03-24T18:03:48.878Z</time>
      </trkpt>
      <trkpt lat="48.72961" lon="-3.12634">
        <ele>42.137423</ele>
        <time>2023-03-24T18:03:56.440Z</time>
      </trkpt>
      <trkpt lat="48.72941" lon="-3.12676">
        <ele>38.938188</ele>
        <time>2023-03-24T18:04:04.026Z</time>
      </trkpt>
      <trkpt lat="48.72872" lon="-3.128">
        <ele>28.96615</ele>
        <time>2023-03-24T18:04:26.660Z</time>
      </trkpt>
      <trkpt lat="48.72856" lon="-3.1281">
        <ele>27.327422</ele>
        <time>2023-03-24T18:04:30.562Z</time>
      </trkpt>
      <trkpt lat="48.72788" lon="-3.12809">
        <ele>23.478454</ele>
        <time>2023-03-24T18:04:45.912Z</time>
      </trkpt>
      <trkpt lat="48.72746" lon="-3.1281">
        <ele>21.23104</ele>
        <time>2023-03-24T18:04:51.626Z</time>
      </trkpt>
      <trkpt lat="48.72733" lon="-3.12808">
        <ele>20.516716</ele>
        <time>2023-03-24T18:04:53.406Z</time>
      </trkpt>
      <trkpt lat="48.72738" lon="-3.12771">
        <ele>19.180674</ele>
        <time>2023-03-24T18:04:57.370Z</time>
      </trkpt>
      <trkpt lat="48.72736" lon="-3.12692">
        <ele>17.71519</ele>
        <time>2023-03-24T18:05:05.771Z</time>
      </trkpt>
      <trkpt lat="48.72732" lon="-3.12614">
        <ele>19.137557</ele>
        <time>2023-03-24T18:05:21.700Z</time>
      </trkpt>
      <trkpt lat="48.72733" lon="-3.12584">
        <ele>19.698738</ele>
        <time>2023-03-24T18:05:27.494Z</time>
      </trkpt>
      <trkpt lat="48.72736" lon="-3.12559">
        <ele>20.165208</ele>
        <time>2023-03-24T18:05:36.336Z</time>
      </trkpt>
      <trkpt lat="48.72741" lon="-3.12544">
        <ele>20.468979</ele>
        <time>2023-03-24T18:05:40.770Z</time>
      </trkpt>
      <trkpt lat="48.72785" lon="-3.12518">
        <ele>21.771581</ele>
        <time>2023-03-24T18:06:00.223Z</time>
      </trkpt>
      <trkpt lat="48.72806" lon="-3.12498">
        <ele>22.684877</ele>
        <time>2023-03-24T18:06:11.929Z</time>
      </trkpt>
      <trkpt lat="48.72817" lon="-3.12482">
        <ele>23.608335</ele>
        <time>2023-03-24T18:06:18.984Z</time>
      </trkpt>
      <trkpt lat="48.72824" lon="-3.12465">
        <ele>24.396644</ele>
        <time>2023-03-24T18:06:26.136Z</time>
      </trkpt>
      <trkpt lat="48.72827" lon="-3.12443">
        <ele>25.289637</ele>
        <time>2023-03-24T18:06:32.975Z</time>
      </trkpt>
      <trkpt lat="48.72827" lon="-3.12424">
        <ele>26.02259</ele>
        <time>2023-03-24T18:06:40.220Z</time>
      </trkpt>
      <trkpt lat="48.72821" lon="-3.12358">
        <ele>28.644013</ele>
        <time>2023-03-24T18:07:01.901Z</time>
      </trkpt>
      <trkpt lat="48.72823" lon="-3.12321">
        <ele>30.099172</ele>
        <time>2023-03-24T18:07:13.581Z</time>
      </trkpt>
      <trkpt lat="48.72825" lon="-3.12312">
        <ele>30.443948</ele>
        <time>2023-03-24T18:07:16.489Z</time>
      </trkpt>
      <trkpt lat="48.72831" lon="-3.12273">
        <ele>32.003491</ele>
        <time>2023-03-24T18:07:29.819Z</time>
      </trkpt>
      <trkpt lat="48.72842" lon="-3.12238">
        <ele>33.696736</ele>
        <time>2023-03-24T18:07:44.069Z</time>
      </trkpt>
      <trkpt lat="48.72867" lon="-3.12179">
        <ele>37.137842</ele>
        <time>2023-03-24T18:08:10.501Z</time>
      </trkpt>
      <trkpt lat="48.72881" lon="-3.12141">
        <ele>39.2941</ele>
        <time>2023-03-24T18:08:27.082Z</time>
      </trkpt>
      <trkpt lat="48.72893" lon="-3.12099">
        <ele>41.507998</ele>
        <time>2023-03-24T18:08:44.151Z</time>
      </trkpt>
      <trkpt lat="48.72904" lon="-3.12073">
        <ele>43.035475</ele>
        <time>2023-03-24T18:08:56.520Z</time>
      </trkpt>
      <trkpt lat="48.72923" lon="-3.12042">
        <ele>45.143032</ele>
        <time>2023-03-24T18:09:13.390Z</time>
      </trkpt>
      <trkpt lat="48.72937" lon="-3.1203">
        <ele>46.331841</ele>
        <time>2023-03-24T18:09:22.239Z</time>
      </trkpt>
      <trkpt lat="48.73077" lon="-3.11966">
        <ele>58.018773</ele>
        <time>2023-03-24T18:10:51.850Z</time>
      </trkpt>
      <trkpt lat="48.73092" lon="-3.11963">
        <ele>59.247395</ele>
        <time>2023-03-24T18:11:00.574Z</time>
      </trkpt>
      <trkpt lat="48.73112" lon="-3.11967">
        <ele>60.810595</ele>
        <time>2023-03-24T18:11:12.799Z</time>
      </trkpt>
      <trkpt lat="48.73121" lon="-3.11966">
        <ele>61.386901</ele>
        <time>2023-03-24T18:11:18.370Z</time>
      </trkpt>
      <trkpt lat="48.73143" lon="-3.11951">
        <ele>62.92476</ele>
        <time>2023-03-24T18:11:31.978Z</time>
      </trkpt>
      <trkpt lat="48.73175" lon="-3.11924">
        <ele>65.284364</ele>
        <time>2023-03-24T18:11:53.104Z</time>
      </trkpt>
      <trkpt lat="48.73192" lon="-3.11899">
        <ele>66.76521</ele>
        <time>2023-03-24T18:12:05.948Z</time>
      </trkpt>
      <trkpt lat="48.7321" lon="-3.1186">
        <ele>68.810534</ele>
        <time>2023-03-24T18:12:22.980Z</time>
      </trkpt>
      <trkpt lat="48.73321" lon="-3.11606">
        <ele>77.680551</ele>
        <time>2023-03-24T18:13:44.718Z</time>
      </trkpt>
      <trkpt lat="48.73334" lon="-3.11579">
        <ele>78.480788</ele>
        <time>2023-03-24T18:13:51.113Z</time>
      </trkpt>
      <trkpt lat="48.73326" lon="-3.11565">
        <ele>78.886113</ele>
        <time>2023-03-24T18:13:54.304Z</time>
      </trkpt>
      <trkpt lat="48.73313" lon="-3.11541">
        <ele>79.021145</ele>
        <time>2023-03-24T18:13:59.910Z</time>
      </trkpt>
      <trkpt lat="48.73309" lon="-3.11498">
        <ele>79.208356</ele>
        <time>2023-03-24T18:14:10.402Z</time>
      </trkpt>
      <trkpt lat="48.73309" lon="-3.11471">
        <ele>79.322508</ele>
        <time>2023-03-24T18:14:16.534Z</time>
      </trkpt>
      <trkpt lat="48.73314" lon="-3.1137">
        <ele>79.757866</ele>
        <time>2023-03-24T18:14:37.788Z</time>
      </trkpt>
      <trkpt lat="48.73328" lon="-3.11262">
        <ele>80.006192</ele>
        <time>2023-03-24T18:15:01.883Z</time>
      </trkpt>
      <trkpt lat="48.73326" lon="-3.11173">
        <ele>79.903574</ele>
        <time>2023-03-24T18:15:13.684Z</time>
      </trkpt>
      <trkpt lat="48.73331" lon="-3.1117">
        <ele>79.895178</ele>
        <time>2023-03-24T18:15:14.676Z</time>
      </trkpt>
      <trkpt lat="48.73366" lon="-3.11164">
        <ele>79.833466</ele>
        <time>2023-03-24T18:15:21.593Z</time>
      </trkpt>
      <trkpt lat="48.73382" lon="-3.11166">
        <ele>79.804638</ele>
        <time>2023-03-24T18:15:25.247Z</time>
      </trkpt>
      <trkpt lat="48.73345" lon="-3.10778">
        <ele>77.767172</ele>
        <time>2023-03-24T18:16:41.245Z</time>
      </trkpt>
      <trkpt lat="48.73336" lon="-3.1073">
        <ele>77.511613</ele>
        <time>2023-03-24T18:16:50.840Z</time>
      </trkpt>
      <trkpt lat="48.73337" lon="-3.10712">
        <ele>77.420557</ele>
        <time>2023-03-24T18:16:54.239Z</time>
      </trkpt>
      <trkpt lat="48.73351" lon="-3.10662">
        <ele>77.143566</ele>
        <time>2023-03-24T18:17:04.833Z</time>
      </trkpt>
      <trkpt lat="48.73357" lon="-3.10596">
        <ele>76.806285</ele>
        <time>2023-03-24T18:17:17.969Z</time>
      </trkpt>
      <trkpt lat="48.73362" lon="-3.10527">
        <ele>76.891335</ele>
        <time>2023-03-24T18:17:32.411Z</time>
      </trkpt>
      <trkpt lat="48.73361" lon="-3.10508">
        <ele>76.968051</ele>
        <time>2023-03-24T18:17:36.582Z</time>
      </trkpt>
      <trkpt lat="48.73357" lon="-3.10492">
        <ele>77.03687</ele>
        <time>2023-03-24T18:17:40.156Z</time>
      </trkpt>
      <trkpt lat="48.73364" lon="-3.10472">
        <ele>77.12792</ele>
        <time>2023-03-24T18:17:43.728Z</time>
      </trkpt>
      <trkpt lat="48.7338" lon="-3.104">
        <ele>77.430368</ele>
        <time>2023-03-24T18:17:55.719Z</time>
      </trkpt>
      <trkpt lat="48.73388" lon="-3.1038">
        <ele>77.522701</ele>
        <time>2023-03-24T18:17:59.577Z</time>
      </trkpt>
      <trkpt lat="48.73402" lon="-3.1036">
        <ele>77.637883</ele>
        <time>2023-03-24T18:18:04.586Z</time>
      </trkpt>
      <trkpt lat="48.73374" lon="-3.1026">
        <ele>78.449313</ele>
        <time>2023-03-24T18:18:23.927Z</time>
      </trkpt>
      <trkpt lat="48.7336" lon="-3.10215">
        <ele>78.905363</ele>
        <time>2023-03-24T18:18:33.098Z</time>
      </trkpt>
      <trkpt lat="48.73351" lon="-3.10193">
        <ele>79.147028</ele>
        <time>2023-03-24T18:18:37.823Z</time>
      </trkpt>
      <trkpt lat="48.73338" lon="-3.10173">
        <ele>79.40637</ele>
        <time>2023-03-24T18:18:43.230Z</time>
      </trkpt>
      <trkpt lat="48.73326" lon="-3.10161">
        <ele>79.610617</ele>
        <time>2023-03-24T18:18:47.244Z</time>
      </trkpt>
      <trkpt lat="48.73264" lon="-3.10115">
        <ele>80.314678</ele>
        <time>2023-03-24T18:19:05.992Z</time>
      </trkpt>
      <trkpt lat="48.73236" lon="-3.10086">
        <ele>80.329667</ele>
        <time>2023-03-24T18:19:14.823Z</time>
      </trkpt>
      <trkpt lat="48.73192" lon="-3.10034">
        <ele>80.354003</ele>
        <time>2023-03-24T18:19:26.401Z</time>
      </trkpt>
      <trkpt lat="48.73129" lon="-3.09979">
        <ele>80.35934</ele>
        <time>2023-03-24T18:19:39.719Z</time>
      </trkpt>
      <trkpt lat="48.73104" lon="-3.09957">
        <ele>79.983672</ele>
        <time>2023-03-24T18:19:44.740Z</time>
      </trkpt>
      <trkpt lat="48.73058" lon="-3.09927">
        <ele>79.325276</ele>
        <time>2023-03-24T18:19:53.105Z</time>
      </trkpt>
      <trkpt lat="48.72956" lon="-3.09842">
        <ele>78.061702</ele>
        <time>2023-03-24T18:20:13.110Z</time>
      </trkpt>
      <trkpt lat="48.72926" lon="-3.09805">
        <ele>78.157126</ele>
        <time>2023-03-24T18:20:20.192Z</time>
      </trkpt>
      <trkpt lat="48.72891" lon="-3.09751">
        <ele>78.284148</ele>
        <time>2023-03-24T18:20:31.581Z</time>
      </trkpt>
      <trkpt lat="48.72881" lon="-3.09726">
        <ele>78.332207</ele>
        <time>2023-03-24T18:20:36.350Z</time>
      </trkpt>
      <trkpt lat="48.72854" lon="-3.09634">
        <ele>78.578542</ele>
        <time>2023-03-24T18:20:53.655Z</time>
      </trkpt>
      <trkpt lat="48.72795" lon="-3.0956">
        <ele>79.285618</ele>
        <time>2023-03-24T18:21:14.674Z</time>
      </trkpt>
      <trkpt lat="48.7283" lon="-3.09497">
        <ele>79.783643</ele>
        <time>2023-03-24T18:21:28.003Z</time>
      </trkpt>
      <trkpt lat="48.72838" lon="-3.09492">
        <ele>79.867178</ele>
        <time>2023-03-24T18:21:30.193Z</time>
      </trkpt>
      <trkpt lat="48.72865" lon="-3.09493">
        <ele>80.114976</ele>
        <time>2023-03-24T18:21:36.219Z</time>
      </trkpt>
      <trkpt lat="48.7288" lon="-3.0949">
        <ele>80.01007</ele>
        <time>2023-03-24T18:21:39.450Z</time>
      </trkpt>
      <trkpt lat="48.72894" lon="-3.09482">
        <ele>79.869497</ele>
        <time>2023-03-24T18:21:42.356Z</time>
      </trkpt>
      <trkpt lat="48.72917" lon="-3.09457">
        <ele>79.600393</ele>
        <time>2023-03-24T18:21:47.625Z</time>
      </trkpt>
      <trkpt lat="48.72929" lon="-3.09434">
        <ele>79.422729</ele>
        <time>2023-03-24T18:21:51.019Z</time>
      </trkpt>
      <trkpt lat="48.72954" lon="-3.09373">
        <ele>78.969277</ele>
        <time>2023-03-24T18:21:59.517Z</time>
      </trkpt>
      <trkpt lat="48.72954" lon="-3.09363">
        <ele>78.906991</ele>
        <time>2023-03-24T18:22:00.619Z</time>
      </trkpt>
      <trkpt lat="48.72951" lon="-3.09353">
        <ele>78.838919</ele>
        <time>2023-03-24T18:22:01.836Z</time>
      </trkpt>
      <trkpt lat="48.72936" lon="-3.09334">
        <ele>78.654587</ele>
        <time>2023-03-24T18:22:05.102Z</time>
      </trkpt>
      <trkpt lat="48.72909" lon="-3.09294">
        <ele>78.18073</ele>
        <time>2023-03-24T18:22:15.559Z</time>
      </trkpt>
      <trkpt lat="48.72907" lon="-3.09277">
        <ele>77.982231</ele>
        <time>2023-03-24T18:22:18.716Z</time>
      </trkpt>
      <trkpt lat="48.72934" lon="-3.09199">
        <ele>76.982021</ele>
        <time>2023-03-24T18:22:34.576Z</time>
      </trkpt>
      <trkpt lat="48.72942" lon="-3.09162">
        <ele>76.527047</ele>
        <time>2023-03-24T18:22:41.728Z</time>
      </trkpt>
      <trkpt lat="48.72886" lon="-3.09127">
        <ele>75.465007</ele>
        <time>2023-03-24T18:22:52.126Z</time>
      </trkpt>
      <trkpt lat="48.72874" lon="-3.0911">
        <ele>75.221705</ele>
        <time>2023-03-24T18:22:55.107Z</time>
      </trkpt>
      <trkpt lat="48.72858" lon="-3.09067">
        <ele>74.85971</ele>
        <time>2023-03-24T18:23:00.748Z</time>
      </trkpt>
      <trkpt lat="48.72826" lon="-3.08995">
        <ele>74.228307</ele>
        <time>2023-03-24T18:23:10.599Z</time>
      </trkpt>
      <trkpt lat="48.72808" lon="-3.08963">
        <ele>73.916744</ele>
        <time>2023-03-24T18:23:15.688Z</time>
      </trkpt>
      <trkpt lat="48.72762" lon="-3.08905">
        <ele>73.261799</ele>
        <time>2023-03-24T18:23:26.622Z</time>
      </trkpt>
      <trkpt lat="48.72784" lon="-3.08862">
        <ele>72.954288</ele>
        <time>2023-03-24T18:23:33.129Z</time>
      </trkpt>
      <trkpt lat="48.72876" lon="-3.08726">
        <ele>71.854027</ele>
        <time>2023-03-24T18:23:56.537Z</time>
      </trkpt>
      <trkpt lat="48.72911" lon="-3.08684">
        <ele>71.493661</ele>
        <time>2023-03-24T18:24:04.553Z</time>
      </trkpt>
      <trkpt lat="48.72915" lon="-3.08673">
        <ele>71.424223</ele>
        <time>2023-03-24T18:24:06.104Z</time>
      </trkpt>
      <trkpt lat="48.72917" lon="-3.08661">
        <ele>71.357349</ele>
        <time>2023-03-24T18:24:07.589Z</time>
      </trkpt>
      <trkpt lat="48.72915" lon="-3.08647">
        <ele>71.284341</ele>
        <time>2023-03-24T18:24:09.231Z</time>
      </trkpt>
      <trkpt lat="48.72884" lon="-3.08597">
        <ele>70.924503</ele>
        <time>2023-03-24T18:24:17.357Z</time>
      </trkpt>
      <trkpt lat="48.72879" lon="-3.08572">
        <ele>70.788091</ele>
        <time>2023-03-24T18:24:20.485Z</time>
      </trkpt>
      <trkpt lat="48.72804" lon="-3.08544">
        <ele>70.357039</ele>
        <time>2023-03-24T18:24:35.060Z</time>
      </trkpt>
      <trkpt lat="48.72791" lon="-3.08534">
        <ele>70.372942</ele>
        <time>2023-03-24T18:24:37.782Z</time>
      </trkpt>
      <trkpt lat="48.7278" lon="-3.08534">
        <ele>70.385996</ele>
        <time>2023-03-24T18:24:41.425Z</time>
      </trkpt>
      <trkpt lat="48.72733" lon="-3.08523">
        <ele>70.438483</ele>
        <time>2023-03-24T18:24:56.131Z</time>
      </trkpt>
      <trkpt lat="48.72591" lon="-3.08459">
        <ele>71.139334</ele>
        <time>2023-03-24T18:25:47.602Z</time>
      </trkpt>
      <trkpt lat="48.72556" lon="-3.08443">
        <ele>71.494427</ele>
        <time>2023-03-24T18:26:01.214Z</time>
      </trkpt>
      <trkpt lat="48.72487" lon="-3.08412">
        <ele>72.192124</ele>
        <time>2023-03-24T18:26:28.559Z</time>
      </trkpt>
      <trkpt lat="48.72417" lon="-3.0841">
        <ele>72.894621</ele>
        <time>2023-03-24T18:26:55.312Z</time>
      </trkpt>
      <trkpt lat="48.72344" lon="-3.08422">
        <ele>73.61915</ele>
        <time>2023-03-24T18:27:22.283Z</time>
      </trkpt>
      <trkpt lat="48.72275" lon="-3.08441">
        <ele>74.274225</ele>
        <time>2023-03-24T18:27:47.143Z</time>
      </trkpt>
      <trkpt lat="48.72261" lon="-3.08449">
        <ele>74.396803</ele>
        <time>2023-03-24T18:27:52.206Z</time>
      </trkpt>
      <trkpt lat="48.72245" lon="-3.08468">
        <ele>74.563258</ele>
        <time>2023-03-24T18:27:59.043Z</time>
      </trkpt>
      <trkpt lat="48.72216" lon="-3.08493">
        <ele>74.835923</ele>
        <time>2023-03-24T18:28:09.892Z</time>
      </trkpt>
      <trkpt lat="48.72192" lon="-3.08507">
        <ele>75.053629</ele>
        <time>2023-03-24T18:28:18.570Z</time>
      </trkpt>
      <trkpt lat="48.72167" lon="-3.08514">
        <ele>75.258239</ele>
        <time>2023-03-24T18:28:27.520Z</time>
      </trkpt>
      <trkpt lat="48.72157" lon="-3.08469">
        <ele>75.514234</ele>
        <time>2023-03-24T18:28:36.306Z</time>
      </trkpt>
      <trkpt lat="48.72135" lon="-3.0842">
        <ele>76.503978</ele>
        <time>2023-03-24T18:28:48.214Z</time>
      </trkpt>
      <trkpt lat="48.72122" lon="-3.08366">
        <ele>77.529953</ele>
        <time>2023-03-24T18:28:59.663Z</time>
      </trkpt>
      <trkpt lat="48.72122" lon="-3.08352">
        <ele>77.793658</ele>
        <time>2023-03-24T18:29:02.714Z</time>
      </trkpt>
      <trkpt lat="48.72121" lon="-3.08248">
        <ele>79.67713</ele>
        <time>2023-03-24T18:29:26.521Z</time>
      </trkpt>
      <trkpt lat="48.72108" lon="-3.08241">
        <ele>80.050973</ele>
        <time>2023-03-24T18:29:31.879Z</time>
      </trkpt>
      <trkpt lat="48.72066" lon="-3.08202">
        <ele>81.858295</ele>
        <time>2023-03-24T18:29:51.970Z</time>
      </trkpt>
      <trkpt lat="48.72045" lon="-3.08195">
        <ele>82.744451</ele>
        <time>2023-03-24T18:30:01.403Z</time>
      </trkpt>
      <trkpt lat="48.72029" lon="-3.08172">
        <ele>83.657927</ele>
        <time>2023-03-24T18:30:11.356Z</time>
      </trkpt>
      <trkpt lat="48.72007" lon="-3.08029">
        <ele>87.632463</ele>
        <time>2023-03-24T18:30:50.607Z</time>
      </trkpt>
      <trkpt lat="48.71985" lon="-3.07959">
        <ele>88.862957</ele>
        <time>2023-03-24T18:31:09.996Z</time>
      </trkpt>
      <trkpt lat="48.71981" lon="-3.07921">
        <ele>89.400157</ele>
        <time>2023-03-24T18:31:18.911Z</time>
      </trkpt>
      <trkpt lat="48.71981" lon="-3.07828">
        <ele>90.744685</ele>
        <time>2023-03-24T18:31:38.151Z</time>
      </trkpt>
      <trkpt lat="48.71976" lon="-3.07791">
        <ele>91.287897</ele>
        <time>2023-03-24T18:31:44.380Z</time>
      </trkpt>
      <trkpt lat="48.71929" lon="-3.07607">
        <ele>91.452317</ele>
        <time>2023-03-24T18:32:10.336Z</time>
      </trkpt>
      <trkpt lat="48.71927" lon="-3.0759">
        <ele>91.417566</ele>
        <time>2023-03-24T18:32:12.475Z</time>
      </trkpt>
      <trkpt lat="48.71928" lon="-3.07578">
        <ele>91.394</ele>
        <time>2023-03-24T18:32:13.830Z</time>
      </trkpt>
      <trkpt lat="48.71867" lon="-3.07563">
        <ele>91.028476</ele>
        <time>2023-03-24T18:32:32.661Z</time>
      </trkpt>
      <trkpt lat="48.71749" lon="-3.0762">
        <ele>88.22839</ele>
        <time>2023-03-24T18:33:07.896Z</time>
      </trkpt>
      <trkpt lat="48.7172" lon="-3.07629">
        <ele>87.571035</ele>
        <time>2023-03-24T18:33:15.378Z</time>
      </trkpt>
      <trkpt lat="48.71647" lon="-3.07632">
        <ele>83.074933</ele>
        <time>2023-03-24T18:33:32.690Z</time>
      </trkpt>
      <trkpt lat="48.71593" lon="-3.07631">
        <ele>79.097799</ele>
        <time>2023-03-24T18:33:44.903Z</time>
      </trkpt>
      <trkpt lat="48.71557" lon="-3.07627">
        <ele>76.390491</ele>
        <time>2023-03-24T18:33:53.034Z</time>
      </trkpt>
      <trkpt lat="48.71538" lon="-3.07628">
        <ele>75.021962</ele>
        <time>2023-03-24T18:33:57.074Z</time>
      </trkpt>
      <trkpt lat="48.71523" lon="-3.07638">
        <ele>73.783914</ele>
        <time>2023-03-24T18:34:00.595Z</time>
      </trkpt>
      <trkpt lat="48.715" lon="-3.07646">
        <ele>71.096148</ele>
        <time>2023-03-24T18:34:05.703Z</time>
      </trkpt>
      <trkpt lat="48.71473" lon="-3.07644">
        <ele>68.123364</ele>
        <time>2023-03-24T18:34:11.067Z</time>
      </trkpt>
      <trkpt lat="48.71456" lon="-3.0764">
        <ele>66.110028</ele>
        <time>2023-03-24T18:34:14.902Z</time>
      </trkpt>
      <trkpt lat="48.71438" lon="-3.07616">
        <ele>63.467571</ele>
        <time>2023-03-24T18:34:19.696Z</time>
      </trkpt>
      <trkpt lat="48.71415" lon="-3.07491">
        <ele>53.816117</ele>
        <time>2023-03-24T18:34:37.969Z</time>
      </trkpt>
      <trkpt lat="48.71407" lon="-3.07485">
        <ele>52.957733</ele>
        <time>2023-03-24T18:34:39.746Z</time>
      </trkpt>
      <trkpt lat="48.71393" lon="-3.07537">
        <ele>49.529599</ele>
        <time>2023-03-24T18:34:47.732Z</time>
      </trkpt>
      <trkpt lat="48.71384" lon="-3.07558">
        <ele>47.987122</ele>
        <time>2023-03-24T18:34:51.555Z</time>
      </trkpt>
      <trkpt lat="48.71374" lon="-3.07581">
        <ele>46.287393</ele>
        <time>2023-03-24T18:34:55.329Z</time>
      </trkpt>
      <trkpt lat="48.71344" lon="-3.07631">
        <ele>42.198627</ele>
        <time>2023-03-24T18:35:05.007Z</time>
      </trkpt>
      <trkpt lat="48.71335" lon="-3.07631">
        <ele>41.403346</ele>
        <time>2023-03-24T18:35:07.062Z</time>
      </trkpt>
      <trkpt lat="48.71335" lon="-3.07631">
        <ele>41.403346</ele>
        <time>2023-03-24T18:35:07.119Z</time>
      </trkpt>
      <trkpt lat="48.71335" lon="-3.07631">
        <ele>41.403346</ele>
        <time>2023-03-24T18:35:07.119Z</time>
      </trkpt>
      <trkpt lat="48.7133" lon="-3.07665">
        <ele>39.309845</ele>
        <time>2023-03-24T18:35:16.856Z</time>
      </trkpt>
      <trkpt lat="48.71326" lon="-3.07654">
        <ele>38.524626</ele>
        <time>2023-03-24T18:35:20.492Z</time>
      </trkpt>
      <trkpt lat="48.71323" lon="-3.07651">
        <ele>38.207862</ele>
        <time>2023-03-24T18:35:21.960Z</time>
      </trkpt>
      <trkpt lat="48.7132" lon="-3.07647">
        <ele>37.846684</ele>
        <time>2023-03-24T18:35:23.641Z</time>
      </trkpt>
      <trkpt lat="48.71318" lon="-3.07642">
        <ele>37.469675</ele>
        <time>2023-03-24T18:35:25.389Z</time>
      </trkpt>
      <trkpt lat="48.71314" lon="-3.07639">
        <ele>37.079425</ele>
        <time>2023-03-24T18:35:27.198Z</time>
      </trkpt>
      <trkpt lat="48.71311" lon="-3.07633">
        <ele>36.760204</ele>
        <time>2023-03-24T18:35:29.149Z</time>
      </trkpt>
      <trkpt lat="48.71309" lon="-3.07628">
        <ele>36.468482</ele>
        <time>2023-03-24T18:35:31.015Z</time>
      </trkpt>
      <trkpt lat="48.71304" lon="-3.07618">
        <ele>35.922775</ele>
        <time>2023-03-24T18:35:34.503Z</time>
      </trkpt>
      <trkpt lat="48.71302" lon="-3.07613">
        <ele>35.671183</ele>
        <time>2023-03-24T18:35:36.112Z</time>
      </trkpt>
      <trkpt lat="48.71301" lon="-3.07605">
        <ele>35.320782</ele>
        <time>2023-03-24T18:35:38.361Z</time>
      </trkpt>
      <trkpt lat="48.71299" lon="-3.07603">
        <ele>35.16598</ele>
        <time>2023-03-24T18:35:39.352Z</time>
      </trkpt>
      <trkpt lat="48.71297" lon="-3.07602">
        <ele>35.020298</ele>
        <time>2023-03-24T18:35:40.285Z</time>
      </trkpt>
      <trkpt lat="48.71295" lon="-3.07602">
        <ele>34.870656</ele>
        <time>2023-03-24T18:35:41.243Z</time>
      </trkpt>
      <trkpt lat="48.71293" lon="-3.07605">
        <ele>34.691352</ele>
        <time>2023-03-24T18:35:42.390Z</time>
      </trkpt>
      <trkpt lat="48.71293" lon="-3.07608">
        <ele>34.536172</ele>
        <time>2023-03-24T18:35:43.383Z</time>
      </trkpt>
      <trkpt lat="48.71293" lon="-3.07612">
        <ele>34.383058</ele>
        <time>2023-03-24T18:35:44.363Z</time>
      </trkpt>
      <trkpt lat="48.71293" lon="-3.07615">
        <ele>34.219075</ele>
        <time>2023-03-24T18:35:45.413Z</time>
      </trkpt>
      <trkpt lat="48.71293" lon="-3.07624">
        <ele>33.856805</ele>
        <time>2023-03-24T18:35:47.729Z</time>
      </trkpt>
      <trkpt lat="48.71294" lon="-3.07627">
        <ele>33.684271</ele>
        <time>2023-03-24T18:35:48.832Z</time>
      </trkpt>
      <trkpt lat="48.71294" lon="-3.07632">
        <ele>33.453701</ele>
        <time>2023-03-24T18:35:50.306Z</time>
      </trkpt>
      <trkpt lat="48.71294" lon="-3.07638">
        <ele>33.218731</ele>
        <time>2023-03-24T18:35:51.810Z</time>
      </trkpt>
      <trkpt lat="48.71295" lon="-3.07643">
        <ele>32.982877</ele>
        <time>2023-03-24T18:35:53.320Z</time>
      </trkpt>
      <trkpt lat="48.71296" lon="-3.0765">
        <ele>32.68324</ele>
        <time>2023-03-24T18:35:55.246Z</time>
      </trkpt>
      <trkpt lat="48.71296" lon="-3.07663">
        <ele>32.085571</ele>
        <time>2023-03-24T18:35:59.071Z</time>
      </trkpt>
      <trkpt lat="48.71298" lon="-3.07685">
        <ele>31.101125</ele>
        <time>2023-03-24T18:36:05.365Z</time>
      </trkpt>
      <trkpt lat="48.71299" lon="-3.07693">
        <ele>30.762867</ele>
        <time>2023-03-24T18:36:07.531Z</time>
      </trkpt>
      <trkpt lat="48.71302" lon="-3.07708">
        <ele>30.058226</ele>
        <time>2023-03-24T18:36:12.053Z</time>
      </trkpt>
      <trkpt lat="48.71303" lon="-3.07716">
        <ele>29.69739</ele>
        <time>2023-03-24T18:36:14.364Z</time>
      </trkpt>
      <trkpt lat="48.71304" lon="-3.07725">
        <ele>29.309383</ele>
        <time>2023-03-24T18:36:16.848Z</time>
      </trkpt>
      <trkpt lat="48.71295" lon="-3.07729">
        <ele>28.678971</ele>
        <time>2023-03-24T18:36:20.886Z</time>
      </trkpt>
      <trkpt lat="48.71319" lon="-3.07847">
        <ele>23.789786</ele>
        <time>2023-03-24T18:36:39.745Z</time>
      </trkpt>
      <trkpt lat="48.71323" lon="-3.07887">
        <ele>22.601139</ele>
        <time>2023-03-24T18:36:46.123Z</time>
      </trkpt>
      <trkpt lat="48.71316" lon="-3.07929">
        <ele>21.349977</ele>
        <time>2023-03-24T18:36:52.709Z</time>
      </trkpt>
      <trkpt lat="48.71299" lon="-3.07882">
        <ele>19.770549</ele>
        <time>2023-03-24T18:36:57.811Z</time>
      </trkpt>
      <trkpt lat="48.71284" lon="-3.07854">
        <ele>18.6757</ele>
        <time>2023-03-24T18:37:01.421Z</time>
      </trkpt>
      <trkpt lat="48.71257" lon="-3.0779">
        <ele>16.993299</ele>
        <time>2023-03-24T18:37:09.101Z</time>
      </trkpt>
      <trkpt lat="48.7125" lon="-3.07782">
        <ele>17.035731</ele>
        <time>2023-03-24T18:37:11.081Z</time>
      </trkpt>
      <trkpt lat="48.71222" lon="-3.07741">
        <ele>17.223068</ele>
        <time>2023-03-24T18:37:18.417Z</time>
      </trkpt>
      <trkpt lat="48.71206" lon="-3.07705">
        <ele>17.359842</ele>
        <time>2023-03-24T18:37:24.522Z</time>
      </trkpt>
      <trkpt lat="48.71189" lon="-3.07609">
        <ele>17.669478</ele>
        <time>2023-03-24T18:37:40.518Z</time>
      </trkpt>
      <trkpt lat="48.71185" lon="-3.07574">
        <ele>17.783447</ele>
        <time>2023-03-24T18:37:48.418Z</time>
      </trkpt>
      <trkpt lat="48.71185" lon="-3.07564">
        <ele>17.94085</ele>
        <time>2023-03-24T18:37:50.826Z</time>
      </trkpt>
      <trkpt lat="48.71184" lon="-3.07556">
        <ele>18.149579</ele>
        <time>2023-03-24T18:37:52.802Z</time>
      </trkpt>
      <trkpt lat="48.71184" lon="-3.07554">
        <ele>18.227385</ele>
        <time>2023-03-24T18:37:53.632Z</time>
      </trkpt>
      <trkpt lat="48.71207" lon="-3.07447">
        <ele>21.335273</ele>
        <time>2023-03-24T18:38:26.742Z</time>
      </trkpt>
      <trkpt lat="48.71186" lon="-3.07364">
        <ele>23.806012</ele>
        <time>2023-03-24T18:39:00.364Z</time>
      </trkpt>
      <trkpt lat="48.71184" lon="-3.07357">
        <ele>24.006315</ele>
        <time>2023-03-24T18:39:03.024Z</time>
      </trkpt>
      <trkpt lat="48.71182" lon="-3.07344">
        <ele>24.382421</ele>
        <time>2023-03-24T18:39:08.000Z</time>
      </trkpt>
      <trkpt lat="48.71164" lon="-3.07295">
        <ele>25.723275</ele>
        <time>2023-03-24T18:39:26.158Z</time>
      </trkpt>
      <trkpt lat="48.71153" lon="-3.07283">
        <ele>26.09069</ele>
        <time>2023-03-24T18:39:32.747Z</time>
      </trkpt>
      <trkpt lat="48.71135" lon="-3.07272">
        <ele>26.616813</ele>
        <time>2023-03-24T18:39:42.822Z</time>
      </trkpt>
      <trkpt lat="48.71073" lon="-3.07266">
        <ele>28.271494</ele>
        <time>2023-03-24T18:40:13.019Z</time>
      </trkpt>
      <trkpt lat="48.71002" lon="-3.07279">
        <ele>30.174583</ele>
        <time>2023-03-24T18:40:40.808Z</time>
      </trkpt>
      <trkpt lat="48.70923" lon="-3.0731">
        <ele>31.461603</ele>
        <time>2023-03-24T18:41:09.441Z</time>
      </trkpt>
      <trkpt lat="48.70876" lon="-3.07323">
        <ele>32.216816</ele>
        <time>2023-03-24T18:41:29.690Z</time>
      </trkpt>
      <trkpt lat="48.70848" lon="-3.07322">
        <ele>32.664678</ele>
        <time>2023-03-24T18:41:41.528Z</time>
      </trkpt>
      <trkpt lat="48.70782" lon="-3.0717">
        <ele>34.863976</ele>
        <time>2023-03-24T18:42:33.202Z</time>
      </trkpt>
      <trkpt lat="48.70778" lon="-3.07167">
        <ele>34.944637</ele>
        <time>2023-03-24T18:42:34.856Z</time>
      </trkpt>
      <trkpt lat="48.70779" lon="-3.07116">
        <ele>35.580171</ele>
        <time>2023-03-24T18:42:46.348Z</time>
      </trkpt>
      <trkpt lat="48.70774" lon="-3.07022">
        <ele>36.035756</ele>
        <time>2023-03-24T18:43:03.169Z</time>
      </trkpt>
      <trkpt lat="48.70777" lon="-3.06988">
        <ele>35.601184</ele>
        <time>2023-03-24T18:43:07.506Z</time>
      </trkpt>
      <trkpt lat="48.7078" lon="-3.06977">
        <ele>35.455732</ele>
        <time>2023-03-24T18:43:08.842Z</time>
      </trkpt>
      <trkpt lat="48.708" lon="-3.06944">
        <ele>34.88967</ele>
        <time>2023-03-24T18:43:13.779Z</time>
      </trkpt>
      <trkpt lat="48.70822" lon="-3.06897">
        <ele>34.159606</ele>
        <time>2023-03-24T18:43:19.806Z</time>
      </trkpt>
      <trkpt lat="48.70783" lon="-3.0692">
        <ele>33.35907</ele>
        <time>2023-03-24T18:43:26.189Z</time>
      </trkpt>
      <trkpt lat="48.70685" lon="-3.06991">
        <ele>29.427118</ele>
        <time>2023-03-24T18:43:42.143Z</time>
      </trkpt>
      <trkpt lat="48.70614" lon="-3.07057">
        <ele>26.091163</ele>
        <time>2023-03-24T18:43:54.266Z</time>
      </trkpt>
      <trkpt lat="48.706" lon="-3.07076">
        <ele>25.466605</ele>
        <time>2023-03-24T18:43:57.020Z</time>
      </trkpt>
      <trkpt lat="48.70557" lon="-3.07153">
        <ele>23.575355</ele>
        <time>2023-03-24T18:44:07.241Z</time>
      </trkpt>
      <trkpt lat="48.70522" lon="-3.07199">
        <ele>22.288267</ele>
        <time>2023-03-24T18:44:14.554Z</time>
      </trkpt>
      <trkpt lat="48.7049" lon="-3.07216">
        <ele>21.310673</ele>
        <time>2023-03-24T18:44:24.036Z</time>
      </trkpt>
      <trkpt lat="48.70429" lon="-3.07241">
        <ele>19.87409</ele>
        <time>2023-03-24T18:44:40.926Z</time>
      </trkpt>
      <trkpt lat="48.70365" lon="-3.0724">
        <ele>18.597376</ele>
        <time>2023-03-24T18:44:58.149Z</time>
      </trkpt>
      <trkpt lat="48.70336" lon="-3.07225">
        <ele>17.988767</ele>
        <time>2023-03-24T18:45:06.470Z</time>
      </trkpt>
      <trkpt lat="48.70322" lon="-3.07201">
        <ele>17.566973</ele>
        <time>2023-03-24T18:45:12.334Z</time>
      </trkpt>
      <trkpt lat="48.70353" lon="-3.0721">
        <ele>17.060235</ele>
        <time>2023-03-24T18:45:19.364Z</time>
      </trkpt>
      <trkpt lat="48.70417" lon="-3.07189">
        <ele>16.829613</ele>
        <time>2023-03-24T18:45:34.592Z</time>
      </trkpt>
      <trkpt lat="48.7043" lon="-3.07185">
        <ele>16.782531</ele>
        <time>2023-03-24T18:45:37.752Z</time>
      </trkpt>
      <trkpt lat="48.70459" lon="-3.07165">
        <ele>16.668783</ele>
        <time>2023-03-24T18:45:45.525Z</time>
      </trkpt>
      <trkpt lat="48.70503" lon="-3.07124">
        <ele>16.48582</ele>
        <time>2023-03-24T18:45:59.530Z</time>
      </trkpt>
      <trkpt lat="48.70567" lon="-3.07037">
        <ele>17.803503</ele>
        <time>2023-03-24T18:46:24.272Z</time>
      </trkpt>
      <trkpt lat="48.70613" lon="-3.06955">
        <ele>19.080421</ele>
        <time>2023-03-24T18:46:50.194Z</time>
      </trkpt>
      <trkpt lat="48.7062" lon="-3.06929">
        <ele>19.405723</ele>
        <time>2023-03-24T18:46:57.430Z</time>
      </trkpt>
      <trkpt lat="48.70623" lon="-3.0689">
        <ele>20.121023</ele>
        <time>2023-03-24T18:47:08.236Z</time>
      </trkpt>
      <trkpt lat="48.70622" lon="-3.06853">
        <ele>21.076884</ele>
        <time>2023-03-24T18:47:18.422Z</time>
      </trkpt>
      <trkpt lat="48.70606" lon="-3.06797">
        <ele>22.649975</ele>
        <time>2023-03-24T18:47:36.287Z</time>
      </trkpt>
      <trkpt lat="48.70652" lon="-3.0671">
        <ele>25.520559</ele>
        <time>2023-03-24T18:48:06.007Z</time>
      </trkpt>
      <trkpt lat="48.70689" lon="-3.06621">
        <ele>27.965132</ele>
        <time>2023-03-24T18:48:36.488Z</time>
      </trkpt>
      <trkpt lat="48.70746" lon="-3.06459">
        <ele>31.823884</ele>
        <time>2023-03-24T18:49:17.382Z</time>
      </trkpt>
      <trkpt lat="48.70719" lon="-3.06437">
        <ele>32.594861</ele>
        <time>2023-03-24T18:49:26.439Z</time>
      </trkpt>
      <trkpt lat="48.70687" lon="-3.06399">
        <ele>33.154167</ele>
        <time>2023-03-24T18:49:37.871Z</time>
      </trkpt>
      <trkpt lat="48.7065" lon="-3.06332">
        <ele>33.942513</ele>
        <time>2023-03-24T18:49:54.110Z</time>
      </trkpt>
      <trkpt lat="48.70642" lon="-3.06321">
        <ele>34.100286</ele>
        <time>2023-03-24T18:49:57.333Z</time>
      </trkpt>
      <trkpt lat="48.70601" lon="-3.06292">
        <ele>34.726692</ele>
        <time>2023-03-24T18:50:09.280Z</time>
      </trkpt>
      <trkpt lat="48.70573" lon="-3.06266">
        <ele>34.720403</ele>
        <time>2023-03-24T18:50:16.369Z</time>
      </trkpt>
      <trkpt lat="48.70521" lon="-3.06206">
        <ele>34.046672</ele>
        <time>2023-03-24T18:50:28.434Z</time>
      </trkpt>
      <trkpt lat="48.70508" lon="-3.06195">
        <ele>33.893435</ele>
        <time>2023-03-24T18:50:30.918Z</time>
      </trkpt>
      <trkpt lat="48.70494" lon="-3.06194">
        <ele>33.746568</ele>
        <time>2023-03-24T18:50:33.599Z</time>
      </trkpt>
      <trkpt lat="48.70463" lon="-3.06213">
        <ele>33.393781</ele>
        <time>2023-03-24T18:50:39.445Z</time>
      </trkpt>
      <trkpt lat="48.70456" lon="-3.06217">
        <ele>33.323325</ele>
        <time>2023-03-24T18:50:40.754Z</time>
      </trkpt>
      <trkpt lat="48.70432" lon="-3.06222">
        <ele>33.066273</ele>
        <time>2023-03-24T18:50:44.614Z</time>
      </trkpt>
      <trkpt lat="48.70383" lon="-3.06218">
        <ele>31.157616</ele>
        <time>2023-03-24T18:50:52.438Z</time>
      </trkpt>
      <trkpt lat="48.70374" lon="-3.06221">
        <ele>30.759406</ele>
        <time>2023-03-24T18:50:53.850Z</time>
      </trkpt>
      <trkpt lat="48.7036" lon="-3.06229">
        <ele>30.179951</ele>
        <time>2023-03-24T18:50:55.928Z</time>
      </trkpt>
      <trkpt lat="48.70337" lon="-3.06258">
        <ele>28.964632</ele>
        <time>2023-03-24T18:50:59.954Z</time>
      </trkpt>
      <trkpt lat="48.7033" lon="-3.06259">
        <ele>28.660694</ele>
        <time>2023-03-24T18:51:01.081Z</time>
      </trkpt>
      <trkpt lat="48.70305" lon="-3.06229">
        <ele>27.395789</ele>
        <time>2023-03-24T18:51:05.414Z</time>
      </trkpt>
      <trkpt lat="48.70265" lon="-3.06193">
        <ele>25.653118</ele>
        <time>2023-03-24T18:51:12.518Z</time>
      </trkpt>
      <trkpt lat="48.70227" lon="-3.0617">
        <ele>24.819993</ele>
        <time>2023-03-24T18:51:18.889Z</time>
      </trkpt>
      <trkpt lat="48.70209" lon="-3.06164">
        <ele>24.459178</ele>
        <time>2023-03-24T18:51:21.483Z</time>
      </trkpt>
      <trkpt lat="48.70186" lon="-3.0615">
        <ele>23.950336</ele>
        <time>2023-03-24T18:51:25.855Z</time>
      </trkpt>
      <trkpt lat="48.70185" lon="-3.0614">
        <ele>23.819388</ele>
        <time>2023-03-24T18:51:27.630Z</time>
      </trkpt>
      <trkpt lat="48.70195" lon="-3.06105">
        <ele>23.312411</ele>
        <time>2023-03-24T18:51:34.930Z</time>
      </trkpt>
      <trkpt lat="48.70251" lon="-3.0606">
        <ele>22.157409</ele>
        <time>2023-03-24T18:51:53.313Z</time>
      </trkpt>
      <trkpt lat="48.70272" lon="-3.0602">
        <ele>22.125239</ele>
        <time>2023-03-24T18:52:03.470Z</time>
      </trkpt>
      <trkpt lat="48.70288" lon="-3.06002">
        <ele>22.106496</ele>
        <time>2023-03-24T18:52:12.336Z</time>
      </trkpt>
      <trkpt lat="48.70298" lon="-3.05977">
        <ele>22.088217</ele>
        <time>2023-03-24T18:52:18.634Z</time>
      </trkpt>
      <trkpt lat="48.70307" lon="-3.05944">
        <ele>22.065013</ele>
        <time>2023-03-24T18:52:26.543Z</time>
      </trkpt>
      <trkpt lat="48.7032" lon="-3.05864">
        <ele>22.01284</ele>
        <time>2023-03-24T18:52:43.640Z</time>
      </trkpt>
      <trkpt lat="48.70324" lon="-3.05832">
        <ele>21.992317</ele>
        <time>2023-03-24T18:52:50.445Z</time>
      </trkpt>
      <trkpt lat="48.70323" lon="-3.05807">
        <ele>21.898463</ele>
        <time>2023-03-24T18:52:55.276Z</time>
      </trkpt>
      <trkpt lat="48.7032" lon="-3.0579">
        <ele>21.825827</ele>
        <time>2023-03-24T18:52:58.799Z</time>
      </trkpt>
      <trkpt lat="48.70306" lon="-3.05746">
        <ele>21.624761</ele>
        <time>2023-03-24T18:53:08.108Z</time>
      </trkpt>
      <trkpt lat="48.70263" lon="-3.05614">
        <ele>21.019075</ele>
        <time>2023-03-24T18:53:37.157Z</time>
      </trkpt>
      <trkpt lat="48.70238" lon="-3.05552">
        <ele>20.910625</ele>
        <time>2023-03-24T18:53:51.466Z</time>
      </trkpt>
      <trkpt lat="48.70221" lon="-3.05494">
        <ele>20.977198</ele>
        <time>2023-03-24T18:54:06.006Z</time>
      </trkpt>
      <trkpt lat="48.70189" lon="-3.05369">
        <ele>21.118098</ele>
        <time>2023-03-24T18:54:36.519Z</time>
      </trkpt>
      <trkpt lat="48.70154" lon="-3.05237">
        <ele>21.247762</ele>
        <time>2023-03-24T18:55:05.822Z</time>
      </trkpt>
      <trkpt lat="48.70136" lon="-3.05169">
        <ele>21.311766</ele>
        <time>2023-03-24T18:55:17.989Z</time>
      </trkpt>
      <trkpt lat="48.70112" lon="-3.05083">
        <ele>21.392685</ele>
        <time>2023-03-24T18:55:34.113Z</time>
      </trkpt>
      <trkpt lat="48.70114" lon="-3.05062">
        <ele>21.677405</ele>
        <time>2023-03-24T18:55:38.447Z</time>
      </trkpt>
      <trkpt lat="48.701" lon="-3.05058">
        <ele>22.01435</ele>
        <time>2023-03-24T18:55:41.476Z</time>
      </trkpt>
      <trkpt lat="48.7008" lon="-3.05042">
        <ele>22.515068</ele>
        <time>2023-03-24T18:55:47.160Z</time>
      </trkpt>
      <trkpt lat="48.70061" lon="-3.05016">
        <ele>23.110043</ele>
        <time>2023-03-24T18:55:53.456Z</time>
      </trkpt>
      <trkpt lat="48.69988" lon="-3.049">
        <ele>25.517088</ele>
        <time>2023-03-24T18:56:29.314Z</time>
      </trkpt>
      <trkpt lat="48.69976" lon="-3.04876">
        <ele>26.48199</ele>
        <time>2023-03-24T18:56:38.555Z</time>
      </trkpt>
      <trkpt lat="48.69956" lon="-3.04799">
        <ele>29.059589</ele>
        <time>2023-03-24T18:57:01.703Z</time>
      </trkpt>
      <trkpt lat="48.6995" lon="-3.04783">
        <ele>29.639617</ele>
        <time>2023-03-24T18:57:07.413Z</time>
      </trkpt>
      <trkpt lat="48.69924" lon="-3.0474">
        <ele>31.472809</ele>
        <time>2023-03-24T18:57:24.827Z</time>
      </trkpt>
      <trkpt lat="48.69871" lon="-3.04669">
        <ele>34.614688</ele>
        <time>2023-03-24T18:57:55.628Z</time>
      </trkpt>
      <trkpt lat="48.69833" lon="-3.04629">
        <ele>36.289809</ele>
        <time>2023-03-24T18:58:16.187Z</time>
      </trkpt>
      <trkpt lat="48.69802" lon="-3.04607">
        <ele>37.554041</ele>
        <time>2023-03-24T18:58:30.200Z</time>
      </trkpt>
      <trkpt lat="48.69785" lon="-3.046">
        <ele>38.188604</ele>
        <time>2023-03-24T18:58:35.812Z</time>
      </trkpt>
      <trkpt lat="48.69716" lon="-3.04586">
        <ele>40.627204</ele>
        <time>2023-03-24T18:58:57.710Z</time>
      </trkpt>
      <trkpt lat="48.69648" lon="-3.04556">
        <ele>41.792504</ele>
        <time>2023-03-24T18:59:17.604Z</time>
      </trkpt>
      <trkpt lat="48.69621" lon="-3.04554">
        <ele>42.248752</ele>
        <time>2023-03-24T18:59:24.580Z</time>
      </trkpt>
      <trkpt lat="48.69601" lon="-3.0456">
        <ele>42.580702</ele>
        <time>2023-03-24T18:59:29.630Z</time>
      </trkpt>
      <trkpt lat="48.69557" lon="-3.04555">
        <ele>43.311469</ele>
        <time>2023-03-24T18:59:41.024Z</time>
      </trkpt>
      <trkpt lat="48.69534" lon="-3.0456">
        <ele>43.787904</ele>
        <time>2023-03-24T18:59:48.033Z</time>
      </trkpt>
      <trkpt lat="48.69542" lon="-3.04575">
        <ele>44.083361</ele>
        <time>2023-03-24T18:59:52.568Z</time>
      </trkpt>
      <trkpt lat="48.69542" lon="-3.04583">
        <ele>44.206672</ele>
        <time>2023-03-24T18:59:54.750Z</time>
      </trkpt>
      <trkpt lat="48.69526" lon="-3.04624">
        <ele>44.960747</ele>
        <time>2023-03-24T19:00:07.243Z</time>
      </trkpt>
      <trkpt lat="48.69526" lon="-3.04624">
        <ele>44.960747</ele>
        <time>2023-03-24T19:00:07.254Z</time>
      </trkpt>
      <trkpt lat="48.69522" lon="-3.04628">
        <ele>45.074815</ele>
        <time>2023-03-24T19:00:09.252Z</time>
      </trkpt>
      <trkpt lat="48.69513" lon="-3.04615">
        <ele>45.37232</ele>
        <time>2023-03-24T19:00:14.748Z</time>
      </trkpt>
      <trkpt lat="48.6951" lon="-3.04605">
        <ele>45.541042</ele>
        <time>2023-03-24T19:00:17.840Z</time>
      </trkpt>
      <trkpt lat="48.6951" lon="-3.04597">
        <ele>45.668484</ele>
        <time>2023-03-24T19:00:19.772Z</time>
      </trkpt>
      <trkpt lat="48.69515" lon="-3.04562">
        <ele>46.239172</ele>
        <time>2023-03-24T19:00:30.286Z</time>
      </trkpt>
      <trkpt lat="48.69497" lon="-3.04557">
        <ele>46.670056</ele>
        <time>2023-03-24T19:00:35.560Z</time>
      </trkpt>
      <trkpt lat="48.69474" lon="-3.04545">
        <ele>47.242372</ele>
        <time>2023-03-24T19:00:44.302Z</time>
      </trkpt>
      <trkpt lat="48.69462" lon="-3.04565">
        <ele>47.662774</ele>
        <time>2023-03-24T19:00:50.272Z</time>
      </trkpt>
      <trkpt lat="48.69437" lon="-3.04604">
        <ele>49.365992</ele>
        <time>2023-03-24T19:01:04.902Z</time>
      </trkpt>
      <trkpt lat="48.6942" lon="-3.04591">
        <ele>50.317401</ele>
        <time>2023-03-24T19:01:13.172Z</time>
      </trkpt>
      <trkpt lat="48.69423" lon="-3.04571">
        <ele>50.984605</ele>
        <time>2023-03-24T19:01:18.385Z</time>
      </trkpt>
      <trkpt lat="48.6943" lon="-3.04519">
        <ele>52.757154</ele>
        <time>2023-03-24T19:01:33.651Z</time>
      </trkpt>
      <trkpt lat="48.69427" lon="-3.04459">
        <ele>54.782463</ele>
        <time>2023-03-24T19:01:53.440Z</time>
      </trkpt>
      <trkpt lat="48.69418" lon="-3.04418">
        <ele>56.254668</ele>
        <time>2023-03-24T19:02:07.807Z</time>
      </trkpt>
      <trkpt lat="48.6938" lon="-3.0432">
        <ele>60.420881</ele>
        <time>2023-03-24T19:02:45.122Z</time>
      </trkpt>
      <trkpt lat="48.69376" lon="-3.04303">
        <ele>61.073716</ele>
        <time>2023-03-24T19:02:51.436Z</time>
      </trkpt>
      <trkpt lat="48.69375" lon="-3.04287">
        <ele>61.673315</ele>
        <time>2023-03-24T19:02:57.019Z</time>
      </trkpt>
      <trkpt lat="48.6938" lon="-3.04231">
        <ele>63.804999</ele>
        <time>2023-03-24T19:03:14.975Z</time>
      </trkpt>
      <trkpt lat="48.69405" lon="-3.04086">
        <ele>68.636147</ele>
        <time>2023-03-24T19:03:58.260Z</time>
      </trkpt>
      <trkpt lat="48.69405" lon="-3.04041">
        <ele>69.755732</ele>
        <time>2023-03-24T19:04:09.710Z</time>
      </trkpt>
      <trkpt lat="48.69399" lon="-3.04001">
        <ele>70.784748</ele>
        <time>2023-03-24T19:04:19.619Z</time>
      </trkpt>
      <trkpt lat="48.69395" lon="-3.03954">
        <ele>71.977384</ele>
        <time>2023-03-24T19:04:30.771Z</time>
      </trkpt>
      <trkpt lat="48.69404" lon="-3.0383">
        <ele>74.846108</ele>
        <time>2023-03-24T19:04:59.351Z</time>
      </trkpt>
      <trkpt lat="48.69367" lon="-3.0381">
        <ele>76.035166</ele>
        <time>2023-03-24T19:05:18.087Z</time>
      </trkpt>
      <trkpt lat="48.69359" lon="-3.03801">
        <ele>76.325686</ele>
        <time>2023-03-24T19:05:22.551Z</time>
      </trkpt>
      <trkpt lat="48.69316" lon="-3.03712">
        <ele>78.535039</ele>
        <time>2023-03-24T19:05:58.002Z</time>
      </trkpt>
      <trkpt lat="48.69268" lon="-3.03516">
        <ele>81.153238</ele>
        <time>2023-03-24T19:06:57.064Z</time>
      </trkpt>
      <trkpt lat="48.69253" lon="-3.03486">
        <ele>81.559237</ele>
        <time>2023-03-24T19:07:06.260Z</time>
      </trkpt>
      <trkpt lat="48.69238" lon="-3.0347">
        <ele>81.853969</ele>
        <time>2023-03-24T19:07:12.711Z</time>
      </trkpt>
      <trkpt lat="48.69187" lon="-3.03442">
        <ele>82.021307</ele>
        <time>2023-03-24T19:07:31.123Z</time>
      </trkpt>
      <trkpt lat="48.69154" lon="-3.03405">
        <ele>81.646903</ele>
        <time>2023-03-24T19:07:44.068Z</time>
      </trkpt>
      <trkpt lat="48.69143" lon="-3.03349">
        <ele>81.297328</ele>
        <time>2023-03-24T19:07:55.520Z</time>
      </trkpt>
      <trkpt lat="48.69158" lon="-3.03248">
        <ele>80.677712</ele>
        <time>2023-03-24T19:08:14.454Z</time>
      </trkpt>
      <trkpt lat="48.69166" lon="-3.03212">
        <ele>80.019133</ele>
        <time>2023-03-24T19:08:21.215Z</time>
      </trkpt>
      <trkpt lat="48.69167" lon="-3.03175">
        <ele>79.329968</ele>
        <time>2023-03-24T19:08:27.493Z</time>
      </trkpt>
      <trkpt lat="48.69165" lon="-3.0315">
        <ele>78.839755</ele>
        <time>2023-03-24T19:08:32.033Z</time>
      </trkpt>
      <trkpt lat="48.69136" lon="-3.03115">
        <ele>77.784253</ele>
        <time>2023-03-24T19:08:41.815Z</time>
      </trkpt>
      <trkpt lat="48.69062" lon="-3.03014">
        <ele>74.751099</ele>
        <time>2023-03-24T19:09:07.476Z</time>
      </trkpt>
      <trkpt lat="48.69026" lon="-3.02902">
        <ele>71.565342</ele>
        <time>2023-03-24T19:09:28.136Z</time>
      </trkpt>
      <trkpt lat="48.6902" lon="-3.0284">
        <ele>69.960896</ele>
        <time>2023-03-24T19:09:38.613Z</time>
      </trkpt>
      <trkpt lat="48.68821" lon="-3.02378">
        <ele>54.308193</ele>
        <time>2023-03-24T19:11:07.990Z</time>
      </trkpt>
      <trkpt lat="48.68831" lon="-3.02357">
        <ele>53.56236</ele>
        <time>2023-03-24T19:11:10.364Z</time>
      </trkpt>
      <trkpt lat="48.68827" lon="-3.02357">
        <ele>53.415199</ele>
        <time>2023-03-24T19:11:11.212Z</time>
      </trkpt>
      <trkpt lat="48.68816" lon="-3.02357">
        <ele>52.926397</ele>
        <time>2023-03-24T19:11:13.966Z</time>
      </trkpt>
      <trkpt lat="48.68741" lon="-3.02359">
        <ele>50.259422</ele>
        <time>2023-03-24T19:11:32.870Z</time>
      </trkpt>
      <trkpt lat="48.68639" lon="-3.02369">
        <ele>46.63512</ele>
        <time>2023-03-24T19:11:58.991Z</time>
      </trkpt>
      <trkpt lat="48.68619" lon="-3.0237">
        <ele>46.097007</ele>
        <time>2023-03-24T19:12:04.351Z</time>
      </trkpt>
      <trkpt lat="48.68543" lon="-3.02377">
        <ele>44.202405</ele>
        <time>2023-03-24T19:12:24.762Z</time>
      </trkpt>
      <trkpt lat="48.6854" lon="-3.02377">
        <ele>44.106779</ele>
        <time>2023-03-24T19:12:25.781Z</time>
      </trkpt>
      <trkpt lat="48.68524" lon="-3.02424">
        <ele>43.239091</ele>
        <time>2023-03-24T19:12:35.105Z</time>
      </trkpt>
      <trkpt lat="48.68516" lon="-3.02436">
        <ele>42.961844</ele>
        <time>2023-03-24T19:12:38.078Z</time>
      </trkpt>
      <trkpt lat="48.68509" lon="-3.02453">
        <ele>42.621824</ele>
        <time>2023-03-24T19:12:41.696Z</time>
      </trkpt>
      <trkpt lat="48.68505" lon="-3.0247">
        <ele>42.333242</ele>
        <time>2023-03-24T19:12:44.725Z</time>
      </trkpt>
      <trkpt lat="48.68498" lon="-3.02484">
        <ele>42.024988</ele>
        <time>2023-03-24T19:12:47.930Z</time>
      </trkpt>
      <trkpt lat="48.68484" lon="-3.02511">
        <ele>41.596435</ele>
        <time>2023-03-24T19:12:53.714Z</time>
      </trkpt>
      <trkpt lat="48.68431" lon="-3.02659">
        <ele>39.476447</ele>
        <time>2023-03-24T19:13:23.839Z</time>
      </trkpt>
      <trkpt lat="48.68439" lon="-3.02716">
        <ele>38.74593</ele>
        <time>2023-03-24T19:13:34.721Z</time>
      </trkpt>
      <trkpt lat="48.68444" lon="-3.02735">
        <ele>38.612412</ele>
        <time>2023-03-24T19:13:38.617Z</time>
      </trkpt>
      <trkpt lat="48.68455" lon="-3.02744">
        <ele>38.6935</ele>
        <time>2023-03-24T19:13:42.401Z</time>
      </trkpt>
      <trkpt lat="48.68458" lon="-3.02755">
        <ele>38.74077</ele>
        <time>2023-03-24T19:13:44.861Z</time>
      </trkpt>
      <trkpt lat="48.68458" lon="-3.02852">
        <ele>39.138156</ele>
        <time>2023-03-24T19:14:06.110Z</time>
      </trkpt>
      <trkpt lat="48.68456" lon="-3.02917">
        <ele>39.40345</ele>
        <time>2023-03-24T19:14:21.822Z</time>
      </trkpt>
      <trkpt lat="48.68451" lon="-3.02959">
        <ele>39.579793</ele>
        <time>2023-03-24T19:14:33.270Z</time>
      </trkpt>
      <trkpt lat="48.68447" lon="-3.02974">
        <ele>39.646788</ele>
        <time>2023-03-24T19:14:37.884Z</time>
      </trkpt>
      <trkpt lat="48.68439" lon="-3.0298">
        <ele>39.708931</ele>
        <time>2023-03-24T19:14:42.185Z</time>
      </trkpt>
      <trkpt lat="48.68426" lon="-3.02982">
        <ele>39.943064</ele>
        <time>2023-03-24T19:14:46.700Z</time>
      </trkpt>
      <trkpt lat="48.68419" lon="-3.03022">
        <ele>40.453188</ele>
        <time>2023-03-24T19:14:58.687Z</time>
      </trkpt>
      <trkpt lat="48.68416" lon="-3.03029">
        <ele>40.552318</ele>
        <time>2023-03-24T19:15:00.634Z</time>
      </trkpt>
      <trkpt lat="48.68411" lon="-3.03032">
        <ele>40.652325</ele>
        <time>2023-03-24T19:15:02.650Z</time>
      </trkpt>
      <trkpt lat="48.683" lon="-3.02995">
        <ele>42.782946</ele>
        <time>2023-03-24T19:15:50.429Z</time>
      </trkpt>
      <trkpt lat="48.68287" lon="-3.02984">
        <ele>43.068342</ele>
        <time>2023-03-24T19:15:56.314Z</time>
      </trkpt>
      <trkpt lat="48.68255" lon="-3.02947">
        <ele>43.616074</ele>
        <time>2023-03-24T19:16:11.797Z</time>
      </trkpt>
      <trkpt lat="48.68223" lon="-3.02902">
        <ele>44.202025</ele>
        <time>2023-03-24T19:16:28.464Z</time>
      </trkpt>
      <trkpt lat="48.68202" lon="-3.02884">
        <ele>44.529184</ele>
        <time>2023-03-24T19:16:37.891Z</time>
      </trkpt>
      <trkpt lat="48.68082" lon="-3.02725">
        <ele>46.006104</ele>
        <time>2023-03-24T19:17:38.480Z</time>
      </trkpt>
      <trkpt lat="48.68026" lon="-3.02655">
        <ele>46.425706</ele>
        <time>2023-03-24T19:18:02.968Z</time>
      </trkpt>
      <trkpt lat="48.67939" lon="-3.02556">
        <ele>45.403253</ele>
        <time>2023-03-24T19:18:34.830Z</time>
      </trkpt>
      <trkpt lat="48.67887" lon="-3.02486">
        <ele>44.515752</ele>
        <time>2023-03-24T19:18:54.077Z</time>
      </trkpt>
      <trkpt lat="48.67877" lon="-3.02469">
        <ele>44.32244</ele>
        <time>2023-03-24T19:18:58.187Z</time>
      </trkpt>
      <trkpt lat="48.67862" lon="-3.02417">
        <ele>44.008533</ele>
        <time>2023-03-24T19:19:08.605Z</time>
      </trkpt>
      <trkpt lat="48.67868" lon="-3.0237">
        <ele>43.76725</ele>
        <time>2023-03-24T19:19:17.632Z</time>
      </trkpt>
      <trkpt lat="48.67931" lon="-3.02223">
        <ele>42.88637</ele>
        <time>2023-03-24T19:19:52.196Z</time>
      </trkpt>
      <trkpt lat="48.67932" lon="-3.02213">
        <ele>43.000653</ele>
        <time>2023-03-24T19:19:54.722Z</time>
      </trkpt>
      <trkpt lat="48.67934" lon="-3.022">
        <ele>43.184488</ele>
        <time>2023-03-24T19:19:57.961Z</time>
      </trkpt>
      <trkpt lat="48.67932" lon="-3.02191">
        <ele>43.307623</ele>
        <time>2023-03-24T19:20:00.300Z</time>
      </trkpt>
      <trkpt lat="48.67893" lon="-3.02125">
        <ele>44.555353</ele>
        <time>2023-03-24T19:20:25.122Z</time>
      </trkpt>
      <trkpt lat="48.6789" lon="-3.0212">
        <ele>44.640915</ele>
        <time>2023-03-24T19:20:26.896Z</time>
      </trkpt>
      <trkpt lat="48.68031" lon="-3.02062">
        <ele>47.720523</ele>
        <time>2023-03-24T19:21:15.762Z</time>
      </trkpt>
      <trkpt lat="48.68033" lon="-3.0201">
        <ele>48.449887</ele>
        <time>2023-03-24T19:21:28.068Z</time>
      </trkpt>
      <trkpt lat="48.68051" lon="-3.01913">
        <ele>49.853065</ele>
        <time>2023-03-24T19:21:48.341Z</time>
      </trkpt>
      <trkpt lat="48.68059" lon="-3.01869">
        <ele>50.465964</ele>
        <time>2023-03-24T19:21:55.890Z</time>
      </trkpt>
      <trkpt lat="48.68071" lon="-3.018">
        <ele>50.324916</ele>
        <time>2023-03-24T19:22:05.920Z</time>
      </trkpt>
      <trkpt lat="48.68078" lon="-3.01765">
        <ele>50.254765</ele>
        <time>2023-03-24T19:22:10.427Z</time>
      </trkpt>
      <trkpt lat="48.68054" lon="-3.01768">
        <ele>50.184674</ele>
        <time>2023-03-24T19:22:14.823Z</time>
      </trkpt>
      <trkpt lat="48.6775" lon="-3.01895">
        <ele>48.56464</ele>
        <time>2023-03-24T19:23:12.625Z</time>
      </trkpt>
      <trkpt lat="48.67733" lon="-3.01896">
        <ele>48.571246</ele>
        <time>2023-03-24T19:23:15.979Z</time>
      </trkpt>
      <trkpt lat="48.67724" lon="-3.01892">
        <ele>48.575031</ele>
        <time>2023-03-24T19:23:17.944Z</time>
      </trkpt>
      <trkpt lat="48.67715" lon="-3.01883">
        <ele>48.579212</ele>
        <time>2023-03-24T19:23:20.130Z</time>
      </trkpt>
      <trkpt lat="48.67704" lon="-3.01866">
        <ele>48.585472</ele>
        <time>2023-03-24T19:23:23.418Z</time>
      </trkpt>
      <trkpt lat="48.67681" lon="-3.01762">
        <ele>48.613764</ele>
        <time>2023-03-24T19:23:39.347Z</time>
      </trkpt>
      <trkpt lat="48.67681" lon="-3.01761">
        <ele>48.614035</ele>
        <time>2023-03-24T19:23:39.514Z</time>
      </trkpt>
      <trkpt lat="48.67643" lon="-3.01605">
        <ele>49.730364</ele>
        <time>2023-03-24T19:24:08.487Z</time>
      </trkpt>
      <trkpt lat="48.67641" lon="-3.01588">
        <ele>49.848647</ele>
        <time>2023-03-24T19:24:11.474Z</time>
      </trkpt>
      <trkpt lat="48.67642" lon="-3.01564">
        <ele>50.018045</ele>
        <time>2023-03-24T19:24:15.748Z</time>
      </trkpt>
      <trkpt lat="48.67652" lon="-3.01437">
        <ele>50.589711</ele>
        <time>2023-03-24T19:24:36.580Z</time>
      </trkpt>
      <trkpt lat="48.67654" lon="-3.01347">
        <ele>50.753295</ele>
        <time>2023-03-24T19:24:50.231Z</time>
      </trkpt>
      <trkpt lat="48.67637" lon="-3.01169">
        <ele>50.835758</ele>
        <time>2023-03-24T19:25:13.544Z</time>
      </trkpt>
      <trkpt lat="48.67636" lon="-3.01083">
        <ele>50.630063</ele>
        <time>2023-03-24T19:25:24.131Z</time>
      </trkpt>
      <trkpt lat="48.67638" lon="-3.01063">
        <ele>50.580959</ele>
        <time>2023-03-24T19:25:26.686Z</time>
      </trkpt>
      <trkpt lat="48.67645" lon="-3.00951">
        <ele>50.323594</ele>
        <time>2023-03-24T19:25:40.763Z</time>
      </trkpt>
      <trkpt lat="48.67645" lon="-3.00666">
        <ele>50.544381</ele>
        <time>2023-03-24T19:26:19.577Z</time>
      </trkpt>
      <trkpt lat="48.67641" lon="-3.00613">
        <ele>50.809752</ele>
        <time>2023-03-24T19:26:27.447Z</time>
      </trkpt>
      <trkpt lat="48.67604" lon="-3.00621">
        <ele>51.094762</ele>
        <time>2023-03-24T19:26:36.806Z</time>
      </trkpt>
      <trkpt lat="48.67594" lon="-3.0063">
        <ele>51.18564</ele>
        <time>2023-03-24T19:26:39.657Z</time>
      </trkpt>
      <trkpt lat="48.67584" lon="-3.00645">
        <ele>51.287278</ele>
        <time>2023-03-24T19:26:42.793Z</time>
      </trkpt>
      <trkpt lat="48.67579" lon="-3.00647">
        <ele>51.327139</ele>
        <time>2023-03-24T19:26:44.265Z</time>
      </trkpt>
      <trkpt lat="48.67572" lon="-3.00649">
        <ele>51.384929</ele>
        <time>2023-03-24T19:26:46.400Z</time>
      </trkpt>
      <trkpt lat="48.67517" lon="-3.00606">
        <ele>51.867949</ele>
        <time>2023-03-24T19:27:01.583Z</time>
      </trkpt>
      <trkpt lat="48.67499" lon="-3.00596">
        <ele>52.100399</ele>
        <time>2023-03-24T19:27:06.838Z</time>
      </trkpt>
      <trkpt lat="48.67477" lon="-3.00598">
        <ele>52.366824</ele>
        <time>2023-03-24T19:27:15.432Z</time>
      </trkpt>
      <trkpt lat="48.67426" lon="-3.0062">
        <ele>52.99069</ele>
        <time>2023-03-24T19:27:35.341Z</time>
      </trkpt>
      <trkpt lat="48.674" lon="-3.00635">
        <ele>53.321405</ele>
        <time>2023-03-24T19:27:45.793Z</time>
      </trkpt>
      <trkpt lat="48.6737" lon="-3.00638">
        <ele>53.685593</ele>
        <time>2023-03-24T19:27:57.516Z</time>
      </trkpt>
      <trkpt lat="48.67326" lon="-3.00649">
        <ele>54.18705</ele>
        <time>2023-03-24T19:28:14.392Z</time>
      </trkpt>
      <trkpt lat="48.67291" lon="-3.00669">
        <ele>54.577833</ele>
        <time>2023-03-24T19:28:27.905Z</time>
      </trkpt>
      <trkpt lat="48.67263" lon="-3.00677">
        <ele>54.884185</ele>
        <time>2023-03-24T19:28:38.662Z</time>
      </trkpt>
      <trkpt lat="48.67225" lon="-3.00672">
        <ele>55.2907</ele>
        <time>2023-03-24T19:28:53.111Z</time>
      </trkpt>
      <trkpt lat="48.67165" lon="-3.00627">
        <ele>55.96204</ele>
        <time>2023-03-24T19:29:17.625Z</time>
      </trkpt>
      <trkpt lat="48.67119" lon="-3.00573">
        <ele>56.398296</ele>
        <time>2023-03-24T19:29:38.471Z</time>
      </trkpt>
      <trkpt lat="48.67081" lon="-3.00558">
        <ele>56.695416</ele>
        <time>2023-03-24T19:29:52.267Z</time>
      </trkpt>
      <trkpt lat="48.67057" lon="-3.00541">
        <ele>56.894514</ele>
        <time>2023-03-24T19:30:01.041Z</time>
      </trkpt>
      <trkpt lat="48.67072" lon="-3.00508">
        <ele>57.097623</ele>
        <time>2023-03-24T19:30:07.453Z</time>
      </trkpt>
      <trkpt lat="48.67121" lon="-3.00375">
        <ele>58.195602</ele>
        <time>2023-03-24T19:30:31.743Z</time>
      </trkpt>
      <trkpt lat="48.67127" lon="-3.00367">
        <ele>58.292218</ele>
        <time>2023-03-24T19:30:33.778Z</time>
      </trkpt>
      <trkpt lat="48.67129" lon="-3.00352">
        <ele>58.407703</ele>
        <time>2023-03-24T19:30:36.141Z</time>
      </trkpt>
      <trkpt lat="48.67191" lon="-3.00191">
        <ele>59.965005</ele>
        <time>2023-03-24T19:31:11.564Z</time>
      </trkpt>
      <trkpt lat="48.67268" lon="-2.99994">
        <ele>61.934724</ele>
        <time>2023-03-24T19:31:53.055Z</time>
      </trkpt>
      <trkpt lat="48.67209" lon="-2.99934">
        <ele>62.143042</ele>
        <time>2023-03-24T19:32:08.635Z</time>
      </trkpt>
      <trkpt lat="48.67125" lon="-2.99817">
        <ele>62.49668</ele>
        <time>2023-03-24T19:32:30.968Z</time>
      </trkpt>
      <trkpt lat="48.67048" lon="-2.99724">
        <ele>62.887042</ele>
        <time>2023-03-24T19:32:52.755Z</time>
      </trkpt>
      <trkpt lat="48.67004" lon="-2.99652">
        <ele>63.141192</ele>
        <time>2023-03-24T19:33:08.475Z</time>
      </trkpt>
      <trkpt lat="48.6698" lon="-2.99592">
        <ele>63.284093</ele>
        <time>2023-03-24T19:33:19.262Z</time>
      </trkpt>
      <trkpt lat="48.66945" lon="-2.99496">
        <ele>63.505098</ele>
        <time>2023-03-24T19:33:34.761Z</time>
      </trkpt>
      <trkpt lat="48.6694" lon="-2.99476">
        <ele>63.549139</ele>
        <time>2023-03-24T19:33:37.576Z</time>
      </trkpt>
      <trkpt lat="48.66921" lon="-2.99389">
        <ele>63.765151</ele>
        <time>2023-03-24T19:33:50.483Z</time>
      </trkpt>
      <trkpt lat="48.66907" lon="-2.99387">
        <ele>63.834101</ele>
        <time>2023-03-24T19:33:54.980Z</time>
      </trkpt>
      <trkpt lat="48.66873" lon="-2.9937">
        <ele>64.004975</ele>
        <time>2023-03-24T19:34:06.494Z</time>
      </trkpt>
      <trkpt lat="48.66853" lon="-2.99353">
        <ele>64.112356</ele>
        <time>2023-03-24T19:34:13.901Z</time>
      </trkpt>
      <trkpt lat="48.66726" lon="-2.99267">
        <ele>65.135099</ele>
        <time>2023-03-24T19:35:03.989Z</time>
      </trkpt>
      <trkpt lat="48.66664" lon="-2.99217">
        <ele>65.972829</ele>
        <time>2023-03-24T19:35:31.477Z</time>
      </trkpt>
      <trkpt lat="48.66644" lon="-2.99206">
        <ele>66.221299</ele>
        <time>2023-03-24T19:35:39.563Z</time>
      </trkpt>
      <trkpt lat="48.66536" lon="-2.99174">
        <ele>66.82432</ele>
        <time>2023-03-24T19:36:20.738Z</time>
      </trkpt>
      <trkpt lat="48.6643" lon="-2.9913">
        <ele>67.010659</ele>
        <time>2023-03-24T19:36:54.965Z</time>
      </trkpt>
      <trkpt lat="48.66391" lon="-2.99105">
        <ele>66.248294</ele>
        <time>2023-03-24T19:37:07.250Z</time>
      </trkpt>
      <trkpt lat="48.66349" lon="-2.99119">
        <ele>65.485792</ele>
        <time>2023-03-24T19:37:14.385Z</time>
      </trkpt>
      <trkpt lat="48.66329" lon="-2.99081">
        <ele>64.898464</ele>
        <time>2023-03-24T19:37:19.672Z</time>
      </trkpt>
      <trkpt lat="48.66306" lon="-2.99017">
        <ele>64.032496</ele>
        <time>2023-03-24T19:37:27.442Z</time>
      </trkpt>
      <trkpt lat="48.66266" lon="-2.98985">
        <ele>62.923457</ele>
        <time>2023-03-24T19:37:34.594Z</time>
      </trkpt>
      <trkpt lat="48.6626" lon="-2.98946">
        <ele>62.216047</ele>
        <time>2023-03-24T19:37:38.810Z</time>
      </trkpt>
      <trkpt lat="48.66268" lon="-2.98898">
        <ele>61.338101</ele>
        <time>2023-03-24T19:37:43.605Z</time>
      </trkpt>
      <trkpt lat="48.66267" lon="-2.98865">
        <ele>60.763173</ele>
        <time>2023-03-24T19:37:46.759Z</time>
      </trkpt>
      <trkpt lat="48.66261" lon="-2.98817">
        <ele>59.892622</ele>
        <time>2023-03-24T19:37:51.533Z</time>
      </trkpt>
      <trkpt lat="48.66244" lon="-2.98746">
        <ele>58.659612</ele>
        <time>2023-03-24T19:37:58.977Z</time>
      </trkpt>
      <trkpt lat="48.66236" lon="-2.98658">
        <ele>57.442881</ele>
        <time>2023-03-24T19:38:07.729Z</time>
      </trkpt>
      <trkpt lat="48.66164" lon="-2.98673">
        <ele>55.90926</ele>
        <time>2023-03-24T19:38:19.092Z</time>
      </trkpt>
      <trkpt lat="48.66093" lon="-2.98689">
        <ele>55.083896</ele>
        <time>2023-03-24T19:38:30.493Z</time>
      </trkpt>
      <trkpt lat="48.65942" lon="-2.98687">
        <ele>54.530142</ele>
        <time>2023-03-24T19:38:58.918Z</time>
      </trkpt>
      <trkpt lat="48.65908" lon="-2.98676">
        <ele>54.788057</ele>
        <time>2023-03-24T19:39:06.685Z</time>
      </trkpt>
      <trkpt lat="48.65894" lon="-2.98664">
        <ele>54.909043</ele>
        <time>2023-03-24T19:39:10.214Z</time>
      </trkpt>
      <trkpt lat="48.65876" lon="-2.98643">
        <ele>55.073359</ele>
        <time>2023-03-24T19:39:15.433Z</time>
      </trkpt>
      <trkpt lat="48.65868" lon="-2.98632">
        <ele>55.157658</ele>
        <time>2023-03-24T19:39:18.004Z</time>
      </trkpt>
      <trkpt lat="48.65826" lon="-2.98584">
        <ele>55.543066</ele>
        <time>2023-03-24T19:39:30.873Z</time>
      </trkpt>
      <trkpt lat="48.65799" lon="-2.98563">
        <ele>55.765707</ele>
        <time>2023-03-24T19:39:38.408Z</time>
      </trkpt>
      <trkpt lat="48.6576" lon="-2.98544">
        <ele>56.184681</ele>
        <time>2023-03-24T19:39:48.543Z</time>
      </trkpt>
      <trkpt lat="48.65685" lon="-2.98522">
        <ele>56.9809</ele>
        <time>2023-03-24T19:40:07.117Z</time>
      </trkpt>
      <trkpt lat="48.65681" lon="-2.98389">
        <ele>57.947913</ele>
        <time>2023-03-24T19:40:29.383Z</time>
      </trkpt>
      <trkpt lat="48.65669" lon="-2.98325">
        <ele>58.496944</ele>
        <time>2023-03-24T19:40:40.252Z</time>
      </trkpt>
      <trkpt lat="48.65656" lon="-2.98293">
        <ele>58.809065</ele>
        <time>2023-03-24T19:40:49.580Z</time>
      </trkpt>
      <trkpt lat="48.65647" lon="-2.98278">
        <ele>58.981095</ele>
        <time>2023-03-24T19:40:54.558Z</time>
      </trkpt>
      <trkpt lat="48.65606" lon="-2.98233">
        <ele>59.606972</ele>
        <time>2023-03-24T19:41:13.885Z</time>
      </trkpt>
      <trkpt lat="48.65602" lon="-2.98224">
        <ele>59.696775</ele>
        <time>2023-03-24T19:41:16.868Z</time>
      </trkpt>
      <trkpt lat="48.65599" lon="-2.98214">
        <ele>59.785199</ele>
        <time>2023-03-24T19:41:19.664Z</time>
      </trkpt>
      <trkpt lat="48.65599" lon="-2.98184">
        <ele>60.1637</ele>
        <time>2023-03-24T19:41:27.828Z</time>
      </trkpt>
      <trkpt lat="48.65595" lon="-2.98143">
        <ele>60.774519</ele>
        <time>2023-03-24T19:41:39.221Z</time>
      </trkpt>
      <trkpt lat="48.65498" lon="-2.98143">
        <ele>62.972647</ele>
        <time>2023-03-24T19:42:21.436Z</time>
      </trkpt>
      <trkpt lat="48.65426" lon="-2.98122">
        <ele>64.509651</ele>
        <time>2023-03-24T19:42:54.376Z</time>
      </trkpt>
      <trkpt lat="48.6538" lon="-2.98113">
        <ele>65.406632</ele>
        <time>2023-03-24T19:43:14.348Z</time>
      </trkpt>
      <trkpt lat="48.6534" lon="-2.98097">
        <ele>66.182891</ele>
        <time>2023-03-24T19:43:31.373Z</time>
      </trkpt>
      <trkpt lat="48.65314" lon="-2.98027">
        <ele>67.198177</ele>
        <time>2023-03-24T19:43:52.064Z</time>
      </trkpt>
      <trkpt lat="48.65307" lon="-2.97976">
        <ele>67.586267</ele>
        <time>2023-03-24T19:44:04.894Z</time>
      </trkpt>
      <trkpt lat="48.65299" lon="-2.97921">
        <ele>67.896542</ele>
        <time>2023-03-24T19:44:14.872Z</time>
      </trkpt>
      <trkpt lat="48.65299" lon="-2.97883">
        <ele>68.104918</ele>
        <time>2023-03-24T19:44:21.133Z</time>
      </trkpt>
      <trkpt lat="48.65307" lon="-2.9783">
        <ele>68.404985</ele>
        <time>2023-03-24T19:44:29.113Z</time>
      </trkpt>
      <trkpt lat="48.65305" lon="-2.97824">
        <ele>68.440843</ele>
        <time>2023-03-24T19:44:30.053Z</time>
      </trkpt>
      <trkpt lat="48.65301" lon="-2.97816">
        <ele>68.495276</ele>
        <time>2023-03-24T19:44:31.533Z</time>
      </trkpt>
      <trkpt lat="48.65295" lon="-2.97811">
        <ele>68.557111</ele>
        <time>2023-03-24T19:44:33.386Z</time>
      </trkpt>
      <trkpt lat="48.6526" lon="-2.97801">
        <ele>68.851463</ele>
        <time>2023-03-24T19:44:41.437Z</time>
      </trkpt>
      <trkpt lat="48.65252" lon="-2.97796">
        <ele>68.873975</ele>
        <time>2023-03-24T19:44:43.292Z</time>
      </trkpt>
      <trkpt lat="48.65247" lon="-2.97792">
        <ele>68.872633</ele>
        <time>2023-03-24T19:44:44.497Z</time>
      </trkpt>
      <trkpt lat="48.65229" lon="-2.97771">
        <ele>68.867314</ele>
        <time>2023-03-24T19:44:50.052Z</time>
      </trkpt>
      <trkpt lat="48.65236" lon="-2.97729">
        <ele>68.860605</ele>
        <time>2023-03-24T19:44:56.083Z</time>
      </trkpt>
      <trkpt lat="48.65237" lon="-2.97701">
        <ele>68.856209</ele>
        <time>2023-03-24T19:44:59.884Z</time>
      </trkpt>
      <trkpt lat="48.65235" lon="-2.97675">
        <ele>68.852185</ele>
        <time>2023-03-24T19:45:03.107Z</time>
      </trkpt>
      <trkpt lat="48.65216" lon="-2.97588">
        <ele>68.837865</ele>
        <time>2023-03-24T19:45:15.015Z</time>
      </trkpt>
      <trkpt lat="48.65206" lon="-2.97554">
        <ele>68.822269</ele>
        <time>2023-03-24T19:45:22.884Z</time>
      </trkpt>
      <trkpt lat="48.652" lon="-2.97491">
        <ele>68.708759</ele>
        <time>2023-03-24T19:45:35.403Z</time>
      </trkpt>
      <trkpt lat="48.65203" lon="-2.97472">
        <ele>68.673914</ele>
        <time>2023-03-24T19:45:39.245Z</time>
      </trkpt>
      <trkpt lat="48.65277" lon="-2.97384">
        <ele>68.42045</ele>
        <time>2023-03-24T19:46:08.448Z</time>
      </trkpt>
      <trkpt lat="48.65277" lon="-2.97379">
        <ele>68.410783</ele>
        <time>2023-03-24T19:46:09.341Z</time>
      </trkpt>
      <trkpt lat="48.65278" lon="-2.97371">
        <ele>68.396648</ele>
        <time>2023-03-24T19:46:11.353Z</time>
      </trkpt>
      <trkpt lat="48.6522" lon="-2.97272">
        <ele>69.021573</ele>
        <time>2023-03-24T19:46:39.968Z</time>
      </trkpt>
      <trkpt lat="48.65207" lon="-2.97229">
        <ele>69.324459</ele>
        <time>2023-03-24T19:46:51.467Z</time>
      </trkpt>
      <trkpt lat="48.65201" lon="-2.97175">
        <ele>69.680021</ele>
        <time>2023-03-24T19:47:05.463Z</time>
      </trkpt>
      <trkpt lat="48.65166" lon="-2.97125">
        <ele>70.187537</ele>
        <time>2023-03-24T19:47:24.928Z</time>
      </trkpt>
      <trkpt lat="48.65137" lon="-2.97108">
        <ele>70.725419</ele>
        <time>2023-03-24T19:47:37.790Z</time>
      </trkpt>
      <trkpt lat="48.6511" lon="-2.97101">
        <ele>71.207489</ele>
        <time>2023-03-24T19:47:49.508Z</time>
      </trkpt>
      <trkpt lat="48.64997" lon="-2.97101">
        <ele>73.161091</ele>
        <time>2023-03-24T19:48:35.445Z</time>
      </trkpt>
      <trkpt lat="48.64933" lon="-2.97092">
        <ele>73.436476</ele>
        <time>2023-03-24T19:49:00.121Z</time>
      </trkpt>
      <trkpt lat="48.64908" lon="-2.97094">
        <ele>73.522423</ele>
        <time>2023-03-24T19:49:08.762Z</time>
      </trkpt>
      <trkpt lat="48.6487" lon="-2.97082">
        <ele>73.658741</ele>
        <time>2023-03-24T19:49:21.550Z</time>
      </trkpt>
      <trkpt lat="48.64857" lon="-2.97087">
        <ele>73.70411</ele>
        <time>2023-03-24T19:49:25.750Z</time>
      </trkpt>
      <trkpt lat="48.64842" lon="-2.97076">
        <ele>73.762421</ele>
        <time>2023-03-24T19:49:28.697Z</time>
      </trkpt>
      <trkpt lat="48.64814" lon="-2.97073">
        <ele>73.825916</ele>
        <time>2023-03-24T19:49:33.774Z</time>
      </trkpt>
      <trkpt lat="48.64784" lon="-2.97059">
        <ele>73.50316</ele>
        <time>2023-03-24T19:49:39.536Z</time>
      </trkpt>
      <trkpt lat="48.64753" lon="-2.97037">
        <ele>73.159253</ele>
        <time>2023-03-24T19:49:45.575Z</time>
      </trkpt>
      <trkpt lat="48.64709" lon="-2.96986">
        <ele>72.597326</ele>
        <time>2023-03-24T19:49:55.354Z</time>
      </trkpt>
      <trkpt lat="48.64684" lon="-2.96972">
        <ele>72.331045</ele>
        <time>2023-03-24T19:50:00.058Z</time>
      </trkpt>
      <trkpt lat="48.64615" lon="-2.96952">
        <ele>71.758039</ele>
        <time>2023-03-24T19:50:12.599Z</time>
      </trkpt>
      <trkpt lat="48.64608" lon="-2.96943">
        <ele>71.698017</ele>
        <time>2023-03-24T19:50:14.198Z</time>
      </trkpt>
      <trkpt lat="48.64586" lon="-2.96869">
        <ele>71.334402</ele>
        <time>2023-03-24T19:50:24.195Z</time>
      </trkpt>
      <trkpt lat="48.64572" lon="-2.96857">
        <ele>71.221152</ele>
        <time>2023-03-24T19:50:27.442Z</time>
      </trkpt>
      <trkpt lat="48.64555" lon="-2.9685">
        <ele>71.106191</ele>
        <time>2023-03-24T19:50:30.691Z</time>
      </trkpt>
      <trkpt lat="48.64513" lon="-2.9685">
        <ele>70.81952</ele>
        <time>2023-03-24T19:50:38.858Z</time>
      </trkpt>
      <trkpt lat="48.64491" lon="-2.96841">
        <ele>70.678647</ele>
        <time>2023-03-24T19:50:43.045Z</time>
      </trkpt>
      <trkpt lat="48.64475" lon="-2.96828">
        <ele>70.564999</ele>
        <time>2023-03-24T19:50:46.456Z</time>
      </trkpt>
      <trkpt lat="48.64462" lon="-2.96805">
        <ele>70.43366</ele>
        <time>2023-03-24T19:50:50.246Z</time>
      </trkpt>
      <trkpt lat="48.64448" lon="-2.96782">
        <ele>70.304844</ele>
        <time>2023-03-24T19:50:54.035Z</time>
      </trkpt>
      <trkpt lat="48.64417" lon="-2.96671">
        <ele>69.796645</ele>
        <time>2023-03-24T19:51:08.698Z</time>
      </trkpt>
      <trkpt lat="48.64362" lon="-2.96573">
        <ele>69.392705</ele>
        <time>2023-03-24T19:51:24.372Z</time>
      </trkpt>
      <trkpt lat="48.64291" lon="-2.96486">
        <ele>68.999053</ele>
        <time>2023-03-24T19:51:41.911Z</time>
      </trkpt>
      <trkpt lat="48.64263" lon="-2.96369">
        <ele>69.032016</ele>
        <time>2023-03-24T19:51:58.752Z</time>
      </trkpt>
      <trkpt lat="48.64242" lon="-2.96318">
        <ele>69.119401</ele>
        <time>2023-03-24T19:52:07.425Z</time>
      </trkpt>
      <trkpt lat="48.64229" lon="-2.96295">
        <ele>69.162852</ele>
        <time>2023-03-24T19:52:11.842Z</time>
      </trkpt>
      <trkpt lat="48.64212" lon="-2.9627">
        <ele>69.215307</ele>
        <time>2023-03-24T19:52:17.114Z</time>
      </trkpt>
      <trkpt lat="48.64185" lon="-2.96241">
        <ele>69.2876</ele>
        <time>2023-03-24T19:52:24.362Z</time>
      </trkpt>
      <trkpt lat="48.64162" lon="-2.962">
        <ele>69.360155</ele>
        <time>2023-03-24T19:52:32.118Z</time>
      </trkpt>
      <trkpt lat="48.64143" lon="-2.96156">
        <ele>69.431155</ele>
        <time>2023-03-24T19:52:39.659Z</time>
      </trkpt>
      <trkpt lat="48.64126" lon="-2.96106">
        <ele>69.50531</ele>
        <time>2023-03-24T19:52:47.352Z</time>
      </trkpt>
      <trkpt lat="48.64092" lon="-2.95898">
        <ele>69.911767</ele>
        <time>2023-03-24T19:53:16.730Z</time>
      </trkpt>
      <trkpt lat="48.64038" lon="-2.95759">
        <ele>70.325736</ele>
        <time>2023-03-24T19:53:40.950Z</time>
      </trkpt>
      <trkpt lat="48.64009" lon="-2.95697">
        <ele>71.103533</ele>
        <time>2023-03-24T19:53:52.511Z</time>
      </trkpt>
      <trkpt lat="48.63981" lon="-2.9565">
        <ele>71.855681</ele>
        <time>2023-03-24T19:54:04.656Z</time>
      </trkpt>
      <trkpt lat="48.63981" lon="-2.95639">
        <ele>71.983331</ele>
        <time>2023-03-24T19:54:06.799Z</time>
      </trkpt>
      <trkpt lat="48.63985" lon="-2.95622">
        <ele>72.20811</ele>
        <time>2023-03-24T19:54:10.912Z</time>
      </trkpt>
      <trkpt lat="48.6399" lon="-2.95605">
        <ele>72.424119</ele>
        <time>2023-03-24T19:54:14.713Z</time>
      </trkpt>
      <trkpt lat="48.64008" lon="-2.95586">
        <ele>72.815948</ele>
        <time>2023-03-24T19:54:21.565Z</time>
      </trkpt>
      <trkpt lat="48.64064" lon="-2.95598">
        <ele>73.961957</ele>
        <time>2023-03-24T19:54:39.534Z</time>
      </trkpt>
      <trkpt lat="48.6408" lon="-2.95567">
        <ele>74.688353</ele>
        <time>2023-03-24T19:54:51.944Z</time>
      </trkpt>
      <trkpt lat="48.64094" lon="-2.95504">
        <ele>75.910672</ele>
        <time>2023-03-24T19:55:11.665Z</time>
      </trkpt>
      <trkpt lat="48.64095" lon="-2.95438">
        <ele>77.110805</ele>
        <time>2023-03-24T19:55:32.052Z</time>
      </trkpt>
      <trkpt lat="48.64071" lon="-2.95273">
        <ele>79.757521</ele>
        <time>2023-03-24T19:56:23.624Z</time>
      </trkpt>
      <trkpt lat="48.6405" lon="-2.95208">
        <ele>80.707304</ele>
        <time>2023-03-24T19:56:43.397Z</time>
      </trkpt>
      <trkpt lat="48.64032" lon="-2.95116">
        <ele>81.972471</ele>
        <time>2023-03-24T19:57:08.513Z</time>
      </trkpt>
      <trkpt lat="48.64023" lon="-2.95043">
        <ele>82.368142</ele>
        <time>2023-03-24T19:57:26.637Z</time>
      </trkpt>
      <trkpt lat="48.64027" lon="-2.9496">
        <ele>82.659269</ele>
        <time>2023-03-24T19:57:45.637Z</time>
      </trkpt>
      <trkpt lat="48.64026" lon="-2.94898">
        <ele>82.874639</ele>
        <time>2023-03-24T19:57:59.171Z</time>
      </trkpt>
      <trkpt lat="48.64015" lon="-2.94817">
        <ele>83.075597</ele>
        <time>2023-03-24T19:58:16.893Z</time>
      </trkpt>
      <trkpt lat="48.64008" lon="-2.94686">
        <ele>82.773255</ele>
        <time>2023-03-24T19:58:43.486Z</time>
      </trkpt>
      <trkpt lat="48.6401" lon="-2.94613">
        <ele>82.60527</ele>
        <time>2023-03-24T19:58:58.116Z</time>
      </trkpt>
      <trkpt lat="48.64019" lon="-2.94525">
        <ele>82.530794</ele>
        <time>2023-03-24T19:59:15.941Z</time>
      </trkpt>
      <trkpt lat="48.64017" lon="-2.94503">
        <ele>82.559336</ele>
        <time>2023-03-24T19:59:18.601Z</time>
      </trkpt>
      <trkpt lat="48.64002" lon="-2.94273">
        <ele>83.009307</ele>
        <time>2023-03-24T19:59:50.111Z</time>
      </trkpt>
      <trkpt lat="48.63999" lon="-2.94221">
        <ele>83.547439</ele>
        <time>2023-03-24T19:59:58.998Z</time>
      </trkpt>
      <trkpt lat="48.63976" lon="-2.94186">
        <ele>84.047654</ele>
        <time>2023-03-24T20:00:07.297Z</time>
      </trkpt>
      <trkpt lat="48.63976" lon="-2.94186">
        <ele>84.047654</ele>
        <time>2023-03-24T20:00:07.327Z</time>
      </trkpt>
      <trkpt lat="48.63973" lon="-2.94158">
        <ele>84.350622</ele>
        <time>2023-03-24T20:00:15.656Z</time>
      </trkpt>
      <trkpt lat="48.6397" lon="-2.94141">
        <ele>84.531143</ele>
        <time>2023-03-24T20:00:20.618Z</time>
      </trkpt>
      <trkpt lat="48.63967" lon="-2.94123">
        <ele>84.715231</ele>
        <time>2023-03-24T20:00:25.679Z</time>
      </trkpt>
      <trkpt lat="48.63967" lon="-2.94117">
        <ele>84.777624</ele>
        <time>2023-03-24T20:00:27.394Z</time>
      </trkpt>
      <trkpt lat="48.63965" lon="-2.94106">
        <ele>84.898507</ele>
        <time>2023-03-24T20:00:30.718Z</time>
      </trkpt>
      <trkpt lat="48.63964" lon="-2.94089">
        <ele>85.075156</ele>
        <time>2023-03-24T20:00:35.574Z</time>
      </trkpt>
      <trkpt lat="48.63964" lon="-2.94078">
        <ele>85.183126</ele>
        <time>2023-03-24T20:00:38.542Z</time>
      </trkpt>
      <trkpt lat="48.63964" lon="-2.94073">
        <ele>85.23769</ele>
        <time>2023-03-24T20:00:40.042Z</time>
      </trkpt>
      <trkpt lat="48.63966" lon="-2.94071">
        <ele>85.270916</ele>
        <time>2023-03-24T20:00:40.955Z</time>
      </trkpt>
      <trkpt lat="48.63966" lon="-2.94065">
        <ele>85.327658</ele>
        <time>2023-03-24T20:00:42.515Z</time>
      </trkpt>
      <trkpt lat="48.63966" lon="-2.94059">
        <ele>85.393627</ele>
        <time>2023-03-24T20:00:44.331Z</time>
      </trkpt>
      <trkpt lat="48.63966" lon="-2.94047">
        <ele>85.512123</ele>
        <time>2023-03-24T20:00:47.588Z</time>
      </trkpt>
      <trkpt lat="48.63966" lon="-2.94041">
        <ele>85.574842</ele>
        <time>2023-03-24T20:00:49.312Z</time>
      </trkpt>
      <trkpt lat="48.63967" lon="-2.94036">
        <ele>85.628459</ele>
        <time>2023-03-24T20:00:50.784Z</time>
      </trkpt>
      <trkpt lat="48.63966" lon="-2.94025">
        <ele>85.74528</ele>
        <time>2023-03-24T20:00:53.901Z</time>
      </trkpt>
      <trkpt lat="48.63966" lon="-2.94019">
        <ele>85.803552</ele>
        <time>2023-03-24T20:00:55.455Z</time>
      </trkpt>
      <trkpt lat="48.63966" lon="-2.94014">
        <ele>85.860071</ele>
        <time>2023-03-24T20:00:56.963Z</time>
      </trkpt>
      <trkpt lat="48.63964" lon="-2.93999">
        <ele>86.026285</ele>
        <time>2023-03-24T20:01:01.399Z</time>
      </trkpt>
      <trkpt lat="48.63963" lon="-2.93989">
        <ele>86.134587</ele>
        <time>2023-03-24T20:01:04.288Z</time>
      </trkpt>
      <trkpt lat="48.63962" lon="-2.93979">
        <ele>86.238861</ele>
        <time>2023-03-24T20:01:07.069Z</time>
      </trkpt>
      <trkpt lat="48.6396" lon="-2.93971">
        <ele>86.321884</ele>
        <time>2023-03-24T20:01:09.284Z</time>
      </trkpt>
      <trkpt lat="48.63959" lon="-2.9397">
        <ele>86.345998</ele>
        <time>2023-03-24T20:01:09.927Z</time>
      </trkpt>
      <trkpt lat="48.63959" lon="-2.9397">
        <ele>86.349205</ele>
        <time>2023-03-24T20:01:10.013Z</time>
      </trkpt>
      <trkpt lat="48.63957" lon="-2.93962">
        <ele>86.434894</ele>
        <time>2023-03-24T20:01:12.299Z</time>
      </trkpt>
      <trkpt lat="48.63957" lon="-2.93958">
        <ele>86.477547</ele>
        <time>2023-03-24T20:01:13.437Z</time>
      </trkpt>
      <trkpt lat="48.63956" lon="-2.93957">
        <ele>86.489311</ele>
        <time>2023-03-24T20:01:13.755Z</time>
      </trkpt>
      <trkpt lat="48.63926" lon="-2.93951">
        <ele>86.985502</ele>
        <time>2023-03-24T20:01:21.147Z</time>
      </trkpt>
      <trkpt lat="48.63944" lon="-2.93916">
        <ele>87.460037</ele>
        <time>2023-03-24T20:01:29.134Z</time>
      </trkpt>
      <trkpt lat="48.63947" lon="-2.93897">
        <ele>87.668418</ele>
        <time>2023-03-24T20:01:33.195Z</time>
      </trkpt>
      <trkpt lat="48.63943" lon="-2.9387">
        <ele>87.95715</ele>
        <time>2023-03-24T20:01:37.846Z</time>
      </trkpt>
      <trkpt lat="48.63928" lon="-2.93822">
        <ele>88.526873</ele>
        <time>2023-03-24T20:01:48.010Z</time>
      </trkpt>
      <trkpt lat="48.63904" lon="-2.9377">
        <ele>89.137927</ele>
        <time>2023-03-24T20:01:59.653Z</time>
      </trkpt>
      <trkpt lat="48.639" lon="-2.9374">
        <ele>89.436649</ele>
        <time>2023-03-24T20:02:05.253Z</time>
      </trkpt>
      <trkpt lat="48.63912" lon="-2.9361">
        <ele>90.722306</ele>
        <time>2023-03-24T20:02:30.074Z</time>
      </trkpt>
      <trkpt lat="48.6393" lon="-2.93459">
        <ele>92.336871</ele>
        <time>2023-03-24T20:03:00.673Z</time>
      </trkpt>
      <trkpt lat="48.63932" lon="-2.93368">
        <ele>93.318053</ele>
        <time>2023-03-24T20:03:18.178Z</time>
      </trkpt>
      <trkpt lat="48.63937" lon="-2.93293">
        <ele>94.12858</ele>
        <time>2023-03-24T20:03:32.022Z</time>
      </trkpt>
      <trkpt lat="48.63929" lon="-2.93219">
        <ele>94.854591</ele>
        <time>2023-03-24T20:03:45.307Z</time>
      </trkpt>
      <trkpt lat="48.6392" lon="-2.93182">
        <ele>95.234301</ele>
        <time>2023-03-24T20:03:51.877Z</time>
      </trkpt>
      <trkpt lat="48.63916" lon="-2.93131">
        <ele>95.731883</ele>
        <time>2023-03-24T20:04:00.642Z</time>
      </trkpt>
      <trkpt lat="48.63935" lon="-2.93111">
        <ele>96.074128</ele>
        <time>2023-03-24T20:04:06.909Z</time>
      </trkpt>
      <trkpt lat="48.63952" lon="-2.93097">
        <ele>96.352661</ele>
        <time>2023-03-24T20:04:11.607Z</time>
      </trkpt>
      <trkpt lat="48.63967" lon="-2.93076">
        <ele>96.652792</ele>
        <time>2023-03-24T20:04:17.155Z</time>
      </trkpt>
      <trkpt lat="48.6399" lon="-2.93014">
        <ele>97.371334</ele>
        <time>2023-03-24T20:04:29.830Z</time>
      </trkpt>
      <trkpt lat="48.64011" lon="-2.92971">
        <ele>97.91984</ele>
        <time>2023-03-24T20:04:39.841Z</time>
      </trkpt>
      <trkpt lat="48.64041" lon="-2.92906">
        <ele>98.726255</ele>
        <time>2023-03-24T20:05:00.470Z</time>
      </trkpt>
      <trkpt lat="48.64063" lon="-2.92865">
        <ele>99.259268</ele>
        <time>2023-03-24T20:05:13.796Z</time>
      </trkpt>
      <trkpt lat="48.64081" lon="-2.92857">
        <ele>99.549431</ele>
        <time>2023-03-24T20:05:21.052Z</time>
      </trkpt>
      <trkpt lat="48.64101" lon="-2.92853">
        <ele>99.889786</ele>
        <time>2023-03-24T20:05:29.108Z</time>
      </trkpt>
      <trkpt lat="48.64185" lon="-2.92737">
        <ele>101.801377</ele>
        <time>2023-03-24T20:06:14.836Z</time>
      </trkpt>
      <trkpt lat="48.64198" lon="-2.92723">
        <ele>102.074509</ele>
        <time>2023-03-24T20:06:21.302Z</time>
      </trkpt>
      <trkpt lat="48.64281" lon="-2.92669">
        <ele>103.812393</ele>
        <time>2023-03-24T20:06:58.069Z</time>
      </trkpt>
      <trkpt lat="48.64292" lon="-2.92622">
        <ele>104.484812</ele>
        <time>2023-03-24T20:07:11.945Z</time>
      </trkpt>
      <trkpt lat="48.64337" lon="-2.92474">
        <ele>106.556563</ele>
        <time>2023-03-24T20:07:58.867Z</time>
      </trkpt>
      <trkpt lat="48.64411" lon="-2.9225">
        <ele>108.741786</ele>
        <time>2023-03-24T20:09:03.693Z</time>
      </trkpt>
      <trkpt lat="48.64429" lon="-2.92185">
        <ele>108.406024</ele>
        <time>2023-03-24T20:09:17.821Z</time>
      </trkpt>
      <trkpt lat="48.64423" lon="-2.92187">
        <ele>108.360381</ele>
        <time>2023-03-24T20:09:19.679Z</time>
      </trkpt>
      <trkpt lat="48.64312" lon="-2.92197">
        <ele>107.559877</ele>
        <time>2023-03-24T20:09:51.484Z</time>
      </trkpt>
      <trkpt lat="48.6427" lon="-2.92208">
        <ele>107.213898</ele>
        <time>2023-03-24T20:10:03.400Z</time>
      </trkpt>
      <trkpt lat="48.64265" lon="-2.92205">
        <ele>107.168193</ele>
        <time>2023-03-24T20:10:04.949Z</time>
      </trkpt>
      <trkpt lat="48.6426" lon="-2.92199">
        <ele>107.114637</ele>
        <time>2023-03-24T20:10:06.761Z</time>
      </trkpt>
      <trkpt lat="48.64255" lon="-2.92182">
        <ele>107.013875</ele>
        <time>2023-03-24T20:10:10.189Z</time>
      </trkpt>
      <trkpt lat="48.6424" lon="-2.92065">
        <ele>106.353292</ele>
        <time>2023-03-24T20:10:33.664Z</time>
      </trkpt>
      <trkpt lat="48.64216" lon="-2.91909">
        <ele>105.820399</ele>
        <time>2023-03-24T20:11:07.037Z</time>
      </trkpt>
      <trkpt lat="48.64195" lon="-2.9179">
        <ele>105.593271</ele>
        <time>2023-03-24T20:11:32.172Z</time>
      </trkpt>
      <trkpt lat="48.64186" lon="-2.91778">
        <ele>105.560206</ele>
        <time>2023-03-24T20:11:35.830Z</time>
      </trkpt>
      <trkpt lat="48.64182" lon="-2.91777">
        <ele>105.546837</ele>
        <time>2023-03-24T20:11:37.226Z</time>
      </trkpt>
      <trkpt lat="48.64105" lon="-2.91819">
        <ele>105.336182</ele>
        <time>2023-03-24T20:11:51.884Z</time>
      </trkpt>
      <trkpt lat="48.64082" lon="-2.91827">
        <ele>105.276703</ele>
        <time>2023-03-24T20:11:56.193Z</time>
      </trkpt>
      <trkpt lat="48.64085" lon="-2.91809">
        <ele>105.24688</ele>
        <time>2023-03-24T20:11:58.453Z</time>
      </trkpt>
      <trkpt lat="48.64117" lon="-2.91621">
        <ele>105.032817</ele>
        <time>2023-03-24T20:12:24.138Z</time>
      </trkpt>
      <trkpt lat="48.64127" lon="-2.91507">
        <ele>105.020816</ele>
        <time>2023-03-24T20:12:39.761Z</time>
      </trkpt>
      <trkpt lat="48.64125" lon="-2.91451">
        <ele>105.014919</ele>
        <time>2023-03-24T20:12:47.278Z</time>
      </trkpt>
      <trkpt lat="48.64121" lon="-2.91421">
        <ele>105.011735</ele>
        <time>2023-03-24T20:12:51.298Z</time>
      </trkpt>
      <trkpt lat="48.64113" lon="-2.91384">
        <ele>104.962725</ele>
        <time>2023-03-24T20:12:56.482Z</time>
      </trkpt>
      <trkpt lat="48.64105" lon="-2.91349">
        <ele>104.915162</ele>
        <time>2023-03-24T20:13:01.439Z</time>
      </trkpt>
      <trkpt lat="48.64095" lon="-2.91323">
        <ele>104.87805</ele>
        <time>2023-03-24T20:13:05.274Z</time>
      </trkpt>
      <trkpt lat="48.64057" lon="-2.91218">
        <ele>104.726834</ele>
        <time>2023-03-24T20:13:20.571Z</time>
      </trkpt>
      <trkpt lat="48.63995" lon="-2.91067">
        <ele>104.712351</ele>
        <time>2023-03-24T20:13:43.721Z</time>
      </trkpt>
      <trkpt lat="48.63975" lon="-2.91022">
        <ele>104.731001</ele>
        <time>2023-03-24T20:13:51.398Z</time>
      </trkpt>
      <trkpt lat="48.63981" lon="-2.91016">
        <ele>104.734817</ele>
        <time>2023-03-24T20:13:53.940Z</time>
      </trkpt>
      <trkpt lat="48.64029" lon="-2.90838">
        <ele>104.756023</ele>
        <time>2023-03-24T20:14:36.420Z</time>
      </trkpt>
      <trkpt lat="48.64062" lon="-2.90704">
        <ele>104.751039</ele>
        <time>2023-03-24T20:15:06.303Z</time>
      </trkpt>
      <trkpt lat="48.64068" lon="-2.90667">
        <ele>104.533919</ele>
        <time>2023-03-24T20:15:14.005Z</time>
      </trkpt>
      <trkpt lat="48.64087" lon="-2.90429">
        <ele>102.571105</ele>
        <time>2023-03-24T20:15:59.264Z</time>
      </trkpt>
      <trkpt lat="48.64078" lon="-2.90416">
        <ele>102.399464</ele>
        <time>2023-03-24T20:16:02.484Z</time>
      </trkpt>
      <trkpt lat="48.64065" lon="-2.90358">
        <ele>101.786801</ele>
        <time>2023-03-24T20:16:13.771Z</time>
      </trkpt>
      <trkpt lat="48.64058" lon="-2.90314">
        <ele>101.334889</ele>
        <time>2023-03-24T20:16:22.117Z</time>
      </trkpt>
      <trkpt lat="48.64056" lon="-2.90281">
        <ele>101.001979</ele>
        <time>2023-03-24T20:16:28.430Z</time>
      </trkpt>
      <trkpt lat="48.64068" lon="-2.90144">
        <ele>99.620487</ele>
        <time>2023-03-24T20:16:54.401Z</time>
      </trkpt>
      <trkpt lat="48.64069" lon="-2.90085">
        <ele>99.020439</ele>
        <time>2023-03-24T20:17:05.662Z</time>
      </trkpt>
      <trkpt lat="48.64065" lon="-2.90042">
        <ele>98.579046</ele>
        <time>2023-03-24T20:17:13.745Z</time>
      </trkpt>
      <trkpt lat="48.64016" lon="-2.899">
        <ele>96.951877</ele>
        <time>2023-03-24T20:17:43.218Z</time>
      </trkpt>
      <trkpt lat="48.64011" lon="-2.89869">
        <ele>96.658229</ele>
        <time>2023-03-24T20:17:49.334Z</time>
      </trkpt>
      <trkpt lat="48.64008" lon="-2.89796">
        <ele>96.000929</ele>
        <time>2023-03-24T20:18:02.772Z</time>
      </trkpt>
      <trkpt lat="48.63992" lon="-2.89788">
        <ele>95.763223</ele>
        <time>2023-03-24T20:18:05.798Z</time>
      </trkpt>
      <trkpt lat="48.6397" lon="-2.89775">
        <ele>95.447074</ele>
        <time>2023-03-24T20:18:09.669Z</time>
      </trkpt>
      <trkpt lat="48.63934" lon="-2.89774">
        <ele>94.947707</ele>
        <time>2023-03-24T20:18:15.919Z</time>
      </trkpt>
      <trkpt lat="48.63888" lon="-2.8975">
        <ele>94.684915</ele>
        <time>2023-03-24T20:18:24.683Z</time>
      </trkpt>
      <trkpt lat="48.63884" lon="-2.8975">
        <ele>94.707646</ele>
        <time>2023-03-24T20:18:25.408Z</time>
      </trkpt>
      <trkpt lat="48.63878" lon="-2.8975">
        <ele>94.737524</ele>
        <time>2023-03-24T20:18:26.378Z</time>
      </trkpt>
      <trkpt lat="48.63876" lon="-2.89745">
        <ele>94.760118</ele>
        <time>2023-03-24T20:18:27.125Z</time>
      </trkpt>
      <trkpt lat="48.63831" lon="-2.89706">
        <ele>95.044048</ele>
        <time>2023-03-24T20:18:38.449Z</time>
      </trkpt>
      <trkpt lat="48.6382" lon="-2.89691">
        <ele>95.126207</ele>
        <time>2023-03-24T20:18:42.377Z</time>
      </trkpt>
      <trkpt lat="48.63776" lon="-2.89754">
        <ele>95.459642</ele>
        <time>2023-03-24T20:18:58.146Z</time>
      </trkpt>
      <trkpt lat="48.63751" lon="-2.89774">
        <ele>95.722075</ele>
        <time>2023-03-24T20:19:05.950Z</time>
      </trkpt>
      <trkpt lat="48.63732" lon="-2.89794">
        <ele>96.104887</ele>
        <time>2023-03-24T20:19:12.758Z</time>
      </trkpt>
      <trkpt lat="48.63716" lon="-2.89804">
        <ele>96.392117</ele>
        <time>2023-03-24T20:19:17.605Z</time>
      </trkpt>
      <trkpt lat="48.63702" lon="-2.89815">
        <ele>96.652674</ele>
        <time>2023-03-24T20:19:24.439Z</time>
      </trkpt>
      <trkpt lat="48.63678" lon="-2.89826">
        <ele>97.068479</ele>
        <time>2023-03-24T20:19:34.834Z</time>
      </trkpt>
      <trkpt lat="48.63598" lon="-2.89858">
        <ele>98.424983</ele>
        <time>2023-03-24T20:20:08.476Z</time>
      </trkpt>
      <trkpt lat="48.63577" lon="-2.89897">
        <ele>98.702215</ele>
        <time>2023-03-24T20:20:21.134Z</time>
      </trkpt>
      <trkpt lat="48.63562" lon="-2.89948">
        <ele>98.94202</ele>
        <time>2023-03-24T20:20:34.522Z</time>
      </trkpt>
      <trkpt lat="48.63558" lon="-2.89962">
        <ele>99.006673</ele>
        <time>2023-03-24T20:20:37.998Z</time>
      </trkpt>
      <trkpt lat="48.63553" lon="-2.8997">
        <ele>99.055822</ele>
        <time>2023-03-24T20:20:40.629Z</time>
      </trkpt>
      <trkpt lat="48.63549" lon="-2.89972">
        <ele>99.080334</ele>
        <time>2023-03-24T20:20:41.955Z</time>
      </trkpt>
      <trkpt lat="48.63541" lon="-2.89967">
        <ele>99.136231</ele>
        <time>2023-03-24T20:20:44.982Z</time>
      </trkpt>
      <trkpt lat="48.63524" lon="-2.89955">
        <ele>99.256344</ele>
        <time>2023-03-24T20:20:51.332Z</time>
      </trkpt>
      <trkpt lat="48.63479" lon="-2.89905">
        <ele>99.617747</ele>
        <time>2023-03-24T20:21:09.886Z</time>
      </trkpt>
      <trkpt lat="48.63469" lon="-2.89888">
        <ele>99.682769</ele>
        <time>2023-03-24T20:21:14.631Z</time>
      </trkpt>
      <trkpt lat="48.63461" lon="-2.89889">
        <ele>99.661771</ele>
        <time>2023-03-24T20:21:17.001Z</time>
      </trkpt>
      <trkpt lat="48.63454" lon="-2.89899">
        <ele>99.635964</ele>
        <time>2023-03-24T20:21:19.922Z</time>
      </trkpt>
      <trkpt lat="48.63439" lon="-2.8991">
        <ele>99.589914</ele>
        <time>2023-03-24T20:21:25.046Z</time>
      </trkpt>
      <trkpt lat="48.63427" lon="-2.89918">
        <ele>99.551079</ele>
        <time>2023-03-24T20:21:29.338Z</time>
      </trkpt>
      <trkpt lat="48.63413" lon="-2.89923">
        <ele>99.512307</ele>
        <time>2023-03-24T20:21:33.633Z</time>
      </trkpt>
      <trkpt lat="48.63399" lon="-2.89843">
        <ele>99.358696</ele>
        <time>2023-03-24T20:21:43.590Z</time>
      </trkpt>
      <trkpt lat="48.63397" lon="-2.89742">
        <ele>99.167937</ele>
        <time>2023-03-24T20:21:55.655Z</time>
      </trkpt>
      <trkpt lat="48.63386" lon="-2.89691">
        <ele>99.047508</ele>
        <time>2023-03-24T20:22:01.983Z</time>
      </trkpt>
      <trkpt lat="48.63274" lon="-2.89392">
        <ele>98.409032</ele>
        <time>2023-03-24T20:22:43.555Z</time>
      </trkpt>
      <trkpt lat="48.63253" lon="-2.8932">
        <ele>98.312801</ele>
        <time>2023-03-24T20:22:53.292Z</time>
      </trkpt>
      <trkpt lat="48.6325" lon="-2.89297">
        <ele>98.283132</ele>
        <time>2023-03-24T20:22:56.310Z</time>
      </trkpt>
      <trkpt lat="48.63227" lon="-2.89213">
        <ele>98.360717</ele>
        <time>2023-03-24T20:23:07.808Z</time>
      </trkpt>
      <trkpt lat="48.6321" lon="-2.89172">
        <ele>98.463554</ele>
        <time>2023-03-24T20:23:14.622Z</time>
      </trkpt>
      <trkpt lat="48.63141" lon="-2.8906">
        <ele>98.790257</ele>
        <time>2023-03-24T20:23:36.268Z</time>
      </trkpt>
      <trkpt lat="48.63118" lon="-2.89004">
        <ele>98.893121</ele>
        <time>2023-03-24T20:23:45.623Z</time>
      </trkpt>
      <trkpt lat="48.63063" lon="-2.88859">
        <ele>99.122481</ele>
        <time>2023-03-24T20:24:08.319Z</time>
      </trkpt>
      <trkpt lat="48.63043" lon="-2.88792">
        <ele>99.145297</ele>
        <time>2023-03-24T20:24:17.599Z</time>
      </trkpt>
      <trkpt lat="48.63023" lon="-2.88703">
        <ele>98.894563</ele>
        <time>2023-03-24T20:24:28.739Z</time>
      </trkpt>
      <trkpt lat="48.63006" lon="-2.88592">
        <ele>98.590852</ele>
        <time>2023-03-24T20:24:42.060Z</time>
      </trkpt>
      <trkpt lat="48.62989" lon="-2.88493">
        <ele>98.450603</ele>
        <time>2023-03-24T20:24:54.549Z</time>
      </trkpt>
      <trkpt lat="48.62924" lon="-2.88448">
        <ele>98.409972</ele>
        <time>2023-03-24T20:25:16.912Z</time>
      </trkpt>
      <trkpt lat="48.62862" lon="-2.88415">
        <ele>98.372215</ele>
        <time>2023-03-24T20:25:38.095Z</time>
      </trkpt>
      <trkpt lat="48.62807" lon="-2.88374">
        <ele>98.207148</ele>
        <time>2023-03-24T20:25:58.046Z</time>
      </trkpt>
      <trkpt lat="48.62788" lon="-2.88369">
        <ele>98.154659</ele>
        <time>2023-03-24T20:26:03.871Z</time>
      </trkpt>
      <trkpt lat="48.62695" lon="-2.88331">
        <ele>97.877364</ele>
        <time>2023-03-24T20:26:33.842Z</time>
      </trkpt>
      <trkpt lat="48.62683" lon="-2.88328">
        <ele>97.798847</ele>
        <time>2023-03-24T20:26:37.364Z</time>
      </trkpt>
      <trkpt lat="48.62561" lon="-2.88262">
        <ele>96.208215</ele>
        <time>2023-03-24T20:27:14.477Z</time>
      </trkpt>
      <trkpt lat="48.62479" lon="-2.88195">
        <ele>94.825051</ele>
        <time>2023-03-24T20:27:40.890Z</time>
      </trkpt>
      <trkpt lat="48.62398" lon="-2.88166">
        <ele>93.408579</ele>
        <time>2023-03-24T20:28:04.022Z</time>
      </trkpt>
      <trkpt lat="48.62403" lon="-2.88094">
        <ele>92.585783</ele>
        <time>2023-03-24T20:28:17.313Z</time>
      </trkpt>
      <trkpt lat="48.62402" lon="-2.88052">
        <ele>92.011371</ele>
        <time>2023-03-24T20:28:24.975Z</time>
      </trkpt>
      <trkpt lat="48.62395" lon="-2.87976">
        <ele>90.949204</ele>
        <time>2023-03-24T20:28:38.974Z</time>
      </trkpt>
      <trkpt lat="48.62395" lon="-2.87945">
        <ele>90.528812</ele>
        <time>2023-03-24T20:28:44.412Z</time>
      </trkpt>
      <trkpt lat="48.62405" lon="-2.87843">
        <ele>89.106866</ele>
        <time>2023-03-24T20:29:02.846Z</time>
      </trkpt>
      <trkpt lat="48.62405" lon="-2.87814">
        <ele>88.689375</ele>
        <time>2023-03-24T20:29:08.117Z</time>
      </trkpt>
      <trkpt lat="48.62398" lon="-2.877">
        <ele>86.8554</ele>
        <time>2023-03-24T20:29:28.189Z</time>
      </trkpt>
      <trkpt lat="48.62396" lon="-2.87563">
        <ele>84.654525</ele>
        <time>2023-03-24T20:29:52.399Z</time>
      </trkpt>
      <trkpt lat="48.62382" lon="-2.87515">
        <ele>84.003182</ele>
        <time>2023-03-24T20:30:01.783Z</time>
      </trkpt>
      <trkpt lat="48.62367" lon="-2.87474">
        <ele>83.485716</ele>
        <time>2023-03-24T20:30:10.248Z</time>
      </trkpt>
      <trkpt lat="48.62338" lon="-2.87412">
        <ele>82.648017</ele>
        <time>2023-03-24T20:30:24.229Z</time>
      </trkpt>
      <trkpt lat="48.62323" lon="-2.87368">
        <ele>82.10893</ele>
        <time>2023-03-24T20:30:33.322Z</time>
      </trkpt>
      <trkpt lat="48.62309" lon="-2.87337">
        <ele>81.692045</ele>
        <time>2023-03-24T20:30:40.426Z</time>
      </trkpt>
      <trkpt lat="48.62261" lon="-2.87268">
        <ele>81.145859</ele>
        <time>2023-03-24T20:31:00.506Z</time>
      </trkpt>
      <trkpt lat="48.62238" lon="-2.87209">
        <ele>80.896334</ele>
        <time>2023-03-24T20:31:14.205Z</time>
      </trkpt>
      <trkpt lat="48.6222" lon="-2.87146">
        <ele>80.644284</ele>
        <time>2023-03-24T20:31:28.144Z</time>
      </trkpt>
      <trkpt lat="48.62215" lon="-2.87112">
        <ele>80.515119</ele>
        <time>2023-03-24T20:31:35.274Z</time>
      </trkpt>
      <trkpt lat="48.62201" lon="-2.86978">
        <ele>80.045704</ele>
        <time>2023-03-24T20:32:02.628Z</time>
      </trkpt>
      <trkpt lat="48.62197" lon="-2.86902">
        <ele>79.788974</ele>
        <time>2023-03-24T20:32:17.750Z</time>
      </trkpt>
      <trkpt lat="48.62187" lon="-2.8683">
        <ele>79.537124</ele>
        <time>2023-03-24T20:32:32.556Z</time>
      </trkpt>
      <trkpt lat="48.62171" lon="-2.86763">
        <ele>79.309002</ele>
        <time>2023-03-24T20:32:46.736Z</time>
      </trkpt>
      <trkpt lat="48.6211" lon="-2.86565">
        <ele>78.596017</ele>
        <time>2023-03-24T20:33:30.765Z</time>
      </trkpt>
      <trkpt lat="48.62098" lon="-2.86517">
        <ele>78.316118</ele>
        <time>2023-03-24T20:33:41.342Z</time>
      </trkpt>
      <trkpt lat="48.621" lon="-2.86506">
        <ele>78.256553</ele>
        <time>2023-03-24T20:33:42.703Z</time>
      </trkpt>
      <trkpt lat="48.62098" lon="-2.86489">
        <ele>78.160431</ele>
        <time>2023-03-24T20:33:44.746Z</time>
      </trkpt>
      <trkpt lat="48.62093" lon="-2.86477">
        <ele>78.084943</ele>
        <time>2023-03-24T20:33:46.346Z</time>
      </trkpt>
      <trkpt lat="48.62037" lon="-2.8642">
        <ele>77.534214</ele>
        <time>2023-03-24T20:33:57.845Z</time>
      </trkpt>
      <trkpt lat="48.61996" lon="-2.86347">
        <ele>76.976978</ele>
        <time>2023-03-24T20:34:08.336Z</time>
      </trkpt>
      <trkpt lat="48.61973" lon="-2.86316">
        <ele>76.648486</ele>
        <time>2023-03-24T20:34:13.386Z</time>
      </trkpt>
      <trkpt lat="48.61922" lon="-2.86298">
        <ele>76.088038</ele>
        <time>2023-03-24T20:34:22.135Z</time>
      </trkpt>
      <trkpt lat="48.61871" lon="-2.86289">
        <ele>75.545368</ele>
        <time>2023-03-24T20:34:30.621Z</time>
      </trkpt>
      <trkpt lat="48.61832" lon="-2.86261">
        <ele>75.205634</ele>
        <time>2023-03-24T20:34:37.946Z</time>
      </trkpt>
      <trkpt lat="48.61795" lon="-2.86227">
        <ele>75.075438</ele>
        <time>2023-03-24T20:34:45.691Z</time>
      </trkpt>
      <trkpt lat="48.61724" lon="-2.86158">
        <ele>74.819221</ele>
        <time>2023-03-24T20:35:01.609Z</time>
      </trkpt>
      <trkpt lat="48.61624" lon="-2.86046">
        <ele>74.518095</ele>
        <time>2023-03-24T20:35:25.609Z</time>
      </trkpt>
      <trkpt lat="48.61481" lon="-2.85909">
        <ele>73.569157</ele>
        <time>2023-03-24T20:35:56.334Z</time>
      </trkpt>
      <trkpt lat="48.6136" lon="-2.85896">
        <ele>72.063394</ele>
        <time>2023-03-24T20:36:31.198Z</time>
      </trkpt>
      <trkpt lat="48.61348" lon="-2.85898">
        <ele>71.731466</ele>
        <time>2023-03-24T20:36:34.439Z</time>
      </trkpt>
      <trkpt lat="48.61355" lon="-2.85818">
        <ele>70.280355</ele>
        <time>2023-03-24T20:36:49.011Z</time>
      </trkpt>
      <trkpt lat="48.61346" lon="-2.85807">
        <ele>69.957381</ele>
        <time>2023-03-24T20:36:50.767Z</time>
      </trkpt>
      <trkpt lat="48.61278" lon="-2.85779">
        <ele>68.046347</ele>
        <time>2023-03-24T20:37:08.904Z</time>
      </trkpt>
      <trkpt lat="48.61201" lon="-2.85725">
        <ele>64.559602</ele>
        <time>2023-03-24T20:37:29.820Z</time>
      </trkpt>
      <trkpt lat="48.61104" lon="-2.85672">
        <ele>60.055103</ele>
        <time>2023-03-24T20:37:55.318Z</time>
      </trkpt>
      <trkpt lat="48.61066" lon="-2.8564">
        <ele>58.029847</ele>
        <time>2023-03-24T20:38:05.680Z</time>
      </trkpt>
      <trkpt lat="48.61047" lon="-2.85629">
        <ele>57.058246</ele>
        <time>2023-03-24T20:38:10.569Z</time>
      </trkpt>
      <trkpt lat="48.60987" lon="-2.85579">
        <ele>53.815887</ele>
        <time>2023-03-24T20:38:26.860Z</time>
      </trkpt>
      <trkpt lat="48.60891" lon="-2.85546">
        <ele>50.162678</ele>
        <time>2023-03-24T20:38:51.301Z</time>
      </trkpt>
      <trkpt lat="48.60825" lon="-2.85546">
        <ele>48.457096</ele>
        <time>2023-03-24T20:39:08.692Z</time>
      </trkpt>
      <trkpt lat="48.60818" lon="-2.8553">
        <ele>48.129104</ele>
        <time>2023-03-24T20:39:12.171Z</time>
      </trkpt>
      <trkpt lat="48.60792" lon="-2.85512">
        <ele>47.407041</ele>
        <time>2023-03-24T20:39:17.248Z</time>
      </trkpt>
      <trkpt lat="48.60762" lon="-2.85484">
        <ele>46.761009</ele>
        <time>2023-03-24T20:39:24.276Z</time>
      </trkpt>
      <trkpt lat="48.60682" lon="-2.85384">
        <ele>46.807771</ele>
        <time>2023-03-24T20:39:48.705Z</time>
      </trkpt>
      <trkpt lat="48.60639" lon="-2.85356">
        <ele>46.828774</ele>
        <time>2023-03-24T20:39:59.844Z</time>
      </trkpt>
      <trkpt lat="48.60579" lon="-2.85342">
        <ele>46.649106</ele>
        <time>2023-03-24T20:40:12.197Z</time>
      </trkpt>
      <trkpt lat="48.6055" lon="-2.85331">
        <ele>46.515389</ele>
        <time>2023-03-24T20:40:17.976Z</time>
      </trkpt>
      <trkpt lat="48.60513" lon="-2.85303">
        <ele>46.32586</ele>
        <time>2023-03-24T20:40:26.183Z</time>
      </trkpt>
      <trkpt lat="48.60469" lon="-2.85254">
        <ele>46.079678</ele>
        <time>2023-03-24T20:40:37.035Z</time>
      </trkpt>
      <trkpt lat="48.60489" lon="-2.85196">
        <ele>45.753189</ele>
        <time>2023-03-24T20:40:45.628Z</time>
      </trkpt>
      <trkpt lat="48.60501" lon="-2.85175">
        <ele>45.58967</ele>
        <time>2023-03-24T20:40:49.239Z</time>
      </trkpt>
      <trkpt lat="48.60586" lon="-2.85077">
        <ele>44.637953</ele>
        <time>2023-03-24T20:41:09.328Z</time>
      </trkpt>
      <trkpt lat="48.60609" lon="-2.85046">
        <ele>44.098584</ele>
        <time>2023-03-24T20:41:14.495Z</time>
      </trkpt>
      <trkpt lat="48.60636" lon="-2.85009">
        <ele>42.160389</ele>
        <time>2023-03-24T20:41:20.128Z</time>
      </trkpt>
      <trkpt lat="48.60663" lon="-2.84976">
        <ele>40.287571</ele>
        <time>2023-03-24T20:41:25.193Z</time>
      </trkpt>
      <trkpt lat="48.60634" lon="-2.84924">
        <ele>37.899936</ele>
        <time>2023-03-24T20:41:35.688Z</time>
      </trkpt>
      <trkpt lat="48.60602" lon="-2.84857">
        <ele>35.025206</ele>
        <time>2023-03-24T20:41:48.098Z</time>
      </trkpt>
      <trkpt lat="48.60588" lon="-2.84837">
        <ele>33.511567</ele>
        <time>2023-03-24T20:42:01.774Z</time>
      </trkpt>
      <trkpt lat="48.60546" lon="-2.84791">
        <ele>29.338336</ele>
        <time>2023-03-24T20:42:38.012Z</time>
      </trkpt>
      <trkpt lat="48.60534" lon="-2.8477">
        <ele>27.851623</ele>
        <time>2023-03-24T20:42:50.919Z</time>
      </trkpt>
      <trkpt lat="48.60527" lon="-2.84756">
        <ele>26.938856</ele>
        <time>2023-03-24T20:42:58.854Z</time>
      </trkpt>
      <trkpt lat="48.6047" lon="-2.84633">
        <ele>19.584658</ele>
        <time>2023-03-24T20:44:08.063Z</time>
      </trkpt>
      <trkpt lat="48.6046" lon="-2.84605">
        <ele>18.572465</ele>
        <time>2023-03-24T20:44:22.957Z</time>
      </trkpt>
      <trkpt lat="48.60453" lon="-2.84545">
        <ele>16.676921</ele>
        <time>2023-03-24T20:44:50.922Z</time>
      </trkpt>
      <trkpt lat="48.6045" lon="-2.84542">
        <ele>16.507215</ele>
        <time>2023-03-24T20:44:51.434Z</time>
      </trkpt>
      <trkpt lat="48.60428" lon="-2.84543">
        <ele>15.468755</ele>
        <time>2023-03-24T20:44:54.663Z</time>
      </trkpt>
      <trkpt lat="48.60428" lon="-2.84529">
        <ele>15.03441</ele>
        <time>2023-03-24T20:44:55.883Z</time>
      </trkpt>
      <trkpt lat="48.60419" lon="-2.84431">
        <ele>11.971261</ele>
        <time>2023-03-24T20:45:05.280Z</time>
      </trkpt>
      <trkpt lat="48.60408" lon="-2.84357">
        <ele>11.454492</ele>
        <time>2023-03-24T20:45:12.975Z</time>
      </trkpt>
      <trkpt lat="48.60397" lon="-2.84309">
        <ele>11.10171</ele>
        <time>2023-03-24T20:45:19.078Z</time>
      </trkpt>
      <trkpt lat="48.6038" lon="-2.84253">
        <ele>10.679347</ele>
        <time>2023-03-24T20:45:26.301Z</time>
      </trkpt>
      <trkpt lat="48.60359" lon="-2.84202">
        <ele>10.267136</ele>
        <time>2023-03-24T20:45:33.612Z</time>
      </trkpt>
      <trkpt lat="48.60345" lon="-2.84174">
        <ele>10.128385</ele>
        <time>2023-03-24T20:45:37.773Z</time>
      </trkpt>
      <trkpt lat="48.60267" lon="-2.84036">
        <ele>10.390984</ele>
        <time>2023-03-24T20:46:01.269Z</time>
      </trkpt>
      <trkpt lat="48.60261" lon="-2.8404">
        <ele>10.405134</ele>
        <time>2023-03-24T20:46:03.373Z</time>
      </trkpt>
      <trkpt lat="48.60257" lon="-2.84044">
        <ele>10.416259</ele>
        <time>2023-03-24T20:46:05.029Z</time>
      </trkpt>
      <trkpt lat="48.6025" lon="-2.84054">
        <ele>10.436963</ele>
        <time>2023-03-24T20:46:08.169Z</time>
      </trkpt>
      <trkpt lat="48.60248" lon="-2.84086">
        <ele>10.48254</ele>
        <time>2023-03-24T20:46:15.347Z</time>
      </trkpt>
      <trkpt lat="48.60244" lon="-2.84094">
        <ele>10.497401</ele>
        <time>2023-03-24T20:46:17.571Z</time>
      </trkpt>
      <trkpt lat="48.6023" lon="-2.84104">
        <ele>10.754193</ele>
        <time>2023-03-24T20:46:22.756Z</time>
      </trkpt>
      <trkpt lat="48.602" lon="-2.841">
        <ele>11.369668</ele>
        <time>2023-03-24T20:46:34.551Z</time>
      </trkpt>
      <trkpt lat="48.60191" lon="-2.84077">
        <ele>11.734878</ele>
        <time>2023-03-24T20:46:42.497Z</time>
      </trkpt>
      <trkpt lat="48.60184" lon="-2.84031">
        <ele>12.368279</ele>
        <time>2023-03-24T20:46:53.457Z</time>
      </trkpt>
      <trkpt lat="48.60158" lon="-2.83984">
        <ele>13.207873</ele>
        <time>2023-03-24T20:47:13.046Z</time>
      </trkpt>
      <trkpt lat="48.60153" lon="-2.83957">
        <ele>13.592961</ele>
        <time>2023-03-24T20:47:20.626Z</time>
      </trkpt>
      <trkpt lat="48.60147" lon="-2.83942">
        <ele>13.818733</ele>
        <time>2023-03-24T20:47:24.536Z</time>
      </trkpt>
      <trkpt lat="48.60142" lon="-2.83938">
        <ele>13.936347</ele>
        <time>2023-03-24T20:47:27.955Z</time>
      </trkpt>
      <trkpt lat="48.60142" lon="-2.83938">
        <ele>13.936347</ele>
        <time>2023-03-24T20:47:28.061Z</time>
      </trkpt>
      <trkpt lat="48.60142" lon="-2.83938">
        <ele>13.936347</ele>
        <time>2023-03-24T20:47:28.061Z</time>
      </trkpt>
      <trkpt lat="48.60145" lon="-2.83931">
        <ele>14.041638</ele>
        <time>2023-03-24T20:47:30.258Z</time>
      </trkpt>
      <trkpt lat="48.60143" lon="-2.83927">
        <ele>14.119316</ele>
        <time>2023-03-24T20:47:31.879Z</time>
      </trkpt>
      <trkpt lat="48.6014" lon="-2.83924">
        <ele>14.194599</ele>
        <time>2023-03-24T20:47:33.448Z</time>
      </trkpt>
      <trkpt lat="48.60137" lon="-2.83921">
        <ele>14.316256</ele>
        <time>2023-03-24T20:47:34.839Z</time>
      </trkpt>
      <trkpt lat="48.60134" lon="-2.8392">
        <ele>14.442512</ele>
        <time>2023-03-24T20:47:36.280Z</time>
      </trkpt>
      <trkpt lat="48.60127" lon="-2.83918">
        <ele>14.682241</ele>
        <time>2023-03-24T20:47:39.017Z</time>
      </trkpt>
      <trkpt lat="48.60124" lon="-2.83917">
        <ele>14.797321</ele>
        <time>2023-03-24T20:47:40.330Z</time>
      </trkpt>
      <trkpt lat="48.60122" lon="-2.83916">
        <ele>14.903467</ele>
        <time>2023-03-24T20:47:41.542Z</time>
      </trkpt>
      <trkpt lat="48.60119" lon="-2.83914">
        <ele>15.009416</ele>
        <time>2023-03-24T20:47:42.754Z</time>
      </trkpt>
      <trkpt lat="48.60115" lon="-2.83909">
        <ele>15.188705</ele>
        <time>2023-03-24T20:47:44.817Z</time>
      </trkpt>
      <trkpt lat="48.60114" lon="-2.83908">
        <ele>15.262436</ele>
        <time>2023-03-24T20:47:45.660Z</time>
      </trkpt>
      <trkpt lat="48.60112" lon="-2.83906">
        <ele>15.328465</ele>
        <time>2023-03-24T20:47:46.413Z</time>
      </trkpt>
      <trkpt lat="48.60111" lon="-2.83905">
        <ele>15.389874</ele>
        <time>2023-03-24T20:47:47.114Z</time>
      </trkpt>
      <trkpt lat="48.60109" lon="-2.83905">
        <ele>15.453989</ele>
        <time>2023-03-24T20:47:47.847Z</time>
      </trkpt>
      <trkpt lat="48.60108" lon="-2.83905">
        <ele>15.503252</ele>
        <time>2023-03-24T20:47:48.409Z</time>
      </trkpt>
      <trkpt lat="48.60108" lon="-2.83906">
        <ele>15.522142</ele>
        <time>2023-03-24T20:47:48.625Z</time>
      </trkpt>
      <trkpt lat="48.6009" lon="-2.8391">
        <ele>16.196261</ele>
        <time>2023-03-24T20:47:56.321Z</time>
      </trkpt>
      <trkpt lat="48.60088" lon="-2.83909">
        <ele>16.279268</ele>
        <time>2023-03-24T20:47:57.269Z</time>
      </trkpt>
      <trkpt lat="48.60083" lon="-2.83909">
        <ele>16.459095</ele>
        <time>2023-03-24T20:47:59.345Z</time>
      </trkpt>
      <trkpt lat="48.60076" lon="-2.8391">
        <ele>16.715028</ele>
        <time>2023-03-24T20:48:02.269Z</time>
      </trkpt>
      <trkpt lat="48.60074" lon="-2.83909">
        <ele>16.800404</ele>
        <time>2023-03-24T20:48:03.244Z</time>
      </trkpt>
      <trkpt lat="48.60072" lon="-2.83908">
        <ele>16.884034</ele>
        <time>2023-03-24T20:48:04.199Z</time>
      </trkpt>
      <trkpt lat="48.60068" lon="-2.83907">
        <ele>17.03591</ele>
        <time>2023-03-24T20:48:05.932Z</time>
      </trkpt>
      <trkpt lat="48.60066" lon="-2.83907">
        <ele>17.11083</ele>
        <time>2023-03-24T20:48:06.788Z</time>
      </trkpt>
      <trkpt lat="48.60062" lon="-2.83906">
        <ele>17.252088</ele>
        <time>2023-03-24T20:48:08.400Z</time>
      </trkpt>
      <trkpt lat="48.6006" lon="-2.83904">
        <ele>17.327913</ele>
        <time>2023-03-24T20:48:09.267Z</time>
      </trkpt>
      <trkpt lat="48.60059" lon="-2.83903">
        <ele>17.396245</ele>
        <time>2023-03-24T20:48:10.047Z</time>
      </trkpt>
      <trkpt lat="48.60057" lon="-2.83903">
        <ele>17.464802</ele>
        <time>2023-03-24T20:48:10.830Z</time>
      </trkpt>
      <trkpt lat="48.60055" lon="-2.83902">
        <ele>17.533133</ele>
        <time>2023-03-24T20:48:11.610Z</time>
      </trkpt>
      <trkpt lat="48.60054" lon="-2.839">
        <ele>17.603654</ele>
        <time>2023-03-24T20:48:12.415Z</time>
      </trkpt>
      <trkpt lat="48.60052" lon="-2.83899">
        <ele>17.67035</ele>
        <time>2023-03-24T20:48:13.179Z</time>
      </trkpt>
      <trkpt lat="48.60048" lon="-2.83897">
        <ele>17.812337</ele>
        <time>2023-03-24T20:48:14.823Z</time>
      </trkpt>
      <trkpt lat="48.60044" lon="-2.83895">
        <ele>17.997594</ele>
        <time>2023-03-24T20:48:16.941Z</time>
      </trkpt>
      <trkpt lat="48.60041" lon="-2.83895">
        <ele>18.092838</ele>
        <time>2023-03-24T20:48:18.029Z</time>
      </trkpt>
      <trkpt lat="48.60039" lon="-2.83894">
        <ele>18.156953</ele>
        <time>2023-03-24T20:48:18.761Z</time>
      </trkpt>
      <trkpt lat="48.60038" lon="-2.83895">
        <ele>18.214492</ele>
        <time>2023-03-24T20:48:19.417Z</time>
      </trkpt>
      <trkpt lat="48.60036" lon="-2.83895">
        <ele>18.270683</ele>
        <time>2023-03-24T20:48:20.059Z</time>
      </trkpt>
      <trkpt lat="48.60035" lon="-2.83895">
        <ele>18.319946</ele>
        <time>2023-03-24T20:48:20.622Z</time>
      </trkpt>
      <trkpt lat="48.60034" lon="-2.83895">
        <ele>18.364898</ele>
        <time>2023-03-24T20:48:21.135Z</time>
      </trkpt>
      <trkpt lat="48.60032" lon="-2.83896">
        <ele>18.429347</ele>
        <time>2023-03-24T20:48:21.871Z</time>
      </trkpt>
      <trkpt lat="48.60031" lon="-2.83895">
        <ele>18.486887</ele>
        <time>2023-03-24T20:48:22.527Z</time>
      </trkpt>
      <trkpt lat="48.60029" lon="-2.83895">
        <ele>18.554498</ele>
        <time>2023-03-24T20:48:23.299Z</time>
      </trkpt>
      <trkpt lat="48.60027" lon="-2.83895">
        <ele>18.618373</ele>
        <time>2023-03-24T20:48:24.029Z</time>
      </trkpt>
      <trkpt lat="48.60026" lon="-2.83896">
        <ele>18.669289</ele>
        <time>2023-03-24T20:48:24.610Z</time>
      </trkpt>
      <trkpt lat="48.60024" lon="-2.83896">
        <ele>18.726347</ele>
        <time>2023-03-24T20:48:25.262Z</time>
      </trkpt>
      <trkpt lat="48.60022" lon="-2.83895">
        <ele>18.829919</ele>
        <time>2023-03-24T20:48:26.444Z</time>
      </trkpt>
      <trkpt lat="48.60019" lon="-2.83895">
        <ele>18.946073</ele>
        <time>2023-03-24T20:48:27.771Z</time>
      </trkpt>
      <trkpt lat="48.60017" lon="-2.83895">
        <ele>19.002753</ele>
        <time>2023-03-24T20:48:28.419Z</time>
      </trkpt>
      <trkpt lat="48.60013" lon="-2.83897">
        <ele>19.173504</ele>
        <time>2023-03-24T20:48:30.391Z</time>
      </trkpt>
      <trkpt lat="48.60011" lon="-2.83898">
        <ele>19.230562</ele>
        <time>2023-03-24T20:48:31.044Z</time>
      </trkpt>
      <trkpt lat="48.6001" lon="-2.83898">
        <ele>19.29055</ele>
        <time>2023-03-24T20:48:31.730Z</time>
      </trkpt>
      <trkpt lat="48.60008" lon="-2.83899">
        <ele>19.365135</ele>
        <time>2023-03-24T20:48:32.582Z</time>
      </trkpt>
      <trkpt lat="48.60006" lon="-2.83899">
        <ele>19.425123</ele>
        <time>2023-03-24T20:48:33.267Z</time>
      </trkpt>
      <trkpt lat="48.60003" lon="-2.83899">
        <ele>19.546245</ele>
        <time>2023-03-24T20:48:34.650Z</time>
      </trkpt>
      <trkpt lat="48.60002" lon="-2.839">
        <ele>19.595372</ele>
        <time>2023-03-24T20:48:35.211Z</time>
      </trkpt>
      <trkpt lat="48.6" lon="-2.83901">
        <ele>19.645621</ele>
        <time>2023-03-24T20:48:35.785Z</time>
      </trkpt>
      <trkpt lat="48.59996" lon="-2.83901">
        <ele>19.795545</ele>
        <time>2023-03-24T20:48:37.497Z</time>
      </trkpt>
      <trkpt lat="48.59991" lon="-2.83903">
        <ele>20.005838</ele>
        <time>2023-03-24T20:48:39.898Z</time>
      </trkpt>
      <trkpt lat="48.59988" lon="-2.83903">
        <ele>20.11099</ele>
        <time>2023-03-24T20:48:41.097Z</time>
      </trkpt>
      <trkpt lat="48.59986" lon="-2.83903">
        <ele>20.205457</ele>
        <time>2023-03-24T20:48:42.177Z</time>
      </trkpt>
      <trkpt lat="48.59978" lon="-2.83904">
        <ele>20.483372</ele>
        <time>2023-03-24T20:48:45.358Z</time>
      </trkpt>
      <trkpt lat="48.59976" lon="-2.83905">
        <ele>20.565848</ele>
        <time>2023-03-24T20:48:46.302Z</time>
      </trkpt>
      <trkpt lat="48.59974" lon="-2.83907">
        <ele>20.65567</ele>
        <time>2023-03-24T20:48:47.328Z</time>
      </trkpt>
      <trkpt lat="48.59972" lon="-2.83908">
        <ele>20.739009</ele>
        <time>2023-03-24T20:48:48.281Z</time>
      </trkpt>
      <trkpt lat="48.59967" lon="-2.8391">
        <ele>20.938438</ele>
        <time>2023-03-24T20:48:50.569Z</time>
      </trkpt>
      <trkpt lat="48.59961" lon="-2.83911">
        <ele>21.110929</ele>
        <time>2023-03-24T20:48:52.866Z</time>
      </trkpt>
      <trkpt lat="48.59958" lon="-2.83911">
        <ele>21.21373</ele>
        <time>2023-03-24T20:48:54.233Z</time>
      </trkpt>
      <trkpt lat="48.59955" lon="-2.83912">
        <ele>21.306156</ele>
        <time>2023-03-24T20:48:55.465Z</time>
      </trkpt>
      <trkpt lat="48.59952" lon="-2.83912">
        <ele>21.402744</ele>
        <time>2023-03-24T20:48:56.751Z</time>
      </trkpt>
      <trkpt lat="48.5995" lon="-2.83913">
        <ele>21.493916</ele>
        <time>2023-03-24T20:48:57.965Z</time>
      </trkpt>
      <trkpt lat="48.59952" lon="-2.83896">
        <ele>21.864939</ele>
        <time>2023-03-24T20:49:02.928Z</time>
      </trkpt>
      <trkpt lat="48.59929" lon="-2.8389">
        <ele>22.585892</ele>
        <time>2023-03-24T20:49:11.936Z</time>
      </trkpt>
      <trkpt lat="48.59851" lon="-2.83878">
        <ele>25.116977</ele>
        <time>2023-03-24T20:49:49.614Z</time>
      </trkpt>
      <trkpt lat="48.598" lon="-2.83873">
        <ele>26.761464</ele>
        <time>2023-03-24T20:50:13.858Z</time>
      </trkpt>
      <trkpt lat="48.59775" lon="-2.83877">
        <ele>27.629898</ele>
        <time>2023-03-24T20:50:25.232Z</time>
      </trkpt>
      <trkpt lat="48.59746" lon="-2.83863">
        <ele>28.665199</ele>
        <time>2023-03-24T20:50:39.512Z</time>
      </trkpt>
      <trkpt lat="48.59727" lon="-2.83844">
        <ele>29.455756</ele>
        <time>2023-03-24T20:50:50.858Z</time>
      </trkpt>
      <trkpt lat="48.59705" lon="-2.83797">
        <ele>30.767057</ele>
        <time>2023-03-24T20:51:09.655Z</time>
      </trkpt>
      <trkpt lat="48.59699" lon="-2.83781">
        <ele>31.167609</ele>
        <time>2023-03-24T20:51:15.288Z</time>
      </trkpt>
      <trkpt lat="48.59685" lon="-2.83776">
        <ele>31.673991</ele>
        <time>2023-03-24T20:51:22.896Z</time>
      </trkpt>
      <trkpt lat="48.59618" lon="-2.83775">
        <ele>34.043227</ele>
        <time>2023-03-24T20:51:57.048Z</time>
      </trkpt>
      <trkpt lat="48.59513" lon="-2.83737">
        <ele>37.968722</ele>
        <time>2023-03-24T20:52:51.836Z</time>
      </trkpt>
      <trkpt lat="48.59464" lon="-2.83712">
        <ele>39.735785</ele>
        <time>2023-03-24T20:53:16.701Z</time>
      </trkpt>
      <trkpt lat="48.59374" lon="-2.83685">
        <ele>42.219318</ele>
        <time>2023-03-24T20:53:59.377Z</time>
      </trkpt>
      <trkpt lat="48.5933" lon="-2.83684">
        <ele>43.409495</ele>
        <time>2023-03-24T20:54:18.790Z</time>
      </trkpt>
      <trkpt lat="48.59236" lon="-2.83693">
        <ele>45.849573</ele>
        <time>2023-03-24T20:54:58.364Z</time>
      </trkpt>
      <trkpt lat="48.59175" lon="-2.83726">
        <ele>47.491184</ele>
        <time>2023-03-24T20:55:27.645Z</time>
      </trkpt>
      <trkpt lat="48.59153" lon="-2.83724">
        <ele>48.051129</ele>
        <time>2023-03-24T20:55:37.923Z</time>
      </trkpt>
      <trkpt lat="48.59118" lon="-2.83727">
        <ele>48.982007</ele>
        <time>2023-03-24T20:55:53.732Z</time>
      </trkpt>
      <trkpt lat="48.59096" lon="-2.83718">
        <ele>49.731657</ele>
        <time>2023-03-24T20:56:03.124Z</time>
      </trkpt>
      <trkpt lat="48.5909" lon="-2.83719">
        <ele>49.916388</ele>
        <time>2023-03-24T20:56:07.247Z</time>
      </trkpt>
      <trkpt lat="48.58988" lon="-2.83696">
        <ele>53.330176</ele>
        <time>2023-03-24T20:56:55.503Z</time>
      </trkpt>
      <trkpt lat="48.58958" lon="-2.83693">
        <ele>54.345965</ele>
        <time>2023-03-24T20:57:11.654Z</time>
      </trkpt>
      <trkpt lat="48.5891" lon="-2.83717">
        <ele>56.211067</ele>
        <time>2023-03-24T20:57:37.527Z</time>
      </trkpt>
      <trkpt lat="48.58849" lon="-2.83727">
        <ele>58.611126</ele>
        <time>2023-03-24T20:58:09.950Z</time>
      </trkpt>
      <trkpt lat="48.58845" lon="-2.83716">
        <ele>58.955359</ele>
        <time>2023-03-24T20:58:14.594Z</time>
      </trkpt>
      <trkpt lat="48.58842" lon="-2.83687">
        <ele>59.706916</ele>
        <time>2023-03-24T20:58:25.371Z</time>
      </trkpt>
      <trkpt lat="48.58842" lon="-2.83658">
        <ele>60.467378</ele>
        <time>2023-03-24T20:58:35.153Z</time>
      </trkpt>
      <trkpt lat="48.58853" lon="-2.83492">
        <ele>63.486171</ele>
        <time>2023-03-24T20:59:27.567Z</time>
      </trkpt>
      <trkpt lat="48.58852" lon="-2.83448">
        <ele>64.130488</ele>
        <time>2023-03-24T20:59:40.045Z</time>
      </trkpt>
      <trkpt lat="48.58865" lon="-2.83391">
        <ele>65.013271</ele>
        <time>2023-03-24T20:59:56.050Z</time>
      </trkpt>
      <trkpt lat="48.58875" lon="-2.83378">
        <ele>65.311632</ele>
        <time>2023-03-24T21:00:01.268Z</time>
      </trkpt>
      <trkpt lat="48.58897" lon="-2.83364">
        <ele>65.805352</ele>
        <time>2023-03-24T21:00:10.257Z</time>
      </trkpt>
      <trkpt lat="48.58912" lon="-2.83333">
        <ele>65.865964</ele>
        <time>2023-03-24T21:00:19.114Z</time>
      </trkpt>
      <trkpt lat="48.58914" lon="-2.83283">
        <ele>65.945816</ele>
        <time>2023-03-24T21:00:26.188Z</time>
      </trkpt>
      <trkpt lat="48.58913" lon="-2.83211">
        <ele>66.060091</ele>
        <time>2023-03-24T21:00:35.657Z</time>
      </trkpt>
      <trkpt lat="48.58906" lon="-2.83091">
        <ele>66.273958</ele>
        <time>2023-03-24T21:00:51.669Z</time>
      </trkpt>
      <trkpt lat="48.58841" lon="-2.83091">
        <ele>66.618774</ele>
        <time>2023-03-24T21:01:05.575Z</time>
      </trkpt>
      <trkpt lat="48.5882" lon="-2.83087">
        <ele>66.727634</ele>
        <time>2023-03-24T21:01:10.210Z</time>
      </trkpt>
      <trkpt lat="48.58788" lon="-2.83069">
        <ele>66.909591</ele>
        <time>2023-03-24T21:01:18.089Z</time>
      </trkpt>
      <trkpt lat="48.58711" lon="-2.82999">
        <ele>67.652519</ele>
        <time>2023-03-24T21:01:40.700Z</time>
      </trkpt>
      <trkpt lat="48.58668" lon="-2.82985">
        <ele>68.198922</ele>
        <time>2023-03-24T21:01:52.737Z</time>
      </trkpt>
      <trkpt lat="48.58531" lon="-2.82986">
        <ele>69.910903</ele>
        <time>2023-03-24T21:02:29.487Z</time>
      </trkpt>
      <trkpt lat="48.58504" lon="-2.82979">
        <ele>70.247695</ele>
        <time>2023-03-24T21:02:36.712Z</time>
      </trkpt>
      <trkpt lat="48.5848" lon="-2.82958">
        <ele>70.597861</ele>
        <time>2023-03-24T21:02:44.131Z</time>
      </trkpt>
      <trkpt lat="48.58422" lon="-2.82888">
        <ele>71.51596</ele>
        <time>2023-03-24T21:03:03.537Z</time>
      </trkpt>
      <trkpt lat="48.58393" lon="-2.82865">
        <ele>72.034918</ele>
        <time>2023-03-24T21:03:12.085Z</time>
      </trkpt>
      <trkpt lat="48.58352" lon="-2.82857">
        <ele>72.75666</ele>
        <time>2023-03-24T21:03:23.150Z</time>
      </trkpt>
      <trkpt lat="48.58184" lon="-2.82839">
        <ele>75.635279</ele>
        <time>2023-03-24T21:04:14.649Z</time>
      </trkpt>
      <trkpt lat="48.58021" lon="-2.8278">
        <ele>77.643965</ele>
        <time>2023-03-24T21:05:00.619Z</time>
      </trkpt>
      <trkpt lat="48.57981" lon="-2.82764">
        <ele>77.572508</ele>
        <time>2023-03-24T21:05:08.492Z</time>
      </trkpt>
      <trkpt lat="48.57976" lon="-2.82762">
        <ele>77.562567</ele>
        <time>2023-03-24T21:05:09.503Z</time>
      </trkpt>
      <trkpt lat="48.57947" lon="-2.82756">
        <ele>77.513684</ele>
        <time>2023-03-24T21:05:14.566Z</time>
      </trkpt>
      <trkpt lat="48.57865" lon="-2.82764">
        <ele>77.269558</ele>
        <time>2023-03-24T21:05:28.141Z</time>
      </trkpt>
      <trkpt lat="48.5788" lon="-2.82716">
        <ele>76.991594</ele>
        <time>2023-03-24T21:05:33.959Z</time>
      </trkpt>
      <trkpt lat="48.57889" lon="-2.82661">
        <ele>76.690776</ele>
        <time>2023-03-24T21:05:40.303Z</time>
      </trkpt>
      <trkpt lat="48.57887" lon="-2.82649">
        <ele>76.629068</ele>
        <time>2023-03-24T21:05:41.581Z</time>
      </trkpt>
      <trkpt lat="48.57871" lon="-2.82599">
        <ele>76.335463</ele>
        <time>2023-03-24T21:05:47.910Z</time>
      </trkpt>
      <trkpt lat="48.57835" lon="-2.82651">
        <ele>75.992238</ele>
        <time>2023-03-24T21:05:56.794Z</time>
      </trkpt>
      <trkpt lat="48.57828" lon="-2.82654">
        <ele>76.044848</ele>
        <time>2023-03-24T21:05:58.318Z</time>
      </trkpt>
      <trkpt lat="48.57824" lon="-2.82653">
        <ele>76.080852</ele>
        <time>2023-03-24T21:05:59.195Z</time>
      </trkpt>
      <trkpt lat="48.57801" lon="-2.8263">
        <ele>76.279155</ele>
        <time>2023-03-24T21:06:05.229Z</time>
      </trkpt>
      <trkpt lat="48.57763" lon="-2.82609">
        <ele>76.574471</ele>
        <time>2023-03-24T21:06:14.915Z</time>
      </trkpt>
      <trkpt lat="48.57726" lon="-2.82569">
        <ele>76.909287</ele>
        <time>2023-03-24T21:06:26.158Z</time>
      </trkpt>
      <trkpt lat="48.5765" lon="-2.82485">
        <ele>77.652457</ele>
        <time>2023-03-24T21:06:49.900Z</time>
      </trkpt>
      <trkpt lat="48.57617" lon="-2.8245">
        <ele>77.998682</ele>
        <time>2023-03-24T21:07:00.179Z</time>
      </trkpt>
      <trkpt lat="48.57585" lon="-2.8243">
        <ele>78.289557</ele>
        <time>2023-03-24T21:07:08.273Z</time>
      </trkpt>
      <trkpt lat="48.57573" lon="-2.82428">
        <ele>78.39223</ele>
        <time>2023-03-24T21:07:10.945Z</time>
      </trkpt>
      <trkpt lat="48.57538" lon="-2.82423">
        <ele>78.693984</ele>
        <time>2023-03-24T21:07:19.300Z</time>
      </trkpt>
      <trkpt lat="48.57502" lon="-2.82401">
        <ele>79.161757</ele>
        <time>2023-03-24T21:07:28.642Z</time>
      </trkpt>
      <trkpt lat="48.57505" lon="-2.82464">
        <ele>79.75844</ele>
        <time>2023-03-24T21:07:38.509Z</time>
      </trkpt>
      <trkpt lat="48.57515" lon="-2.82531">
        <ele>80.396515</ele>
        <time>2023-03-24T21:07:49.722Z</time>
      </trkpt>
      <trkpt lat="48.57514" lon="-2.82542">
        <ele>80.503259</ele>
        <time>2023-03-24T21:07:51.754Z</time>
      </trkpt>
      <trkpt lat="48.57501" lon="-2.82534">
        <ele>80.702764</ele>
        <time>2023-03-24T21:07:56.103Z</time>
      </trkpt>
      <trkpt lat="48.5738" lon="-2.82484">
        <ele>83.688263</ele>
        <time>2023-03-24T21:08:35.591Z</time>
      </trkpt>
      <trkpt lat="48.57321" lon="-2.82463">
        <ele>85.486211</ele>
        <time>2023-03-24T21:08:57.724Z</time>
      </trkpt>
      <trkpt lat="48.57239" lon="-2.82454">
        <ele>88.499055</ele>
        <time>2023-03-24T21:09:29.627Z</time>
      </trkpt>
      <trkpt lat="48.57116" lon="-2.82442">
        <ele>93.964356</ele>
        <time>2023-03-24T21:10:22.648Z</time>
      </trkpt>
      <trkpt lat="48.56991" lon="-2.82429">
        <ele>99.028186</ele>
        <time>2023-03-24T21:11:14.943Z</time>
      </trkpt>
      <trkpt lat="48.56931" lon="-2.82426">
        <ele>101.387411</ele>
        <time>2023-03-24T21:11:36.240Z</time>
      </trkpt>
      <trkpt lat="48.56899" lon="-2.8242">
        <ele>102.343512</ele>
        <time>2023-03-24T21:11:47.578Z</time>
      </trkpt>
      <trkpt lat="48.56883" lon="-2.82412">
        <ele>102.74832</ele>
        <time>2023-03-24T21:11:53.512Z</time>
      </trkpt>
      <trkpt lat="48.56799" lon="-2.82332">
        <ele>105.114389</ele>
        <time>2023-03-24T21:12:23.065Z</time>
      </trkpt>
      <trkpt lat="48.56792" lon="-2.8233">
        <ele>105.284744</ele>
        <time>2023-03-24T21:12:25.611Z</time>
      </trkpt>
      <trkpt lat="48.56793" lon="-2.82321">
        <ele>105.426495</ele>
        <time>2023-03-24T21:12:26.966Z</time>
      </trkpt>
      <trkpt lat="48.56816" lon="-2.82262">
        <ele>106.448462</ele>
        <time>2023-03-24T21:12:40.201Z</time>
      </trkpt>
      <trkpt lat="48.56813" lon="-2.82252">
        <ele>106.587715</ele>
        <time>2023-03-24T21:12:42.740Z</time>
      </trkpt>
      <trkpt lat="48.56791" lon="-2.82207">
        <ele>107.331513</ele>
        <time>2023-03-24T21:12:54.167Z</time>
      </trkpt>
      <trkpt lat="48.5674" lon="-2.8212">
        <ele>108.884366</ele>
        <time>2023-03-24T21:13:17.792Z</time>
      </trkpt>
      <trkpt lat="48.56722" lon="-2.82099">
        <ele>109.341673</ele>
        <time>2023-03-24T21:13:24.517Z</time>
      </trkpt>
      <trkpt lat="48.56711" lon="-2.82089">
        <ele>109.605998</ele>
        <time>2023-03-24T21:13:30.259Z</time>
      </trkpt>
      <trkpt lat="48.56694" lon="-2.82075">
        <ele>109.896074</ele>
        <time>2023-03-24T21:13:38.360Z</time>
      </trkpt>
      <trkpt lat="48.56648" lon="-2.82045">
        <ele>110.521742</ele>
        <time>2023-03-24T21:13:57.551Z</time>
      </trkpt>
      <trkpt lat="48.56607" lon="-2.82021">
        <ele>111.088623</ele>
        <time>2023-03-24T21:14:09.553Z</time>
      </trkpt>
      <trkpt lat="48.56599" lon="-2.82014">
        <ele>111.202215</ele>
        <time>2023-03-24T21:14:12.106Z</time>
      </trkpt>
      <trkpt lat="48.56586" lon="-2.82018">
        <ele>111.366365</ele>
        <time>2023-03-24T21:14:15.707Z</time>
      </trkpt>
      <trkpt lat="48.56569" lon="-2.82016">
        <ele>111.586021</ele>
        <time>2023-03-24T21:14:19.759Z</time>
      </trkpt>
      <trkpt lat="48.56533" lon="-2.81995">
        <ele>112.01154</ele>
        <time>2023-03-24T21:14:28.898Z</time>
      </trkpt>
      <trkpt lat="48.56512" lon="-2.82055">
        <ele>112.090961</ele>
        <time>2023-03-24T21:14:39.423Z</time>
      </trkpt>
      <trkpt lat="48.56495" lon="-2.82087">
        <ele>112.139037</ele>
        <time>2023-03-24T21:14:45.469Z</time>
      </trkpt>
      <trkpt lat="48.56492" lon="-2.82084">
        <ele>112.145032</ele>
        <time>2023-03-24T21:14:46.133Z</time>
      </trkpt>
      <trkpt lat="48.56465" lon="-2.82082">
        <ele>112.192659</ele>
        <time>2023-03-24T21:14:51.700Z</time>
      </trkpt>
      <trkpt lat="48.56443" lon="-2.82087">
        <ele>112.233018</ele>
        <time>2023-03-24T21:14:56.004Z</time>
      </trkpt>
      <trkpt lat="48.56369" lon="-2.82134">
        <ele>112.015311</ele>
        <time>2023-03-24T21:15:10.727Z</time>
      </trkpt>
      <trkpt lat="48.56357" lon="-2.82113">
        <ele>111.843265</ele>
        <time>2023-03-24T21:15:14.020Z</time>
      </trkpt>
      <trkpt lat="48.56316" lon="-2.82054">
        <ele>111.303767</ele>
        <time>2023-03-24T21:15:24.480Z</time>
      </trkpt>
      <trkpt lat="48.5626" lon="-2.81984">
        <ele>110.616842</ele>
        <time>2023-03-24T21:15:36.965Z</time>
      </trkpt>
      <trkpt lat="48.56339" lon="-2.81778">
        <ele>110.611797</ele>
        <time>2023-03-24T21:16:01.867Z</time>
      </trkpt>
      <trkpt lat="48.56359" lon="-2.81645">
        <ele>110.611797</ele>
        <time>2023-03-24T21:16:16.836Z</time>
      </trkpt>
    </trkseg>
  </trk>
</gpx>